<?xml version="1.0" encoding="UTF-8" standalone="no" ?>
<gpx xmlns="http://www.topografix.com/GPX/1/1" xmlns:xsi="http://www.w3.org/2001/XMLSchema-instance" xsi:schemaLocation="http://www.topografix.com/GPX/1/1 http://www.topografix.com/GPX/1/1/gpx.xsd" version="1.1" creator="VisuGPX - https://www.visugpx.com">
  <metadata>
    <name>Marche nordique Fixey - Groupe du mercredi 03/04</name>
    <desc><![CDATA[Avec Maxence, Franck nous ayant lâché pour aller ...pouponner son petit Léo !]]></desc>
  </metadata>
  <trk>
    <name><![CDATA[Fixey Groupe Mercredi]]></name>
    <desc><![CDATA[]]></desc>
    <trkseg>
      <trkpt lat="47.24995" lon="4.96874">
        <ele>354.1</ele>
        <time>2013-04-03T06:26:28.116Z</time>
      </trkpt>
      <trkpt lat="47.24995" lon="4.96873">
        <ele>353.8</ele>
        <time>2013-04-03T06:26:29.108Z</time>
      </trkpt>
      <trkpt lat="47.24997" lon="4.96866">
        <ele>366.6</ele>
        <time>2013-04-03T06:26:29.187Z</time>
      </trkpt>
      <trkpt lat="47.24997" lon="4.96872">
        <ele>371.3</ele>
        <time>2013-04-03T06:29:54.000Z</time>
      </trkpt>
      <trkpt lat="47.24997" lon="4.96873">
        <ele>371.5</ele>
        <time>2013-04-03T06:29:55.000Z</time>
      </trkpt>
      <trkpt lat="47.24997" lon="4.96879">
        <ele>376.6</ele>
        <time>2013-04-03T06:34:18.000Z</time>
      </trkpt>
      <trkpt lat="47.24997" lon="4.96879">
        <ele>376.6</ele>
        <time>2013-04-03T06:34:19.000Z</time>
      </trkpt>
      <trkpt lat="47.24999" lon="4.96874">
        <ele>378.9</ele>
        <time>2013-04-03T06:36:08.000Z</time>
      </trkpt>
      <trkpt lat="47.24999" lon="4.96873">
        <ele>378.9</ele>
        <time>2013-04-03T06:36:09.000Z</time>
      </trkpt>
      <trkpt lat="47.25001" lon="4.96867">
        <ele>379</ele>
        <time>2013-04-03T06:36:13.000Z</time>
      </trkpt>
      <trkpt lat="47.25001" lon="4.96865">
        <ele>379</ele>
        <time>2013-04-03T06:36:14.000Z</time>
      </trkpt>
      <trkpt lat="47.25002" lon="4.96859">
        <ele>379.4</ele>
        <time>2013-04-03T06:36:18.000Z</time>
      </trkpt>
      <trkpt lat="47.25002" lon="4.96857">
        <ele>379.5</ele>
        <time>2013-04-03T06:36:19.000Z</time>
      </trkpt>
      <trkpt lat="47.25003" lon="4.96851">
        <ele>379.7</ele>
        <time>2013-04-03T06:36:23.000Z</time>
      </trkpt>
      <trkpt lat="47.25003" lon="4.9685">
        <ele>379.9</ele>
        <time>2013-04-03T06:36:24.000Z</time>
      </trkpt>
      <trkpt lat="47.25004" lon="4.96845">
        <ele>380.2</ele>
        <time>2013-04-03T06:36:28.000Z</time>
      </trkpt>
      <trkpt lat="47.25005" lon="4.96843">
        <ele>380.3</ele>
        <time>2013-04-03T06:36:29.000Z</time>
      </trkpt>
      <trkpt lat="47.25005" lon="4.96837">
        <ele>381.7</ele>
        <time>2013-04-03T06:36:33.000Z</time>
      </trkpt>
      <trkpt lat="47.25005" lon="4.96836">
        <ele>382</ele>
        <time>2013-04-03T06:36:34.000Z</time>
      </trkpt>
      <trkpt lat="47.25005" lon="4.9683">
        <ele>381.9</ele>
        <time>2013-04-03T06:36:40.000Z</time>
      </trkpt>
      <trkpt lat="47.25005" lon="4.96829">
        <ele>381.7</ele>
        <time>2013-04-03T06:36:41.000Z</time>
      </trkpt>
      <trkpt lat="47.25003" lon="4.96824">
        <ele>382.6</ele>
        <time>2013-04-03T06:36:44.000Z</time>
      </trkpt>
      <trkpt lat="47.25002" lon="4.96822">
        <ele>383.1</ele>
        <time>2013-04-03T06:36:45.000Z</time>
      </trkpt>
      <trkpt lat="47.25" lon="4.96817">
        <ele>382.5</ele>
        <time>2013-04-03T06:36:48.000Z</time>
      </trkpt>
      <trkpt lat="47.24999" lon="4.96816">
        <ele>383.1</ele>
        <time>2013-04-03T06:36:49.000Z</time>
      </trkpt>
      <trkpt lat="47.24996" lon="4.96811">
        <ele>383.3</ele>
        <time>2013-04-03T06:36:52.000Z</time>
      </trkpt>
      <trkpt lat="47.24995" lon="4.96809">
        <ele>384.1</ele>
        <time>2013-04-03T06:36:53.000Z</time>
      </trkpt>
      <trkpt lat="47.24993" lon="4.96804">
        <ele>385.6</ele>
        <time>2013-04-03T06:36:56.000Z</time>
      </trkpt>
      <trkpt lat="47.24992" lon="4.96803">
        <ele>385.3</ele>
        <time>2013-04-03T06:36:57.000Z</time>
      </trkpt>
      <trkpt lat="47.2499" lon="4.96798">
        <ele>385.1</ele>
        <time>2013-04-03T06:37:00.000Z</time>
      </trkpt>
      <trkpt lat="47.24989" lon="4.96796">
        <ele>385.4</ele>
        <time>2013-04-03T06:37:01.000Z</time>
      </trkpt>
      <trkpt lat="47.24987" lon="4.96792">
        <ele>384.3</ele>
        <time>2013-04-03T06:37:04.000Z</time>
      </trkpt>
      <trkpt lat="47.24986" lon="4.96791">
        <ele>384</ele>
        <time>2013-04-03T06:37:05.000Z</time>
      </trkpt>
      <trkpt lat="47.24983" lon="4.96788">
        <ele>384.1</ele>
        <time>2013-04-03T06:37:08.000Z</time>
      </trkpt>
      <trkpt lat="47.24982" lon="4.96787">
        <ele>383.5</ele>
        <time>2013-04-03T06:37:09.000Z</time>
      </trkpt>
      <trkpt lat="47.24979" lon="4.96783">
        <ele>382.9</ele>
        <time>2013-04-03T06:37:13.000Z</time>
      </trkpt>
      <trkpt lat="47.24978" lon="4.96782">
        <ele>383.6</ele>
        <time>2013-04-03T06:37:14.000Z</time>
      </trkpt>
      <trkpt lat="47.24975" lon="4.96778">
        <ele>378.7</ele>
        <time>2013-04-03T06:37:17.000Z</time>
      </trkpt>
      <trkpt lat="47.24974" lon="4.96777">
        <ele>376.7</ele>
        <time>2013-04-03T06:37:18.000Z</time>
      </trkpt>
      <trkpt lat="47.2497" lon="4.96773">
        <ele>376</ele>
        <time>2013-04-03T06:37:23.000Z</time>
      </trkpt>
      <trkpt lat="47.2497" lon="4.96771">
        <ele>378.5</ele>
        <time>2013-04-03T06:37:25.125Z</time>
      </trkpt>
      <trkpt lat="47.24968" lon="4.96767">
        <ele>382.7</ele>
        <time>2013-04-03T06:37:28.000Z</time>
      </trkpt>
      <trkpt lat="47.24967" lon="4.96765">
        <ele>382.3</ele>
        <time>2013-04-03T06:37:29.000Z</time>
      </trkpt>
      <trkpt lat="47.24965" lon="4.9676">
        <ele>382.1</ele>
        <time>2013-04-03T06:37:31.000Z</time>
      </trkpt>
      <trkpt lat="47.24965" lon="4.96758">
        <ele>382.2</ele>
        <time>2013-04-03T06:37:32.000Z</time>
      </trkpt>
      <trkpt lat="47.24963" lon="4.96753">
        <ele>385.7</ele>
        <time>2013-04-03T06:37:35.000Z</time>
      </trkpt>
      <trkpt lat="47.24962" lon="4.96752">
        <ele>385.7</ele>
        <time>2013-04-03T06:37:36.000Z</time>
      </trkpt>
      <trkpt lat="47.24961" lon="4.96747">
        <ele>384.9</ele>
        <time>2013-04-03T06:37:40.000Z</time>
      </trkpt>
      <trkpt lat="47.2496" lon="4.96746">
        <ele>384.8</ele>
        <time>2013-04-03T06:37:41.000Z</time>
      </trkpt>
      <trkpt lat="47.24959" lon="4.96741">
        <ele>385.6</ele>
        <time>2013-04-03T06:37:44.000Z</time>
      </trkpt>
      <trkpt lat="47.24959" lon="4.96739">
        <ele>383.9</ele>
        <time>2013-04-03T06:37:45.000Z</time>
      </trkpt>
      <trkpt lat="47.24957" lon="4.96733">
        <ele>383.7</ele>
        <time>2013-04-03T06:37:49.000Z</time>
      </trkpt>
      <trkpt lat="47.24957" lon="4.96732">
        <ele>383.6</ele>
        <time>2013-04-03T06:37:50.000Z</time>
      </trkpt>
      <trkpt lat="47.24957" lon="4.96727">
        <ele>383.1</ele>
        <time>2013-04-03T06:37:53.000Z</time>
      </trkpt>
      <trkpt lat="47.24957" lon="4.96724">
        <ele>382.7</ele>
        <time>2013-04-03T06:37:54.000Z</time>
      </trkpt>
      <trkpt lat="47.24957" lon="4.96718">
        <ele>383.1</ele>
        <time>2013-04-03T06:37:56.000Z</time>
      </trkpt>
      <trkpt lat="47.24957" lon="4.96717">
        <ele>383.4</ele>
        <time>2013-04-03T06:37:57.000Z</time>
      </trkpt>
      <trkpt lat="47.24957" lon="4.96711">
        <ele>381.9</ele>
        <time>2013-04-03T06:38:01.000Z</time>
      </trkpt>
      <trkpt lat="47.24957" lon="4.96709">
        <ele>381.5</ele>
        <time>2013-04-03T06:38:02.000Z</time>
      </trkpt>
      <trkpt lat="47.24957" lon="4.96703">
        <ele>381</ele>
        <time>2013-04-03T06:38:06.000Z</time>
      </trkpt>
      <trkpt lat="47.24957" lon="4.96702">
        <ele>380.9</ele>
        <time>2013-04-03T06:38:07.000Z</time>
      </trkpt>
      <trkpt lat="47.24956" lon="4.96696">
        <ele>381</ele>
        <time>2013-04-03T06:38:12.000Z</time>
      </trkpt>
      <trkpt lat="47.24957" lon="4.96695">
        <ele>381.7</ele>
        <time>2013-04-03T06:38:13.000Z</time>
      </trkpt>
      <trkpt lat="47.24956" lon="4.96689">
        <ele>384.2</ele>
        <time>2013-04-03T06:38:16.000Z</time>
      </trkpt>
      <trkpt lat="47.24956" lon="4.96687">
        <ele>384.3</ele>
        <time>2013-04-03T06:38:17.000Z</time>
      </trkpt>
      <trkpt lat="47.24955" lon="4.96682">
        <ele>384.8</ele>
        <time>2013-04-03T06:38:19.000Z</time>
      </trkpt>
      <trkpt lat="47.24954" lon="4.96679">
        <ele>385</ele>
        <time>2013-04-03T06:38:20.000Z</time>
      </trkpt>
      <trkpt lat="47.24953" lon="4.96674">
        <ele>384.7</ele>
        <time>2013-04-03T06:38:23.000Z</time>
      </trkpt>
      <trkpt lat="47.24953" lon="4.96672">
        <ele>385</ele>
        <time>2013-04-03T06:38:24.000Z</time>
      </trkpt>
      <trkpt lat="47.24952" lon="4.96666">
        <ele>386.3</ele>
        <time>2013-04-03T06:38:28.000Z</time>
      </trkpt>
      <trkpt lat="47.24951" lon="4.96664">
        <ele>386.3</ele>
        <time>2013-04-03T06:38:29.000Z</time>
      </trkpt>
      <trkpt lat="47.24951" lon="4.96659">
        <ele>389.8</ele>
        <time>2013-04-03T06:38:33.000Z</time>
      </trkpt>
      <trkpt lat="47.2495" lon="4.96657">
        <ele>389.3</ele>
        <time>2013-04-03T06:38:34.000Z</time>
      </trkpt>
      <trkpt lat="47.24948" lon="4.96652">
        <ele>391.2</ele>
        <time>2013-04-03T06:38:37.000Z</time>
      </trkpt>
      <trkpt lat="47.24947" lon="4.9665">
        <ele>391.9</ele>
        <time>2013-04-03T06:38:38.000Z</time>
      </trkpt>
      <trkpt lat="47.24945" lon="4.96646">
        <ele>392.6</ele>
        <time>2013-04-03T06:38:40.000Z</time>
      </trkpt>
      <trkpt lat="47.24944" lon="4.96644">
        <ele>392.8</ele>
        <time>2013-04-03T06:38:41.000Z</time>
      </trkpt>
      <trkpt lat="47.24941" lon="4.96641">
        <ele>393.7</ele>
        <time>2013-04-03T06:38:43.000Z</time>
      </trkpt>
      <trkpt lat="47.2494" lon="4.96639">
        <ele>394.1</ele>
        <time>2013-04-03T06:38:44.000Z</time>
      </trkpt>
      <trkpt lat="47.24937" lon="4.96636">
        <ele>394</ele>
        <time>2013-04-03T06:38:48.000Z</time>
      </trkpt>
      <trkpt lat="47.24936" lon="4.96635">
        <ele>393.7</ele>
        <time>2013-04-03T06:38:49.000Z</time>
      </trkpt>
      <trkpt lat="47.24933" lon="4.96631">
        <ele>397.8</ele>
        <time>2013-04-03T06:38:52.000Z</time>
      </trkpt>
      <trkpt lat="47.24932" lon="4.9663">
        <ele>398.9</ele>
        <time>2013-04-03T06:38:53.000Z</time>
      </trkpt>
      <trkpt lat="47.24929" lon="4.96627">
        <ele>397.7</ele>
        <time>2013-04-03T06:38:56.000Z</time>
      </trkpt>
      <trkpt lat="47.24928" lon="4.96626">
        <ele>396.7</ele>
        <time>2013-04-03T06:38:57.000Z</time>
      </trkpt>
      <trkpt lat="47.24925" lon="4.96622">
        <ele>395.7</ele>
        <time>2013-04-03T06:39:00.000Z</time>
      </trkpt>
      <trkpt lat="47.24924" lon="4.96621">
        <ele>394.8</ele>
        <time>2013-04-03T06:39:01.000Z</time>
      </trkpt>
      <trkpt lat="47.2492" lon="4.96617">
        <ele>394.4</ele>
        <time>2013-04-03T06:39:04.000Z</time>
      </trkpt>
      <trkpt lat="47.24919" lon="4.96616">
        <ele>394.5</ele>
        <time>2013-04-03T06:39:05.000Z</time>
      </trkpt>
      <trkpt lat="47.24916" lon="4.96613">
        <ele>396.3</ele>
        <time>2013-04-03T06:39:07.000Z</time>
      </trkpt>
      <trkpt lat="47.24915" lon="4.96611">
        <ele>396.3</ele>
        <time>2013-04-03T06:39:08.000Z</time>
      </trkpt>
      <trkpt lat="47.24911" lon="4.96607">
        <ele>395.6</ele>
        <time>2013-04-03T06:39:11.000Z</time>
      </trkpt>
      <trkpt lat="47.24911" lon="4.96606">
        <ele>396</ele>
        <time>2013-04-03T06:39:12.000Z</time>
      </trkpt>
      <trkpt lat="47.2491" lon="4.96599">
        <ele>393.1</ele>
        <time>2013-04-03T06:39:18.000Z</time>
      </trkpt>
      <trkpt lat="47.2491" lon="4.96598">
        <ele>392.6</ele>
        <time>2013-04-03T06:39:19.000Z</time>
      </trkpt>
      <trkpt lat="47.24909" lon="4.96591">
        <ele>393.2</ele>
        <time>2013-04-03T06:39:24.000Z</time>
      </trkpt>
      <trkpt lat="47.24909" lon="4.96589">
        <ele>393.7</ele>
        <time>2013-04-03T06:39:25.000Z</time>
      </trkpt>
      <trkpt lat="47.24908" lon="4.96583">
        <ele>393.1</ele>
        <time>2013-04-03T06:39:28.000Z</time>
      </trkpt>
      <trkpt lat="47.24908" lon="4.96581">
        <ele>393.6</ele>
        <time>2013-04-03T06:39:29.000Z</time>
      </trkpt>
      <trkpt lat="47.24907" lon="4.96576">
        <ele>392.3</ele>
        <time>2013-04-03T06:39:32.000Z</time>
      </trkpt>
      <trkpt lat="47.24906" lon="4.96575">
        <ele>392.3</ele>
        <time>2013-04-03T06:39:33.000Z</time>
      </trkpt>
      <trkpt lat="47.24905" lon="4.9657">
        <ele>394</ele>
        <time>2013-04-03T06:39:36.000Z</time>
      </trkpt>
      <trkpt lat="47.24904" lon="4.96569">
        <ele>393.8</ele>
        <time>2013-04-03T06:39:37.000Z</time>
      </trkpt>
      <trkpt lat="47.24902" lon="4.96565">
        <ele>394.6</ele>
        <time>2013-04-03T06:39:40.000Z</time>
      </trkpt>
      <trkpt lat="47.24902" lon="4.96563">
        <ele>394.8</ele>
        <time>2013-04-03T06:39:41.000Z</time>
      </trkpt>
      <trkpt lat="47.249" lon="4.96559">
        <ele>393.9</ele>
        <time>2013-04-03T06:39:44.000Z</time>
      </trkpt>
      <trkpt lat="47.24899" lon="4.96557">
        <ele>395.5</ele>
        <time>2013-04-03T06:39:45.000Z</time>
      </trkpt>
      <trkpt lat="47.24896" lon="4.96553">
        <ele>396.2</ele>
        <time>2013-04-03T06:39:47.000Z</time>
      </trkpt>
      <trkpt lat="47.24895" lon="4.96551">
        <ele>395.1</ele>
        <time>2013-04-03T06:39:48.000Z</time>
      </trkpt>
      <trkpt lat="47.24893" lon="4.96547">
        <ele>397</ele>
        <time>2013-04-03T06:39:50.000Z</time>
      </trkpt>
      <trkpt lat="47.24892" lon="4.96545">
        <ele>396.6</ele>
        <time>2013-04-03T06:39:51.000Z</time>
      </trkpt>
      <trkpt lat="47.24889" lon="4.9654">
        <ele>396.1</ele>
        <time>2013-04-03T06:39:55.000Z</time>
      </trkpt>
      <trkpt lat="47.24889" lon="4.96539">
        <ele>396.3</ele>
        <time>2013-04-03T06:39:56.000Z</time>
      </trkpt>
      <trkpt lat="47.24887" lon="4.96535">
        <ele>396.1</ele>
        <time>2013-04-03T06:40:01.000Z</time>
      </trkpt>
      <trkpt lat="47.24886" lon="4.96534">
        <ele>397.5</ele>
        <time>2013-04-03T06:40:02.000Z</time>
      </trkpt>
      <trkpt lat="47.24885" lon="4.96529">
        <ele>398.3</ele>
        <time>2013-04-03T06:40:05.000Z</time>
      </trkpt>
      <trkpt lat="47.24885" lon="4.96527">
        <ele>398.6</ele>
        <time>2013-04-03T06:40:06.000Z</time>
      </trkpt>
      <trkpt lat="47.24883" lon="4.96521">
        <ele>395.8</ele>
        <time>2013-04-03T06:40:09.000Z</time>
      </trkpt>
      <trkpt lat="47.24882" lon="4.9652">
        <ele>396.3</ele>
        <time>2013-04-03T06:40:10.000Z</time>
      </trkpt>
      <trkpt lat="47.24881" lon="4.96515">
        <ele>394.4</ele>
        <time>2013-04-03T06:40:13.000Z</time>
      </trkpt>
      <trkpt lat="47.2488" lon="4.96513">
        <ele>394.6</ele>
        <time>2013-04-03T06:40:14.000Z</time>
      </trkpt>
      <trkpt lat="47.24878" lon="4.96508">
        <ele>395.7</ele>
        <time>2013-04-03T06:40:18.000Z</time>
      </trkpt>
      <trkpt lat="47.24878" lon="4.96506">
        <ele>395.5</ele>
        <time>2013-04-03T06:40:19.000Z</time>
      </trkpt>
      <trkpt lat="47.24878" lon="4.965">
        <ele>397.3</ele>
        <time>2013-04-03T06:40:23.000Z</time>
      </trkpt>
      <trkpt lat="47.24878" lon="4.96499">
        <ele>397.8</ele>
        <time>2013-04-03T06:40:24.000Z</time>
      </trkpt>
      <trkpt lat="47.24878" lon="4.96493">
        <ele>398.3</ele>
        <time>2013-04-03T06:40:27.000Z</time>
      </trkpt>
      <trkpt lat="47.24878" lon="4.96492">
        <ele>398.5</ele>
        <time>2013-04-03T06:40:28.000Z</time>
      </trkpt>
      <trkpt lat="47.24877" lon="4.96485">
        <ele>396.8</ele>
        <time>2013-04-03T06:40:32.000Z</time>
      </trkpt>
      <trkpt lat="47.24876" lon="4.96484">
        <ele>397</ele>
        <time>2013-04-03T06:40:33.000Z</time>
      </trkpt>
      <trkpt lat="47.24874" lon="4.9648">
        <ele>400.5</ele>
        <time>2013-04-03T06:40:35.000Z</time>
      </trkpt>
      <trkpt lat="47.24873" lon="4.96478">
        <ele>399.4</ele>
        <time>2013-04-03T06:40:36.000Z</time>
      </trkpt>
      <trkpt lat="47.24872" lon="4.96473">
        <ele>399.5</ele>
        <time>2013-04-03T06:40:38.000Z</time>
      </trkpt>
      <trkpt lat="47.24871" lon="4.96471">
        <ele>400.3</ele>
        <time>2013-04-03T06:40:39.000Z</time>
      </trkpt>
      <trkpt lat="47.2487" lon="4.96466">
        <ele>400.2</ele>
        <time>2013-04-03T06:40:42.000Z</time>
      </trkpt>
      <trkpt lat="47.2487" lon="4.96464">
        <ele>400.2</ele>
        <time>2013-04-03T06:40:43.000Z</time>
      </trkpt>
      <trkpt lat="47.24869" lon="4.96459">
        <ele>399.9</ele>
        <time>2013-04-03T06:40:46.000Z</time>
      </trkpt>
      <trkpt lat="47.24869" lon="4.96457">
        <ele>400.4</ele>
        <time>2013-04-03T06:40:47.000Z</time>
      </trkpt>
      <trkpt lat="47.2487" lon="4.96451">
        <ele>401.3</ele>
        <time>2013-04-03T06:40:50.000Z</time>
      </trkpt>
      <trkpt lat="47.2487" lon="4.96449">
        <ele>401.3</ele>
        <time>2013-04-03T06:40:51.000Z</time>
      </trkpt>
      <trkpt lat="47.24871" lon="4.96443">
        <ele>400.9</ele>
        <time>2013-04-03T06:40:54.000Z</time>
      </trkpt>
      <trkpt lat="47.24871" lon="4.96442">
        <ele>401.7</ele>
        <time>2013-04-03T06:40:55.000Z</time>
      </trkpt>
      <trkpt lat="47.24873" lon="4.96437">
        <ele>403.8</ele>
        <time>2013-04-03T06:40:58.000Z</time>
      </trkpt>
      <trkpt lat="47.24874" lon="4.96435">
        <ele>404.9</ele>
        <time>2013-04-03T06:40:59.000Z</time>
      </trkpt>
      <trkpt lat="47.24874" lon="4.96429">
        <ele>404.6</ele>
        <time>2013-04-03T06:41:05.000Z</time>
      </trkpt>
      <trkpt lat="47.24874" lon="4.96427">
        <ele>404.8</ele>
        <time>2013-04-03T06:41:06.000Z</time>
      </trkpt>
      <trkpt lat="47.24875" lon="4.96421">
        <ele>407</ele>
        <time>2013-04-03T06:41:09.000Z</time>
      </trkpt>
      <trkpt lat="47.24875" lon="4.9642">
        <ele>408.1</ele>
        <time>2013-04-03T06:41:10.000Z</time>
      </trkpt>
      <trkpt lat="47.24874" lon="4.96415">
        <ele>413.7</ele>
        <time>2013-04-03T06:41:13.000Z</time>
      </trkpt>
      <trkpt lat="47.24874" lon="4.96413">
        <ele>414.8</ele>
        <time>2013-04-03T06:41:14.000Z</time>
      </trkpt>
      <trkpt lat="47.24874" lon="4.96408">
        <ele>417.2</ele>
        <time>2013-04-03T06:41:17.000Z</time>
      </trkpt>
      <trkpt lat="47.24874" lon="4.96406">
        <ele>418.2</ele>
        <time>2013-04-03T06:41:18.000Z</time>
      </trkpt>
      <trkpt lat="47.24875" lon="4.96399">
        <ele>417.9</ele>
        <time>2013-04-03T06:41:21.000Z</time>
      </trkpt>
      <trkpt lat="47.24875" lon="4.96397">
        <ele>417.8</ele>
        <time>2013-04-03T06:41:22.000Z</time>
      </trkpt>
      <trkpt lat="47.24877" lon="4.96392">
        <ele>418.9</ele>
        <time>2013-04-03T06:41:25.000Z</time>
      </trkpt>
      <trkpt lat="47.24877" lon="4.96391">
        <ele>419.1</ele>
        <time>2013-04-03T06:41:26.000Z</time>
      </trkpt>
      <trkpt lat="47.2488" lon="4.96387">
        <ele>419.9</ele>
        <time>2013-04-03T06:41:29.000Z</time>
      </trkpt>
      <trkpt lat="47.2488" lon="4.96384">
        <ele>420.2</ele>
        <time>2013-04-03T06:41:30.000Z</time>
      </trkpt>
      <trkpt lat="47.24883" lon="4.96379">
        <ele>420.4</ele>
        <time>2013-04-03T06:41:33.000Z</time>
      </trkpt>
      <trkpt lat="47.24883" lon="4.96378">
        <ele>421</ele>
        <time>2013-04-03T06:41:34.000Z</time>
      </trkpt>
      <trkpt lat="47.24884" lon="4.96372">
        <ele>421.8</ele>
        <time>2013-04-03T06:41:38.000Z</time>
      </trkpt>
      <trkpt lat="47.24883" lon="4.9637">
        <ele>422</ele>
        <time>2013-04-03T06:41:39.000Z</time>
      </trkpt>
      <trkpt lat="47.2488" lon="4.96366">
        <ele>424.7</ele>
        <time>2013-04-03T06:41:43.000Z</time>
      </trkpt>
      <trkpt lat="47.24879" lon="4.96366">
        <ele>423.4</ele>
        <time>2013-04-03T06:41:44.000Z</time>
      </trkpt>
      <trkpt lat="47.24875" lon="4.96365">
        <ele>420.4</ele>
        <time>2013-04-03T06:41:47.000Z</time>
      </trkpt>
      <trkpt lat="47.24874" lon="4.96365">
        <ele>419.6</ele>
        <time>2013-04-03T06:41:48.000Z</time>
      </trkpt>
      <trkpt lat="47.24871" lon="4.96364">
        <ele>419.5</ele>
        <time>2013-04-03T06:41:51.000Z</time>
      </trkpt>
      <trkpt lat="47.24869" lon="4.96364">
        <ele>418.8</ele>
        <time>2013-04-03T06:41:52.000Z</time>
      </trkpt>
      <trkpt lat="47.24866" lon="4.96364">
        <ele>419.6</ele>
        <time>2013-04-03T06:41:54.000Z</time>
      </trkpt>
      <trkpt lat="47.24865" lon="4.96364">
        <ele>420.2</ele>
        <time>2013-04-03T06:41:55.000Z</time>
      </trkpt>
      <trkpt lat="47.2486" lon="4.96363">
        <ele>419.6</ele>
        <time>2013-04-03T06:41:58.000Z</time>
      </trkpt>
      <trkpt lat="47.24858" lon="4.96363">
        <ele>419.4</ele>
        <time>2013-04-03T06:41:59.000Z</time>
      </trkpt>
      <trkpt lat="47.24854" lon="4.96364">
        <ele>419.3</ele>
        <time>2013-04-03T06:42:01.000Z</time>
      </trkpt>
      <trkpt lat="47.24853" lon="4.96363">
        <ele>419.4</ele>
        <time>2013-04-03T06:42:02.000Z</time>
      </trkpt>
      <trkpt lat="47.24849" lon="4.96362">
        <ele>418.7</ele>
        <time>2013-04-03T06:42:05.000Z</time>
      </trkpt>
      <trkpt lat="47.24848" lon="4.96362">
        <ele>419</ele>
        <time>2013-04-03T06:42:06.000Z</time>
      </trkpt>
      <trkpt lat="47.24844" lon="4.96361">
        <ele>420.9</ele>
        <time>2013-04-03T06:42:09.000Z</time>
      </trkpt>
      <trkpt lat="47.24842" lon="4.9636">
        <ele>421.3</ele>
        <time>2013-04-03T06:42:10.000Z</time>
      </trkpt>
      <trkpt lat="47.24839" lon="4.96359">
        <ele>422.8</ele>
        <time>2013-04-03T06:42:12.000Z</time>
      </trkpt>
      <trkpt lat="47.24838" lon="4.96359">
        <ele>423</ele>
        <time>2013-04-03T06:42:13.000Z</time>
      </trkpt>
      <trkpt lat="47.24834" lon="4.96357">
        <ele>420.1</ele>
        <time>2013-04-03T06:42:16.000Z</time>
      </trkpt>
      <trkpt lat="47.24833" lon="4.96357">
        <ele>419</ele>
        <time>2013-04-03T06:42:17.000Z</time>
      </trkpt>
      <trkpt lat="47.24829" lon="4.96358">
        <ele>417.3</ele>
        <time>2013-04-03T06:42:21.000Z</time>
      </trkpt>
      <trkpt lat="47.24827" lon="4.96358">
        <ele>416.5</ele>
        <time>2013-04-03T06:42:22.000Z</time>
      </trkpt>
      <trkpt lat="47.24824" lon="4.96357">
        <ele>415.7</ele>
        <time>2013-04-03T06:42:24.000Z</time>
      </trkpt>
      <trkpt lat="47.24823" lon="4.96356">
        <ele>415.6</ele>
        <time>2013-04-03T06:42:25.000Z</time>
      </trkpt>
      <trkpt lat="47.24819" lon="4.96355">
        <ele>412.2</ele>
        <time>2013-04-03T06:42:28.000Z</time>
      </trkpt>
      <trkpt lat="47.24818" lon="4.96355">
        <ele>411.3</ele>
        <time>2013-04-03T06:42:29.000Z</time>
      </trkpt>
      <trkpt lat="47.24814" lon="4.96352">
        <ele>409.5</ele>
        <time>2013-04-03T06:42:33.000Z</time>
      </trkpt>
      <trkpt lat="47.24813" lon="4.96352">
        <ele>408.8</ele>
        <time>2013-04-03T06:42:34.000Z</time>
      </trkpt>
      <trkpt lat="47.24809" lon="4.96352">
        <ele>409.2</ele>
        <time>2013-04-03T06:42:38.000Z</time>
      </trkpt>
      <trkpt lat="47.24807" lon="4.96351">
        <ele>409.9</ele>
        <time>2013-04-03T06:42:39.000Z</time>
      </trkpt>
      <trkpt lat="47.24804" lon="4.9635">
        <ele>409.2</ele>
        <time>2013-04-03T06:42:41.000Z</time>
      </trkpt>
      <trkpt lat="47.24803" lon="4.96349">
        <ele>409.1</ele>
        <time>2013-04-03T06:42:42.000Z</time>
      </trkpt>
      <trkpt lat="47.24799" lon="4.96347">
        <ele>409</ele>
        <time>2013-04-03T06:42:45.000Z</time>
      </trkpt>
      <trkpt lat="47.24797" lon="4.96346">
        <ele>409.2</ele>
        <time>2013-04-03T06:42:46.000Z</time>
      </trkpt>
      <trkpt lat="47.24793" lon="4.96345">
        <ele>409.5</ele>
        <time>2013-04-03T06:42:49.000Z</time>
      </trkpt>
      <trkpt lat="47.24791" lon="4.96344">
        <ele>409.8</ele>
        <time>2013-04-03T06:42:50.000Z</time>
      </trkpt>
      <trkpt lat="47.24788" lon="4.96341">
        <ele>410.1</ele>
        <time>2013-04-03T06:42:52.000Z</time>
      </trkpt>
      <trkpt lat="47.24787" lon="4.9634">
        <ele>410.5</ele>
        <time>2013-04-03T06:42:53.000Z</time>
      </trkpt>
      <trkpt lat="47.24784" lon="4.96338">
        <ele>410.9</ele>
        <time>2013-04-03T06:42:55.000Z</time>
      </trkpt>
      <trkpt lat="47.24782" lon="4.96336">
        <ele>410.1</ele>
        <time>2013-04-03T06:42:56.000Z</time>
      </trkpt>
      <trkpt lat="47.24779" lon="4.96334">
        <ele>411.6</ele>
        <time>2013-04-03T06:42:59.000Z</time>
      </trkpt>
      <trkpt lat="47.24778" lon="4.96332">
        <ele>409.8</ele>
        <time>2013-04-03T06:43:00.000Z</time>
      </trkpt>
      <trkpt lat="47.24776" lon="4.96328">
        <ele>408.4</ele>
        <time>2013-04-03T06:43:03.000Z</time>
      </trkpt>
      <trkpt lat="47.24775" lon="4.96326">
        <ele>408.9</ele>
        <time>2013-04-03T06:43:04.000Z</time>
      </trkpt>
      <trkpt lat="47.24772" lon="4.96322">
        <ele>410.5</ele>
        <time>2013-04-03T06:43:07.000Z</time>
      </trkpt>
      <trkpt lat="47.24771" lon="4.96321">
        <ele>410.1</ele>
        <time>2013-04-03T06:43:08.000Z</time>
      </trkpt>
      <trkpt lat="47.2477" lon="4.96316">
        <ele>409.6</ele>
        <time>2013-04-03T06:43:15.000Z</time>
      </trkpt>
      <trkpt lat="47.24769" lon="4.96315">
        <ele>409</ele>
        <time>2013-04-03T06:43:16.000Z</time>
      </trkpt>
      <trkpt lat="47.24766" lon="4.96311">
        <ele>406.6</ele>
        <time>2013-04-03T06:43:19.000Z</time>
      </trkpt>
      <trkpt lat="47.24766" lon="4.9631">
        <ele>406.8</ele>
        <time>2013-04-03T06:43:20.000Z</time>
      </trkpt>
      <trkpt lat="47.24764" lon="4.96305">
        <ele>404</ele>
        <time>2013-04-03T06:43:25.000Z</time>
      </trkpt>
      <trkpt lat="47.24763" lon="4.96304">
        <ele>404.2</ele>
        <time>2013-04-03T06:43:26.000Z</time>
      </trkpt>
      <trkpt lat="47.24761" lon="4.963">
        <ele>403.4</ele>
        <time>2013-04-03T06:43:29.000Z</time>
      </trkpt>
      <trkpt lat="47.2476" lon="4.96298">
        <ele>403.6</ele>
        <time>2013-04-03T06:43:30.000Z</time>
      </trkpt>
      <trkpt lat="47.24757" lon="4.96294">
        <ele>403.9</ele>
        <time>2013-04-03T06:43:33.000Z</time>
      </trkpt>
      <trkpt lat="47.24757" lon="4.96292">
        <ele>404.3</ele>
        <time>2013-04-03T06:43:34.000Z</time>
      </trkpt>
      <trkpt lat="47.24754" lon="4.96288">
        <ele>404</ele>
        <time>2013-04-03T06:43:38.000Z</time>
      </trkpt>
      <trkpt lat="47.24754" lon="4.96287">
        <ele>403.2</ele>
        <time>2013-04-03T06:43:39.000Z</time>
      </trkpt>
      <trkpt lat="47.24751" lon="4.96284">
        <ele>403.4</ele>
        <time>2013-04-03T06:43:42.000Z</time>
      </trkpt>
      <trkpt lat="47.24749" lon="4.96284">
        <ele>403.1</ele>
        <time>2013-04-03T06:43:43.000Z</time>
      </trkpt>
      <trkpt lat="47.24746" lon="4.96281">
        <ele>399.7</ele>
        <time>2013-04-03T06:43:47.000Z</time>
      </trkpt>
      <trkpt lat="47.24745" lon="4.96281">
        <ele>399.3</ele>
        <time>2013-04-03T06:43:48.000Z</time>
      </trkpt>
      <trkpt lat="47.24741" lon="4.96279">
        <ele>398.3</ele>
        <time>2013-04-03T06:43:53.000Z</time>
      </trkpt>
      <trkpt lat="47.2474" lon="4.96279">
        <ele>399</ele>
        <time>2013-04-03T06:43:54.000Z</time>
      </trkpt>
      <trkpt lat="47.24737" lon="4.96276">
        <ele>400.9</ele>
        <time>2013-04-03T06:43:58.000Z</time>
      </trkpt>
      <trkpt lat="47.24736" lon="4.96275">
        <ele>399.1</ele>
        <time>2013-04-03T06:43:59.000Z</time>
      </trkpt>
      <trkpt lat="47.24733" lon="4.96271">
        <ele>396.5</ele>
        <time>2013-04-03T06:44:03.000Z</time>
      </trkpt>
      <trkpt lat="47.24732" lon="4.96271">
        <ele>395.4</ele>
        <time>2013-04-03T06:44:04.000Z</time>
      </trkpt>
      <trkpt lat="47.24728" lon="4.96268">
        <ele>388.9</ele>
        <time>2013-04-03T06:44:13.000Z</time>
      </trkpt>
      <trkpt lat="47.24727" lon="4.96268">
        <ele>387.4</ele>
        <time>2013-04-03T06:44:14.000Z</time>
      </trkpt>
      <trkpt lat="47.24724" lon="4.96264">
        <ele>388.7</ele>
        <time>2013-04-03T06:44:23.000Z</time>
      </trkpt>
      <trkpt lat="47.24724" lon="4.96263">
        <ele>387.8</ele>
        <time>2013-04-03T06:44:24.000Z</time>
      </trkpt>
      <trkpt lat="47.24721" lon="4.96259">
        <ele>385.6</ele>
        <time>2013-04-03T06:44:30.000Z</time>
      </trkpt>
      <trkpt lat="47.2472" lon="4.96258">
        <ele>385.6</ele>
        <time>2013-04-03T06:44:31.000Z</time>
      </trkpt>
      <trkpt lat="47.24717" lon="4.96256">
        <ele>386.8</ele>
        <time>2013-04-03T06:44:34.000Z</time>
      </trkpt>
      <trkpt lat="47.24715" lon="4.96255">
        <ele>385</ele>
        <time>2013-04-03T06:44:35.000Z</time>
      </trkpt>
      <trkpt lat="47.24712" lon="4.96252">
        <ele>385.1</ele>
        <time>2013-04-03T06:44:38.000Z</time>
      </trkpt>
      <trkpt lat="47.24711" lon="4.96251">
        <ele>384.7</ele>
        <time>2013-04-03T06:44:39.000Z</time>
      </trkpt>
      <trkpt lat="47.24708" lon="4.96246">
        <ele>383.7</ele>
        <time>2013-04-03T06:44:43.000Z</time>
      </trkpt>
      <trkpt lat="47.24706" lon="4.96245">
        <ele>383.4</ele>
        <time>2013-04-03T06:44:44.000Z</time>
      </trkpt>
      <trkpt lat="47.24703" lon="4.96241">
        <ele>383</ele>
        <time>2013-04-03T06:44:47.000Z</time>
      </trkpt>
      <trkpt lat="47.24702" lon="4.9624">
        <ele>383</ele>
        <time>2013-04-03T06:44:48.000Z</time>
      </trkpt>
      <trkpt lat="47.247" lon="4.96235">
        <ele>380.1</ele>
        <time>2013-04-03T06:44:54.000Z</time>
      </trkpt>
      <trkpt lat="47.24699" lon="4.96234">
        <ele>380</ele>
        <time>2013-04-03T06:44:55.000Z</time>
      </trkpt>
      <trkpt lat="47.24696" lon="4.96229">
        <ele>376.2</ele>
        <time>2013-04-03T06:45:00.000Z</time>
      </trkpt>
      <trkpt lat="47.24696" lon="4.96227">
        <ele>376.2</ele>
        <time>2013-04-03T06:45:01.000Z</time>
      </trkpt>
      <trkpt lat="47.24695" lon="4.96222">
        <ele>375.7</ele>
        <time>2013-04-03T06:45:04.000Z</time>
      </trkpt>
      <trkpt lat="47.24694" lon="4.96219">
        <ele>374.7</ele>
        <time>2013-04-03T06:45:05.000Z</time>
      </trkpt>
      <trkpt lat="47.24693" lon="4.96214">
        <ele>377.5</ele>
        <time>2013-04-03T06:45:08.000Z</time>
      </trkpt>
      <trkpt lat="47.24692" lon="4.96212">
        <ele>376.2</ele>
        <time>2013-04-03T06:45:09.000Z</time>
      </trkpt>
      <trkpt lat="47.24689" lon="4.96207">
        <ele>375.1</ele>
        <time>2013-04-03T06:45:12.000Z</time>
      </trkpt>
      <trkpt lat="47.24688" lon="4.96205">
        <ele>372.7</ele>
        <time>2013-04-03T06:45:13.000Z</time>
      </trkpt>
      <trkpt lat="47.24688" lon="4.962">
        <ele>369.5</ele>
        <time>2013-04-03T06:45:18.000Z</time>
      </trkpt>
      <trkpt lat="47.24688" lon="4.96198">
        <ele>371.3</ele>
        <time>2013-04-03T06:45:19.000Z</time>
      </trkpt>
      <trkpt lat="47.24687" lon="4.96193">
        <ele>371.8</ele>
        <time>2013-04-03T06:45:21.000Z</time>
      </trkpt>
      <trkpt lat="47.24687" lon="4.96191">
        <ele>372.2</ele>
        <time>2013-04-03T06:45:22.000Z</time>
      </trkpt>
      <trkpt lat="47.24687" lon="4.96186">
        <ele>370.3</ele>
        <time>2013-04-03T06:45:24.000Z</time>
      </trkpt>
      <trkpt lat="47.24686" lon="4.96184">
        <ele>372.3</ele>
        <time>2013-04-03T06:45:25.000Z</time>
      </trkpt>
      <trkpt lat="47.24685" lon="4.9618">
        <ele>371.8</ele>
        <time>2013-04-03T06:45:27.000Z</time>
      </trkpt>
      <trkpt lat="47.24684" lon="4.96178">
        <ele>371.5</ele>
        <time>2013-04-03T06:45:28.000Z</time>
      </trkpt>
      <trkpt lat="47.24683" lon="4.96172">
        <ele>372</ele>
        <time>2013-04-03T06:45:31.000Z</time>
      </trkpt>
      <trkpt lat="47.24683" lon="4.9617">
        <ele>372.7</ele>
        <time>2013-04-03T06:45:32.000Z</time>
      </trkpt>
      <trkpt lat="47.24681" lon="4.96164">
        <ele>373.4</ele>
        <time>2013-04-03T06:45:36.000Z</time>
      </trkpt>
      <trkpt lat="47.24681" lon="4.96162">
        <ele>373.5</ele>
        <time>2013-04-03T06:45:37.000Z</time>
      </trkpt>
      <trkpt lat="47.24679" lon="4.96157">
        <ele>373.9</ele>
        <time>2013-04-03T06:45:40.000Z</time>
      </trkpt>
      <trkpt lat="47.24678" lon="4.96156">
        <ele>371.9</ele>
        <time>2013-04-03T06:45:41.000Z</time>
      </trkpt>
      <trkpt lat="47.24675" lon="4.96156">
        <ele>368.6</ele>
        <time>2013-04-03T06:45:43.000Z</time>
      </trkpt>
      <trkpt lat="47.24674" lon="4.96156">
        <ele>369.7</ele>
        <time>2013-04-03T06:45:44.000Z</time>
      </trkpt>
      <trkpt lat="47.2467" lon="4.96155">
        <ele>370.4</ele>
        <time>2013-04-03T06:45:46.000Z</time>
      </trkpt>
      <trkpt lat="47.24669" lon="4.96154">
        <ele>371.1</ele>
        <time>2013-04-03T06:45:47.000Z</time>
      </trkpt>
      <trkpt lat="47.24664" lon="4.96153">
        <ele>372</ele>
        <time>2013-04-03T06:45:51.000Z</time>
      </trkpt>
      <trkpt lat="47.24663" lon="4.96152">
        <ele>372</ele>
        <time>2013-04-03T06:45:52.000Z</time>
      </trkpt>
      <trkpt lat="47.24659" lon="4.96151">
        <ele>373.7</ele>
        <time>2013-04-03T06:45:54.000Z</time>
      </trkpt>
      <trkpt lat="47.24658" lon="4.96151">
        <ele>373.3</ele>
        <time>2013-04-03T06:45:55.000Z</time>
      </trkpt>
      <trkpt lat="47.24653" lon="4.9615">
        <ele>374.3</ele>
        <time>2013-04-03T06:45:58.000Z</time>
      </trkpt>
      <trkpt lat="47.24652" lon="4.9615">
        <ele>375.5</ele>
        <time>2013-04-03T06:45:59.000Z</time>
      </trkpt>
      <trkpt lat="47.24648" lon="4.96149">
        <ele>377.9</ele>
        <time>2013-04-03T06:46:02.000Z</time>
      </trkpt>
      <trkpt lat="47.24647" lon="4.96149">
        <ele>377.9</ele>
        <time>2013-04-03T06:46:03.000Z</time>
      </trkpt>
      <trkpt lat="47.24644" lon="4.96147">
        <ele>378.3</ele>
        <time>2013-04-03T06:46:05.000Z</time>
      </trkpt>
      <trkpt lat="47.24642" lon="4.96146">
        <ele>378.6</ele>
        <time>2013-04-03T06:46:06.000Z</time>
      </trkpt>
      <trkpt lat="47.24639" lon="4.96144">
        <ele>379.4</ele>
        <time>2013-04-03T06:46:09.000Z</time>
      </trkpt>
      <trkpt lat="47.24638" lon="4.96144">
        <ele>379.2</ele>
        <time>2013-04-03T06:46:10.000Z</time>
      </trkpt>
      <trkpt lat="47.24633" lon="4.96144">
        <ele>379.3</ele>
        <time>2013-04-03T06:46:14.000Z</time>
      </trkpt>
      <trkpt lat="47.24632" lon="4.96145">
        <ele>378.8</ele>
        <time>2013-04-03T06:46:15.000Z</time>
      </trkpt>
      <trkpt lat="47.24629" lon="4.96148">
        <ele>378.3</ele>
        <time>2013-04-03T06:46:18.000Z</time>
      </trkpt>
      <trkpt lat="47.24628" lon="4.96149">
        <ele>378.6</ele>
        <time>2013-04-03T06:46:19.000Z</time>
      </trkpt>
      <trkpt lat="47.24625" lon="4.96154">
        <ele>380.6</ele>
        <time>2013-04-03T06:46:22.000Z</time>
      </trkpt>
      <trkpt lat="47.24624" lon="4.96156">
        <ele>380.2</ele>
        <time>2013-04-03T06:46:23.000Z</time>
      </trkpt>
      <trkpt lat="47.24622" lon="4.96159">
        <ele>381.1</ele>
        <time>2013-04-03T06:46:25.000Z</time>
      </trkpt>
      <trkpt lat="47.2462" lon="4.96162">
        <ele>381.4</ele>
        <time>2013-04-03T06:46:26.000Z</time>
      </trkpt>
      <trkpt lat="47.24617" lon="4.96158">
        <ele>376.2</ele>
        <time>2013-04-03T06:46:36.000Z</time>
      </trkpt>
      <trkpt lat="47.24617" lon="4.96156">
        <ele>375.9</ele>
        <time>2013-04-03T06:46:37.000Z</time>
      </trkpt>
      <trkpt lat="47.24619" lon="4.9615">
        <ele>376.2</ele>
        <time>2013-04-03T06:46:40.000Z</time>
      </trkpt>
      <trkpt lat="47.2462" lon="4.96148">
        <ele>376.9</ele>
        <time>2013-04-03T06:46:41.000Z</time>
      </trkpt>
      <trkpt lat="47.24621" lon="4.96143">
        <ele>377.6</ele>
        <time>2013-04-03T06:46:43.000Z</time>
      </trkpt>
      <trkpt lat="47.24621" lon="4.96141">
        <ele>377.7</ele>
        <time>2013-04-03T06:46:44.000Z</time>
      </trkpt>
      <trkpt lat="47.24622" lon="4.96136">
        <ele>378.6</ele>
        <time>2013-04-03T06:46:46.000Z</time>
      </trkpt>
      <trkpt lat="47.24622" lon="4.96134">
        <ele>379.3</ele>
        <time>2013-04-03T06:46:47.000Z</time>
      </trkpt>
      <trkpt lat="47.24623" lon="4.96128">
        <ele>381.1</ele>
        <time>2013-04-03T06:46:50.000Z</time>
      </trkpt>
      <trkpt lat="47.24624" lon="4.96126">
        <ele>381.5</ele>
        <time>2013-04-03T06:46:51.000Z</time>
      </trkpt>
      <trkpt lat="47.24625" lon="4.96119">
        <ele>382</ele>
        <time>2013-04-03T06:46:54.000Z</time>
      </trkpt>
      <trkpt lat="47.24626" lon="4.96117">
        <ele>382.3</ele>
        <time>2013-04-03T06:46:55.000Z</time>
      </trkpt>
      <trkpt lat="47.24628" lon="4.96112">
        <ele>381.9</ele>
        <time>2013-04-03T06:46:57.000Z</time>
      </trkpt>
      <trkpt lat="47.24629" lon="4.96109">
        <ele>382</ele>
        <time>2013-04-03T06:46:58.000Z</time>
      </trkpt>
      <trkpt lat="47.2463" lon="4.96104">
        <ele>381</ele>
        <time>2013-04-03T06:47:00.000Z</time>
      </trkpt>
      <trkpt lat="47.24631" lon="4.96101">
        <ele>380.5</ele>
        <time>2013-04-03T06:47:01.000Z</time>
      </trkpt>
      <trkpt lat="47.24632" lon="4.96095">
        <ele>379</ele>
        <time>2013-04-03T06:47:03.000Z</time>
      </trkpt>
      <trkpt lat="47.24632" lon="4.96093">
        <ele>379.7</ele>
        <time>2013-04-03T06:47:04.000Z</time>
      </trkpt>
      <trkpt lat="47.24633" lon="4.96088">
        <ele>379.9</ele>
        <time>2013-04-03T06:47:06.000Z</time>
      </trkpt>
      <trkpt lat="47.24633" lon="4.96086">
        <ele>380.1</ele>
        <time>2013-04-03T06:47:07.000Z</time>
      </trkpt>
      <trkpt lat="47.24635" lon="4.96081">
        <ele>380.9</ele>
        <time>2013-04-03T06:47:10.000Z</time>
      </trkpt>
      <trkpt lat="47.24636" lon="4.96079">
        <ele>380.9</ele>
        <time>2013-04-03T06:47:11.000Z</time>
      </trkpt>
      <trkpt lat="47.24637" lon="4.96074">
        <ele>381.7</ele>
        <time>2013-04-03T06:47:13.000Z</time>
      </trkpt>
      <trkpt lat="47.24638" lon="4.96071">
        <ele>382.3</ele>
        <time>2013-04-03T06:47:14.000Z</time>
      </trkpt>
      <trkpt lat="47.24639" lon="4.96066">
        <ele>382.6</ele>
        <time>2013-04-03T06:47:16.000Z</time>
      </trkpt>
      <trkpt lat="47.2464" lon="4.96063">
        <ele>382.6</ele>
        <time>2013-04-03T06:47:17.000Z</time>
      </trkpt>
      <trkpt lat="47.24641" lon="4.96058">
        <ele>382.3</ele>
        <time>2013-04-03T06:47:19.000Z</time>
      </trkpt>
      <trkpt lat="47.24641" lon="4.96056">
        <ele>382.4</ele>
        <time>2013-04-03T06:47:20.000Z</time>
      </trkpt>
      <trkpt lat="47.24642" lon="4.9605">
        <ele>384.5</ele>
        <time>2013-04-03T06:47:23.000Z</time>
      </trkpt>
      <trkpt lat="47.24642" lon="4.96048">
        <ele>384.7</ele>
        <time>2013-04-03T06:47:24.000Z</time>
      </trkpt>
      <trkpt lat="47.24643" lon="4.96042">
        <ele>385.1</ele>
        <time>2013-04-03T06:47:27.000Z</time>
      </trkpt>
      <trkpt lat="47.24643" lon="4.9604">
        <ele>385</ele>
        <time>2013-04-03T06:47:28.000Z</time>
      </trkpt>
      <trkpt lat="47.24644" lon="4.96034">
        <ele>386.7</ele>
        <time>2013-04-03T06:47:31.000Z</time>
      </trkpt>
      <trkpt lat="47.24644" lon="4.96033">
        <ele>386.8</ele>
        <time>2013-04-03T06:47:32.000Z</time>
      </trkpt>
      <trkpt lat="47.24645" lon="4.96027">
        <ele>388.6</ele>
        <time>2013-04-03T06:47:36.000Z</time>
      </trkpt>
      <trkpt lat="47.24646" lon="4.96025">
        <ele>389</ele>
        <time>2013-04-03T06:47:37.000Z</time>
      </trkpt>
      <trkpt lat="47.24647" lon="4.96021">
        <ele>388.6</ele>
        <time>2013-04-03T06:47:39.000Z</time>
      </trkpt>
      <trkpt lat="47.24648" lon="4.96019">
        <ele>388.7</ele>
        <time>2013-04-03T06:47:40.000Z</time>
      </trkpt>
      <trkpt lat="47.2465" lon="4.96015">
        <ele>388.7</ele>
        <time>2013-04-03T06:47:42.000Z</time>
      </trkpt>
      <trkpt lat="47.24651" lon="4.96013">
        <ele>388.7</ele>
        <time>2013-04-03T06:47:43.000Z</time>
      </trkpt>
      <trkpt lat="47.24652" lon="4.96009">
        <ele>388.4</ele>
        <time>2013-04-03T06:47:45.000Z</time>
      </trkpt>
      <trkpt lat="47.24653" lon="4.96007">
        <ele>389</ele>
        <time>2013-04-03T06:47:46.000Z</time>
      </trkpt>
      <trkpt lat="47.24654" lon="4.96002">
        <ele>390.4</ele>
        <time>2013-04-03T06:47:48.000Z</time>
      </trkpt>
      <trkpt lat="47.24655" lon="4.96">
        <ele>390.8</ele>
        <time>2013-04-03T06:47:49.000Z</time>
      </trkpt>
      <trkpt lat="47.24655" lon="4.95995">
        <ele>390.6</ele>
        <time>2013-04-03T06:47:51.000Z</time>
      </trkpt>
      <trkpt lat="47.24655" lon="4.95992">
        <ele>392.2</ele>
        <time>2013-04-03T06:47:52.000Z</time>
      </trkpt>
      <trkpt lat="47.24656" lon="4.95986">
        <ele>394.1</ele>
        <time>2013-04-03T06:48:02.000Z</time>
      </trkpt>
      <trkpt lat="47.24656" lon="4.95985">
        <ele>394.1</ele>
        <time>2013-04-03T06:48:03.000Z</time>
      </trkpt>
      <trkpt lat="47.24656" lon="4.9598">
        <ele>393</ele>
        <time>2013-04-03T06:48:07.000Z</time>
      </trkpt>
      <trkpt lat="47.24656" lon="4.95978">
        <ele>392.7</ele>
        <time>2013-04-03T06:48:08.000Z</time>
      </trkpt>
      <trkpt lat="47.24657" lon="4.95973">
        <ele>392.3</ele>
        <time>2013-04-03T06:48:10.000Z</time>
      </trkpt>
      <trkpt lat="47.24657" lon="4.95971">
        <ele>392.3</ele>
        <time>2013-04-03T06:48:11.000Z</time>
      </trkpt>
      <trkpt lat="47.24659" lon="4.95966">
        <ele>391.1</ele>
        <time>2013-04-03T06:48:13.000Z</time>
      </trkpt>
      <trkpt lat="47.2466" lon="4.95963">
        <ele>391</ele>
        <time>2013-04-03T06:48:14.000Z</time>
      </trkpt>
      <trkpt lat="47.24662" lon="4.95959">
        <ele>391.7</ele>
        <time>2013-04-03T06:48:16.000Z</time>
      </trkpt>
      <trkpt lat="47.24663" lon="4.95956">
        <ele>392.3</ele>
        <time>2013-04-03T06:48:17.000Z</time>
      </trkpt>
      <trkpt lat="47.24664" lon="4.95952">
        <ele>393.8</ele>
        <time>2013-04-03T06:48:19.000Z</time>
      </trkpt>
      <trkpt lat="47.24664" lon="4.95949">
        <ele>393.9</ele>
        <time>2013-04-03T06:48:20.000Z</time>
      </trkpt>
      <trkpt lat="47.24665" lon="4.95942">
        <ele>392.8</ele>
        <time>2013-04-03T06:48:22.000Z</time>
      </trkpt>
      <trkpt lat="47.24665" lon="4.95939">
        <ele>393.2</ele>
        <time>2013-04-03T06:48:23.000Z</time>
      </trkpt>
      <trkpt lat="47.24666" lon="4.95936">
        <ele>393.8</ele>
        <time>2013-04-03T06:48:24.000Z</time>
      </trkpt>
      <trkpt lat="47.24667" lon="4.95933">
        <ele>393.5</ele>
        <time>2013-04-03T06:48:25.000Z</time>
      </trkpt>
      <trkpt lat="47.24668" lon="4.95927">
        <ele>393.5</ele>
        <time>2013-04-03T06:48:27.000Z</time>
      </trkpt>
      <trkpt lat="47.24669" lon="4.95925">
        <ele>393.7</ele>
        <time>2013-04-03T06:48:28.000Z</time>
      </trkpt>
      <trkpt lat="47.2467" lon="4.95921">
        <ele>396</ele>
        <time>2013-04-03T06:48:30.000Z</time>
      </trkpt>
      <trkpt lat="47.2467" lon="4.95919">
        <ele>395.7</ele>
        <time>2013-04-03T06:48:31.000Z</time>
      </trkpt>
      <trkpt lat="47.24672" lon="4.95913">
        <ele>396.3</ele>
        <time>2013-04-03T06:48:35.000Z</time>
      </trkpt>
      <trkpt lat="47.24672" lon="4.95911">
        <ele>395.7</ele>
        <time>2013-04-03T06:48:36.000Z</time>
      </trkpt>
      <trkpt lat="47.24673" lon="4.95907">
        <ele>394.9</ele>
        <time>2013-04-03T06:48:39.000Z</time>
      </trkpt>
      <trkpt lat="47.24674" lon="4.95905">
        <ele>395</ele>
        <time>2013-04-03T06:48:40.000Z</time>
      </trkpt>
      <trkpt lat="47.24675" lon="4.95901">
        <ele>395.1</ele>
        <time>2013-04-03T06:48:42.000Z</time>
      </trkpt>
      <trkpt lat="47.24676" lon="4.95899">
        <ele>395.2</ele>
        <time>2013-04-03T06:48:43.000Z</time>
      </trkpt>
      <trkpt lat="47.24677" lon="4.95894">
        <ele>395.1</ele>
        <time>2013-04-03T06:48:45.000Z</time>
      </trkpt>
      <trkpt lat="47.24678" lon="4.95892">
        <ele>395.3</ele>
        <time>2013-04-03T06:48:46.000Z</time>
      </trkpt>
      <trkpt lat="47.2468" lon="4.95887">
        <ele>392.8</ele>
        <time>2013-04-03T06:48:49.000Z</time>
      </trkpt>
      <trkpt lat="47.2468" lon="4.95885">
        <ele>392.3</ele>
        <time>2013-04-03T06:48:50.000Z</time>
      </trkpt>
      <trkpt lat="47.24682" lon="4.9588">
        <ele>394</ele>
        <time>2013-04-03T06:48:53.000Z</time>
      </trkpt>
      <trkpt lat="47.24682" lon="4.95879">
        <ele>394.3</ele>
        <time>2013-04-03T06:48:54.000Z</time>
      </trkpt>
      <trkpt lat="47.24684" lon="4.95873">
        <ele>394.8</ele>
        <time>2013-04-03T06:48:57.000Z</time>
      </trkpt>
      <trkpt lat="47.24684" lon="4.95872">
        <ele>394.8</ele>
        <time>2013-04-03T06:48:58.000Z</time>
      </trkpt>
      <trkpt lat="47.24687" lon="4.95867">
        <ele>395.9</ele>
        <time>2013-04-03T06:49:01.000Z</time>
      </trkpt>
      <trkpt lat="47.24687" lon="4.95865">
        <ele>395.2</ele>
        <time>2013-04-03T06:49:02.000Z</time>
      </trkpt>
      <trkpt lat="47.24689" lon="4.9586">
        <ele>397.3</ele>
        <time>2013-04-03T06:49:05.000Z</time>
      </trkpt>
      <trkpt lat="47.24689" lon="4.95858">
        <ele>398.4</ele>
        <time>2013-04-03T06:49:06.000Z</time>
      </trkpt>
      <trkpt lat="47.2469" lon="4.95853">
        <ele>398.4</ele>
        <time>2013-04-03T06:49:08.000Z</time>
      </trkpt>
      <trkpt lat="47.24691" lon="4.95851">
        <ele>398.5</ele>
        <time>2013-04-03T06:49:09.000Z</time>
      </trkpt>
      <trkpt lat="47.24693" lon="4.95847">
        <ele>398.3</ele>
        <time>2013-04-03T06:49:11.000Z</time>
      </trkpt>
      <trkpt lat="47.24694" lon="4.95846">
        <ele>398.8</ele>
        <time>2013-04-03T06:49:12.000Z</time>
      </trkpt>
      <trkpt lat="47.24696" lon="4.9584">
        <ele>400.1</ele>
        <time>2013-04-03T06:49:15.000Z</time>
      </trkpt>
      <trkpt lat="47.24697" lon="4.95839">
        <ele>399.6</ele>
        <time>2013-04-03T06:49:16.000Z</time>
      </trkpt>
      <trkpt lat="47.24699" lon="4.95835">
        <ele>399.3</ele>
        <time>2013-04-03T06:49:18.000Z</time>
      </trkpt>
      <trkpt lat="47.247" lon="4.95834">
        <ele>399.1</ele>
        <time>2013-04-03T06:49:19.000Z</time>
      </trkpt>
      <trkpt lat="47.24703" lon="4.95829">
        <ele>399.9</ele>
        <time>2013-04-03T06:49:22.000Z</time>
      </trkpt>
      <trkpt lat="47.24704" lon="4.95828">
        <ele>403.1</ele>
        <time>2013-04-03T06:49:23.000Z</time>
      </trkpt>
      <trkpt lat="47.24705" lon="4.95824">
        <ele>405.2</ele>
        <time>2013-04-03T06:49:28.000Z</time>
      </trkpt>
      <trkpt lat="47.24706" lon="4.95822">
        <ele>405.4</ele>
        <time>2013-04-03T06:49:29.000Z</time>
      </trkpt>
      <trkpt lat="47.24708" lon="4.95818">
        <ele>405.6</ele>
        <time>2013-04-03T06:49:31.000Z</time>
      </trkpt>
      <trkpt lat="47.24709" lon="4.95816">
        <ele>405.3</ele>
        <time>2013-04-03T06:49:32.000Z</time>
      </trkpt>
      <trkpt lat="47.24711" lon="4.95811">
        <ele>405.5</ele>
        <time>2013-04-03T06:49:34.000Z</time>
      </trkpt>
      <trkpt lat="47.24712" lon="4.95809">
        <ele>405.3</ele>
        <time>2013-04-03T06:49:35.000Z</time>
      </trkpt>
      <trkpt lat="47.24713" lon="4.95804">
        <ele>405.6</ele>
        <time>2013-04-03T06:49:37.000Z</time>
      </trkpt>
      <trkpt lat="47.24714" lon="4.95802">
        <ele>406.2</ele>
        <time>2013-04-03T06:49:38.000Z</time>
      </trkpt>
      <trkpt lat="47.24715" lon="4.95798">
        <ele>406</ele>
        <time>2013-04-03T06:49:40.000Z</time>
      </trkpt>
      <trkpt lat="47.24716" lon="4.95796">
        <ele>406.2</ele>
        <time>2013-04-03T06:49:41.000Z</time>
      </trkpt>
      <trkpt lat="47.24717" lon="4.95791">
        <ele>405.4</ele>
        <time>2013-04-03T06:49:44.000Z</time>
      </trkpt>
      <trkpt lat="47.24718" lon="4.95789">
        <ele>405.7</ele>
        <time>2013-04-03T06:49:45.000Z</time>
      </trkpt>
      <trkpt lat="47.24719" lon="4.95783">
        <ele>406.3</ele>
        <time>2013-04-03T06:49:48.000Z</time>
      </trkpt>
      <trkpt lat="47.24719" lon="4.95781">
        <ele>406.2</ele>
        <time>2013-04-03T06:49:49.000Z</time>
      </trkpt>
      <trkpt lat="47.24721" lon="4.95778">
        <ele>407.5</ele>
        <time>2013-04-03T06:49:51.000Z</time>
      </trkpt>
      <trkpt lat="47.24722" lon="4.95776">
        <ele>407.8</ele>
        <time>2013-04-03T06:49:52.000Z</time>
      </trkpt>
      <trkpt lat="47.24725" lon="4.95772">
        <ele>408.7</ele>
        <time>2013-04-03T06:49:55.000Z</time>
      </trkpt>
      <trkpt lat="47.24726" lon="4.9577">
        <ele>409.4</ele>
        <time>2013-04-03T06:49:56.000Z</time>
      </trkpt>
      <trkpt lat="47.24729" lon="4.95767">
        <ele>413.4</ele>
        <time>2013-04-03T06:49:59.000Z</time>
      </trkpt>
      <trkpt lat="47.2473" lon="4.95766">
        <ele>414.1</ele>
        <time>2013-04-03T06:50:00.000Z</time>
      </trkpt>
      <trkpt lat="47.24733" lon="4.95761">
        <ele>414.2</ele>
        <time>2013-04-03T06:50:03.000Z</time>
      </trkpt>
      <trkpt lat="47.24734" lon="4.95759">
        <ele>413.5</ele>
        <time>2013-04-03T06:50:04.000Z</time>
      </trkpt>
      <trkpt lat="47.24735" lon="4.95755">
        <ele>413.4</ele>
        <time>2013-04-03T06:50:06.000Z</time>
      </trkpt>
      <trkpt lat="47.24735" lon="4.95752">
        <ele>413.6</ele>
        <time>2013-04-03T06:50:07.000Z</time>
      </trkpt>
      <trkpt lat="47.24736" lon="4.95747">
        <ele>413.9</ele>
        <time>2013-04-03T06:50:09.000Z</time>
      </trkpt>
      <trkpt lat="47.24737" lon="4.95744">
        <ele>413.8</ele>
        <time>2013-04-03T06:50:10.000Z</time>
      </trkpt>
      <trkpt lat="47.24739" lon="4.9574">
        <ele>412.7</ele>
        <time>2013-04-03T06:50:12.000Z</time>
      </trkpt>
      <trkpt lat="47.24739" lon="4.95738">
        <ele>412.6</ele>
        <time>2013-04-03T06:50:13.000Z</time>
      </trkpt>
      <trkpt lat="47.24741" lon="4.95733">
        <ele>413.2</ele>
        <time>2013-04-03T06:50:16.000Z</time>
      </trkpt>
      <trkpt lat="47.24742" lon="4.95731">
        <ele>413.9</ele>
        <time>2013-04-03T06:50:17.000Z</time>
      </trkpt>
      <trkpt lat="47.24745" lon="4.95727">
        <ele>413.6</ele>
        <time>2013-04-03T06:50:20.000Z</time>
      </trkpt>
      <trkpt lat="47.24746" lon="4.95725">
        <ele>414</ele>
        <time>2013-04-03T06:50:21.000Z</time>
      </trkpt>
      <trkpt lat="47.24747" lon="4.95721">
        <ele>414.3</ele>
        <time>2013-04-03T06:50:23.000Z</time>
      </trkpt>
      <trkpt lat="47.24748" lon="4.95719">
        <ele>414.8</ele>
        <time>2013-04-03T06:50:24.000Z</time>
      </trkpt>
      <trkpt lat="47.2475" lon="4.95715">
        <ele>415</ele>
        <time>2013-04-03T06:50:26.000Z</time>
      </trkpt>
      <trkpt lat="47.24751" lon="4.95712">
        <ele>415.2</ele>
        <time>2013-04-03T06:50:27.000Z</time>
      </trkpt>
      <trkpt lat="47.24753" lon="4.95708">
        <ele>416.3</ele>
        <time>2013-04-03T06:50:29.000Z</time>
      </trkpt>
      <trkpt lat="47.24755" lon="4.95707">
        <ele>413.3</ele>
        <time>2013-04-03T06:50:30.000Z</time>
      </trkpt>
      <trkpt lat="47.24758" lon="4.95704">
        <ele>413.6</ele>
        <time>2013-04-03T06:50:32.000Z</time>
      </trkpt>
      <trkpt lat="47.24759" lon="4.95702">
        <ele>414.1</ele>
        <time>2013-04-03T06:50:33.000Z</time>
      </trkpt>
      <trkpt lat="47.24762" lon="4.95699">
        <ele>413.4</ele>
        <time>2013-04-03T06:50:36.000Z</time>
      </trkpt>
      <trkpt lat="47.24763" lon="4.95697">
        <ele>412.5</ele>
        <time>2013-04-03T06:50:37.000Z</time>
      </trkpt>
      <trkpt lat="47.24765" lon="4.95693">
        <ele>413.2</ele>
        <time>2013-04-03T06:50:40.000Z</time>
      </trkpt>
      <trkpt lat="47.24766" lon="4.95692">
        <ele>413.2</ele>
        <time>2013-04-03T06:50:41.000Z</time>
      </trkpt>
      <trkpt lat="47.24769" lon="4.95687">
        <ele>414.7</ele>
        <time>2013-04-03T06:50:45.000Z</time>
      </trkpt>
      <trkpt lat="47.2477" lon="4.95686">
        <ele>414.6</ele>
        <time>2013-04-03T06:50:46.000Z</time>
      </trkpt>
      <trkpt lat="47.24772" lon="4.95681">
        <ele>414.7</ele>
        <time>2013-04-03T06:50:50.000Z</time>
      </trkpt>
      <trkpt lat="47.24773" lon="4.9568">
        <ele>413.6</ele>
        <time>2013-04-03T06:50:51.000Z</time>
      </trkpt>
      <trkpt lat="47.24776" lon="4.95676">
        <ele>410.7</ele>
        <time>2013-04-03T06:50:54.000Z</time>
      </trkpt>
      <trkpt lat="47.24777" lon="4.95675">
        <ele>410.9</ele>
        <time>2013-04-03T06:50:55.000Z</time>
      </trkpt>
      <trkpt lat="47.24779" lon="4.9567">
        <ele>409.8</ele>
        <time>2013-04-03T06:50:58.000Z</time>
      </trkpt>
      <trkpt lat="47.24779" lon="4.95668">
        <ele>410</ele>
        <time>2013-04-03T06:50:59.000Z</time>
      </trkpt>
      <trkpt lat="47.2478" lon="4.95664">
        <ele>407.2</ele>
        <time>2013-04-03T06:51:01.000Z</time>
      </trkpt>
      <trkpt lat="47.24781" lon="4.95662">
        <ele>407.2</ele>
        <time>2013-04-03T06:51:02.000Z</time>
      </trkpt>
      <trkpt lat="47.24783" lon="4.95657">
        <ele>407.2</ele>
        <time>2013-04-03T06:51:05.000Z</time>
      </trkpt>
      <trkpt lat="47.24784" lon="4.95655">
        <ele>407.1</ele>
        <time>2013-04-03T06:51:06.000Z</time>
      </trkpt>
      <trkpt lat="47.24786" lon="4.95652">
        <ele>407.7</ele>
        <time>2013-04-03T06:51:08.000Z</time>
      </trkpt>
      <trkpt lat="47.24787" lon="4.95651">
        <ele>408.1</ele>
        <time>2013-04-03T06:51:09.000Z</time>
      </trkpt>
      <trkpt lat="47.24789" lon="4.95646">
        <ele>406.8</ele>
        <time>2013-04-03T06:51:12.000Z</time>
      </trkpt>
      <trkpt lat="47.2479" lon="4.95645">
        <ele>406.7</ele>
        <time>2013-04-03T06:51:13.000Z</time>
      </trkpt>
      <trkpt lat="47.24791" lon="4.9564">
        <ele>406.3</ele>
        <time>2013-04-03T06:51:16.000Z</time>
      </trkpt>
      <trkpt lat="47.24791" lon="4.95638">
        <ele>406.5</ele>
        <time>2013-04-03T06:51:17.000Z</time>
      </trkpt>
      <trkpt lat="47.24793" lon="4.95633">
        <ele>407.4</ele>
        <time>2013-04-03T06:51:20.000Z</time>
      </trkpt>
      <trkpt lat="47.24794" lon="4.95632">
        <ele>408.1</ele>
        <time>2013-04-03T06:51:21.000Z</time>
      </trkpt>
      <trkpt lat="47.24796" lon="4.95627">
        <ele>408.4</ele>
        <time>2013-04-03T06:51:24.000Z</time>
      </trkpt>
      <trkpt lat="47.24797" lon="4.95625">
        <ele>408.2</ele>
        <time>2013-04-03T06:51:25.000Z</time>
      </trkpt>
      <trkpt lat="47.24801" lon="4.95621">
        <ele>404.4</ele>
        <time>2013-04-03T06:51:28.000Z</time>
      </trkpt>
      <trkpt lat="47.24802" lon="4.95619">
        <ele>403.5</ele>
        <time>2013-04-03T06:51:29.000Z</time>
      </trkpt>
      <trkpt lat="47.24804" lon="4.95615">
        <ele>402.7</ele>
        <time>2013-04-03T06:51:31.000Z</time>
      </trkpt>
      <trkpt lat="47.24806" lon="4.95613">
        <ele>402.8</ele>
        <time>2013-04-03T06:51:32.000Z</time>
      </trkpt>
      <trkpt lat="47.24809" lon="4.95609">
        <ele>403.3</ele>
        <time>2013-04-03T06:51:35.000Z</time>
      </trkpt>
      <trkpt lat="47.24809" lon="4.95608">
        <ele>403.2</ele>
        <time>2013-04-03T06:51:36.000Z</time>
      </trkpt>
      <trkpt lat="47.24813" lon="4.95604">
        <ele>405.3</ele>
        <time>2013-04-03T06:51:39.000Z</time>
      </trkpt>
      <trkpt lat="47.24814" lon="4.95603">
        <ele>406.1</ele>
        <time>2013-04-03T06:51:40.000Z</time>
      </trkpt>
      <trkpt lat="47.24817" lon="4.956">
        <ele>405.5</ele>
        <time>2013-04-03T06:51:42.000Z</time>
      </trkpt>
      <trkpt lat="47.24818" lon="4.95599">
        <ele>405.2</ele>
        <time>2013-04-03T06:51:43.000Z</time>
      </trkpt>
      <trkpt lat="47.24822" lon="4.95597">
        <ele>406.5</ele>
        <time>2013-04-03T06:51:45.000Z</time>
      </trkpt>
      <trkpt lat="47.24824" lon="4.95597">
        <ele>407.1</ele>
        <time>2013-04-03T06:51:46.000Z</time>
      </trkpt>
      <trkpt lat="47.24827" lon="4.95595">
        <ele>408</ele>
        <time>2013-04-03T06:51:48.000Z</time>
      </trkpt>
      <trkpt lat="47.24828" lon="4.95594">
        <ele>408.7</ele>
        <time>2013-04-03T06:51:49.000Z</time>
      </trkpt>
      <trkpt lat="47.24832" lon="4.95593">
        <ele>409</ele>
        <time>2013-04-03T06:51:51.000Z</time>
      </trkpt>
      <trkpt lat="47.24834" lon="4.95592">
        <ele>409.4</ele>
        <time>2013-04-03T06:51:52.000Z</time>
      </trkpt>
      <trkpt lat="47.24837" lon="4.9559">
        <ele>409.1</ele>
        <time>2013-04-03T06:51:54.000Z</time>
      </trkpt>
      <trkpt lat="47.24839" lon="4.9559">
        <ele>409.9</ele>
        <time>2013-04-03T06:51:55.000Z</time>
      </trkpt>
      <trkpt lat="47.24842" lon="4.95587">
        <ele>410.8</ele>
        <time>2013-04-03T06:51:57.000Z</time>
      </trkpt>
      <trkpt lat="47.24843" lon="4.95586">
        <ele>410.9</ele>
        <time>2013-04-03T06:51:58.000Z</time>
      </trkpt>
      <trkpt lat="47.24847" lon="4.95583">
        <ele>412.3</ele>
        <time>2013-04-03T06:52:01.000Z</time>
      </trkpt>
      <trkpt lat="47.24848" lon="4.95582">
        <ele>412.4</ele>
        <time>2013-04-03T06:52:02.000Z</time>
      </trkpt>
      <trkpt lat="47.24852" lon="4.9558">
        <ele>412.6</ele>
        <time>2013-04-03T06:52:05.000Z</time>
      </trkpt>
      <trkpt lat="47.24852" lon="4.9558">
        <ele>412.6</ele>
        <time>2013-04-03T06:52:06.000Z</time>
      </trkpt>
      <trkpt lat="47.24854" lon="4.95577">
        <ele>411.9</ele>
        <time>2013-04-03T06:52:07.000Z</time>
      </trkpt>
      <trkpt lat="47.24856" lon="4.95575">
        <ele>411.3</ele>
        <time>2013-04-03T06:52:08.000Z</time>
      </trkpt>
      <trkpt lat="47.24859" lon="4.95571">
        <ele>409.4</ele>
        <time>2013-04-03T06:52:10.000Z</time>
      </trkpt>
      <trkpt lat="47.2486" lon="4.95569">
        <ele>409.3</ele>
        <time>2013-04-03T06:52:11.000Z</time>
      </trkpt>
      <trkpt lat="47.24863" lon="4.95565">
        <ele>408.8</ele>
        <time>2013-04-03T06:52:14.000Z</time>
      </trkpt>
      <trkpt lat="47.24864" lon="4.95564">
        <ele>409.1</ele>
        <time>2013-04-03T06:52:15.000Z</time>
      </trkpt>
      <trkpt lat="47.24865" lon="4.95558">
        <ele>411.3</ele>
        <time>2013-04-03T06:52:18.000Z</time>
      </trkpt>
      <trkpt lat="47.24865" lon="4.95557">
        <ele>411.9</ele>
        <time>2013-04-03T06:52:19.000Z</time>
      </trkpt>
      <trkpt lat="47.24867" lon="4.95553">
        <ele>411.8</ele>
        <time>2013-04-03T06:52:23.000Z</time>
      </trkpt>
      <trkpt lat="47.24869" lon="4.95551">
        <ele>411.8</ele>
        <time>2013-04-03T06:52:24.000Z</time>
      </trkpt>
      <trkpt lat="47.24871" lon="4.95545">
        <ele>413.1</ele>
        <time>2013-04-03T06:52:27.000Z</time>
      </trkpt>
      <trkpt lat="47.24872" lon="4.95543">
        <ele>413.6</ele>
        <time>2013-04-03T06:52:28.000Z</time>
      </trkpt>
      <trkpt lat="47.24874" lon="4.9554">
        <ele>413.3</ele>
        <time>2013-04-03T06:52:30.000Z</time>
      </trkpt>
      <trkpt lat="47.24876" lon="4.95539">
        <ele>413.6</ele>
        <time>2013-04-03T06:52:31.000Z</time>
      </trkpt>
      <trkpt lat="47.24878" lon="4.95535">
        <ele>413.8</ele>
        <time>2013-04-03T06:52:33.000Z</time>
      </trkpt>
      <trkpt lat="47.24879" lon="4.95533">
        <ele>415.2</ele>
        <time>2013-04-03T06:52:34.000Z</time>
      </trkpt>
      <trkpt lat="47.24881" lon="4.9553">
        <ele>415.2</ele>
        <time>2013-04-03T06:52:36.000Z</time>
      </trkpt>
      <trkpt lat="47.24882" lon="4.95528">
        <ele>415.6</ele>
        <time>2013-04-03T06:52:37.000Z</time>
      </trkpt>
      <trkpt lat="47.24883" lon="4.95523">
        <ele>415.9</ele>
        <time>2013-04-03T06:52:39.000Z</time>
      </trkpt>
      <trkpt lat="47.24884" lon="4.9552">
        <ele>415.6</ele>
        <time>2013-04-03T06:52:40.000Z</time>
      </trkpt>
      <trkpt lat="47.24885" lon="4.95515">
        <ele>416.8</ele>
        <time>2013-04-03T06:52:42.000Z</time>
      </trkpt>
      <trkpt lat="47.24885" lon="4.95513">
        <ele>416.2</ele>
        <time>2013-04-03T06:52:43.000Z</time>
      </trkpt>
      <trkpt lat="47.24887" lon="4.95509">
        <ele>415.9</ele>
        <time>2013-04-03T06:52:45.000Z</time>
      </trkpt>
      <trkpt lat="47.24888" lon="4.95506">
        <ele>416.6</ele>
        <time>2013-04-03T06:52:46.000Z</time>
      </trkpt>
      <trkpt lat="47.24889" lon="4.95502">
        <ele>416.6</ele>
        <time>2013-04-03T06:52:48.000Z</time>
      </trkpt>
      <trkpt lat="47.24891" lon="4.95499">
        <ele>416</ele>
        <time>2013-04-03T06:52:49.000Z</time>
      </trkpt>
      <trkpt lat="47.24893" lon="4.95495">
        <ele>414.4</ele>
        <time>2013-04-03T06:52:51.000Z</time>
      </trkpt>
      <trkpt lat="47.24894" lon="4.95493">
        <ele>414.4</ele>
        <time>2013-04-03T06:52:52.000Z</time>
      </trkpt>
      <trkpt lat="47.24896" lon="4.95489">
        <ele>415.6</ele>
        <time>2013-04-03T06:52:54.000Z</time>
      </trkpt>
      <trkpt lat="47.24897" lon="4.95487">
        <ele>415.6</ele>
        <time>2013-04-03T06:52:55.000Z</time>
      </trkpt>
      <trkpt lat="47.24899" lon="4.95481">
        <ele>416.6</ele>
        <time>2013-04-03T06:52:58.000Z</time>
      </trkpt>
      <trkpt lat="47.24899" lon="4.95479">
        <ele>417</ele>
        <time>2013-04-03T06:52:59.000Z</time>
      </trkpt>
      <trkpt lat="47.24901" lon="4.95474">
        <ele>418.7</ele>
        <time>2013-04-03T06:53:02.000Z</time>
      </trkpt>
      <trkpt lat="47.24902" lon="4.95472">
        <ele>418.5</ele>
        <time>2013-04-03T06:53:03.000Z</time>
      </trkpt>
      <trkpt lat="47.24905" lon="4.95469">
        <ele>419.1</ele>
        <time>2013-04-03T06:53:06.000Z</time>
      </trkpt>
      <trkpt lat="47.24906" lon="4.95467">
        <ele>419.6</ele>
        <time>2013-04-03T06:53:07.000Z</time>
      </trkpt>
      <trkpt lat="47.24909" lon="4.95463">
        <ele>420.7</ele>
        <time>2013-04-03T06:53:11.000Z</time>
      </trkpt>
      <trkpt lat="47.2491" lon="4.95462">
        <ele>421.6</ele>
        <time>2013-04-03T06:53:12.000Z</time>
      </trkpt>
      <trkpt lat="47.24912" lon="4.95456">
        <ele>421.7</ele>
        <time>2013-04-03T06:53:15.000Z</time>
      </trkpt>
      <trkpt lat="47.24913" lon="4.95455">
        <ele>422</ele>
        <time>2013-04-03T06:53:16.000Z</time>
      </trkpt>
      <trkpt lat="47.24914" lon="4.95449">
        <ele>422.8</ele>
        <time>2013-04-03T06:53:19.000Z</time>
      </trkpt>
      <trkpt lat="47.24914" lon="4.95447">
        <ele>423.8</ele>
        <time>2013-04-03T06:53:20.000Z</time>
      </trkpt>
      <trkpt lat="47.24916" lon="4.95441">
        <ele>422.6</ele>
        <time>2013-04-03T06:53:23.000Z</time>
      </trkpt>
      <trkpt lat="47.24917" lon="4.95439">
        <ele>422.5</ele>
        <time>2013-04-03T06:53:24.000Z</time>
      </trkpt>
      <trkpt lat="47.24918" lon="4.95435">
        <ele>422.8</ele>
        <time>2013-04-03T06:53:26.000Z</time>
      </trkpt>
      <trkpt lat="47.24919" lon="4.95433">
        <ele>422.3</ele>
        <time>2013-04-03T06:53:27.000Z</time>
      </trkpt>
      <trkpt lat="47.2492" lon="4.95428">
        <ele>423.4</ele>
        <time>2013-04-03T06:53:30.000Z</time>
      </trkpt>
      <trkpt lat="47.2492" lon="4.95427">
        <ele>423.8</ele>
        <time>2013-04-03T06:53:31.000Z</time>
      </trkpt>
      <trkpt lat="47.24922" lon="4.95422">
        <ele>424.9</ele>
        <time>2013-04-03T06:53:34.000Z</time>
      </trkpt>
      <trkpt lat="47.24922" lon="4.9542">
        <ele>425.6</ele>
        <time>2013-04-03T06:53:35.000Z</time>
      </trkpt>
      <trkpt lat="47.24923" lon="4.95415">
        <ele>425.6</ele>
        <time>2013-04-03T06:53:38.000Z</time>
      </trkpt>
      <trkpt lat="47.24924" lon="4.95413">
        <ele>425.9</ele>
        <time>2013-04-03T06:53:39.000Z</time>
      </trkpt>
      <trkpt lat="47.24927" lon="4.95409">
        <ele>425.9</ele>
        <time>2013-04-03T06:53:42.000Z</time>
      </trkpt>
      <trkpt lat="47.24928" lon="4.95408">
        <ele>425.9</ele>
        <time>2013-04-03T06:53:43.000Z</time>
      </trkpt>
      <trkpt lat="47.24931" lon="4.95405">
        <ele>426.5</ele>
        <time>2013-04-03T06:53:46.000Z</time>
      </trkpt>
      <trkpt lat="47.24932" lon="4.95404">
        <ele>426.6</ele>
        <time>2013-04-03T06:53:47.000Z</time>
      </trkpt>
      <trkpt lat="47.24934" lon="4.954">
        <ele>427</ele>
        <time>2013-04-03T06:53:51.000Z</time>
      </trkpt>
      <trkpt lat="47.24934" lon="4.95398">
        <ele>426.6</ele>
        <time>2013-04-03T06:53:52.000Z</time>
      </trkpt>
      <trkpt lat="47.24936" lon="4.95394">
        <ele>427.1</ele>
        <time>2013-04-03T06:53:55.000Z</time>
      </trkpt>
      <trkpt lat="47.24936" lon="4.95392">
        <ele>427.2</ele>
        <time>2013-04-03T06:53:56.000Z</time>
      </trkpt>
      <trkpt lat="47.24939" lon="4.95387">
        <ele>429.8</ele>
        <time>2013-04-03T06:53:59.000Z</time>
      </trkpt>
      <trkpt lat="47.24939" lon="4.95386">
        <ele>429.6</ele>
        <time>2013-04-03T06:54:00.000Z</time>
      </trkpt>
      <trkpt lat="47.24942" lon="4.95382">
        <ele>430.3</ele>
        <time>2013-04-03T06:54:03.000Z</time>
      </trkpt>
      <trkpt lat="47.24942" lon="4.9538">
        <ele>431.1</ele>
        <time>2013-04-03T06:54:04.000Z</time>
      </trkpt>
      <trkpt lat="47.24945" lon="4.95375">
        <ele>431.8</ele>
        <time>2013-04-03T06:54:07.000Z</time>
      </trkpt>
      <trkpt lat="47.24945" lon="4.95373">
        <ele>432.4</ele>
        <time>2013-04-03T06:54:08.000Z</time>
      </trkpt>
      <trkpt lat="47.24947" lon="4.95369">
        <ele>429.7</ele>
        <time>2013-04-03T06:54:10.000Z</time>
      </trkpt>
      <trkpt lat="47.24948" lon="4.95367">
        <ele>430.1</ele>
        <time>2013-04-03T06:54:11.000Z</time>
      </trkpt>
      <trkpt lat="47.24951" lon="4.95363">
        <ele>429.9</ele>
        <time>2013-04-03T06:54:14.000Z</time>
      </trkpt>
      <trkpt lat="47.24952" lon="4.95361">
        <ele>429.9</ele>
        <time>2013-04-03T06:54:15.000Z</time>
      </trkpt>
      <trkpt lat="47.24954" lon="4.95357">
        <ele>430.7</ele>
        <time>2013-04-03T06:54:18.000Z</time>
      </trkpt>
      <trkpt lat="47.24955" lon="4.95356">
        <ele>431.3</ele>
        <time>2013-04-03T06:54:19.000Z</time>
      </trkpt>
      <trkpt lat="47.24958" lon="4.95354">
        <ele>432.3</ele>
        <time>2013-04-03T06:54:21.000Z</time>
      </trkpt>
      <trkpt lat="47.24959" lon="4.95353">
        <ele>432.7</ele>
        <time>2013-04-03T06:54:22.000Z</time>
      </trkpt>
      <trkpt lat="47.24962" lon="4.95351">
        <ele>432.3</ele>
        <time>2013-04-03T06:54:24.000Z</time>
      </trkpt>
      <trkpt lat="47.24964" lon="4.9535">
        <ele>432</ele>
        <time>2013-04-03T06:54:25.000Z</time>
      </trkpt>
      <trkpt lat="47.24967" lon="4.95346">
        <ele>432.6</ele>
        <time>2013-04-03T06:54:27.000Z</time>
      </trkpt>
      <trkpt lat="47.24968" lon="4.95344">
        <ele>433.3</ele>
        <time>2013-04-03T06:54:28.000Z</time>
      </trkpt>
      <trkpt lat="47.2497" lon="4.9534">
        <ele>433.2</ele>
        <time>2013-04-03T06:54:30.000Z</time>
      </trkpt>
      <trkpt lat="47.24971" lon="4.95338">
        <ele>433</ele>
        <time>2013-04-03T06:54:31.000Z</time>
      </trkpt>
      <trkpt lat="47.24975" lon="4.95335">
        <ele>432.7</ele>
        <time>2013-04-03T06:54:33.000Z</time>
      </trkpt>
      <trkpt lat="47.24977" lon="4.95333">
        <ele>430.6</ele>
        <time>2013-04-03T06:54:34.000Z</time>
      </trkpt>
      <trkpt lat="47.24979" lon="4.95331">
        <ele>430.8</ele>
        <time>2013-04-03T06:54:35.000Z</time>
      </trkpt>
      <trkpt lat="47.2498" lon="4.95329">
        <ele>430.9</ele>
        <time>2013-04-03T06:54:36.000Z</time>
      </trkpt>
      <trkpt lat="47.24983" lon="4.95325">
        <ele>431.7</ele>
        <time>2013-04-03T06:54:38.000Z</time>
      </trkpt>
      <trkpt lat="47.24984" lon="4.95323">
        <ele>432.4</ele>
        <time>2013-04-03T06:54:39.000Z</time>
      </trkpt>
      <trkpt lat="47.24986" lon="4.95319">
        <ele>434.3</ele>
        <time>2013-04-03T06:54:42.000Z</time>
      </trkpt>
      <trkpt lat="47.24985" lon="4.95317">
        <ele>436.1</ele>
        <time>2013-04-03T06:54:43.000Z</time>
      </trkpt>
      <trkpt lat="47.24985" lon="4.95312">
        <ele>436.1</ele>
        <time>2013-04-03T06:54:46.000Z</time>
      </trkpt>
      <trkpt lat="47.24984" lon="4.9531">
        <ele>436.4</ele>
        <time>2013-04-03T06:54:47.000Z</time>
      </trkpt>
      <trkpt lat="47.24985" lon="4.95306">
        <ele>434.5</ele>
        <time>2013-04-03T06:54:49.000Z</time>
      </trkpt>
      <trkpt lat="47.24985" lon="4.95303">
        <ele>434.3</ele>
        <time>2013-04-03T06:54:50.000Z</time>
      </trkpt>
      <trkpt lat="47.24987" lon="4.95298">
        <ele>433.2</ele>
        <time>2013-04-03T06:54:53.000Z</time>
      </trkpt>
      <trkpt lat="47.24988" lon="4.95297">
        <ele>432.7</ele>
        <time>2013-04-03T06:54:54.000Z</time>
      </trkpt>
      <trkpt lat="47.2499" lon="4.95293">
        <ele>431.6</ele>
        <time>2013-04-03T06:54:57.000Z</time>
      </trkpt>
      <trkpt lat="47.2499" lon="4.95291">
        <ele>432</ele>
        <time>2013-04-03T06:54:58.000Z</time>
      </trkpt>
      <trkpt lat="47.24993" lon="4.95287">
        <ele>432.4</ele>
        <time>2013-04-03T06:55:01.000Z</time>
      </trkpt>
      <trkpt lat="47.24993" lon="4.95285">
        <ele>431</ele>
        <time>2013-04-03T06:55:02.000Z</time>
      </trkpt>
      <trkpt lat="47.24996" lon="4.95282">
        <ele>430.1</ele>
        <time>2013-04-03T06:55:05.000Z</time>
      </trkpt>
      <trkpt lat="47.24997" lon="4.95281">
        <ele>430.6</ele>
        <time>2013-04-03T06:55:06.000Z</time>
      </trkpt>
      <trkpt lat="47.25" lon="4.95277">
        <ele>432</ele>
        <time>2013-04-03T06:55:10.000Z</time>
      </trkpt>
      <trkpt lat="47.25" lon="4.95276">
        <ele>432</ele>
        <time>2013-04-03T06:55:11.000Z</time>
      </trkpt>
      <trkpt lat="47.25003" lon="4.95272">
        <ele>433.5</ele>
        <time>2013-04-03T06:55:15.000Z</time>
      </trkpt>
      <trkpt lat="47.25004" lon="4.95271">
        <ele>433.7</ele>
        <time>2013-04-03T06:55:16.000Z</time>
      </trkpt>
      <trkpt lat="47.25007" lon="4.95269">
        <ele>434.9</ele>
        <time>2013-04-03T06:55:19.000Z</time>
      </trkpt>
      <trkpt lat="47.25009" lon="4.95268">
        <ele>435.4</ele>
        <time>2013-04-03T06:55:20.000Z</time>
      </trkpt>
      <trkpt lat="47.25011" lon="4.95263">
        <ele>434.8</ele>
        <time>2013-04-03T06:55:23.000Z</time>
      </trkpt>
      <trkpt lat="47.25012" lon="4.95261">
        <ele>434.7</ele>
        <time>2013-04-03T06:55:24.000Z</time>
      </trkpt>
      <trkpt lat="47.25014" lon="4.95255">
        <ele>434</ele>
        <time>2013-04-03T06:55:27.000Z</time>
      </trkpt>
      <trkpt lat="47.25014" lon="4.95253">
        <ele>434.4</ele>
        <time>2013-04-03T06:55:28.000Z</time>
      </trkpt>
      <trkpt lat="47.25014" lon="4.95247">
        <ele>434.2</ele>
        <time>2013-04-03T06:55:31.000Z</time>
      </trkpt>
      <trkpt lat="47.25014" lon="4.95245">
        <ele>433.8</ele>
        <time>2013-04-03T06:55:32.000Z</time>
      </trkpt>
      <trkpt lat="47.25015" lon="4.9524">
        <ele>433.6</ele>
        <time>2013-04-03T06:55:34.000Z</time>
      </trkpt>
      <trkpt lat="47.25015" lon="4.95238">
        <ele>433.9</ele>
        <time>2013-04-03T06:55:35.000Z</time>
      </trkpt>
      <trkpt lat="47.25016" lon="4.95234">
        <ele>434.1</ele>
        <time>2013-04-03T06:55:37.000Z</time>
      </trkpt>
      <trkpt lat="47.25017" lon="4.95232">
        <ele>434.1</ele>
        <time>2013-04-03T06:55:38.000Z</time>
      </trkpt>
      <trkpt lat="47.2502" lon="4.95228">
        <ele>434.1</ele>
        <time>2013-04-03T06:55:40.000Z</time>
      </trkpt>
      <trkpt lat="47.25021" lon="4.95226">
        <ele>435</ele>
        <time>2013-04-03T06:55:41.000Z</time>
      </trkpt>
      <trkpt lat="47.25023" lon="4.95222">
        <ele>436.3</ele>
        <time>2013-04-03T06:55:43.000Z</time>
      </trkpt>
      <trkpt lat="47.25024" lon="4.95221">
        <ele>437.1</ele>
        <time>2013-04-03T06:55:44.000Z</time>
      </trkpt>
      <trkpt lat="47.25027" lon="4.95217">
        <ele>437.4</ele>
        <time>2013-04-03T06:55:47.000Z</time>
      </trkpt>
      <trkpt lat="47.25028" lon="4.95215">
        <ele>437</ele>
        <time>2013-04-03T06:55:48.000Z</time>
      </trkpt>
      <trkpt lat="47.25031" lon="4.95212">
        <ele>440</ele>
        <time>2013-04-03T06:55:51.000Z</time>
      </trkpt>
      <trkpt lat="47.25032" lon="4.95211">
        <ele>439.7</ele>
        <time>2013-04-03T06:55:52.000Z</time>
      </trkpt>
      <trkpt lat="47.25034" lon="4.95205">
        <ele>439.7</ele>
        <time>2013-04-03T06:55:56.000Z</time>
      </trkpt>
      <trkpt lat="47.25035" lon="4.95204">
        <ele>440</ele>
        <time>2013-04-03T06:55:57.000Z</time>
      </trkpt>
      <trkpt lat="47.25036" lon="4.95199">
        <ele>440.3</ele>
        <time>2013-04-03T06:56:00.000Z</time>
      </trkpt>
      <trkpt lat="47.25037" lon="4.95196">
        <ele>440.5</ele>
        <time>2013-04-03T06:56:01.000Z</time>
      </trkpt>
      <trkpt lat="47.25039" lon="4.95192">
        <ele>439.8</ele>
        <time>2013-04-03T06:56:03.000Z</time>
      </trkpt>
      <trkpt lat="47.25039" lon="4.95189">
        <ele>439.7</ele>
        <time>2013-04-03T06:56:04.000Z</time>
      </trkpt>
      <trkpt lat="47.25041" lon="4.95183">
        <ele>440.7</ele>
        <time>2013-04-03T06:56:07.000Z</time>
      </trkpt>
      <trkpt lat="47.25041" lon="4.95182">
        <ele>441.3</ele>
        <time>2013-04-03T06:56:08.000Z</time>
      </trkpt>
      <trkpt lat="47.25043" lon="4.95177">
        <ele>442.3</ele>
        <time>2013-04-03T06:56:11.000Z</time>
      </trkpt>
      <trkpt lat="47.25044" lon="4.95176">
        <ele>442.7</ele>
        <time>2013-04-03T06:56:12.000Z</time>
      </trkpt>
      <trkpt lat="47.25045" lon="4.9517">
        <ele>443.7</ele>
        <time>2013-04-03T06:56:16.000Z</time>
      </trkpt>
      <trkpt lat="47.25045" lon="4.95169">
        <ele>443.4</ele>
        <time>2013-04-03T06:56:17.000Z</time>
      </trkpt>
      <trkpt lat="47.25047" lon="4.95163">
        <ele>445</ele>
        <time>2013-04-03T06:56:21.000Z</time>
      </trkpt>
      <trkpt lat="47.25048" lon="4.95162">
        <ele>445</ele>
        <time>2013-04-03T06:56:22.000Z</time>
      </trkpt>
      <trkpt lat="47.2505" lon="4.95157">
        <ele>444.5</ele>
        <time>2013-04-03T06:56:25.000Z</time>
      </trkpt>
      <trkpt lat="47.25051" lon="4.95155">
        <ele>445</ele>
        <time>2013-04-03T06:56:26.000Z</time>
      </trkpt>
      <trkpt lat="47.25053" lon="4.95152">
        <ele>444.5</ele>
        <time>2013-04-03T06:56:28.000Z</time>
      </trkpt>
      <trkpt lat="47.25054" lon="4.9515">
        <ele>442.5</ele>
        <time>2013-04-03T06:56:29.000Z</time>
      </trkpt>
      <trkpt lat="47.25055" lon="4.95145">
        <ele>441.1</ele>
        <time>2013-04-03T06:56:32.000Z</time>
      </trkpt>
      <trkpt lat="47.25056" lon="4.95144">
        <ele>441.2</ele>
        <time>2013-04-03T06:56:33.000Z</time>
      </trkpt>
      <trkpt lat="47.25058" lon="4.9514">
        <ele>442.2</ele>
        <time>2013-04-03T06:56:36.000Z</time>
      </trkpt>
      <trkpt lat="47.25059" lon="4.95138">
        <ele>442.1</ele>
        <time>2013-04-03T06:56:37.000Z</time>
      </trkpt>
      <trkpt lat="47.25061" lon="4.95134">
        <ele>442.1</ele>
        <time>2013-04-03T06:56:39.000Z</time>
      </trkpt>
      <trkpt lat="47.25062" lon="4.95133">
        <ele>442.5</ele>
        <time>2013-04-03T06:56:40.000Z</time>
      </trkpt>
      <trkpt lat="47.25065" lon="4.95128">
        <ele>443.5</ele>
        <time>2013-04-03T06:56:43.000Z</time>
      </trkpt>
      <trkpt lat="47.25066" lon="4.95127">
        <ele>443.7</ele>
        <time>2013-04-03T06:56:44.000Z</time>
      </trkpt>
      <trkpt lat="47.25069" lon="4.95122">
        <ele>444.7</ele>
        <time>2013-04-03T06:56:47.000Z</time>
      </trkpt>
      <trkpt lat="47.2507" lon="4.9512">
        <ele>445.3</ele>
        <time>2013-04-03T06:56:48.000Z</time>
      </trkpt>
      <trkpt lat="47.25072" lon="4.95116">
        <ele>442.6</ele>
        <time>2013-04-03T06:56:51.000Z</time>
      </trkpt>
      <trkpt lat="47.25074" lon="4.95115">
        <ele>442.4</ele>
        <time>2013-04-03T06:56:52.000Z</time>
      </trkpt>
      <trkpt lat="47.25077" lon="4.95112">
        <ele>443.4</ele>
        <time>2013-04-03T06:56:55.000Z</time>
      </trkpt>
      <trkpt lat="47.25078" lon="4.95111">
        <ele>443.4</ele>
        <time>2013-04-03T06:56:56.000Z</time>
      </trkpt>
      <trkpt lat="47.25081" lon="4.95108">
        <ele>445.3</ele>
        <time>2013-04-03T06:56:59.000Z</time>
      </trkpt>
      <trkpt lat="47.25082" lon="4.95107">
        <ele>445.3</ele>
        <time>2013-04-03T06:57:00.000Z</time>
      </trkpt>
      <trkpt lat="47.25085" lon="4.95104">
        <ele>446.9</ele>
        <time>2013-04-03T06:57:03.000Z</time>
      </trkpt>
      <trkpt lat="47.25085" lon="4.95103">
        <ele>446.4</ele>
        <time>2013-04-03T06:57:04.000Z</time>
      </trkpt>
      <trkpt lat="47.25089" lon="4.95101">
        <ele>447.9</ele>
        <time>2013-04-03T06:57:07.000Z</time>
      </trkpt>
      <trkpt lat="47.2509" lon="4.951">
        <ele>448.6</ele>
        <time>2013-04-03T06:57:08.000Z</time>
      </trkpt>
      <trkpt lat="47.25093" lon="4.95096">
        <ele>447.9</ele>
        <time>2013-04-03T06:57:11.000Z</time>
      </trkpt>
      <trkpt lat="47.25094" lon="4.95095">
        <ele>448.2</ele>
        <time>2013-04-03T06:57:12.000Z</time>
      </trkpt>
      <trkpt lat="47.25097" lon="4.95091">
        <ele>448.6</ele>
        <time>2013-04-03T06:57:15.000Z</time>
      </trkpt>
      <trkpt lat="47.25099" lon="4.95091">
        <ele>448.1</ele>
        <time>2013-04-03T06:57:16.000Z</time>
      </trkpt>
      <trkpt lat="47.25101" lon="4.95086">
        <ele>446</ele>
        <time>2013-04-03T06:57:21.000Z</time>
      </trkpt>
      <trkpt lat="47.25102" lon="4.95085">
        <ele>445.5</ele>
        <time>2013-04-03T06:57:22.000Z</time>
      </trkpt>
      <trkpt lat="47.25103" lon="4.9508">
        <ele>445.3</ele>
        <time>2013-04-03T06:57:27.000Z</time>
      </trkpt>
      <trkpt lat="47.25104" lon="4.95078">
        <ele>445.4</ele>
        <time>2013-04-03T06:57:28.000Z</time>
      </trkpt>
      <trkpt lat="47.25104" lon="4.95073">
        <ele>445.4</ele>
        <time>2013-04-03T06:57:31.000Z</time>
      </trkpt>
      <trkpt lat="47.25104" lon="4.95071">
        <ele>445.2</ele>
        <time>2013-04-03T06:57:32.000Z</time>
      </trkpt>
      <trkpt lat="47.25107" lon="4.95066">
        <ele>445.3</ele>
        <time>2013-04-03T06:57:35.000Z</time>
      </trkpt>
      <trkpt lat="47.25108" lon="4.95064">
        <ele>445.4</ele>
        <time>2013-04-03T06:57:36.000Z</time>
      </trkpt>
      <trkpt lat="47.2511" lon="4.9506">
        <ele>445.3</ele>
        <time>2013-04-03T06:57:38.000Z</time>
      </trkpt>
      <trkpt lat="47.25111" lon="4.95058">
        <ele>446</ele>
        <time>2013-04-03T06:57:39.000Z</time>
      </trkpt>
      <trkpt lat="47.25113" lon="4.95054">
        <ele>445</ele>
        <time>2013-04-03T06:57:41.000Z</time>
      </trkpt>
      <trkpt lat="47.25114" lon="4.95052">
        <ele>444.8</ele>
        <time>2013-04-03T06:57:42.000Z</time>
      </trkpt>
      <trkpt lat="47.25116" lon="4.95048">
        <ele>446.1</ele>
        <time>2013-04-03T06:57:45.000Z</time>
      </trkpt>
      <trkpt lat="47.25117" lon="4.95047">
        <ele>446.3</ele>
        <time>2013-04-03T06:57:46.000Z</time>
      </trkpt>
      <trkpt lat="47.2512" lon="4.95046">
        <ele>444.4</ele>
        <time>2013-04-03T06:57:51.000Z</time>
      </trkpt>
      <trkpt lat="47.25121" lon="4.95047">
        <ele>444.4</ele>
        <time>2013-04-03T06:57:52.000Z</time>
      </trkpt>
      <trkpt lat="47.25118" lon="4.95049">
        <ele>443.5</ele>
        <time>2013-04-03T06:57:56.000Z</time>
      </trkpt>
      <trkpt lat="47.25117" lon="4.95049">
        <ele>443.6</ele>
        <time>2013-04-03T06:57:57.000Z</time>
      </trkpt>
      <trkpt lat="47.25112" lon="4.95049">
        <ele>444.4</ele>
        <time>2013-04-03T06:58:01.000Z</time>
      </trkpt>
      <trkpt lat="47.25112" lon="4.95049">
        <ele>444.5</ele>
        <time>2013-04-03T06:58:02.000Z</time>
      </trkpt>
      <trkpt lat="47.25111" lon="4.95043">
        <ele>446.1</ele>
        <time>2013-04-03T06:58:10.000Z</time>
      </trkpt>
      <trkpt lat="47.25111" lon="4.95042">
        <ele>445.6</ele>
        <time>2013-04-03T06:58:11.000Z</time>
      </trkpt>
      <trkpt lat="47.25113" lon="4.95037">
        <ele>444.8</ele>
        <time>2013-04-03T06:58:16.000Z</time>
      </trkpt>
      <trkpt lat="47.25113" lon="4.95037">
        <ele>445</ele>
        <time>2013-04-03T06:58:17.000Z</time>
      </trkpt>
      <trkpt lat="47.25111" lon="4.95031">
        <ele>445.2</ele>
        <time>2013-04-03T06:58:40.000Z</time>
      </trkpt>
      <trkpt lat="47.25111" lon="4.9503">
        <ele>445.2</ele>
        <time>2013-04-03T06:58:41.000Z</time>
      </trkpt>
      <trkpt lat="47.25108" lon="4.95025">
        <ele>446.3</ele>
        <time>2013-04-03T06:58:48.000Z</time>
      </trkpt>
      <trkpt lat="47.25108" lon="4.95024">
        <ele>446.2</ele>
        <time>2013-04-03T06:58:49.000Z</time>
      </trkpt>
      <trkpt lat="47.25108" lon="4.95018">
        <ele>448</ele>
        <time>2013-04-03T06:59:01.000Z</time>
      </trkpt>
      <trkpt lat="47.25108" lon="4.95016">
        <ele>448.4</ele>
        <time>2013-04-03T06:59:02.000Z</time>
      </trkpt>
      <trkpt lat="47.25108" lon="4.95012">
        <ele>448.5</ele>
        <time>2013-04-03T06:59:04.000Z</time>
      </trkpt>
      <trkpt lat="47.25108" lon="4.95009">
        <ele>449.4</ele>
        <time>2013-04-03T06:59:05.000Z</time>
      </trkpt>
      <trkpt lat="47.25108" lon="4.95005">
        <ele>450.3</ele>
        <time>2013-04-03T06:59:07.000Z</time>
      </trkpt>
      <trkpt lat="47.25108" lon="4.95002">
        <ele>450.6</ele>
        <time>2013-04-03T06:59:08.000Z</time>
      </trkpt>
      <trkpt lat="47.25109" lon="4.94997">
        <ele>450.2</ele>
        <time>2013-04-03T06:59:10.000Z</time>
      </trkpt>
      <trkpt lat="47.2511" lon="4.94994">
        <ele>449.1</ele>
        <time>2013-04-03T06:59:11.000Z</time>
      </trkpt>
      <trkpt lat="47.25113" lon="4.94989">
        <ele>449.7</ele>
        <time>2013-04-03T06:59:13.000Z</time>
      </trkpt>
      <trkpt lat="47.25114" lon="4.94987">
        <ele>450</ele>
        <time>2013-04-03T06:59:14.000Z</time>
      </trkpt>
      <trkpt lat="47.25117" lon="4.94982">
        <ele>450.8</ele>
        <time>2013-04-03T06:59:16.000Z</time>
      </trkpt>
      <trkpt lat="47.25118" lon="4.9498">
        <ele>451.7</ele>
        <time>2013-04-03T06:59:17.000Z</time>
      </trkpt>
      <trkpt lat="47.2512" lon="4.94976">
        <ele>451.9</ele>
        <time>2013-04-03T06:59:18.000Z</time>
      </trkpt>
      <trkpt lat="47.25121" lon="4.94975">
        <ele>452</ele>
        <time>2013-04-03T06:59:19.000Z</time>
      </trkpt>
      <trkpt lat="47.25121" lon="4.94969">
        <ele>454.1</ele>
        <time>2013-04-03T06:59:36.000Z</time>
      </trkpt>
      <trkpt lat="47.25122" lon="4.94967">
        <ele>453.9</ele>
        <time>2013-04-03T06:59:37.000Z</time>
      </trkpt>
      <trkpt lat="47.25124" lon="4.94962">
        <ele>453.9</ele>
        <time>2013-04-03T06:59:40.000Z</time>
      </trkpt>
      <trkpt lat="47.25125" lon="4.94961">
        <ele>454.9</ele>
        <time>2013-04-03T06:59:41.000Z</time>
      </trkpt>
      <trkpt lat="47.25126" lon="4.94955">
        <ele>457.7</ele>
        <time>2013-04-03T06:59:55.000Z</time>
      </trkpt>
      <trkpt lat="47.25126" lon="4.94954">
        <ele>458.3</ele>
        <time>2013-04-03T06:59:56.000Z</time>
      </trkpt>
      <trkpt lat="47.25125" lon="4.94949">
        <ele>463.1</ele>
        <time>2013-04-03T07:00:00.000Z</time>
      </trkpt>
      <trkpt lat="47.25125" lon="4.94947">
        <ele>464.6</ele>
        <time>2013-04-03T07:00:01.000Z</time>
      </trkpt>
      <trkpt lat="47.25124" lon="4.94941">
        <ele>466.5</ele>
        <time>2013-04-03T07:00:05.000Z</time>
      </trkpt>
      <trkpt lat="47.25123" lon="4.94939">
        <ele>466.5</ele>
        <time>2013-04-03T07:00:06.000Z</time>
      </trkpt>
      <trkpt lat="47.25121" lon="4.94934">
        <ele>467.4</ele>
        <time>2013-04-03T07:00:09.000Z</time>
      </trkpt>
      <trkpt lat="47.25121" lon="4.94932">
        <ele>469.2</ele>
        <time>2013-04-03T07:00:10.000Z</time>
      </trkpt>
      <trkpt lat="47.25123" lon="4.94929">
        <ele>470.8</ele>
        <time>2013-04-03T07:00:17.000Z</time>
      </trkpt>
      <trkpt lat="47.25125" lon="4.94928">
        <ele>470</ele>
        <time>2013-04-03T07:00:18.000Z</time>
      </trkpt>
      <trkpt lat="47.25128" lon="4.9493">
        <ele>471.8</ele>
        <time>2013-04-03T07:00:58.000Z</time>
      </trkpt>
      <trkpt lat="47.2513" lon="4.9493">
        <ele>470.8</ele>
        <time>2013-04-03T07:00:59.000Z</time>
      </trkpt>
      <trkpt lat="47.25134" lon="4.9493">
        <ele>472</ele>
        <time>2013-04-03T07:01:02.000Z</time>
      </trkpt>
      <trkpt lat="47.25135" lon="4.9493">
        <ele>472.2</ele>
        <time>2013-04-03T07:01:03.000Z</time>
      </trkpt>
      <trkpt lat="47.25138" lon="4.94926">
        <ele>473.7</ele>
        <time>2013-04-03T07:01:09.000Z</time>
      </trkpt>
      <trkpt lat="47.25138" lon="4.94925">
        <ele>473.6</ele>
        <time>2013-04-03T07:01:10.000Z</time>
      </trkpt>
      <trkpt lat="47.25136" lon="4.9492">
        <ele>474.3</ele>
        <time>2013-04-03T07:03:18.000Z</time>
      </trkpt>
      <trkpt lat="47.25136" lon="4.94918">
        <ele>474.6</ele>
        <time>2013-04-03T07:03:19.000Z</time>
      </trkpt>
      <trkpt lat="47.25134" lon="4.94912">
        <ele>475.4</ele>
        <time>2013-04-03T07:03:28.000Z</time>
      </trkpt>
      <trkpt lat="47.25134" lon="4.94912">
        <ele>474.3</ele>
        <time>2013-04-03T07:03:29.000Z</time>
      </trkpt>
      <trkpt lat="47.25132" lon="4.94908">
        <ele>474.5</ele>
        <time>2013-04-03T07:03:31.000Z</time>
      </trkpt>
      <trkpt lat="47.25131" lon="4.94906">
        <ele>475.3</ele>
        <time>2013-04-03T07:03:32.000Z</time>
      </trkpt>
      <trkpt lat="47.2513" lon="4.94902">
        <ele>476.2</ele>
        <time>2013-04-03T07:03:34.000Z</time>
      </trkpt>
      <trkpt lat="47.25129" lon="4.94899">
        <ele>476.5</ele>
        <time>2013-04-03T07:03:35.000Z</time>
      </trkpt>
      <trkpt lat="47.25128" lon="4.94895">
        <ele>476.7</ele>
        <time>2013-04-03T07:03:37.000Z</time>
      </trkpt>
      <trkpt lat="47.25127" lon="4.94892">
        <ele>476.7</ele>
        <time>2013-04-03T07:03:38.000Z</time>
      </trkpt>
      <trkpt lat="47.25127" lon="4.94887">
        <ele>477.6</ele>
        <time>2013-04-03T07:03:40.000Z</time>
      </trkpt>
      <trkpt lat="47.25126" lon="4.94884">
        <ele>477.1</ele>
        <time>2013-04-03T07:03:41.000Z</time>
      </trkpt>
      <trkpt lat="47.25125" lon="4.94878">
        <ele>478.1</ele>
        <time>2013-04-03T07:03:43.000Z</time>
      </trkpt>
      <trkpt lat="47.25124" lon="4.94876">
        <ele>478.7</ele>
        <time>2013-04-03T07:03:44.000Z</time>
      </trkpt>
      <trkpt lat="47.25123" lon="4.9487">
        <ele>479.5</ele>
        <time>2013-04-03T07:03:46.000Z</time>
      </trkpt>
      <trkpt lat="47.25122" lon="4.94868">
        <ele>479.6</ele>
        <time>2013-04-03T07:03:47.000Z</time>
      </trkpt>
      <trkpt lat="47.25121" lon="4.94864">
        <ele>481</ele>
        <time>2013-04-03T07:03:49.000Z</time>
      </trkpt>
      <trkpt lat="47.25121" lon="4.94861">
        <ele>480.8</ele>
        <time>2013-04-03T07:03:50.000Z</time>
      </trkpt>
      <trkpt lat="47.25119" lon="4.94857">
        <ele>481.5</ele>
        <time>2013-04-03T07:03:52.000Z</time>
      </trkpt>
      <trkpt lat="47.25118" lon="4.94855">
        <ele>481.7</ele>
        <time>2013-04-03T07:03:53.000Z</time>
      </trkpt>
      <trkpt lat="47.25115" lon="4.94851">
        <ele>482.8</ele>
        <time>2013-04-03T07:03:55.000Z</time>
      </trkpt>
      <trkpt lat="47.25115" lon="4.9485">
        <ele>482.5</ele>
        <time>2013-04-03T07:03:56.000Z</time>
      </trkpt>
      <trkpt lat="47.25113" lon="4.94845">
        <ele>483.3</ele>
        <time>2013-04-03T07:04:01.000Z</time>
      </trkpt>
      <trkpt lat="47.25112" lon="4.94843">
        <ele>483.4</ele>
        <time>2013-04-03T07:04:02.000Z</time>
      </trkpt>
      <trkpt lat="47.2511" lon="4.9484">
        <ele>483.9</ele>
        <time>2013-04-03T07:04:04.000Z</time>
      </trkpt>
      <trkpt lat="47.25109" lon="4.94838">
        <ele>484.1</ele>
        <time>2013-04-03T07:04:05.000Z</time>
      </trkpt>
      <trkpt lat="47.25108" lon="4.94834">
        <ele>484.3</ele>
        <time>2013-04-03T07:04:07.000Z</time>
      </trkpt>
      <trkpt lat="47.25107" lon="4.94832">
        <ele>483.8</ele>
        <time>2013-04-03T07:04:08.000Z</time>
      </trkpt>
      <trkpt lat="47.25105" lon="4.94827">
        <ele>484.3</ele>
        <time>2013-04-03T07:04:11.000Z</time>
      </trkpt>
      <trkpt lat="47.25105" lon="4.94825">
        <ele>484.5</ele>
        <time>2013-04-03T07:04:12.000Z</time>
      </trkpt>
      <trkpt lat="47.25104" lon="4.94818">
        <ele>486.4</ele>
        <time>2013-04-03T07:04:15.000Z</time>
      </trkpt>
      <trkpt lat="47.25104" lon="4.94816">
        <ele>486.5</ele>
        <time>2013-04-03T07:04:16.000Z</time>
      </trkpt>
      <trkpt lat="47.25102" lon="4.94811">
        <ele>486.3</ele>
        <time>2013-04-03T07:04:19.000Z</time>
      </trkpt>
      <trkpt lat="47.25102" lon="4.94809">
        <ele>486.6</ele>
        <time>2013-04-03T07:04:20.000Z</time>
      </trkpt>
      <trkpt lat="47.251" lon="4.94804">
        <ele>487.9</ele>
        <time>2013-04-03T07:04:22.000Z</time>
      </trkpt>
      <trkpt lat="47.25099" lon="4.94802">
        <ele>488.7</ele>
        <time>2013-04-03T07:04:23.000Z</time>
      </trkpt>
      <trkpt lat="47.25098" lon="4.94797">
        <ele>489.1</ele>
        <time>2013-04-03T07:04:25.000Z</time>
      </trkpt>
      <trkpt lat="47.25097" lon="4.94795">
        <ele>488.4</ele>
        <time>2013-04-03T07:04:26.000Z</time>
      </trkpt>
      <trkpt lat="47.25095" lon="4.94791">
        <ele>488.9</ele>
        <time>2013-04-03T07:04:28.000Z</time>
      </trkpt>
      <trkpt lat="47.25095" lon="4.94789">
        <ele>488.2</ele>
        <time>2013-04-03T07:04:29.000Z</time>
      </trkpt>
      <trkpt lat="47.25093" lon="4.94783">
        <ele>490</ele>
        <time>2013-04-03T07:04:32.000Z</time>
      </trkpt>
      <trkpt lat="47.25093" lon="4.94782">
        <ele>490.2</ele>
        <time>2013-04-03T07:04:33.000Z</time>
      </trkpt>
      <trkpt lat="47.25091" lon="4.94776">
        <ele>488.7</ele>
        <time>2013-04-03T07:04:36.000Z</time>
      </trkpt>
      <trkpt lat="47.25091" lon="4.94774">
        <ele>489</ele>
        <time>2013-04-03T07:04:37.000Z</time>
      </trkpt>
      <trkpt lat="47.2509" lon="4.9477">
        <ele>488.5</ele>
        <time>2013-04-03T07:04:39.000Z</time>
      </trkpt>
      <trkpt lat="47.2509" lon="4.94767">
        <ele>488.8</ele>
        <time>2013-04-03T07:04:40.000Z</time>
      </trkpt>
      <trkpt lat="47.25089" lon="4.94762">
        <ele>489.6</ele>
        <time>2013-04-03T07:04:43.000Z</time>
      </trkpt>
      <trkpt lat="47.25088" lon="4.94761">
        <ele>487.9</ele>
        <time>2013-04-03T07:04:44.000Z</time>
      </trkpt>
      <trkpt lat="47.25086" lon="4.94756">
        <ele>487.5</ele>
        <time>2013-04-03T07:04:47.000Z</time>
      </trkpt>
      <trkpt lat="47.25086" lon="4.94755">
        <ele>487.2</ele>
        <time>2013-04-03T07:04:48.000Z</time>
      </trkpt>
      <trkpt lat="47.25082" lon="4.94752">
        <ele>487.1</ele>
        <time>2013-04-03T07:04:51.000Z</time>
      </trkpt>
      <trkpt lat="47.25082" lon="4.94751">
        <ele>486.7</ele>
        <time>2013-04-03T07:04:52.000Z</time>
      </trkpt>
      <trkpt lat="47.25079" lon="4.94746">
        <ele>487.2</ele>
        <time>2013-04-03T07:04:57.000Z</time>
      </trkpt>
      <trkpt lat="47.25079" lon="4.94745">
        <ele>487.1</ele>
        <time>2013-04-03T07:04:58.000Z</time>
      </trkpt>
      <trkpt lat="47.25076" lon="4.9474">
        <ele>486.7</ele>
        <time>2013-04-03T07:05:02.000Z</time>
      </trkpt>
      <trkpt lat="47.25075" lon="4.94739">
        <ele>486.4</ele>
        <time>2013-04-03T07:05:03.000Z</time>
      </trkpt>
      <trkpt lat="47.25073" lon="4.94734">
        <ele>484.6</ele>
        <time>2013-04-03T07:05:06.000Z</time>
      </trkpt>
      <trkpt lat="47.25072" lon="4.94733">
        <ele>484.4</ele>
        <time>2013-04-03T07:05:07.000Z</time>
      </trkpt>
      <trkpt lat="47.2507" lon="4.94728">
        <ele>484.3</ele>
        <time>2013-04-03T07:05:10.000Z</time>
      </trkpt>
      <trkpt lat="47.25069" lon="4.94726">
        <ele>484.5</ele>
        <time>2013-04-03T07:05:11.000Z</time>
      </trkpt>
      <trkpt lat="47.25068" lon="4.9472">
        <ele>485.9</ele>
        <time>2013-04-03T07:05:14.000Z</time>
      </trkpt>
      <trkpt lat="47.25068" lon="4.94719">
        <ele>485.9</ele>
        <time>2013-04-03T07:05:15.000Z</time>
      </trkpt>
      <trkpt lat="47.25065" lon="4.94714">
        <ele>488.3</ele>
        <time>2013-04-03T07:05:23.000Z</time>
      </trkpt>
      <trkpt lat="47.25065" lon="4.94714">
        <ele>488.3</ele>
        <time>2013-04-03T07:05:24.000Z</time>
      </trkpt>
      <trkpt lat="47.25062" lon="4.9471">
        <ele>488.1</ele>
        <time>2013-04-03T07:05:36.000Z</time>
      </trkpt>
      <trkpt lat="47.25061" lon="4.94708">
        <ele>488.2</ele>
        <time>2013-04-03T07:05:37.000Z</time>
      </trkpt>
      <trkpt lat="47.2506" lon="4.94704">
        <ele>488.2</ele>
        <time>2013-04-03T07:05:39.000Z</time>
      </trkpt>
      <trkpt lat="47.25059" lon="4.94702">
        <ele>487.9</ele>
        <time>2013-04-03T07:05:40.000Z</time>
      </trkpt>
      <trkpt lat="47.25057" lon="4.94698">
        <ele>487.1</ele>
        <time>2013-04-03T07:05:41.000Z</time>
      </trkpt>
      <trkpt lat="47.25056" lon="4.94696">
        <ele>487.3</ele>
        <time>2013-04-03T07:05:42.000Z</time>
      </trkpt>
      <trkpt lat="47.25053" lon="4.9469">
        <ele>488.6</ele>
        <time>2013-04-03T07:05:46.000Z</time>
      </trkpt>
      <trkpt lat="47.25053" lon="4.94689">
        <ele>488.5</ele>
        <time>2013-04-03T07:05:47.000Z</time>
      </trkpt>
      <trkpt lat="47.2505" lon="4.94684">
        <ele>489.8</ele>
        <time>2013-04-03T07:05:56.000Z</time>
      </trkpt>
      <trkpt lat="47.2505" lon="4.94683">
        <ele>489.5</ele>
        <time>2013-04-03T07:05:57.000Z</time>
      </trkpt>
      <trkpt lat="47.25048" lon="4.94678">
        <ele>488.2</ele>
        <time>2013-04-03T07:06:00.000Z</time>
      </trkpt>
      <trkpt lat="47.25047" lon="4.94676">
        <ele>488.8</ele>
        <time>2013-04-03T07:06:01.000Z</time>
      </trkpt>
      <trkpt lat="47.25044" lon="4.94671">
        <ele>489.1</ele>
        <time>2013-04-03T07:06:03.000Z</time>
      </trkpt>
      <trkpt lat="47.25043" lon="4.94669">
        <ele>490.9</ele>
        <time>2013-04-03T07:06:04.000Z</time>
      </trkpt>
      <trkpt lat="47.25041" lon="4.94665">
        <ele>490.9</ele>
        <time>2013-04-03T07:06:06.000Z</time>
      </trkpt>
      <trkpt lat="47.2504" lon="4.94662">
        <ele>491.6</ele>
        <time>2013-04-03T07:06:07.000Z</time>
      </trkpt>
      <trkpt lat="47.25038" lon="4.94656">
        <ele>493.4</ele>
        <time>2013-04-03T07:06:09.000Z</time>
      </trkpt>
      <trkpt lat="47.25037" lon="4.94653">
        <ele>493.4</ele>
        <time>2013-04-03T07:06:10.000Z</time>
      </trkpt>
      <trkpt lat="47.25035" lon="4.94648">
        <ele>492.2</ele>
        <time>2013-04-03T07:06:12.000Z</time>
      </trkpt>
      <trkpt lat="47.25033" lon="4.94645">
        <ele>491.8</ele>
        <time>2013-04-03T07:06:13.000Z</time>
      </trkpt>
      <trkpt lat="47.25031" lon="4.94641">
        <ele>492.5</ele>
        <time>2013-04-03T07:06:15.000Z</time>
      </trkpt>
      <trkpt lat="47.2503" lon="4.94639">
        <ele>493.3</ele>
        <time>2013-04-03T07:06:16.000Z</time>
      </trkpt>
      <trkpt lat="47.25028" lon="4.94634">
        <ele>494</ele>
        <time>2013-04-03T07:06:18.000Z</time>
      </trkpt>
      <trkpt lat="47.25026" lon="4.94631">
        <ele>493.4</ele>
        <time>2013-04-03T07:06:19.000Z</time>
      </trkpt>
      <trkpt lat="47.25024" lon="4.94626">
        <ele>494.3</ele>
        <time>2013-04-03T07:06:24.000Z</time>
      </trkpt>
      <trkpt lat="47.25024" lon="4.94625">
        <ele>495.2</ele>
        <time>2013-04-03T07:06:25.000Z</time>
      </trkpt>
      <trkpt lat="47.25022" lon="4.9462">
        <ele>496.5</ele>
        <time>2013-04-03T07:06:29.000Z</time>
      </trkpt>
      <trkpt lat="47.25021" lon="4.94619">
        <ele>496.6</ele>
        <time>2013-04-03T07:06:30.000Z</time>
      </trkpt>
      <trkpt lat="47.25019" lon="4.94614">
        <ele>493.8</ele>
        <time>2013-04-03T07:06:34.000Z</time>
      </trkpt>
      <trkpt lat="47.25018" lon="4.94613">
        <ele>493.3</ele>
        <time>2013-04-03T07:06:35.000Z</time>
      </trkpt>
      <trkpt lat="47.25015" lon="4.94608">
        <ele>492.4</ele>
        <time>2013-04-03T07:06:38.000Z</time>
      </trkpt>
      <trkpt lat="47.25014" lon="4.94606">
        <ele>492.4</ele>
        <time>2013-04-03T07:06:39.000Z</time>
      </trkpt>
      <trkpt lat="47.25011" lon="4.94601">
        <ele>491.7</ele>
        <time>2013-04-03T07:06:41.000Z</time>
      </trkpt>
      <trkpt lat="47.25009" lon="4.94598">
        <ele>491.6</ele>
        <time>2013-04-03T07:06:42.000Z</time>
      </trkpt>
      <trkpt lat="47.25008" lon="4.94594">
        <ele>494.7</ele>
        <time>2013-04-03T07:06:44.000Z</time>
      </trkpt>
      <trkpt lat="47.25007" lon="4.94592">
        <ele>494</ele>
        <time>2013-04-03T07:06:45.000Z</time>
      </trkpt>
      <trkpt lat="47.25005" lon="4.94588">
        <ele>493.1</ele>
        <time>2013-04-03T07:06:47.000Z</time>
      </trkpt>
      <trkpt lat="47.25003" lon="4.94586">
        <ele>492.4</ele>
        <time>2013-04-03T07:06:48.000Z</time>
      </trkpt>
      <trkpt lat="47.25001" lon="4.94581">
        <ele>494.1</ele>
        <time>2013-04-03T07:06:50.000Z</time>
      </trkpt>
      <trkpt lat="47.25" lon="4.94579">
        <ele>493.9</ele>
        <time>2013-04-03T07:06:51.000Z</time>
      </trkpt>
      <trkpt lat="47.24998" lon="4.94574">
        <ele>493.7</ele>
        <time>2013-04-03T07:06:53.000Z</time>
      </trkpt>
      <trkpt lat="47.24997" lon="4.94572">
        <ele>493.1</ele>
        <time>2013-04-03T07:06:54.000Z</time>
      </trkpt>
      <trkpt lat="47.24995" lon="4.94568">
        <ele>494.5</ele>
        <time>2013-04-03T07:06:56.000Z</time>
      </trkpt>
      <trkpt lat="47.24994" lon="4.94566">
        <ele>493.8</ele>
        <time>2013-04-03T07:06:57.000Z</time>
      </trkpt>
      <trkpt lat="47.24992" lon="4.94563">
        <ele>493.9</ele>
        <time>2013-04-03T07:06:59.000Z</time>
      </trkpt>
      <trkpt lat="47.2499" lon="4.94561">
        <ele>493.4</ele>
        <time>2013-04-03T07:07:00.000Z</time>
      </trkpt>
      <trkpt lat="47.24988" lon="4.94556">
        <ele>492.9</ele>
        <time>2013-04-03T07:07:02.000Z</time>
      </trkpt>
      <trkpt lat="47.24987" lon="4.94554">
        <ele>493.5</ele>
        <time>2013-04-03T07:07:03.000Z</time>
      </trkpt>
      <trkpt lat="47.24967" lon="4.94525">
        <ele>509</ele>
        <time>2013-04-03T07:07:03.176Z</time>
      </trkpt>
      <trkpt lat="47.24967" lon="4.94523">
        <ele>507.7</ele>
        <time>2013-04-03T07:07:05.176Z</time>
      </trkpt>
      <trkpt lat="47.24984" lon="4.9455">
        <ele>492.7</ele>
        <time>2013-04-03T07:07:06.000Z</time>
      </trkpt>
      <trkpt lat="47.2498" lon="4.94548">
        <ele>492.8</ele>
        <time>2013-04-03T07:07:08.000Z</time>
      </trkpt>
      <trkpt lat="47.24978" lon="4.94546">
        <ele>493.5</ele>
        <time>2013-04-03T07:07:09.000Z</time>
      </trkpt>
      <trkpt lat="47.24974" lon="4.94544">
        <ele>494.4</ele>
        <time>2013-04-03T07:07:11.000Z</time>
      </trkpt>
      <trkpt lat="47.24973" lon="4.94542">
        <ele>494.4</ele>
        <time>2013-04-03T07:07:12.000Z</time>
      </trkpt>
      <trkpt lat="47.2497" lon="4.94539">
        <ele>494.5</ele>
        <time>2013-04-03T07:07:14.000Z</time>
      </trkpt>
      <trkpt lat="47.24968" lon="4.94538">
        <ele>494.1</ele>
        <time>2013-04-03T07:07:15.000Z</time>
      </trkpt>
      <trkpt lat="47.24966" lon="4.94534">
        <ele>494.6</ele>
        <time>2013-04-03T07:07:17.000Z</time>
      </trkpt>
      <trkpt lat="47.24964" lon="4.94532">
        <ele>495.5</ele>
        <time>2013-04-03T07:07:18.000Z</time>
      </trkpt>
      <trkpt lat="47.24962" lon="4.94529">
        <ele>496</ele>
        <time>2013-04-03T07:07:20.000Z</time>
      </trkpt>
      <trkpt lat="47.24961" lon="4.94527">
        <ele>496.3</ele>
        <time>2013-04-03T07:07:21.000Z</time>
      </trkpt>
      <trkpt lat="47.24958" lon="4.94521">
        <ele>494.2</ele>
        <time>2013-04-03T07:07:24.000Z</time>
      </trkpt>
      <trkpt lat="47.24958" lon="4.9452">
        <ele>494</ele>
        <time>2013-04-03T07:07:25.000Z</time>
      </trkpt>
      <trkpt lat="47.24956" lon="4.94515">
        <ele>498.4</ele>
        <time>2013-04-03T07:07:27.000Z</time>
      </trkpt>
      <trkpt lat="47.24955" lon="4.94513">
        <ele>498.1</ele>
        <time>2013-04-03T07:07:28.000Z</time>
      </trkpt>
      <trkpt lat="47.24954" lon="4.94508">
        <ele>499.5</ele>
        <time>2013-04-03T07:07:30.000Z</time>
      </trkpt>
      <trkpt lat="47.24953" lon="4.94506">
        <ele>499.7</ele>
        <time>2013-04-03T07:07:31.000Z</time>
      </trkpt>
      <trkpt lat="47.24952" lon="4.945">
        <ele>498.9</ele>
        <time>2013-04-03T07:07:34.000Z</time>
      </trkpt>
      <trkpt lat="47.24951" lon="4.94499">
        <ele>499.4</ele>
        <time>2013-04-03T07:07:35.000Z</time>
      </trkpt>
      <trkpt lat="47.2495" lon="4.94493">
        <ele>500.4</ele>
        <time>2013-04-03T07:07:38.000Z</time>
      </trkpt>
      <trkpt lat="47.2495" lon="4.94492">
        <ele>500.8</ele>
        <time>2013-04-03T07:07:39.000Z</time>
      </trkpt>
      <trkpt lat="47.24949" lon="4.94487">
        <ele>501</ele>
        <time>2013-04-03T07:07:42.000Z</time>
      </trkpt>
      <trkpt lat="47.24948" lon="4.94485">
        <ele>501.4</ele>
        <time>2013-04-03T07:07:43.000Z</time>
      </trkpt>
      <trkpt lat="47.24946" lon="4.9448">
        <ele>502.3</ele>
        <time>2013-04-03T07:07:46.000Z</time>
      </trkpt>
      <trkpt lat="47.24945" lon="4.94478">
        <ele>502.5</ele>
        <time>2013-04-03T07:07:47.000Z</time>
      </trkpt>
      <trkpt lat="47.24943" lon="4.94473">
        <ele>501.1</ele>
        <time>2013-04-03T07:07:50.000Z</time>
      </trkpt>
      <trkpt lat="47.24942" lon="4.94471">
        <ele>500.9</ele>
        <time>2013-04-03T07:07:51.000Z</time>
      </trkpt>
      <trkpt lat="47.2494" lon="4.94466">
        <ele>500.7</ele>
        <time>2013-04-03T07:07:56.000Z</time>
      </trkpt>
      <trkpt lat="47.24939" lon="4.94464">
        <ele>501.4</ele>
        <time>2013-04-03T07:07:57.000Z</time>
      </trkpt>
      <trkpt lat="47.24938" lon="4.9446">
        <ele>502.1</ele>
        <time>2013-04-03T07:07:59.000Z</time>
      </trkpt>
      <trkpt lat="47.24937" lon="4.94458">
        <ele>502.4</ele>
        <time>2013-04-03T07:08:00.000Z</time>
      </trkpt>
      <trkpt lat="47.24935" lon="4.94452">
        <ele>502.1</ele>
        <time>2013-04-03T07:08:03.000Z</time>
      </trkpt>
      <trkpt lat="47.24934" lon="4.9445">
        <ele>502</ele>
        <time>2013-04-03T07:08:04.000Z</time>
      </trkpt>
      <trkpt lat="47.24932" lon="4.94446">
        <ele>502</ele>
        <time>2013-04-03T07:08:07.000Z</time>
      </trkpt>
      <trkpt lat="47.24931" lon="4.94444">
        <ele>501.1</ele>
        <time>2013-04-03T07:08:08.000Z</time>
      </trkpt>
      <trkpt lat="47.2493" lon="4.94439">
        <ele>502.4</ele>
        <time>2013-04-03T07:08:11.000Z</time>
      </trkpt>
      <trkpt lat="47.2493" lon="4.94437">
        <ele>502.8</ele>
        <time>2013-04-03T07:08:12.000Z</time>
      </trkpt>
      <trkpt lat="47.2493" lon="4.94432">
        <ele>501</ele>
        <time>2013-04-03T07:08:16.000Z</time>
      </trkpt>
      <trkpt lat="47.24931" lon="4.9443">
        <ele>501.2</ele>
        <time>2013-04-03T07:08:17.000Z</time>
      </trkpt>
      <trkpt lat="47.24932" lon="4.94425">
        <ele>500.9</ele>
        <time>2013-04-03T07:08:20.000Z</time>
      </trkpt>
      <trkpt lat="47.24932" lon="4.94423">
        <ele>500.3</ele>
        <time>2013-04-03T07:08:21.000Z</time>
      </trkpt>
      <trkpt lat="47.24931" lon="4.94417">
        <ele>500.4</ele>
        <time>2013-04-03T07:08:24.000Z</time>
      </trkpt>
      <trkpt lat="47.24931" lon="4.94415">
        <ele>500.8</ele>
        <time>2013-04-03T07:08:25.000Z</time>
      </trkpt>
      <trkpt lat="47.2493" lon="4.94409">
        <ele>501.1</ele>
        <time>2013-04-03T07:08:28.000Z</time>
      </trkpt>
      <trkpt lat="47.2493" lon="4.94407">
        <ele>501.4</ele>
        <time>2013-04-03T07:08:29.000Z</time>
      </trkpt>
      <trkpt lat="47.24929" lon="4.94403">
        <ele>501.6</ele>
        <time>2013-04-03T07:08:32.000Z</time>
      </trkpt>
      <trkpt lat="47.24929" lon="4.94401">
        <ele>502</ele>
        <time>2013-04-03T07:08:33.000Z</time>
      </trkpt>
      <trkpt lat="47.24929" lon="4.94395">
        <ele>502.2</ele>
        <time>2013-04-03T07:08:36.000Z</time>
      </trkpt>
      <trkpt lat="47.2493" lon="4.94393">
        <ele>502.3</ele>
        <time>2013-04-03T07:08:37.000Z</time>
      </trkpt>
      <trkpt lat="47.2493" lon="4.94388">
        <ele>500.8</ele>
        <time>2013-04-03T07:08:39.000Z</time>
      </trkpt>
      <trkpt lat="47.2493" lon="4.94386">
        <ele>502.4</ele>
        <time>2013-04-03T07:08:40.000Z</time>
      </trkpt>
      <trkpt lat="47.2493" lon="4.9438">
        <ele>502.2</ele>
        <time>2013-04-03T07:08:48.000Z</time>
      </trkpt>
      <trkpt lat="47.2493" lon="4.94378">
        <ele>502</ele>
        <time>2013-04-03T07:08:49.000Z</time>
      </trkpt>
      <trkpt lat="47.24932" lon="4.94373">
        <ele>501.5</ele>
        <time>2013-04-03T07:08:52.000Z</time>
      </trkpt>
      <trkpt lat="47.24932" lon="4.94371">
        <ele>500.4</ele>
        <time>2013-04-03T07:08:53.000Z</time>
      </trkpt>
      <trkpt lat="47.24933" lon="4.94366">
        <ele>500.9</ele>
        <time>2013-04-03T07:08:56.000Z</time>
      </trkpt>
      <trkpt lat="47.24934" lon="4.94364">
        <ele>501.4</ele>
        <time>2013-04-03T07:08:57.000Z</time>
      </trkpt>
      <trkpt lat="47.24935" lon="4.9436">
        <ele>501.8</ele>
        <time>2013-04-03T07:08:59.000Z</time>
      </trkpt>
      <trkpt lat="47.24935" lon="4.94358">
        <ele>501.9</ele>
        <time>2013-04-03T07:09:00.000Z</time>
      </trkpt>
      <trkpt lat="47.24936" lon="4.94353">
        <ele>501.9</ele>
        <time>2013-04-03T07:09:02.000Z</time>
      </trkpt>
      <trkpt lat="47.24937" lon="4.94351">
        <ele>500.6</ele>
        <time>2013-04-03T07:09:03.000Z</time>
      </trkpt>
      <trkpt lat="47.24938" lon="4.94347">
        <ele>500.8</ele>
        <time>2013-04-03T07:09:05.000Z</time>
      </trkpt>
      <trkpt lat="47.24938" lon="4.94345">
        <ele>500</ele>
        <time>2013-04-03T07:09:06.000Z</time>
      </trkpt>
      <trkpt lat="47.2494" lon="4.9434">
        <ele>500.9</ele>
        <time>2013-04-03T07:09:08.000Z</time>
      </trkpt>
      <trkpt lat="47.2494" lon="4.94338">
        <ele>501.4</ele>
        <time>2013-04-03T07:09:09.000Z</time>
      </trkpt>
      <trkpt lat="47.24942" lon="4.94334">
        <ele>500.6</ele>
        <time>2013-04-03T07:09:11.000Z</time>
      </trkpt>
      <trkpt lat="47.24942" lon="4.94332">
        <ele>500.3</ele>
        <time>2013-04-03T07:09:12.000Z</time>
      </trkpt>
      <trkpt lat="47.24944" lon="4.94326">
        <ele>499.5</ele>
        <time>2013-04-03T07:09:15.000Z</time>
      </trkpt>
      <trkpt lat="47.24944" lon="4.94324">
        <ele>499.3</ele>
        <time>2013-04-03T07:09:16.000Z</time>
      </trkpt>
      <trkpt lat="47.24946" lon="4.94318">
        <ele>496.7</ele>
        <time>2013-04-03T07:09:20.000Z</time>
      </trkpt>
      <trkpt lat="47.24947" lon="4.94317">
        <ele>496.8</ele>
        <time>2013-04-03T07:09:21.000Z</time>
      </trkpt>
      <trkpt lat="47.24947" lon="4.94311">
        <ele>497.4</ele>
        <time>2013-04-03T07:09:25.000Z</time>
      </trkpt>
      <trkpt lat="47.24948" lon="4.94309">
        <ele>498.5</ele>
        <time>2013-04-03T07:09:26.000Z</time>
      </trkpt>
      <trkpt lat="47.24949" lon="4.94305">
        <ele>499.6</ele>
        <time>2013-04-03T07:09:28.000Z</time>
      </trkpt>
      <trkpt lat="47.24949" lon="4.94303">
        <ele>499.3</ele>
        <time>2013-04-03T07:09:29.000Z</time>
      </trkpt>
      <trkpt lat="47.2495" lon="4.94297">
        <ele>499.2</ele>
        <time>2013-04-03T07:09:32.000Z</time>
      </trkpt>
      <trkpt lat="47.24951" lon="4.94295">
        <ele>499.4</ele>
        <time>2013-04-03T07:09:33.000Z</time>
      </trkpt>
      <trkpt lat="47.24953" lon="4.94289">
        <ele>498.5</ele>
        <time>2013-04-03T07:09:37.000Z</time>
      </trkpt>
      <trkpt lat="47.24954" lon="4.94288">
        <ele>498.1</ele>
        <time>2013-04-03T07:09:38.000Z</time>
      </trkpt>
      <trkpt lat="47.24956" lon="4.94283">
        <ele>498</ele>
        <time>2013-04-03T07:09:41.000Z</time>
      </trkpt>
      <trkpt lat="47.24956" lon="4.94281">
        <ele>496.8</ele>
        <time>2013-04-03T07:09:42.000Z</time>
      </trkpt>
      <trkpt lat="47.24956" lon="4.94276">
        <ele>497.8</ele>
        <time>2013-04-03T07:09:45.000Z</time>
      </trkpt>
      <trkpt lat="47.24956" lon="4.94274">
        <ele>498.2</ele>
        <time>2013-04-03T07:09:46.000Z</time>
      </trkpt>
      <trkpt lat="47.24957" lon="4.94268">
        <ele>498.7</ele>
        <time>2013-04-03T07:09:49.000Z</time>
      </trkpt>
      <trkpt lat="47.24957" lon="4.94266">
        <ele>498</ele>
        <time>2013-04-03T07:09:50.000Z</time>
      </trkpt>
      <trkpt lat="47.24958" lon="4.94261">
        <ele>496.9</ele>
        <time>2013-04-03T07:09:53.000Z</time>
      </trkpt>
      <trkpt lat="47.24959" lon="4.94259">
        <ele>497.1</ele>
        <time>2013-04-03T07:09:54.000Z</time>
      </trkpt>
      <trkpt lat="47.24961" lon="4.94254">
        <ele>497.4</ele>
        <time>2013-04-03T07:09:57.000Z</time>
      </trkpt>
      <trkpt lat="47.24961" lon="4.94252">
        <ele>497.1</ele>
        <time>2013-04-03T07:09:58.000Z</time>
      </trkpt>
      <trkpt lat="47.24962" lon="4.94247">
        <ele>498.2</ele>
        <time>2013-04-03T07:10:01.000Z</time>
      </trkpt>
      <trkpt lat="47.24962" lon="4.94246">
        <ele>497.5</ele>
        <time>2013-04-03T07:10:02.000Z</time>
      </trkpt>
      <trkpt lat="47.24963" lon="4.9424">
        <ele>498.2</ele>
        <time>2013-04-03T07:10:05.000Z</time>
      </trkpt>
      <trkpt lat="47.24964" lon="4.94238">
        <ele>498.6</ele>
        <time>2013-04-03T07:10:06.000Z</time>
      </trkpt>
      <trkpt lat="47.24964" lon="4.94232">
        <ele>497.7</ele>
        <time>2013-04-03T07:10:09.000Z</time>
      </trkpt>
      <trkpt lat="47.24964" lon="4.9423">
        <ele>498.1</ele>
        <time>2013-04-03T07:10:10.000Z</time>
      </trkpt>
      <trkpt lat="47.24965" lon="4.94225">
        <ele>496.7</ele>
        <time>2013-04-03T07:10:13.000Z</time>
      </trkpt>
      <trkpt lat="47.24965" lon="4.94223">
        <ele>496.8</ele>
        <time>2013-04-03T07:10:14.000Z</time>
      </trkpt>
      <trkpt lat="47.24967" lon="4.94217">
        <ele>497.7</ele>
        <time>2013-04-03T07:10:17.000Z</time>
      </trkpt>
      <trkpt lat="47.24967" lon="4.94216">
        <ele>497.9</ele>
        <time>2013-04-03T07:10:18.000Z</time>
      </trkpt>
      <trkpt lat="47.24969" lon="4.9421">
        <ele>498</ele>
        <time>2013-04-03T07:10:21.000Z</time>
      </trkpt>
      <trkpt lat="47.2497" lon="4.94208">
        <ele>497.3</ele>
        <time>2013-04-03T07:10:22.000Z</time>
      </trkpt>
      <trkpt lat="47.24971" lon="4.94202">
        <ele>496.4</ele>
        <time>2013-04-03T07:10:25.000Z</time>
      </trkpt>
      <trkpt lat="47.24971" lon="4.942">
        <ele>496.6</ele>
        <time>2013-04-03T07:10:26.000Z</time>
      </trkpt>
      <trkpt lat="47.24972" lon="4.94195">
        <ele>497</ele>
        <time>2013-04-03T07:10:29.000Z</time>
      </trkpt>
      <trkpt lat="47.24972" lon="4.94194">
        <ele>497.9</ele>
        <time>2013-04-03T07:10:30.000Z</time>
      </trkpt>
      <trkpt lat="47.24973" lon="4.94187">
        <ele>499.5</ele>
        <time>2013-04-03T07:10:34.000Z</time>
      </trkpt>
      <trkpt lat="47.24973" lon="4.94185">
        <ele>499.9</ele>
        <time>2013-04-03T07:10:35.000Z</time>
      </trkpt>
      <trkpt lat="47.24974" lon="4.9418">
        <ele>499.4</ele>
        <time>2013-04-03T07:10:37.000Z</time>
      </trkpt>
      <trkpt lat="47.24974" lon="4.94178">
        <ele>500.3</ele>
        <time>2013-04-03T07:10:38.000Z</time>
      </trkpt>
      <trkpt lat="47.24974" lon="4.94172">
        <ele>497.8</ele>
        <time>2013-04-03T07:10:40.000Z</time>
      </trkpt>
      <trkpt lat="47.24974" lon="4.94169">
        <ele>497.1</ele>
        <time>2013-04-03T07:10:41.000Z</time>
      </trkpt>
      <trkpt lat="47.24974" lon="4.94163">
        <ele>497.3</ele>
        <time>2013-04-03T07:10:44.000Z</time>
      </trkpt>
      <trkpt lat="47.24974" lon="4.94161">
        <ele>497.9</ele>
        <time>2013-04-03T07:10:45.000Z</time>
      </trkpt>
      <trkpt lat="47.24975" lon="4.94155">
        <ele>498.3</ele>
        <time>2013-04-03T07:10:48.000Z</time>
      </trkpt>
      <trkpt lat="47.24975" lon="4.94153">
        <ele>498.6</ele>
        <time>2013-04-03T07:10:49.000Z</time>
      </trkpt>
      <trkpt lat="47.24976" lon="4.94147">
        <ele>499.8</ele>
        <time>2013-04-03T07:10:52.000Z</time>
      </trkpt>
      <trkpt lat="47.24976" lon="4.94145">
        <ele>500.1</ele>
        <time>2013-04-03T07:10:53.000Z</time>
      </trkpt>
      <trkpt lat="47.24977" lon="4.94139">
        <ele>501.5</ele>
        <time>2013-04-03T07:10:56.000Z</time>
      </trkpt>
      <trkpt lat="47.24978" lon="4.94136">
        <ele>501.8</ele>
        <time>2013-04-03T07:10:57.000Z</time>
      </trkpt>
      <trkpt lat="47.24978" lon="4.94131">
        <ele>501.1</ele>
        <time>2013-04-03T07:10:59.000Z</time>
      </trkpt>
      <trkpt lat="47.24979" lon="4.94128">
        <ele>501.3</ele>
        <time>2013-04-03T07:11:00.000Z</time>
      </trkpt>
      <trkpt lat="47.24978" lon="4.94122">
        <ele>501.1</ele>
        <time>2013-04-03T07:11:02.000Z</time>
      </trkpt>
      <trkpt lat="47.24978" lon="4.94119">
        <ele>500.8</ele>
        <time>2013-04-03T07:11:03.000Z</time>
      </trkpt>
      <trkpt lat="47.24977" lon="4.94115">
        <ele>498.4</ele>
        <time>2013-04-03T07:11:05.000Z</time>
      </trkpt>
      <trkpt lat="47.24977" lon="4.94112">
        <ele>498.1</ele>
        <time>2013-04-03T07:11:06.000Z</time>
      </trkpt>
      <trkpt lat="47.24976" lon="4.94108">
        <ele>498.9</ele>
        <time>2013-04-03T07:11:08.000Z</time>
      </trkpt>
      <trkpt lat="47.24977" lon="4.94106">
        <ele>499</ele>
        <time>2013-04-03T07:11:09.000Z</time>
      </trkpt>
      <trkpt lat="47.24978" lon="4.941">
        <ele>500.3</ele>
        <time>2013-04-03T07:11:13.000Z</time>
      </trkpt>
      <trkpt lat="47.24979" lon="4.94098">
        <ele>499.3</ele>
        <time>2013-04-03T07:11:14.000Z</time>
      </trkpt>
      <trkpt lat="47.24981" lon="4.94093">
        <ele>500.2</ele>
        <time>2013-04-03T07:11:17.000Z</time>
      </trkpt>
      <trkpt lat="47.24981" lon="4.94091">
        <ele>500.2</ele>
        <time>2013-04-03T07:11:18.000Z</time>
      </trkpt>
      <trkpt lat="47.24983" lon="4.94085">
        <ele>501.6</ele>
        <time>2013-04-03T07:11:22.000Z</time>
      </trkpt>
      <trkpt lat="47.24984" lon="4.94085">
        <ele>502</ele>
        <time>2013-04-03T07:11:23.000Z</time>
      </trkpt>
      <trkpt lat="47.24986" lon="4.9408">
        <ele>504.1</ele>
        <time>2013-04-03T07:11:36.000Z</time>
      </trkpt>
      <trkpt lat="47.24985" lon="4.94079">
        <ele>503.9</ele>
        <time>2013-04-03T07:11:37.000Z</time>
      </trkpt>
      <trkpt lat="47.24986" lon="4.94072">
        <ele>505.1</ele>
        <time>2013-04-03T07:11:40.000Z</time>
      </trkpt>
      <trkpt lat="47.24986" lon="4.9407">
        <ele>504.8</ele>
        <time>2013-04-03T07:11:41.000Z</time>
      </trkpt>
      <trkpt lat="47.24987" lon="4.94065">
        <ele>504.5</ele>
        <time>2013-04-03T07:11:43.000Z</time>
      </trkpt>
      <trkpt lat="47.24987" lon="4.94062">
        <ele>504.2</ele>
        <time>2013-04-03T07:11:44.000Z</time>
      </trkpt>
      <trkpt lat="47.24988" lon="4.94057">
        <ele>503.5</ele>
        <time>2013-04-03T07:11:46.000Z</time>
      </trkpt>
      <trkpt lat="47.24989" lon="4.94054">
        <ele>503.9</ele>
        <time>2013-04-03T07:11:47.000Z</time>
      </trkpt>
      <trkpt lat="47.24991" lon="4.94049">
        <ele>503.9</ele>
        <time>2013-04-03T07:11:50.000Z</time>
      </trkpt>
      <trkpt lat="47.24991" lon="4.94047">
        <ele>504</ele>
        <time>2013-04-03T07:11:51.000Z</time>
      </trkpt>
      <trkpt lat="47.24992" lon="4.94042">
        <ele>503.9</ele>
        <time>2013-04-03T07:11:53.000Z</time>
      </trkpt>
      <trkpt lat="47.24992" lon="4.9404">
        <ele>504.6</ele>
        <time>2013-04-03T07:11:54.000Z</time>
      </trkpt>
      <trkpt lat="47.24994" lon="4.94034">
        <ele>504.5</ele>
        <time>2013-04-03T07:11:57.000Z</time>
      </trkpt>
      <trkpt lat="47.24994" lon="4.94033">
        <ele>504.6</ele>
        <time>2013-04-03T07:11:58.000Z</time>
      </trkpt>
      <trkpt lat="47.24995" lon="4.94027">
        <ele>503.5</ele>
        <time>2013-04-03T07:12:01.000Z</time>
      </trkpt>
      <trkpt lat="47.24996" lon="4.94024">
        <ele>504.2</ele>
        <time>2013-04-03T07:12:02.000Z</time>
      </trkpt>
      <trkpt lat="47.24996" lon="4.94018">
        <ele>505</ele>
        <time>2013-04-03T07:12:04.000Z</time>
      </trkpt>
      <trkpt lat="47.24996" lon="4.94015">
        <ele>504.3</ele>
        <time>2013-04-03T07:12:05.000Z</time>
      </trkpt>
      <trkpt lat="47.24997" lon="4.94009">
        <ele>505.7</ele>
        <time>2013-04-03T07:12:07.000Z</time>
      </trkpt>
      <trkpt lat="47.24997" lon="4.94007">
        <ele>506.3</ele>
        <time>2013-04-03T07:12:08.000Z</time>
      </trkpt>
      <trkpt lat="47.24997" lon="4.94002">
        <ele>506.1</ele>
        <time>2013-04-03T07:12:10.000Z</time>
      </trkpt>
      <trkpt lat="47.24997" lon="4.94">
        <ele>506.5</ele>
        <time>2013-04-03T07:12:11.000Z</time>
      </trkpt>
      <trkpt lat="47.24998" lon="4.93994">
        <ele>506.9</ele>
        <time>2013-04-03T07:12:14.000Z</time>
      </trkpt>
      <trkpt lat="47.24999" lon="4.93992">
        <ele>507.1</ele>
        <time>2013-04-03T07:12:15.000Z</time>
      </trkpt>
      <trkpt lat="47.25" lon="4.93987">
        <ele>507.9</ele>
        <time>2013-04-03T07:12:18.000Z</time>
      </trkpt>
      <trkpt lat="47.25001" lon="4.93985">
        <ele>508.5</ele>
        <time>2013-04-03T07:12:19.000Z</time>
      </trkpt>
      <trkpt lat="47.25003" lon="4.93979">
        <ele>509.1</ele>
        <time>2013-04-03T07:12:22.000Z</time>
      </trkpt>
      <trkpt lat="47.25003" lon="4.93978">
        <ele>509.7</ele>
        <time>2013-04-03T07:12:23.000Z</time>
      </trkpt>
      <trkpt lat="47.25004" lon="4.93972">
        <ele>511.3</ele>
        <time>2013-04-03T07:12:26.000Z</time>
      </trkpt>
      <trkpt lat="47.25004" lon="4.9397">
        <ele>511.4</ele>
        <time>2013-04-03T07:12:27.000Z</time>
      </trkpt>
      <trkpt lat="47.25004" lon="4.93964">
        <ele>511.7</ele>
        <time>2013-04-03T07:12:30.000Z</time>
      </trkpt>
      <trkpt lat="47.25004" lon="4.93961">
        <ele>511.8</ele>
        <time>2013-04-03T07:12:31.000Z</time>
      </trkpt>
      <trkpt lat="47.25005" lon="4.93957">
        <ele>512.4</ele>
        <time>2013-04-03T07:12:33.000Z</time>
      </trkpt>
      <trkpt lat="47.25006" lon="4.93954">
        <ele>511.5</ele>
        <time>2013-04-03T07:12:34.000Z</time>
      </trkpt>
      <trkpt lat="47.25006" lon="4.9395">
        <ele>510.5</ele>
        <time>2013-04-03T07:12:36.000Z</time>
      </trkpt>
      <trkpt lat="47.25006" lon="4.93947">
        <ele>510.6</ele>
        <time>2013-04-03T07:12:37.000Z</time>
      </trkpt>
      <trkpt lat="47.25005" lon="4.93943">
        <ele>511.2</ele>
        <time>2013-04-03T07:12:39.000Z</time>
      </trkpt>
      <trkpt lat="47.25005" lon="4.93941">
        <ele>509.3</ele>
        <time>2013-04-03T07:12:40.000Z</time>
      </trkpt>
      <trkpt lat="47.25004" lon="4.93935">
        <ele>510.2</ele>
        <time>2013-04-03T07:12:43.000Z</time>
      </trkpt>
      <trkpt lat="47.25003" lon="4.93934">
        <ele>511.1</ele>
        <time>2013-04-03T07:12:44.000Z</time>
      </trkpt>
      <trkpt lat="47.25002" lon="4.93927">
        <ele>509.1</ele>
        <time>2013-04-03T07:12:47.000Z</time>
      </trkpt>
      <trkpt lat="47.25002" lon="4.93925">
        <ele>508.6</ele>
        <time>2013-04-03T07:12:48.000Z</time>
      </trkpt>
      <trkpt lat="47.25003" lon="4.9392">
        <ele>508.1</ele>
        <time>2013-04-03T07:12:51.000Z</time>
      </trkpt>
      <trkpt lat="47.25004" lon="4.93918">
        <ele>508.5</ele>
        <time>2013-04-03T07:12:52.000Z</time>
      </trkpt>
      <trkpt lat="47.25005" lon="4.93913">
        <ele>509.4</ele>
        <time>2013-04-03T07:12:55.000Z</time>
      </trkpt>
      <trkpt lat="47.25005" lon="4.93911">
        <ele>510.2</ele>
        <time>2013-04-03T07:12:56.000Z</time>
      </trkpt>
      <trkpt lat="47.25006" lon="4.93906">
        <ele>512</ele>
        <time>2013-04-03T07:12:59.000Z</time>
      </trkpt>
      <trkpt lat="47.25006" lon="4.93904">
        <ele>511.3</ele>
        <time>2013-04-03T07:13:00.000Z</time>
      </trkpt>
      <trkpt lat="47.25008" lon="4.939">
        <ele>510.2</ele>
        <time>2013-04-03T07:13:02.000Z</time>
      </trkpt>
      <trkpt lat="47.25008" lon="4.93898">
        <ele>510.8</ele>
        <time>2013-04-03T07:13:03.000Z</time>
      </trkpt>
      <trkpt lat="47.2501" lon="4.93893">
        <ele>509.9</ele>
        <time>2013-04-03T07:13:05.000Z</time>
      </trkpt>
      <trkpt lat="47.2501" lon="4.9389">
        <ele>509.5</ele>
        <time>2013-04-03T07:13:06.000Z</time>
      </trkpt>
      <trkpt lat="47.25011" lon="4.93884">
        <ele>510.5</ele>
        <time>2013-04-03T07:13:09.000Z</time>
      </trkpt>
      <trkpt lat="47.25012" lon="4.93882">
        <ele>511.7</ele>
        <time>2013-04-03T07:13:10.000Z</time>
      </trkpt>
      <trkpt lat="47.25012" lon="4.93877">
        <ele>513.5</ele>
        <time>2013-04-03T07:13:16.000Z</time>
      </trkpt>
      <trkpt lat="47.25012" lon="4.93876">
        <ele>513.1</ele>
        <time>2013-04-03T07:13:17.000Z</time>
      </trkpt>
      <trkpt lat="47.25012" lon="4.93869">
        <ele>515.7</ele>
        <time>2013-04-03T07:13:21.000Z</time>
      </trkpt>
      <trkpt lat="47.25012" lon="4.93867">
        <ele>516.1</ele>
        <time>2013-04-03T07:13:22.000Z</time>
      </trkpt>
      <trkpt lat="47.25011" lon="4.93861">
        <ele>516.5</ele>
        <time>2013-04-03T07:13:25.000Z</time>
      </trkpt>
      <trkpt lat="47.25011" lon="4.93859">
        <ele>516.3</ele>
        <time>2013-04-03T07:13:26.000Z</time>
      </trkpt>
      <trkpt lat="47.25011" lon="4.93853">
        <ele>516.2</ele>
        <time>2013-04-03T07:13:29.000Z</time>
      </trkpt>
      <trkpt lat="47.25011" lon="4.93851">
        <ele>516.2</ele>
        <time>2013-04-03T07:13:30.000Z</time>
      </trkpt>
      <trkpt lat="47.2501" lon="4.93846">
        <ele>516.7</ele>
        <time>2013-04-03T07:13:32.000Z</time>
      </trkpt>
      <trkpt lat="47.2501" lon="4.93844">
        <ele>516.9</ele>
        <time>2013-04-03T07:13:33.000Z</time>
      </trkpt>
      <trkpt lat="47.2501" lon="4.93839">
        <ele>516.8</ele>
        <time>2013-04-03T07:13:35.000Z</time>
      </trkpt>
      <trkpt lat="47.2501" lon="4.93837">
        <ele>516.3</ele>
        <time>2013-04-03T07:13:36.000Z</time>
      </trkpt>
      <trkpt lat="47.2501" lon="4.93831">
        <ele>516.9</ele>
        <time>2013-04-03T07:13:38.000Z</time>
      </trkpt>
      <trkpt lat="47.2501" lon="4.93829">
        <ele>517.1</ele>
        <time>2013-04-03T07:13:39.000Z</time>
      </trkpt>
      <trkpt lat="47.2501" lon="4.93825">
        <ele>518.4</ele>
        <time>2013-04-03T07:13:41.000Z</time>
      </trkpt>
      <trkpt lat="47.25011" lon="4.93822">
        <ele>519.1</ele>
        <time>2013-04-03T07:13:42.000Z</time>
      </trkpt>
      <trkpt lat="47.25011" lon="4.93816">
        <ele>519.2</ele>
        <time>2013-04-03T07:13:48.000Z</time>
      </trkpt>
      <trkpt lat="47.2501" lon="4.93815">
        <ele>519.1</ele>
        <time>2013-04-03T07:13:49.000Z</time>
      </trkpt>
      <trkpt lat="47.25009" lon="4.93809">
        <ele>518.7</ele>
        <time>2013-04-03T07:13:53.000Z</time>
      </trkpt>
      <trkpt lat="47.25009" lon="4.93807">
        <ele>519.5</ele>
        <time>2013-04-03T07:13:54.000Z</time>
      </trkpt>
      <trkpt lat="47.25009" lon="4.93801">
        <ele>518.8</ele>
        <time>2013-04-03T07:13:57.000Z</time>
      </trkpt>
      <trkpt lat="47.25009" lon="4.938">
        <ele>518.7</ele>
        <time>2013-04-03T07:13:58.000Z</time>
      </trkpt>
      <trkpt lat="47.25009" lon="4.93794">
        <ele>519.4</ele>
        <time>2013-04-03T07:14:01.000Z</time>
      </trkpt>
      <trkpt lat="47.25009" lon="4.93792">
        <ele>519.5</ele>
        <time>2013-04-03T07:14:02.000Z</time>
      </trkpt>
      <trkpt lat="47.25009" lon="4.93787">
        <ele>519.3</ele>
        <time>2013-04-03T07:14:04.000Z</time>
      </trkpt>
      <trkpt lat="47.25009" lon="4.93784">
        <ele>520.1</ele>
        <time>2013-04-03T07:14:05.000Z</time>
      </trkpt>
      <trkpt lat="47.25009" lon="4.93778">
        <ele>520.8</ele>
        <time>2013-04-03T07:14:08.000Z</time>
      </trkpt>
      <trkpt lat="47.2501" lon="4.93776">
        <ele>520.6</ele>
        <time>2013-04-03T07:14:09.000Z</time>
      </trkpt>
      <trkpt lat="47.2501" lon="4.93772">
        <ele>523.4</ele>
        <time>2013-04-03T07:14:11.000Z</time>
      </trkpt>
      <trkpt lat="47.2501" lon="4.93769">
        <ele>524</ele>
        <time>2013-04-03T07:14:12.000Z</time>
      </trkpt>
      <trkpt lat="47.2501" lon="4.93765">
        <ele>523.9</ele>
        <time>2013-04-03T07:14:14.000Z</time>
      </trkpt>
      <trkpt lat="47.2501" lon="4.93762">
        <ele>524.9</ele>
        <time>2013-04-03T07:14:15.000Z</time>
      </trkpt>
      <trkpt lat="47.25009" lon="4.93757">
        <ele>524.9</ele>
        <time>2013-04-03T07:14:17.000Z</time>
      </trkpt>
      <trkpt lat="47.25009" lon="4.93755">
        <ele>524.8</ele>
        <time>2013-04-03T07:14:18.000Z</time>
      </trkpt>
      <trkpt lat="47.2501" lon="4.93749">
        <ele>522.5</ele>
        <time>2013-04-03T07:14:21.000Z</time>
      </trkpt>
      <trkpt lat="47.2501" lon="4.93747">
        <ele>522.1</ele>
        <time>2013-04-03T07:14:22.000Z</time>
      </trkpt>
      <trkpt lat="47.25009" lon="4.93741">
        <ele>524.9</ele>
        <time>2013-04-03T07:14:25.000Z</time>
      </trkpt>
      <trkpt lat="47.25009" lon="4.93739">
        <ele>525</ele>
        <time>2013-04-03T07:14:26.000Z</time>
      </trkpt>
      <trkpt lat="47.25008" lon="4.93734">
        <ele>524.1</ele>
        <time>2013-04-03T07:14:29.000Z</time>
      </trkpt>
      <trkpt lat="47.25008" lon="4.93732">
        <ele>523.9</ele>
        <time>2013-04-03T07:14:30.000Z</time>
      </trkpt>
      <trkpt lat="47.25008" lon="4.93727">
        <ele>524.7</ele>
        <time>2013-04-03T07:14:32.000Z</time>
      </trkpt>
      <trkpt lat="47.25008" lon="4.93724">
        <ele>524.8</ele>
        <time>2013-04-03T07:14:33.000Z</time>
      </trkpt>
      <trkpt lat="47.25009" lon="4.93718">
        <ele>527.5</ele>
        <time>2013-04-03T07:14:39.000Z</time>
      </trkpt>
      <trkpt lat="47.25009" lon="4.93717">
        <ele>528.5</ele>
        <time>2013-04-03T07:14:40.000Z</time>
      </trkpt>
      <trkpt lat="47.25008" lon="4.93711">
        <ele>530.5</ele>
        <time>2013-04-03T07:14:43.000Z</time>
      </trkpt>
      <trkpt lat="47.25008" lon="4.93708">
        <ele>530.2</ele>
        <time>2013-04-03T07:14:44.000Z</time>
      </trkpt>
      <trkpt lat="47.25008" lon="4.93702">
        <ele>530.4</ele>
        <time>2013-04-03T07:14:47.000Z</time>
      </trkpt>
      <trkpt lat="47.25008" lon="4.937">
        <ele>531.1</ele>
        <time>2013-04-03T07:14:48.000Z</time>
      </trkpt>
      <trkpt lat="47.25008" lon="4.93693">
        <ele>531.2</ele>
        <time>2013-04-03T07:14:51.000Z</time>
      </trkpt>
      <trkpt lat="47.25008" lon="4.93691">
        <ele>531.7</ele>
        <time>2013-04-03T07:14:52.000Z</time>
      </trkpt>
      <trkpt lat="47.25008" lon="4.93684">
        <ele>531.9</ele>
        <time>2013-04-03T07:14:55.000Z</time>
      </trkpt>
      <trkpt lat="47.25007" lon="4.93683">
        <ele>531.9</ele>
        <time>2013-04-03T07:14:56.000Z</time>
      </trkpt>
      <trkpt lat="47.25007" lon="4.93677">
        <ele>533.6</ele>
        <time>2013-04-03T07:14:59.000Z</time>
      </trkpt>
      <trkpt lat="47.25006" lon="4.93674">
        <ele>533.6</ele>
        <time>2013-04-03T07:15:00.000Z</time>
      </trkpt>
      <trkpt lat="47.25006" lon="4.93669">
        <ele>534.1</ele>
        <time>2013-04-03T07:15:02.000Z</time>
      </trkpt>
      <trkpt lat="47.25006" lon="4.93667">
        <ele>534.2</ele>
        <time>2013-04-03T07:15:03.000Z</time>
      </trkpt>
      <trkpt lat="47.25006" lon="4.93662">
        <ele>536</ele>
        <time>2013-04-03T07:15:05.000Z</time>
      </trkpt>
      <trkpt lat="47.25006" lon="4.9366">
        <ele>536.2</ele>
        <time>2013-04-03T07:15:06.000Z</time>
      </trkpt>
      <trkpt lat="47.25006" lon="4.93655">
        <ele>537.6</ele>
        <time>2013-04-03T07:15:08.000Z</time>
      </trkpt>
      <trkpt lat="47.25006" lon="4.93653">
        <ele>537.2</ele>
        <time>2013-04-03T07:15:09.000Z</time>
      </trkpt>
      <trkpt lat="47.25007" lon="4.93648">
        <ele>537.9</ele>
        <time>2013-04-03T07:15:11.000Z</time>
      </trkpt>
      <trkpt lat="47.25007" lon="4.93646">
        <ele>539.1</ele>
        <time>2013-04-03T07:15:12.000Z</time>
      </trkpt>
      <trkpt lat="47.25008" lon="4.93642">
        <ele>539.8</ele>
        <time>2013-04-03T07:15:14.000Z</time>
      </trkpt>
      <trkpt lat="47.25008" lon="4.93639">
        <ele>539.9</ele>
        <time>2013-04-03T07:15:15.000Z</time>
      </trkpt>
      <trkpt lat="47.25009" lon="4.93633">
        <ele>540.5</ele>
        <time>2013-04-03T07:15:21.000Z</time>
      </trkpt>
      <trkpt lat="47.25009" lon="4.93632">
        <ele>540.5</ele>
        <time>2013-04-03T07:15:22.000Z</time>
      </trkpt>
      <trkpt lat="47.25008" lon="4.93626">
        <ele>538.9</ele>
        <time>2013-04-03T07:15:26.000Z</time>
      </trkpt>
      <trkpt lat="47.25008" lon="4.93624">
        <ele>538.9</ele>
        <time>2013-04-03T07:15:27.000Z</time>
      </trkpt>
      <trkpt lat="47.25008" lon="4.93618">
        <ele>538.9</ele>
        <time>2013-04-03T07:15:30.000Z</time>
      </trkpt>
      <trkpt lat="47.25008" lon="4.93616">
        <ele>538.1</ele>
        <time>2013-04-03T07:15:31.000Z</time>
      </trkpt>
      <trkpt lat="47.25009" lon="4.93611">
        <ele>537.1</ele>
        <time>2013-04-03T07:15:34.000Z</time>
      </trkpt>
      <trkpt lat="47.25009" lon="4.93609">
        <ele>536.9</ele>
        <time>2013-04-03T07:15:35.000Z</time>
      </trkpt>
      <trkpt lat="47.25009" lon="4.93605">
        <ele>535.9</ele>
        <time>2013-04-03T07:15:37.000Z</time>
      </trkpt>
      <trkpt lat="47.25009" lon="4.93602">
        <ele>535.5</ele>
        <time>2013-04-03T07:15:38.000Z</time>
      </trkpt>
      <trkpt lat="47.25009" lon="4.93596">
        <ele>535.7</ele>
        <time>2013-04-03T07:15:41.000Z</time>
      </trkpt>
      <trkpt lat="47.25009" lon="4.93594">
        <ele>535.9</ele>
        <time>2013-04-03T07:15:42.000Z</time>
      </trkpt>
      <trkpt lat="47.2501" lon="4.93587">
        <ele>536.6</ele>
        <time>2013-04-03T07:15:45.000Z</time>
      </trkpt>
      <trkpt lat="47.2501" lon="4.93585">
        <ele>536.2</ele>
        <time>2013-04-03T07:15:46.000Z</time>
      </trkpt>
      <trkpt lat="47.25011" lon="4.93581">
        <ele>535.9</ele>
        <time>2013-04-03T07:15:48.000Z</time>
      </trkpt>
      <trkpt lat="47.25011" lon="4.93578">
        <ele>535.3</ele>
        <time>2013-04-03T07:15:49.000Z</time>
      </trkpt>
      <trkpt lat="47.25011" lon="4.93573">
        <ele>535.5</ele>
        <time>2013-04-03T07:15:51.000Z</time>
      </trkpt>
      <trkpt lat="47.25012" lon="4.93571">
        <ele>535.9</ele>
        <time>2013-04-03T07:15:52.000Z</time>
      </trkpt>
      <trkpt lat="47.25012" lon="4.93565">
        <ele>535.5</ele>
        <time>2013-04-03T07:15:55.000Z</time>
      </trkpt>
      <trkpt lat="47.25012" lon="4.93563">
        <ele>535.2</ele>
        <time>2013-04-03T07:15:56.000Z</time>
      </trkpt>
      <trkpt lat="47.25011" lon="4.93556">
        <ele>537.1</ele>
        <time>2013-04-03T07:16:00.000Z</time>
      </trkpt>
      <trkpt lat="47.25011" lon="4.93555">
        <ele>537.7</ele>
        <time>2013-04-03T07:16:01.000Z</time>
      </trkpt>
      <trkpt lat="47.25012" lon="4.93549">
        <ele>537.4</ele>
        <time>2013-04-03T07:16:04.000Z</time>
      </trkpt>
      <trkpt lat="47.25012" lon="4.93547">
        <ele>537.1</ele>
        <time>2013-04-03T07:16:05.000Z</time>
      </trkpt>
      <trkpt lat="47.25013" lon="4.93541">
        <ele>536.3</ele>
        <time>2013-04-03T07:16:08.000Z</time>
      </trkpt>
      <trkpt lat="47.25013" lon="4.93539">
        <ele>536</ele>
        <time>2013-04-03T07:16:09.000Z</time>
      </trkpt>
      <trkpt lat="47.25014" lon="4.93533">
        <ele>537</ele>
        <time>2013-04-03T07:16:13.000Z</time>
      </trkpt>
      <trkpt lat="47.25015" lon="4.93531">
        <ele>537.4</ele>
        <time>2013-04-03T07:16:14.000Z</time>
      </trkpt>
      <trkpt lat="47.25015" lon="4.93525">
        <ele>539.4</ele>
        <time>2013-04-03T07:16:17.000Z</time>
      </trkpt>
      <trkpt lat="47.25015" lon="4.93523">
        <ele>539</ele>
        <time>2013-04-03T07:16:18.000Z</time>
      </trkpt>
      <trkpt lat="47.25015" lon="4.93518">
        <ele>539.1</ele>
        <time>2013-04-03T07:16:20.000Z</time>
      </trkpt>
      <trkpt lat="47.25015" lon="4.93515">
        <ele>539.4</ele>
        <time>2013-04-03T07:16:21.000Z</time>
      </trkpt>
      <trkpt lat="47.25015" lon="4.93511">
        <ele>539.2</ele>
        <time>2013-04-03T07:16:23.000Z</time>
      </trkpt>
      <trkpt lat="47.25015" lon="4.93507">
        <ele>539.8</ele>
        <time>2013-04-03T07:16:24.000Z</time>
      </trkpt>
      <trkpt lat="47.25016" lon="4.93501">
        <ele>539.1</ele>
        <time>2013-04-03T07:16:27.000Z</time>
      </trkpt>
      <trkpt lat="47.25016" lon="4.93499">
        <ele>539.3</ele>
        <time>2013-04-03T07:16:28.000Z</time>
      </trkpt>
      <trkpt lat="47.25016" lon="4.93493">
        <ele>538.5</ele>
        <time>2013-04-03T07:16:31.000Z</time>
      </trkpt>
      <trkpt lat="47.25016" lon="4.93491">
        <ele>537.6</ele>
        <time>2013-04-03T07:16:32.000Z</time>
      </trkpt>
      <trkpt lat="47.25016" lon="4.93486">
        <ele>535.8</ele>
        <time>2013-04-03T07:16:35.000Z</time>
      </trkpt>
      <trkpt lat="47.25016" lon="4.93484">
        <ele>534.9</ele>
        <time>2013-04-03T07:16:36.000Z</time>
      </trkpt>
      <trkpt lat="47.25016" lon="4.93477">
        <ele>534.1</ele>
        <time>2013-04-03T07:16:39.000Z</time>
      </trkpt>
      <trkpt lat="47.25017" lon="4.93475">
        <ele>534.9</ele>
        <time>2013-04-03T07:16:40.000Z</time>
      </trkpt>
      <trkpt lat="47.25017" lon="4.93469">
        <ele>534.1</ele>
        <time>2013-04-03T07:16:43.000Z</time>
      </trkpt>
      <trkpt lat="47.25017" lon="4.93467">
        <ele>534.1</ele>
        <time>2013-04-03T07:16:44.000Z</time>
      </trkpt>
      <trkpt lat="47.25017" lon="4.93462">
        <ele>533.7</ele>
        <time>2013-04-03T07:16:46.000Z</time>
      </trkpt>
      <trkpt lat="47.25018" lon="4.9346">
        <ele>534.7</ele>
        <time>2013-04-03T07:16:47.000Z</time>
      </trkpt>
      <trkpt lat="47.25018" lon="4.93455">
        <ele>535.1</ele>
        <time>2013-04-03T07:16:49.000Z</time>
      </trkpt>
      <trkpt lat="47.25018" lon="4.93453">
        <ele>535.6</ele>
        <time>2013-04-03T07:16:50.000Z</time>
      </trkpt>
      <trkpt lat="47.25018" lon="4.93447">
        <ele>534.8</ele>
        <time>2013-04-03T07:16:53.000Z</time>
      </trkpt>
      <trkpt lat="47.25018" lon="4.93445">
        <ele>534.2</ele>
        <time>2013-04-03T07:16:54.000Z</time>
      </trkpt>
      <trkpt lat="47.25019" lon="4.93439">
        <ele>533.2</ele>
        <time>2013-04-03T07:16:57.000Z</time>
      </trkpt>
      <trkpt lat="47.25019" lon="4.93437">
        <ele>533.9</ele>
        <time>2013-04-03T07:16:58.000Z</time>
      </trkpt>
      <trkpt lat="47.2502" lon="4.93432">
        <ele>534.3</ele>
        <time>2013-04-03T07:17:00.000Z</time>
      </trkpt>
      <trkpt lat="47.2502" lon="4.9343">
        <ele>535</ele>
        <time>2013-04-03T07:17:01.000Z</time>
      </trkpt>
      <trkpt lat="47.25021" lon="4.93425">
        <ele>535.2</ele>
        <time>2013-04-03T07:17:03.000Z</time>
      </trkpt>
      <trkpt lat="47.25021" lon="4.93422">
        <ele>534.7</ele>
        <time>2013-04-03T07:17:04.000Z</time>
      </trkpt>
      <trkpt lat="47.25023" lon="4.93416">
        <ele>535</ele>
        <time>2013-04-03T07:17:07.000Z</time>
      </trkpt>
      <trkpt lat="47.25023" lon="4.93414">
        <ele>536</ele>
        <time>2013-04-03T07:17:08.000Z</time>
      </trkpt>
      <trkpt lat="47.25024" lon="4.9341">
        <ele>537.1</ele>
        <time>2013-04-03T07:17:11.000Z</time>
      </trkpt>
      <trkpt lat="47.25025" lon="4.93408">
        <ele>537.6</ele>
        <time>2013-04-03T07:17:12.000Z</time>
      </trkpt>
      <trkpt lat="47.25027" lon="4.93403">
        <ele>536.9</ele>
        <time>2013-04-03T07:17:15.000Z</time>
      </trkpt>
      <trkpt lat="47.25028" lon="4.93401">
        <ele>536.6</ele>
        <time>2013-04-03T07:17:16.000Z</time>
      </trkpt>
      <trkpt lat="47.25029" lon="4.93396">
        <ele>536.7</ele>
        <time>2013-04-03T07:17:19.000Z</time>
      </trkpt>
      <trkpt lat="47.2503" lon="4.93394">
        <ele>536.8</ele>
        <time>2013-04-03T07:17:20.000Z</time>
      </trkpt>
      <trkpt lat="47.25031" lon="4.93388">
        <ele>537.6</ele>
        <time>2013-04-03T07:17:23.000Z</time>
      </trkpt>
      <trkpt lat="47.25032" lon="4.93387">
        <ele>538.2</ele>
        <time>2013-04-03T07:17:24.000Z</time>
      </trkpt>
      <trkpt lat="47.25034" lon="4.93381">
        <ele>537.4</ele>
        <time>2013-04-03T07:17:28.000Z</time>
      </trkpt>
      <trkpt lat="47.25034" lon="4.9338">
        <ele>537.5</ele>
        <time>2013-04-03T07:17:29.000Z</time>
      </trkpt>
      <trkpt lat="47.25035" lon="4.93374">
        <ele>536.3</ele>
        <time>2013-04-03T07:17:33.000Z</time>
      </trkpt>
      <trkpt lat="47.25035" lon="4.93372">
        <ele>536.6</ele>
        <time>2013-04-03T07:17:34.000Z</time>
      </trkpt>
      <trkpt lat="47.25036" lon="4.93367">
        <ele>536.1</ele>
        <time>2013-04-03T07:17:37.000Z</time>
      </trkpt>
      <trkpt lat="47.25037" lon="4.93365">
        <ele>536.4</ele>
        <time>2013-04-03T07:17:38.000Z</time>
      </trkpt>
      <trkpt lat="47.25039" lon="4.93361">
        <ele>537.1</ele>
        <time>2013-04-03T07:17:40.000Z</time>
      </trkpt>
      <trkpt lat="47.2504" lon="4.9336">
        <ele>536.8</ele>
        <time>2013-04-03T07:17:41.000Z</time>
      </trkpt>
      <trkpt lat="47.25042" lon="4.93355">
        <ele>537.4</ele>
        <time>2013-04-03T07:17:44.000Z</time>
      </trkpt>
      <trkpt lat="47.25042" lon="4.93353">
        <ele>535.9</ele>
        <time>2013-04-03T07:17:45.000Z</time>
      </trkpt>
      <trkpt lat="47.25044" lon="4.93348">
        <ele>537.9</ele>
        <time>2013-04-03T07:17:48.000Z</time>
      </trkpt>
      <trkpt lat="47.25045" lon="4.93346">
        <ele>537.3</ele>
        <time>2013-04-03T07:17:49.000Z</time>
      </trkpt>
      <trkpt lat="47.25046" lon="4.93342">
        <ele>537.8</ele>
        <time>2013-04-03T07:17:51.000Z</time>
      </trkpt>
      <trkpt lat="47.25047" lon="4.9334">
        <ele>538.3</ele>
        <time>2013-04-03T07:17:52.000Z</time>
      </trkpt>
      <trkpt lat="47.25048" lon="4.93336">
        <ele>539.3</ele>
        <time>2013-04-03T07:17:54.000Z</time>
      </trkpt>
      <trkpt lat="47.25048" lon="4.93334">
        <ele>539.7</ele>
        <time>2013-04-03T07:17:55.000Z</time>
      </trkpt>
      <trkpt lat="47.2505" lon="4.93328">
        <ele>540.8</ele>
        <time>2013-04-03T07:17:58.000Z</time>
      </trkpt>
      <trkpt lat="47.2505" lon="4.93327">
        <ele>541</ele>
        <time>2013-04-03T07:17:59.000Z</time>
      </trkpt>
      <trkpt lat="47.25051" lon="4.93323">
        <ele>541.7</ele>
        <time>2013-04-03T07:18:02.000Z</time>
      </trkpt>
      <trkpt lat="47.25052" lon="4.93321">
        <ele>541.7</ele>
        <time>2013-04-03T07:18:03.000Z</time>
      </trkpt>
      <trkpt lat="47.25054" lon="4.93316">
        <ele>540.5</ele>
        <time>2013-04-03T07:18:06.000Z</time>
      </trkpt>
      <trkpt lat="47.25054" lon="4.93314">
        <ele>540</ele>
        <time>2013-04-03T07:18:07.000Z</time>
      </trkpt>
      <trkpt lat="47.25056" lon="4.93308">
        <ele>542.1</ele>
        <time>2013-04-03T07:18:11.000Z</time>
      </trkpt>
      <trkpt lat="47.25056" lon="4.93306">
        <ele>542.5</ele>
        <time>2013-04-03T07:18:12.000Z</time>
      </trkpt>
      <trkpt lat="47.25057" lon="4.93301">
        <ele>542.3</ele>
        <time>2013-04-03T07:18:14.000Z</time>
      </trkpt>
      <trkpt lat="47.25058" lon="4.93299">
        <ele>541.9</ele>
        <time>2013-04-03T07:18:15.000Z</time>
      </trkpt>
      <trkpt lat="47.2506" lon="4.93295">
        <ele>541.8</ele>
        <time>2013-04-03T07:18:17.000Z</time>
      </trkpt>
      <trkpt lat="47.2506" lon="4.93293">
        <ele>542.2</ele>
        <time>2013-04-03T07:18:18.000Z</time>
      </trkpt>
      <trkpt lat="47.25061" lon="4.93287">
        <ele>543.3</ele>
        <time>2013-04-03T07:18:21.000Z</time>
      </trkpt>
      <trkpt lat="47.25062" lon="4.93285">
        <ele>542.9</ele>
        <time>2013-04-03T07:18:22.000Z</time>
      </trkpt>
      <trkpt lat="47.25063" lon="4.9328">
        <ele>543.2</ele>
        <time>2013-04-03T07:18:25.000Z</time>
      </trkpt>
      <trkpt lat="47.25063" lon="4.93278">
        <ele>543.1</ele>
        <time>2013-04-03T07:18:26.000Z</time>
      </trkpt>
      <trkpt lat="47.25064" lon="4.93273">
        <ele>542.5</ele>
        <time>2013-04-03T07:18:29.000Z</time>
      </trkpt>
      <trkpt lat="47.25065" lon="4.93271">
        <ele>542.9</ele>
        <time>2013-04-03T07:18:30.000Z</time>
      </trkpt>
      <trkpt lat="47.25066" lon="4.93267">
        <ele>543</ele>
        <time>2013-04-03T07:18:32.000Z</time>
      </trkpt>
      <trkpt lat="47.25067" lon="4.93265">
        <ele>543.3</ele>
        <time>2013-04-03T07:18:33.000Z</time>
      </trkpt>
      <trkpt lat="47.25069" lon="4.93259">
        <ele>544</ele>
        <time>2013-04-03T07:18:36.000Z</time>
      </trkpt>
      <trkpt lat="47.25069" lon="4.93257">
        <ele>542.7</ele>
        <time>2013-04-03T07:18:37.000Z</time>
      </trkpt>
      <trkpt lat="47.25071" lon="4.93251">
        <ele>546.8</ele>
        <time>2013-04-03T07:18:40.000Z</time>
      </trkpt>
      <trkpt lat="47.25071" lon="4.9325">
        <ele>547.6</ele>
        <time>2013-04-03T07:18:41.000Z</time>
      </trkpt>
      <trkpt lat="47.25072" lon="4.93244">
        <ele>550</ele>
        <time>2013-04-03T07:18:52.000Z</time>
      </trkpt>
      <trkpt lat="47.25073" lon="4.93243">
        <ele>549.8</ele>
        <time>2013-04-03T07:18:53.000Z</time>
      </trkpt>
      <trkpt lat="47.25073" lon="4.93238">
        <ele>547.8</ele>
        <time>2013-04-03T07:18:57.000Z</time>
      </trkpt>
      <trkpt lat="47.25073" lon="4.93236">
        <ele>548</ele>
        <time>2013-04-03T07:18:58.000Z</time>
      </trkpt>
      <trkpt lat="47.25075" lon="4.93231">
        <ele>549.5</ele>
        <time>2013-04-03T07:19:03.000Z</time>
      </trkpt>
      <trkpt lat="47.25075" lon="4.9323">
        <ele>549.5</ele>
        <time>2013-04-03T07:19:04.000Z</time>
      </trkpt>
      <trkpt lat="47.25076" lon="4.93225">
        <ele>550.1</ele>
        <time>2013-04-03T07:19:08.000Z</time>
      </trkpt>
      <trkpt lat="47.25077" lon="4.93223">
        <ele>550.5</ele>
        <time>2013-04-03T07:19:09.000Z</time>
      </trkpt>
      <trkpt lat="47.25079" lon="4.93218">
        <ele>552</ele>
        <time>2013-04-03T07:19:12.000Z</time>
      </trkpt>
      <trkpt lat="47.25079" lon="4.93217">
        <ele>551.3</ele>
        <time>2013-04-03T07:19:13.000Z</time>
      </trkpt>
      <trkpt lat="47.25081" lon="4.93211">
        <ele>553.1</ele>
        <time>2013-04-03T07:19:22.000Z</time>
      </trkpt>
      <trkpt lat="47.25081" lon="4.93211">
        <ele>553.2</ele>
        <time>2013-04-03T07:19:23.000Z</time>
      </trkpt>
      <trkpt lat="47.25082" lon="4.93205">
        <ele>552.2</ele>
        <time>2013-04-03T07:19:30.000Z</time>
      </trkpt>
      <trkpt lat="47.25083" lon="4.93203">
        <ele>551.8</ele>
        <time>2013-04-03T07:19:31.000Z</time>
      </trkpt>
      <trkpt lat="47.25083" lon="4.93199">
        <ele>552.5</ele>
        <time>2013-04-03T07:19:33.000Z</time>
      </trkpt>
      <trkpt lat="47.25084" lon="4.93197">
        <ele>551.7</ele>
        <time>2013-04-03T07:19:34.000Z</time>
      </trkpt>
      <trkpt lat="47.25084" lon="4.93192">
        <ele>551</ele>
        <time>2013-04-03T07:19:36.000Z</time>
      </trkpt>
      <trkpt lat="47.25085" lon="4.9319">
        <ele>551.1</ele>
        <time>2013-04-03T07:19:37.000Z</time>
      </trkpt>
      <trkpt lat="47.25086" lon="4.93185">
        <ele>550.2</ele>
        <time>2013-04-03T07:19:39.000Z</time>
      </trkpt>
      <trkpt lat="47.25086" lon="4.93183">
        <ele>547.9</ele>
        <time>2013-04-03T07:19:40.000Z</time>
      </trkpt>
      <trkpt lat="47.25087" lon="4.93179">
        <ele>548.7</ele>
        <time>2013-04-03T07:19:42.000Z</time>
      </trkpt>
      <trkpt lat="47.25087" lon="4.93176">
        <ele>548</ele>
        <time>2013-04-03T07:19:43.000Z</time>
      </trkpt>
      <trkpt lat="47.25087" lon="4.93172">
        <ele>548.3</ele>
        <time>2013-04-03T07:19:45.000Z</time>
      </trkpt>
      <trkpt lat="47.25087" lon="4.93169">
        <ele>548.3</ele>
        <time>2013-04-03T07:19:46.000Z</time>
      </trkpt>
      <trkpt lat="47.25088" lon="4.93164">
        <ele>547.1</ele>
        <time>2013-04-03T07:19:48.000Z</time>
      </trkpt>
      <trkpt lat="47.25088" lon="4.93161">
        <ele>547.9</ele>
        <time>2013-04-03T07:19:49.000Z</time>
      </trkpt>
      <trkpt lat="47.25089" lon="4.93155">
        <ele>547.8</ele>
        <time>2013-04-03T07:19:51.000Z</time>
      </trkpt>
      <trkpt lat="47.2509" lon="4.93153">
        <ele>547.4</ele>
        <time>2013-04-03T07:19:52.000Z</time>
      </trkpt>
      <trkpt lat="47.2509" lon="4.93148">
        <ele>548.1</ele>
        <time>2013-04-03T07:19:54.000Z</time>
      </trkpt>
      <trkpt lat="47.2509" lon="4.93144">
        <ele>547.7</ele>
        <time>2013-04-03T07:19:55.000Z</time>
      </trkpt>
      <trkpt lat="47.25091" lon="4.93138">
        <ele>548.5</ele>
        <time>2013-04-03T07:19:57.000Z</time>
      </trkpt>
      <trkpt lat="47.25091" lon="4.93135">
        <ele>549.3</ele>
        <time>2013-04-03T07:19:58.000Z</time>
      </trkpt>
      <trkpt lat="47.25092" lon="4.93129">
        <ele>549.5</ele>
        <time>2013-04-03T07:20:00.000Z</time>
      </trkpt>
      <trkpt lat="47.25092" lon="4.93126">
        <ele>548.8</ele>
        <time>2013-04-03T07:20:01.000Z</time>
      </trkpt>
      <trkpt lat="47.25093" lon="4.9312">
        <ele>548.1</ele>
        <time>2013-04-03T07:20:03.000Z</time>
      </trkpt>
      <trkpt lat="47.25094" lon="4.93118">
        <ele>547.8</ele>
        <time>2013-04-03T07:20:04.000Z</time>
      </trkpt>
      <trkpt lat="47.25095" lon="4.93114">
        <ele>547.2</ele>
        <time>2013-04-03T07:20:06.000Z</time>
      </trkpt>
      <trkpt lat="47.25096" lon="4.93111">
        <ele>547.2</ele>
        <time>2013-04-03T07:20:07.000Z</time>
      </trkpt>
      <trkpt lat="47.25098" lon="4.93106">
        <ele>548.5</ele>
        <time>2013-04-03T07:20:09.000Z</time>
      </trkpt>
      <trkpt lat="47.25099" lon="4.93103">
        <ele>549.1</ele>
        <time>2013-04-03T07:20:10.000Z</time>
      </trkpt>
      <trkpt lat="47.251" lon="4.93098">
        <ele>550.1</ele>
        <time>2013-04-03T07:20:12.000Z</time>
      </trkpt>
      <trkpt lat="47.25101" lon="4.93096">
        <ele>550.3</ele>
        <time>2013-04-03T07:20:13.000Z</time>
      </trkpt>
      <trkpt lat="47.25102" lon="4.9309">
        <ele>550</ele>
        <time>2013-04-03T07:20:15.000Z</time>
      </trkpt>
      <trkpt lat="47.25102" lon="4.93087">
        <ele>548.7</ele>
        <time>2013-04-03T07:20:16.000Z</time>
      </trkpt>
      <trkpt lat="47.25103" lon="4.93083">
        <ele>549.6</ele>
        <time>2013-04-03T07:20:17.000Z</time>
      </trkpt>
      <trkpt lat="47.25104" lon="4.93079">
        <ele>550.6</ele>
        <time>2013-04-03T07:20:18.000Z</time>
      </trkpt>
      <trkpt lat="47.25104" lon="4.93075">
        <ele>550.1</ele>
        <time>2013-04-03T07:20:19.000Z</time>
      </trkpt>
      <trkpt lat="47.25105" lon="4.93072">
        <ele>549.1</ele>
        <time>2013-04-03T07:20:20.000Z</time>
      </trkpt>
      <trkpt lat="47.25105" lon="4.93068">
        <ele>549.3</ele>
        <time>2013-04-03T07:20:21.000Z</time>
      </trkpt>
      <trkpt lat="47.25106" lon="4.93064">
        <ele>549</ele>
        <time>2013-04-03T07:20:22.000Z</time>
      </trkpt>
      <trkpt lat="47.25106" lon="4.9306">
        <ele>552.9</ele>
        <time>2013-04-03T07:20:23.000Z</time>
      </trkpt>
      <trkpt lat="47.25106" lon="4.93057">
        <ele>554.9</ele>
        <time>2013-04-03T07:20:24.000Z</time>
      </trkpt>
      <trkpt lat="47.25107" lon="4.93051">
        <ele>554.7</ele>
        <time>2013-04-03T07:20:26.000Z</time>
      </trkpt>
      <trkpt lat="47.25107" lon="4.93048">
        <ele>554.8</ele>
        <time>2013-04-03T07:20:27.000Z</time>
      </trkpt>
      <trkpt lat="47.25107" lon="4.93043">
        <ele>556.5</ele>
        <time>2013-04-03T07:20:29.000Z</time>
      </trkpt>
      <trkpt lat="47.25107" lon="4.93041">
        <ele>557.1</ele>
        <time>2013-04-03T07:20:30.000Z</time>
      </trkpt>
      <trkpt lat="47.25108" lon="4.93035">
        <ele>555.3</ele>
        <time>2013-04-03T07:20:33.000Z</time>
      </trkpt>
      <trkpt lat="47.25109" lon="4.93032">
        <ele>554.9</ele>
        <time>2013-04-03T07:20:34.000Z</time>
      </trkpt>
      <trkpt lat="47.25109" lon="4.93026">
        <ele>553.3</ele>
        <time>2013-04-03T07:20:36.000Z</time>
      </trkpt>
      <trkpt lat="47.25108" lon="4.93023">
        <ele>555.5</ele>
        <time>2013-04-03T07:20:37.000Z</time>
      </trkpt>
      <trkpt lat="47.25108" lon="4.93018">
        <ele>556.9</ele>
        <time>2013-04-03T07:20:39.000Z</time>
      </trkpt>
      <trkpt lat="47.25108" lon="4.93015">
        <ele>557.3</ele>
        <time>2013-04-03T07:20:40.000Z</time>
      </trkpt>
      <trkpt lat="47.25108" lon="4.93008">
        <ele>558.8</ele>
        <time>2013-04-03T07:20:42.000Z</time>
      </trkpt>
      <trkpt lat="47.25108" lon="4.93005">
        <ele>560</ele>
        <time>2013-04-03T07:20:43.000Z</time>
      </trkpt>
      <trkpt lat="47.25108" lon="4.93">
        <ele>561.5</ele>
        <time>2013-04-03T07:20:45.000Z</time>
      </trkpt>
      <trkpt lat="47.25108" lon="4.92997">
        <ele>562.1</ele>
        <time>2013-04-03T07:20:46.000Z</time>
      </trkpt>
      <trkpt lat="47.25108" lon="4.92991">
        <ele>563.1</ele>
        <time>2013-04-03T07:20:49.000Z</time>
      </trkpt>
      <trkpt lat="47.25108" lon="4.92989">
        <ele>563.2</ele>
        <time>2013-04-03T07:20:50.000Z</time>
      </trkpt>
      <trkpt lat="47.25108" lon="4.92984">
        <ele>561.9</ele>
        <time>2013-04-03T07:20:53.000Z</time>
      </trkpt>
      <trkpt lat="47.25107" lon="4.92983">
        <ele>561</ele>
        <time>2013-04-03T07:20:54.000Z</time>
      </trkpt>
      <trkpt lat="47.25106" lon="4.92977">
        <ele>562.8</ele>
        <time>2013-04-03T07:20:58.000Z</time>
      </trkpt>
      <trkpt lat="47.25106" lon="4.92976">
        <ele>562.2</ele>
        <time>2013-04-03T07:20:59.000Z</time>
      </trkpt>
      <trkpt lat="47.25106" lon="4.9297">
        <ele>561.2</ele>
        <time>2013-04-03T07:21:06.000Z</time>
      </trkpt>
      <trkpt lat="47.25106" lon="4.92968">
        <ele>561.3</ele>
        <time>2013-04-03T07:21:07.000Z</time>
      </trkpt>
      <trkpt lat="47.25105" lon="4.92962">
        <ele>562.2</ele>
        <time>2013-04-03T07:21:10.000Z</time>
      </trkpt>
      <trkpt lat="47.25106" lon="4.9296">
        <ele>563.1</ele>
        <time>2013-04-03T07:21:11.000Z</time>
      </trkpt>
      <trkpt lat="47.25107" lon="4.92955">
        <ele>563.4</ele>
        <time>2013-04-03T07:21:14.000Z</time>
      </trkpt>
      <trkpt lat="47.25106" lon="4.92952">
        <ele>563.4</ele>
        <time>2013-04-03T07:21:15.000Z</time>
      </trkpt>
      <trkpt lat="47.25106" lon="4.92947">
        <ele>562.6</ele>
        <time>2013-04-03T07:21:18.000Z</time>
      </trkpt>
      <trkpt lat="47.25106" lon="4.92945">
        <ele>562.3</ele>
        <time>2013-04-03T07:21:19.000Z</time>
      </trkpt>
      <trkpt lat="47.25105" lon="4.92941">
        <ele>562.3</ele>
        <time>2013-04-03T07:21:21.000Z</time>
      </trkpt>
      <trkpt lat="47.25105" lon="4.92938">
        <ele>561.9</ele>
        <time>2013-04-03T07:21:22.000Z</time>
      </trkpt>
      <trkpt lat="47.25104" lon="4.92932">
        <ele>562.7</ele>
        <time>2013-04-03T07:21:24.000Z</time>
      </trkpt>
      <trkpt lat="47.25104" lon="4.9293">
        <ele>558.7</ele>
        <time>2013-04-03T07:21:25.000Z</time>
      </trkpt>
      <trkpt lat="47.25102" lon="4.92925">
        <ele>558.8</ele>
        <time>2013-04-03T07:21:29.000Z</time>
      </trkpt>
      <trkpt lat="47.25102" lon="4.92922">
        <ele>560.3</ele>
        <time>2013-04-03T07:21:30.000Z</time>
      </trkpt>
      <trkpt lat="47.25102" lon="4.92919">
        <ele>561</ele>
        <time>2013-04-03T07:21:31.000Z</time>
      </trkpt>
      <trkpt lat="47.25102" lon="4.92916">
        <ele>562</ele>
        <time>2013-04-03T07:21:32.000Z</time>
      </trkpt>
      <trkpt lat="47.25103" lon="4.92912">
        <ele>562.6</ele>
        <time>2013-04-03T07:21:33.000Z</time>
      </trkpt>
      <trkpt lat="47.25103" lon="4.92909">
        <ele>563.7</ele>
        <time>2013-04-03T07:21:34.000Z</time>
      </trkpt>
      <trkpt lat="47.25103" lon="4.92903">
        <ele>565.2</ele>
        <time>2013-04-03T07:21:36.000Z</time>
      </trkpt>
      <trkpt lat="47.25103" lon="4.929">
        <ele>564.8</ele>
        <time>2013-04-03T07:21:37.000Z</time>
      </trkpt>
      <trkpt lat="47.25103" lon="4.92894">
        <ele>566.8</ele>
        <time>2013-04-03T07:21:43.000Z</time>
      </trkpt>
      <trkpt lat="47.25103" lon="4.92894">
        <ele>567.3</ele>
        <time>2013-04-03T07:21:44.000Z</time>
      </trkpt>
      <trkpt lat="47.25102" lon="4.92888">
        <ele>565.1</ele>
        <time>2013-04-03T07:22:25.000Z</time>
      </trkpt>
      <trkpt lat="47.25101" lon="4.92887">
        <ele>564.9</ele>
        <time>2013-04-03T07:22:26.000Z</time>
      </trkpt>
      <trkpt lat="47.25104" lon="4.92884">
        <ele>567.7</ele>
        <time>2013-04-03T07:24:57.000Z</time>
      </trkpt>
      <trkpt lat="47.25105" lon="4.92884">
        <ele>567.4</ele>
        <time>2013-04-03T07:24:58.000Z</time>
      </trkpt>
      <trkpt lat="47.25108" lon="4.92885">
        <ele>567.6</ele>
        <time>2013-04-03T07:25:01.000Z</time>
      </trkpt>
      <trkpt lat="47.25109" lon="4.92885">
        <ele>567.4</ele>
        <time>2013-04-03T07:25:02.000Z</time>
      </trkpt>
      <trkpt lat="47.25114" lon="4.92885">
        <ele>566.6</ele>
        <time>2013-04-03T07:25:05.000Z</time>
      </trkpt>
      <trkpt lat="47.25115" lon="4.92885">
        <ele>566.6</ele>
        <time>2013-04-03T07:25:06.000Z</time>
      </trkpt>
      <trkpt lat="47.25119" lon="4.92885">
        <ele>566.3</ele>
        <time>2013-04-03T07:25:09.000Z</time>
      </trkpt>
      <trkpt lat="47.25121" lon="4.92885">
        <ele>566</ele>
        <time>2013-04-03T07:25:10.000Z</time>
      </trkpt>
      <trkpt lat="47.25124" lon="4.92885">
        <ele>565.3</ele>
        <time>2013-04-03T07:25:13.000Z</time>
      </trkpt>
      <trkpt lat="47.25125" lon="4.92886">
        <ele>566.4</ele>
        <time>2013-04-03T07:25:14.000Z</time>
      </trkpt>
      <trkpt lat="47.25128" lon="4.92889">
        <ele>565.3</ele>
        <time>2013-04-03T07:25:17.000Z</time>
      </trkpt>
      <trkpt lat="47.25129" lon="4.9289">
        <ele>564.3</ele>
        <time>2013-04-03T07:25:18.000Z</time>
      </trkpt>
      <trkpt lat="47.25132" lon="4.92889">
        <ele>563.8</ele>
        <time>2013-04-03T07:25:21.000Z</time>
      </trkpt>
      <trkpt lat="47.25134" lon="4.92889">
        <ele>563.9</ele>
        <time>2013-04-03T07:25:22.000Z</time>
      </trkpt>
      <trkpt lat="47.25137" lon="4.92889">
        <ele>563.9</ele>
        <time>2013-04-03T07:25:24.000Z</time>
      </trkpt>
      <trkpt lat="47.25139" lon="4.92889">
        <ele>564.9</ele>
        <time>2013-04-03T07:25:25.000Z</time>
      </trkpt>
      <trkpt lat="47.25142" lon="4.9289">
        <ele>564.3</ele>
        <time>2013-04-03T07:25:27.000Z</time>
      </trkpt>
      <trkpt lat="47.25143" lon="4.92891">
        <ele>564.5</ele>
        <time>2013-04-03T07:25:28.000Z</time>
      </trkpt>
      <trkpt lat="47.25146" lon="4.92892">
        <ele>564.3</ele>
        <time>2013-04-03T07:25:30.000Z</time>
      </trkpt>
      <trkpt lat="47.25148" lon="4.92892">
        <ele>564.1</ele>
        <time>2013-04-03T07:25:31.000Z</time>
      </trkpt>
      <trkpt lat="47.25151" lon="4.92893">
        <ele>563.4</ele>
        <time>2013-04-03T07:25:33.000Z</time>
      </trkpt>
      <trkpt lat="47.25153" lon="4.92893">
        <ele>562.6</ele>
        <time>2013-04-03T07:25:34.000Z</time>
      </trkpt>
      <trkpt lat="47.25156" lon="4.92894">
        <ele>562.4</ele>
        <time>2013-04-03T07:25:36.000Z</time>
      </trkpt>
      <trkpt lat="47.25158" lon="4.92894">
        <ele>561</ele>
        <time>2013-04-03T07:25:37.000Z</time>
      </trkpt>
      <trkpt lat="47.25161" lon="4.92895">
        <ele>562.2</ele>
        <time>2013-04-03T07:25:39.000Z</time>
      </trkpt>
      <trkpt lat="47.25163" lon="4.92895">
        <ele>562.2</ele>
        <time>2013-04-03T07:25:40.000Z</time>
      </trkpt>
      <trkpt lat="47.25167" lon="4.92898">
        <ele>562.5</ele>
        <time>2013-04-03T07:25:43.000Z</time>
      </trkpt>
      <trkpt lat="47.25169" lon="4.92898">
        <ele>562.6</ele>
        <time>2013-04-03T07:25:44.000Z</time>
      </trkpt>
      <trkpt lat="47.25171" lon="4.92899">
        <ele>561.9</ele>
        <time>2013-04-03T07:25:46.000Z</time>
      </trkpt>
      <trkpt lat="47.25173" lon="4.92899">
        <ele>561.9</ele>
        <time>2013-04-03T07:25:47.000Z</time>
      </trkpt>
      <trkpt lat="47.25176" lon="4.92901">
        <ele>560.8</ele>
        <time>2013-04-03T07:25:50.000Z</time>
      </trkpt>
      <trkpt lat="47.25177" lon="4.92901">
        <ele>561.2</ele>
        <time>2013-04-03T07:25:51.000Z</time>
      </trkpt>
      <trkpt lat="47.25181" lon="4.92903">
        <ele>559.9</ele>
        <time>2013-04-03T07:25:54.000Z</time>
      </trkpt>
      <trkpt lat="47.25183" lon="4.92904">
        <ele>560.3</ele>
        <time>2013-04-03T07:25:55.000Z</time>
      </trkpt>
      <trkpt lat="47.25187" lon="4.92905">
        <ele>560.5</ele>
        <time>2013-04-03T07:25:57.000Z</time>
      </trkpt>
      <trkpt lat="47.25188" lon="4.92905">
        <ele>560.1</ele>
        <time>2013-04-03T07:25:58.000Z</time>
      </trkpt>
      <trkpt lat="47.25192" lon="4.92906">
        <ele>560.5</ele>
        <time>2013-04-03T07:26:01.000Z</time>
      </trkpt>
      <trkpt lat="47.25193" lon="4.92907">
        <ele>561.5</ele>
        <time>2013-04-03T07:26:02.000Z</time>
      </trkpt>
      <trkpt lat="47.25197" lon="4.92907">
        <ele>560.3</ele>
        <time>2013-04-03T07:26:05.000Z</time>
      </trkpt>
      <trkpt lat="47.25198" lon="4.92907">
        <ele>559.8</ele>
        <time>2013-04-03T07:26:06.000Z</time>
      </trkpt>
      <trkpt lat="47.25201" lon="4.92909">
        <ele>560.7</ele>
        <time>2013-04-03T07:26:08.000Z</time>
      </trkpt>
      <trkpt lat="47.25203" lon="4.92909">
        <ele>561</ele>
        <time>2013-04-03T07:26:09.000Z</time>
      </trkpt>
      <trkpt lat="47.25207" lon="4.9291">
        <ele>561.5</ele>
        <time>2013-04-03T07:26:11.000Z</time>
      </trkpt>
      <trkpt lat="47.25209" lon="4.9291">
        <ele>561.4</ele>
        <time>2013-04-03T07:26:12.000Z</time>
      </trkpt>
      <trkpt lat="47.25212" lon="4.92911">
        <ele>560.1</ele>
        <time>2013-04-03T07:26:14.000Z</time>
      </trkpt>
      <trkpt lat="47.25214" lon="4.92911">
        <ele>559.8</ele>
        <time>2013-04-03T07:26:15.000Z</time>
      </trkpt>
      <trkpt lat="47.25217" lon="4.92912">
        <ele>560.8</ele>
        <time>2013-04-03T07:26:17.000Z</time>
      </trkpt>
      <trkpt lat="47.25218" lon="4.92912">
        <ele>561</ele>
        <time>2013-04-03T07:26:18.000Z</time>
      </trkpt>
      <trkpt lat="47.25222" lon="4.92913">
        <ele>561.9</ele>
        <time>2013-04-03T07:26:20.000Z</time>
      </trkpt>
      <trkpt lat="47.25224" lon="4.92913">
        <ele>561.6</ele>
        <time>2013-04-03T07:26:21.000Z</time>
      </trkpt>
      <trkpt lat="47.25228" lon="4.92913">
        <ele>562.5</ele>
        <time>2013-04-03T07:26:23.000Z</time>
      </trkpt>
      <trkpt lat="47.2523" lon="4.92914">
        <ele>562.7</ele>
        <time>2013-04-03T07:26:24.000Z</time>
      </trkpt>
      <trkpt lat="47.25233" lon="4.92914">
        <ele>561.4</ele>
        <time>2013-04-03T07:26:27.000Z</time>
      </trkpt>
      <trkpt lat="47.25234" lon="4.92914">
        <ele>561.3</ele>
        <time>2013-04-03T07:26:28.000Z</time>
      </trkpt>
      <trkpt lat="47.25238" lon="4.92915">
        <ele>562.4</ele>
        <time>2013-04-03T07:26:31.000Z</time>
      </trkpt>
      <trkpt lat="47.2524" lon="4.92915">
        <ele>562.4</ele>
        <time>2013-04-03T07:26:32.000Z</time>
      </trkpt>
      <trkpt lat="47.25243" lon="4.92915">
        <ele>562.5</ele>
        <time>2013-04-03T07:26:34.000Z</time>
      </trkpt>
      <trkpt lat="47.25245" lon="4.92916">
        <ele>561.7</ele>
        <time>2013-04-03T07:26:35.000Z</time>
      </trkpt>
      <trkpt lat="47.25249" lon="4.92917">
        <ele>562.2</ele>
        <time>2013-04-03T07:26:40.000Z</time>
      </trkpt>
      <trkpt lat="47.2525" lon="4.92917">
        <ele>561.9</ele>
        <time>2013-04-03T07:26:41.000Z</time>
      </trkpt>
      <trkpt lat="47.25254" lon="4.92917">
        <ele>562</ele>
        <time>2013-04-03T07:26:44.000Z</time>
      </trkpt>
      <trkpt lat="47.25256" lon="4.92917">
        <ele>562.1</ele>
        <time>2013-04-03T07:26:45.000Z</time>
      </trkpt>
      <trkpt lat="47.2526" lon="4.92917">
        <ele>561.4</ele>
        <time>2013-04-03T07:26:48.000Z</time>
      </trkpt>
      <trkpt lat="47.2526" lon="4.92917">
        <ele>561.6</ele>
        <time>2013-04-03T07:26:49.000Z</time>
      </trkpt>
      <trkpt lat="47.25264" lon="4.92917">
        <ele>562.2</ele>
        <time>2013-04-03T07:26:55.000Z</time>
      </trkpt>
      <trkpt lat="47.25265" lon="4.92918">
        <ele>563.1</ele>
        <time>2013-04-03T07:26:56.000Z</time>
      </trkpt>
      <trkpt lat="47.25268" lon="4.92918">
        <ele>563.5</ele>
        <time>2013-04-03T07:26:59.000Z</time>
      </trkpt>
      <trkpt lat="47.2527" lon="4.92918">
        <ele>563.9</ele>
        <time>2013-04-03T07:27:00.000Z</time>
      </trkpt>
      <trkpt lat="47.25273" lon="4.92919">
        <ele>563</ele>
        <time>2013-04-03T07:27:02.000Z</time>
      </trkpt>
      <trkpt lat="47.25274" lon="4.92919">
        <ele>563.3</ele>
        <time>2013-04-03T07:27:03.000Z</time>
      </trkpt>
      <trkpt lat="47.25278" lon="4.9292">
        <ele>564.5</ele>
        <time>2013-04-03T07:27:07.000Z</time>
      </trkpt>
      <trkpt lat="47.25279" lon="4.9292">
        <ele>564.1</ele>
        <time>2013-04-03T07:27:08.000Z</time>
      </trkpt>
      <trkpt lat="47.25282" lon="4.92922">
        <ele>564.4</ele>
        <time>2013-04-03T07:27:10.000Z</time>
      </trkpt>
      <trkpt lat="47.25284" lon="4.92922">
        <ele>563.6</ele>
        <time>2013-04-03T07:27:11.000Z</time>
      </trkpt>
      <trkpt lat="47.25288" lon="4.92923">
        <ele>563.3</ele>
        <time>2013-04-03T07:27:13.000Z</time>
      </trkpt>
      <trkpt lat="47.25289" lon="4.92923">
        <ele>563.5</ele>
        <time>2013-04-03T07:27:14.000Z</time>
      </trkpt>
      <trkpt lat="47.25293" lon="4.92922">
        <ele>563.3</ele>
        <time>2013-04-03T07:27:17.000Z</time>
      </trkpt>
      <trkpt lat="47.25294" lon="4.92922">
        <ele>563</ele>
        <time>2013-04-03T07:27:18.000Z</time>
      </trkpt>
      <trkpt lat="47.25298" lon="4.92922">
        <ele>563.4</ele>
        <time>2013-04-03T07:27:21.000Z</time>
      </trkpt>
      <trkpt lat="47.253" lon="4.92922">
        <ele>563.6</ele>
        <time>2013-04-03T07:27:22.000Z</time>
      </trkpt>
      <trkpt lat="47.25304" lon="4.92923">
        <ele>567.7</ele>
        <time>2013-04-03T07:27:24.000Z</time>
      </trkpt>
      <trkpt lat="47.25306" lon="4.92923">
        <ele>569</ele>
        <time>2013-04-03T07:27:25.000Z</time>
      </trkpt>
      <trkpt lat="47.25309" lon="4.92924">
        <ele>570.2</ele>
        <time>2013-04-03T07:27:27.000Z</time>
      </trkpt>
      <trkpt lat="47.25311" lon="4.92924">
        <ele>570.6</ele>
        <time>2013-04-03T07:27:28.000Z</time>
      </trkpt>
      <trkpt lat="47.25315" lon="4.92925">
        <ele>571.2</ele>
        <time>2013-04-03T07:27:30.000Z</time>
      </trkpt>
      <trkpt lat="47.25317" lon="4.92926">
        <ele>571.4</ele>
        <time>2013-04-03T07:27:31.000Z</time>
      </trkpt>
      <trkpt lat="47.25321" lon="4.92926">
        <ele>570.9</ele>
        <time>2013-04-03T07:27:33.000Z</time>
      </trkpt>
      <trkpt lat="47.25322" lon="4.92927">
        <ele>571</ele>
        <time>2013-04-03T07:27:34.000Z</time>
      </trkpt>
      <trkpt lat="47.25326" lon="4.92927">
        <ele>571.1</ele>
        <time>2013-04-03T07:27:36.000Z</time>
      </trkpt>
      <trkpt lat="47.25328" lon="4.92927">
        <ele>571.2</ele>
        <time>2013-04-03T07:27:37.000Z</time>
      </trkpt>
      <trkpt lat="47.2533" lon="4.92927">
        <ele>571.4</ele>
        <time>2013-04-03T07:27:38.000Z</time>
      </trkpt>
      <trkpt lat="47.25332" lon="4.92928">
        <ele>569.4</ele>
        <time>2013-04-03T07:27:39.000Z</time>
      </trkpt>
      <trkpt lat="47.25337" lon="4.9293">
        <ele>567.6</ele>
        <time>2013-04-03T07:27:41.000Z</time>
      </trkpt>
      <trkpt lat="47.25339" lon="4.9293">
        <ele>567</ele>
        <time>2013-04-03T07:27:42.000Z</time>
      </trkpt>
      <trkpt lat="47.25343" lon="4.92931">
        <ele>564.4</ele>
        <time>2013-04-03T07:27:44.000Z</time>
      </trkpt>
      <trkpt lat="47.25345" lon="4.92932">
        <ele>564.4</ele>
        <time>2013-04-03T07:27:45.000Z</time>
      </trkpt>
      <trkpt lat="47.25349" lon="4.92933">
        <ele>564.1</ele>
        <time>2013-04-03T07:27:47.000Z</time>
      </trkpt>
      <trkpt lat="47.2535" lon="4.92933">
        <ele>563</ele>
        <time>2013-04-03T07:27:48.000Z</time>
      </trkpt>
      <trkpt lat="47.25354" lon="4.92933">
        <ele>562.9</ele>
        <time>2013-04-03T07:27:50.000Z</time>
      </trkpt>
      <trkpt lat="47.25356" lon="4.92934">
        <ele>562.9</ele>
        <time>2013-04-03T07:27:51.000Z</time>
      </trkpt>
      <trkpt lat="47.2536" lon="4.92935">
        <ele>561.7</ele>
        <time>2013-04-03T07:27:54.000Z</time>
      </trkpt>
      <trkpt lat="47.25362" lon="4.92934">
        <ele>562.7</ele>
        <time>2013-04-03T07:27:55.000Z</time>
      </trkpt>
      <trkpt lat="47.25366" lon="4.92934">
        <ele>563.9</ele>
        <time>2013-04-03T07:27:57.000Z</time>
      </trkpt>
      <trkpt lat="47.25368" lon="4.92934">
        <ele>560.8</ele>
        <time>2013-04-03T07:27:58.000Z</time>
      </trkpt>
      <trkpt lat="47.25372" lon="4.92934">
        <ele>560.4</ele>
        <time>2013-04-03T07:28:01.000Z</time>
      </trkpt>
      <trkpt lat="47.25373" lon="4.92934">
        <ele>560.5</ele>
        <time>2013-04-03T07:28:02.000Z</time>
      </trkpt>
      <trkpt lat="47.25376" lon="4.92935">
        <ele>561.7</ele>
        <time>2013-04-03T07:28:04.000Z</time>
      </trkpt>
      <trkpt lat="47.25378" lon="4.92935">
        <ele>561.5</ele>
        <time>2013-04-03T07:28:05.000Z</time>
      </trkpt>
      <trkpt lat="47.25382" lon="4.92936">
        <ele>562.1</ele>
        <time>2013-04-03T07:28:07.000Z</time>
      </trkpt>
      <trkpt lat="47.25383" lon="4.92936">
        <ele>562.2</ele>
        <time>2013-04-03T07:28:08.000Z</time>
      </trkpt>
      <trkpt lat="47.25386" lon="4.92936">
        <ele>563.8</ele>
        <time>2013-04-03T07:28:09.000Z</time>
      </trkpt>
      <trkpt lat="47.25388" lon="4.92936">
        <ele>564.4</ele>
        <time>2013-04-03T07:28:10.000Z</time>
      </trkpt>
      <trkpt lat="47.2539" lon="4.92936">
        <ele>563.5</ele>
        <time>2013-04-03T07:28:11.000Z</time>
      </trkpt>
      <trkpt lat="47.25393" lon="4.92936">
        <ele>563.2</ele>
        <time>2013-04-03T07:28:12.000Z</time>
      </trkpt>
      <trkpt lat="47.25397" lon="4.92937">
        <ele>562</ele>
        <time>2013-04-03T07:28:15.000Z</time>
      </trkpt>
      <trkpt lat="47.25398" lon="4.92938">
        <ele>562</ele>
        <time>2013-04-03T07:28:16.000Z</time>
      </trkpt>
      <trkpt lat="47.25402" lon="4.92938">
        <ele>562.6</ele>
        <time>2013-04-03T07:28:19.000Z</time>
      </trkpt>
      <trkpt lat="47.25403" lon="4.92939">
        <ele>562.8</ele>
        <time>2013-04-03T07:28:20.000Z</time>
      </trkpt>
      <trkpt lat="47.25407" lon="4.92938">
        <ele>564.6</ele>
        <time>2013-04-03T07:28:29.000Z</time>
      </trkpt>
      <trkpt lat="47.25408" lon="4.92938">
        <ele>564.5</ele>
        <time>2013-04-03T07:28:30.000Z</time>
      </trkpt>
      <trkpt lat="47.25411" lon="4.9294">
        <ele>570.4</ele>
        <time>2013-04-03T07:28:43.000Z</time>
      </trkpt>
      <trkpt lat="47.25412" lon="4.9294">
        <ele>570.9</ele>
        <time>2013-04-03T07:28:44.000Z</time>
      </trkpt>
      <trkpt lat="47.25412" lon="4.92945">
        <ele>574.9</ele>
        <time>2013-04-03T07:28:47.000Z</time>
      </trkpt>
      <trkpt lat="47.25413" lon="4.92947">
        <ele>573.7</ele>
        <time>2013-04-03T07:28:48.000Z</time>
      </trkpt>
      <trkpt lat="47.25415" lon="4.92953">
        <ele>573</ele>
        <time>2013-04-03T07:28:51.000Z</time>
      </trkpt>
      <trkpt lat="47.25415" lon="4.92955">
        <ele>572.5</ele>
        <time>2013-04-03T07:28:52.000Z</time>
      </trkpt>
      <trkpt lat="47.25418" lon="4.9296">
        <ele>571.9</ele>
        <time>2013-04-03T07:28:55.000Z</time>
      </trkpt>
      <trkpt lat="47.25418" lon="4.92962">
        <ele>571.8</ele>
        <time>2013-04-03T07:28:56.000Z</time>
      </trkpt>
      <trkpt lat="47.2542" lon="4.92967">
        <ele>570.3</ele>
        <time>2013-04-03T07:28:59.000Z</time>
      </trkpt>
      <trkpt lat="47.25421" lon="4.92968">
        <ele>569.5</ele>
        <time>2013-04-03T07:29:00.000Z</time>
      </trkpt>
      <trkpt lat="47.25422" lon="4.92974">
        <ele>569</ele>
        <time>2013-04-03T07:29:03.000Z</time>
      </trkpt>
      <trkpt lat="47.25422" lon="4.92976">
        <ele>568.8</ele>
        <time>2013-04-03T07:29:04.000Z</time>
      </trkpt>
      <trkpt lat="47.25423" lon="4.9298">
        <ele>566.8</ele>
        <time>2013-04-03T07:29:07.000Z</time>
      </trkpt>
      <trkpt lat="47.25424" lon="4.92982">
        <ele>566.1</ele>
        <time>2013-04-03T07:29:08.000Z</time>
      </trkpt>
      <trkpt lat="47.25425" lon="4.92988">
        <ele>564.4</ele>
        <time>2013-04-03T07:29:12.000Z</time>
      </trkpt>
      <trkpt lat="47.25426" lon="4.92989">
        <ele>564.4</ele>
        <time>2013-04-03T07:29:13.000Z</time>
      </trkpt>
      <trkpt lat="47.25428" lon="4.92995">
        <ele>563.4</ele>
        <time>2013-04-03T07:29:16.000Z</time>
      </trkpt>
      <trkpt lat="47.25428" lon="4.92997">
        <ele>563</ele>
        <time>2013-04-03T07:29:17.000Z</time>
      </trkpt>
      <trkpt lat="47.25429" lon="4.93001">
        <ele>562.9</ele>
        <time>2013-04-03T07:29:19.000Z</time>
      </trkpt>
      <trkpt lat="47.25429" lon="4.93003">
        <ele>563.4</ele>
        <time>2013-04-03T07:29:20.000Z</time>
      </trkpt>
      <trkpt lat="47.2543" lon="4.9301">
        <ele>563.5</ele>
        <time>2013-04-03T07:29:23.000Z</time>
      </trkpt>
      <trkpt lat="47.2543" lon="4.93012">
        <ele>564</ele>
        <time>2013-04-03T07:29:24.000Z</time>
      </trkpt>
      <trkpt lat="47.2543" lon="4.93016">
        <ele>564.7</ele>
        <time>2013-04-03T07:29:26.000Z</time>
      </trkpt>
      <trkpt lat="47.25431" lon="4.93018">
        <ele>565</ele>
        <time>2013-04-03T07:29:27.000Z</time>
      </trkpt>
      <trkpt lat="47.25432" lon="4.93024">
        <ele>564.2</ele>
        <time>2013-04-03T07:29:30.000Z</time>
      </trkpt>
      <trkpt lat="47.25432" lon="4.93025">
        <ele>562</ele>
        <time>2013-04-03T07:29:31.000Z</time>
      </trkpt>
      <trkpt lat="47.25433" lon="4.93031">
        <ele>560.3</ele>
        <time>2013-04-03T07:29:35.000Z</time>
      </trkpt>
      <trkpt lat="47.25433" lon="4.93033">
        <ele>561.5</ele>
        <time>2013-04-03T07:29:36.000Z</time>
      </trkpt>
      <trkpt lat="47.25433" lon="4.93039">
        <ele>560.9</ele>
        <time>2013-04-03T07:29:38.000Z</time>
      </trkpt>
      <trkpt lat="47.25434" lon="4.93042">
        <ele>561.4</ele>
        <time>2013-04-03T07:29:39.000Z</time>
      </trkpt>
      <trkpt lat="47.25434" lon="4.93048">
        <ele>558.1</ele>
        <time>2013-04-03T07:29:42.000Z</time>
      </trkpt>
      <trkpt lat="47.25434" lon="4.93049">
        <ele>558.3</ele>
        <time>2013-04-03T07:29:43.000Z</time>
      </trkpt>
      <trkpt lat="47.25435" lon="4.93055">
        <ele>558.5</ele>
        <time>2013-04-03T07:29:46.000Z</time>
      </trkpt>
      <trkpt lat="47.25436" lon="4.93057">
        <ele>558.9</ele>
        <time>2013-04-03T07:29:47.000Z</time>
      </trkpt>
      <trkpt lat="47.25437" lon="4.93062">
        <ele>562.8</ele>
        <time>2013-04-03T07:29:49.000Z</time>
      </trkpt>
      <trkpt lat="47.25437" lon="4.93065">
        <ele>562.9</ele>
        <time>2013-04-03T07:29:50.000Z</time>
      </trkpt>
      <trkpt lat="47.25438" lon="4.93071">
        <ele>562.5</ele>
        <time>2013-04-03T07:29:52.000Z</time>
      </trkpt>
      <trkpt lat="47.25439" lon="4.93073">
        <ele>562</ele>
        <time>2013-04-03T07:29:53.000Z</time>
      </trkpt>
      <trkpt lat="47.2544" lon="4.93079">
        <ele>563.8</ele>
        <time>2013-04-03T07:29:55.000Z</time>
      </trkpt>
      <trkpt lat="47.2544" lon="4.93083">
        <ele>564.6</ele>
        <time>2013-04-03T07:29:56.000Z</time>
      </trkpt>
      <trkpt lat="47.25441" lon="4.93088">
        <ele>565.2</ele>
        <time>2013-04-03T07:29:58.000Z</time>
      </trkpt>
      <trkpt lat="47.25442" lon="4.9309">
        <ele>564.6</ele>
        <time>2013-04-03T07:29:59.000Z</time>
      </trkpt>
      <trkpt lat="47.25443" lon="4.93096">
        <ele>567.3</ele>
        <time>2013-04-03T07:30:01.000Z</time>
      </trkpt>
      <trkpt lat="47.25443" lon="4.931">
        <ele>567.9</ele>
        <time>2013-04-03T07:30:02.000Z</time>
      </trkpt>
      <trkpt lat="47.25444" lon="4.93103">
        <ele>567.8</ele>
        <time>2013-04-03T07:30:03.000Z</time>
      </trkpt>
      <trkpt lat="47.25445" lon="4.93106">
        <ele>566.8</ele>
        <time>2013-04-03T07:30:04.000Z</time>
      </trkpt>
      <trkpt lat="47.25446" lon="4.9311">
        <ele>566.2</ele>
        <time>2013-04-03T07:30:06.000Z</time>
      </trkpt>
      <trkpt lat="47.25447" lon="4.93112">
        <ele>565.2</ele>
        <time>2013-04-03T07:30:07.000Z</time>
      </trkpt>
      <trkpt lat="47.25449" lon="4.93116">
        <ele>563.9</ele>
        <time>2013-04-03T07:30:10.000Z</time>
      </trkpt>
      <trkpt lat="47.25449" lon="4.93118">
        <ele>564.9</ele>
        <time>2013-04-03T07:30:11.000Z</time>
      </trkpt>
      <trkpt lat="47.25449" lon="4.93122">
        <ele>565.4</ele>
        <time>2013-04-03T07:30:13.000Z</time>
      </trkpt>
      <trkpt lat="47.25449" lon="4.93125">
        <ele>564.7</ele>
        <time>2013-04-03T07:30:14.000Z</time>
      </trkpt>
      <trkpt lat="47.2545" lon="4.9313">
        <ele>565.1</ele>
        <time>2013-04-03T07:30:16.000Z</time>
      </trkpt>
      <trkpt lat="47.2545" lon="4.93132">
        <ele>564.7</ele>
        <time>2013-04-03T07:30:17.000Z</time>
      </trkpt>
      <trkpt lat="47.2545" lon="4.93137">
        <ele>564.3</ele>
        <time>2013-04-03T07:30:19.000Z</time>
      </trkpt>
      <trkpt lat="47.25451" lon="4.9314">
        <ele>563.9</ele>
        <time>2013-04-03T07:30:20.000Z</time>
      </trkpt>
      <trkpt lat="47.25451" lon="4.93144">
        <ele>563.7</ele>
        <time>2013-04-03T07:30:22.000Z</time>
      </trkpt>
      <trkpt lat="47.25452" lon="4.93146">
        <ele>563.8</ele>
        <time>2013-04-03T07:30:23.000Z</time>
      </trkpt>
      <trkpt lat="47.25452" lon="4.93151">
        <ele>562.9</ele>
        <time>2013-04-03T07:30:25.000Z</time>
      </trkpt>
      <trkpt lat="47.25452" lon="4.93153">
        <ele>561.8</ele>
        <time>2013-04-03T07:30:26.000Z</time>
      </trkpt>
      <trkpt lat="47.25454" lon="4.93158">
        <ele>561.6</ele>
        <time>2013-04-03T07:30:29.000Z</time>
      </trkpt>
      <trkpt lat="47.25455" lon="4.9316">
        <ele>562.3</ele>
        <time>2013-04-03T07:30:30.000Z</time>
      </trkpt>
      <trkpt lat="47.25455" lon="4.93166">
        <ele>561.1</ele>
        <time>2013-04-03T07:30:32.000Z</time>
      </trkpt>
      <trkpt lat="47.25455" lon="4.93168">
        <ele>560.7</ele>
        <time>2013-04-03T07:30:33.000Z</time>
      </trkpt>
      <trkpt lat="47.25455" lon="4.93174">
        <ele>562.7</ele>
        <time>2013-04-03T07:30:35.000Z</time>
      </trkpt>
      <trkpt lat="47.25455" lon="4.93177">
        <ele>562.9</ele>
        <time>2013-04-03T07:30:36.000Z</time>
      </trkpt>
      <trkpt lat="47.25455" lon="4.93182">
        <ele>561.7</ele>
        <time>2013-04-03T07:30:38.000Z</time>
      </trkpt>
      <trkpt lat="47.25456" lon="4.93184">
        <ele>561.3</ele>
        <time>2013-04-03T07:30:39.000Z</time>
      </trkpt>
      <trkpt lat="47.25456" lon="4.93189">
        <ele>560</ele>
        <time>2013-04-03T07:30:42.000Z</time>
      </trkpt>
      <trkpt lat="47.25457" lon="4.93191">
        <ele>559.7</ele>
        <time>2013-04-03T07:30:43.000Z</time>
      </trkpt>
      <trkpt lat="47.25456" lon="4.93196">
        <ele>558.9</ele>
        <time>2013-04-03T07:30:45.000Z</time>
      </trkpt>
      <trkpt lat="47.25456" lon="4.93198">
        <ele>558.5</ele>
        <time>2013-04-03T07:30:46.000Z</time>
      </trkpt>
      <trkpt lat="47.25456" lon="4.93203">
        <ele>558.6</ele>
        <time>2013-04-03T07:30:48.000Z</time>
      </trkpt>
      <trkpt lat="47.25456" lon="4.93205">
        <ele>558.8</ele>
        <time>2013-04-03T07:30:49.000Z</time>
      </trkpt>
      <trkpt lat="47.25456" lon="4.9321">
        <ele>559.7</ele>
        <time>2013-04-03T07:30:51.000Z</time>
      </trkpt>
      <trkpt lat="47.25457" lon="4.93212">
        <ele>560.3</ele>
        <time>2013-04-03T07:30:52.000Z</time>
      </trkpt>
      <trkpt lat="47.25458" lon="4.93217">
        <ele>560.7</ele>
        <time>2013-04-03T07:30:54.000Z</time>
      </trkpt>
      <trkpt lat="47.25458" lon="4.93219">
        <ele>561.8</ele>
        <time>2013-04-03T07:30:55.000Z</time>
      </trkpt>
      <trkpt lat="47.25458" lon="4.93226">
        <ele>562.9</ele>
        <time>2013-04-03T07:30:57.000Z</time>
      </trkpt>
      <trkpt lat="47.25459" lon="4.93228">
        <ele>563</ele>
        <time>2013-04-03T07:30:58.000Z</time>
      </trkpt>
      <trkpt lat="47.25459" lon="4.93233">
        <ele>563.5</ele>
        <time>2013-04-03T07:31:00.000Z</time>
      </trkpt>
      <trkpt lat="47.2546" lon="4.93235">
        <ele>563.5</ele>
        <time>2013-04-03T07:31:01.000Z</time>
      </trkpt>
      <trkpt lat="47.25461" lon="4.93241">
        <ele>563.7</ele>
        <time>2013-04-03T07:31:04.000Z</time>
      </trkpt>
      <trkpt lat="47.25461" lon="4.93244">
        <ele>564.4</ele>
        <time>2013-04-03T07:31:05.000Z</time>
      </trkpt>
      <trkpt lat="47.25461" lon="4.93249">
        <ele>564.9</ele>
        <time>2013-04-03T07:31:07.000Z</time>
      </trkpt>
      <trkpt lat="47.25461" lon="4.93251">
        <ele>564.8</ele>
        <time>2013-04-03T07:31:08.000Z</time>
      </trkpt>
      <trkpt lat="47.25461" lon="4.93257">
        <ele>564.2</ele>
        <time>2013-04-03T07:31:11.000Z</time>
      </trkpt>
      <trkpt lat="47.25461" lon="4.93259">
        <ele>563.5</ele>
        <time>2013-04-03T07:31:12.000Z</time>
      </trkpt>
      <trkpt lat="47.25462" lon="4.93264">
        <ele>564.5</ele>
        <time>2013-04-03T07:31:16.000Z</time>
      </trkpt>
      <trkpt lat="47.25462" lon="4.93266">
        <ele>564.7</ele>
        <time>2013-04-03T07:31:17.000Z</time>
      </trkpt>
      <trkpt lat="47.25461" lon="4.9327">
        <ele>562.4</ele>
        <time>2013-04-03T07:31:20.000Z</time>
      </trkpt>
      <trkpt lat="47.25461" lon="4.93272">
        <ele>562.4</ele>
        <time>2013-04-03T07:31:21.000Z</time>
      </trkpt>
      <trkpt lat="47.25461" lon="4.93277">
        <ele>563</ele>
        <time>2013-04-03T07:31:23.000Z</time>
      </trkpt>
      <trkpt lat="47.2546" lon="4.9328">
        <ele>562</ele>
        <time>2013-04-03T07:31:24.000Z</time>
      </trkpt>
      <trkpt lat="47.2546" lon="4.93285">
        <ele>560.6</ele>
        <time>2013-04-03T07:31:26.000Z</time>
      </trkpt>
      <trkpt lat="47.2546" lon="4.93288">
        <ele>561.9</ele>
        <time>2013-04-03T07:31:27.000Z</time>
      </trkpt>
      <trkpt lat="47.25461" lon="4.93294">
        <ele>560.8</ele>
        <time>2013-04-03T07:31:29.000Z</time>
      </trkpt>
      <trkpt lat="47.25461" lon="4.93297">
        <ele>559.5</ele>
        <time>2013-04-03T07:31:30.000Z</time>
      </trkpt>
      <trkpt lat="47.25462" lon="4.93302">
        <ele>558.1</ele>
        <time>2013-04-03T07:31:32.000Z</time>
      </trkpt>
      <trkpt lat="47.25463" lon="4.93304">
        <ele>557.8</ele>
        <time>2013-04-03T07:31:33.000Z</time>
      </trkpt>
      <trkpt lat="47.25464" lon="4.93309">
        <ele>556.7</ele>
        <time>2013-04-03T07:31:35.000Z</time>
      </trkpt>
      <trkpt lat="47.25464" lon="4.93311">
        <ele>555.9</ele>
        <time>2013-04-03T07:31:36.000Z</time>
      </trkpt>
      <trkpt lat="47.25465" lon="4.93316">
        <ele>554.9</ele>
        <time>2013-04-03T07:31:38.000Z</time>
      </trkpt>
      <trkpt lat="47.25466" lon="4.93318">
        <ele>555.2</ele>
        <time>2013-04-03T07:31:39.000Z</time>
      </trkpt>
      <trkpt lat="47.25465" lon="4.93324">
        <ele>553.1</ele>
        <time>2013-04-03T07:31:41.000Z</time>
      </trkpt>
      <trkpt lat="47.25465" lon="4.93326">
        <ele>552.9</ele>
        <time>2013-04-03T07:31:42.000Z</time>
      </trkpt>
      <trkpt lat="47.25466" lon="4.93332">
        <ele>551.8</ele>
        <time>2013-04-03T07:31:45.000Z</time>
      </trkpt>
      <trkpt lat="47.25467" lon="4.93334">
        <ele>550.8</ele>
        <time>2013-04-03T07:31:46.000Z</time>
      </trkpt>
      <trkpt lat="47.25468" lon="4.93338">
        <ele>550.7</ele>
        <time>2013-04-03T07:31:48.000Z</time>
      </trkpt>
      <trkpt lat="47.25468" lon="4.9334">
        <ele>550.7</ele>
        <time>2013-04-03T07:31:49.000Z</time>
      </trkpt>
      <trkpt lat="47.25469" lon="4.93346">
        <ele>551</ele>
        <time>2013-04-03T07:31:52.000Z</time>
      </trkpt>
      <trkpt lat="47.25469" lon="4.93348">
        <ele>551.1</ele>
        <time>2013-04-03T07:31:53.000Z</time>
      </trkpt>
      <trkpt lat="47.25469" lon="4.93353">
        <ele>551.3</ele>
        <time>2013-04-03T07:31:55.000Z</time>
      </trkpt>
      <trkpt lat="47.25469" lon="4.93355">
        <ele>551.5</ele>
        <time>2013-04-03T07:31:56.000Z</time>
      </trkpt>
      <trkpt lat="47.25469" lon="4.93361">
        <ele>552.1</ele>
        <time>2013-04-03T07:31:59.000Z</time>
      </trkpt>
      <trkpt lat="47.25469" lon="4.93363">
        <ele>552.4</ele>
        <time>2013-04-03T07:32:00.000Z</time>
      </trkpt>
      <trkpt lat="47.2547" lon="4.93367">
        <ele>550.2</ele>
        <time>2013-04-03T07:32:02.000Z</time>
      </trkpt>
      <trkpt lat="47.2547" lon="4.9337">
        <ele>552</ele>
        <time>2013-04-03T07:32:03.000Z</time>
      </trkpt>
      <trkpt lat="47.2547" lon="4.93377">
        <ele>553.3</ele>
        <time>2013-04-03T07:32:05.000Z</time>
      </trkpt>
      <trkpt lat="47.2547" lon="4.9338">
        <ele>553.4</ele>
        <time>2013-04-03T07:32:06.000Z</time>
      </trkpt>
      <trkpt lat="47.25471" lon="4.93385">
        <ele>553.8</ele>
        <time>2013-04-03T07:32:08.000Z</time>
      </trkpt>
      <trkpt lat="47.25471" lon="4.93387">
        <ele>554.6</ele>
        <time>2013-04-03T07:32:09.000Z</time>
      </trkpt>
      <trkpt lat="47.25471" lon="4.93392">
        <ele>553.2</ele>
        <time>2013-04-03T07:32:11.000Z</time>
      </trkpt>
      <trkpt lat="47.25472" lon="4.93395">
        <ele>552.6</ele>
        <time>2013-04-03T07:32:12.000Z</time>
      </trkpt>
      <trkpt lat="47.25472" lon="4.93399">
        <ele>551.9</ele>
        <time>2013-04-03T07:32:14.000Z</time>
      </trkpt>
      <trkpt lat="47.25471" lon="4.93402">
        <ele>551.8</ele>
        <time>2013-04-03T07:32:15.000Z</time>
      </trkpt>
      <trkpt lat="47.2547" lon="4.93407">
        <ele>551</ele>
        <time>2013-04-03T07:32:17.000Z</time>
      </trkpt>
      <trkpt lat="47.2547" lon="4.9341">
        <ele>550.4</ele>
        <time>2013-04-03T07:32:18.000Z</time>
      </trkpt>
      <trkpt lat="47.25469" lon="4.93416">
        <ele>549.5</ele>
        <time>2013-04-03T07:32:20.000Z</time>
      </trkpt>
      <trkpt lat="47.25469" lon="4.93418">
        <ele>548.5</ele>
        <time>2013-04-03T07:32:21.000Z</time>
      </trkpt>
      <trkpt lat="47.25469" lon="4.93424">
        <ele>548.4</ele>
        <time>2013-04-03T07:32:24.000Z</time>
      </trkpt>
      <trkpt lat="47.25469" lon="4.93426">
        <ele>548.2</ele>
        <time>2013-04-03T07:32:25.000Z</time>
      </trkpt>
      <trkpt lat="47.25471" lon="4.93431">
        <ele>545.4</ele>
        <time>2013-04-03T07:32:28.000Z</time>
      </trkpt>
      <trkpt lat="47.25471" lon="4.93433">
        <ele>545.7</ele>
        <time>2013-04-03T07:32:29.000Z</time>
      </trkpt>
      <trkpt lat="47.25472" lon="4.9344">
        <ele>542.6</ele>
        <time>2013-04-03T07:32:34.000Z</time>
      </trkpt>
      <trkpt lat="47.25472" lon="4.93441">
        <ele>542.3</ele>
        <time>2013-04-03T07:32:35.000Z</time>
      </trkpt>
      <trkpt lat="47.25473" lon="4.93446">
        <ele>544</ele>
        <time>2013-04-03T07:32:38.000Z</time>
      </trkpt>
      <trkpt lat="47.25473" lon="4.93448">
        <ele>544.4</ele>
        <time>2013-04-03T07:32:39.000Z</time>
      </trkpt>
      <trkpt lat="47.25473" lon="4.93455">
        <ele>540</ele>
        <time>2013-04-03T07:32:42.000Z</time>
      </trkpt>
      <trkpt lat="47.25473" lon="4.93457">
        <ele>539.8</ele>
        <time>2013-04-03T07:32:43.000Z</time>
      </trkpt>
      <trkpt lat="47.25473" lon="4.93461">
        <ele>539.9</ele>
        <time>2013-04-03T07:32:45.000Z</time>
      </trkpt>
      <trkpt lat="47.25473" lon="4.93464">
        <ele>539.8</ele>
        <time>2013-04-03T07:32:46.000Z</time>
      </trkpt>
      <trkpt lat="47.25473" lon="4.93469">
        <ele>538.6</ele>
        <time>2013-04-03T07:32:48.000Z</time>
      </trkpt>
      <trkpt lat="47.25472" lon="4.93472">
        <ele>538.6</ele>
        <time>2013-04-03T07:32:49.000Z</time>
      </trkpt>
      <trkpt lat="47.25472" lon="4.93478">
        <ele>538.3</ele>
        <time>2013-04-03T07:32:51.000Z</time>
      </trkpt>
      <trkpt lat="47.25472" lon="4.93481">
        <ele>537.6</ele>
        <time>2013-04-03T07:32:52.000Z</time>
      </trkpt>
      <trkpt lat="47.25472" lon="4.93486">
        <ele>538.4</ele>
        <time>2013-04-03T07:32:54.000Z</time>
      </trkpt>
      <trkpt lat="47.25473" lon="4.93489">
        <ele>537.6</ele>
        <time>2013-04-03T07:32:55.000Z</time>
      </trkpt>
      <trkpt lat="47.25473" lon="4.93495">
        <ele>536.1</ele>
        <time>2013-04-03T07:32:58.000Z</time>
      </trkpt>
      <trkpt lat="47.25474" lon="4.93497">
        <ele>535.7</ele>
        <time>2013-04-03T07:32:59.000Z</time>
      </trkpt>
      <trkpt lat="47.25474" lon="4.93501">
        <ele>536.8</ele>
        <time>2013-04-03T07:33:01.000Z</time>
      </trkpt>
      <trkpt lat="47.25474" lon="4.93504">
        <ele>535.9</ele>
        <time>2013-04-03T07:33:02.000Z</time>
      </trkpt>
      <trkpt lat="47.25474" lon="4.9351">
        <ele>536.8</ele>
        <time>2013-04-03T07:33:04.000Z</time>
      </trkpt>
      <trkpt lat="47.25474" lon="4.93512">
        <ele>536.7</ele>
        <time>2013-04-03T07:33:05.000Z</time>
      </trkpt>
      <trkpt lat="47.25475" lon="4.93516">
        <ele>536.5</ele>
        <time>2013-04-03T07:33:07.000Z</time>
      </trkpt>
      <trkpt lat="47.25475" lon="4.93518">
        <ele>535.8</ele>
        <time>2013-04-03T07:33:08.000Z</time>
      </trkpt>
      <trkpt lat="47.25476" lon="4.93523">
        <ele>534.5</ele>
        <time>2013-04-03T07:33:10.000Z</time>
      </trkpt>
      <trkpt lat="47.25477" lon="4.93525">
        <ele>534.4</ele>
        <time>2013-04-03T07:33:11.000Z</time>
      </trkpt>
      <trkpt lat="47.25477" lon="4.93529">
        <ele>535</ele>
        <time>2013-04-03T07:33:13.000Z</time>
      </trkpt>
      <trkpt lat="47.25478" lon="4.93531">
        <ele>535</ele>
        <time>2013-04-03T07:33:14.000Z</time>
      </trkpt>
      <trkpt lat="47.25479" lon="4.93537">
        <ele>535.1</ele>
        <time>2013-04-03T07:33:17.000Z</time>
      </trkpt>
      <trkpt lat="47.2548" lon="4.93539">
        <ele>535.4</ele>
        <time>2013-04-03T07:33:18.000Z</time>
      </trkpt>
      <trkpt lat="47.25482" lon="4.93543">
        <ele>534.1</ele>
        <time>2013-04-03T07:33:20.000Z</time>
      </trkpt>
      <trkpt lat="47.25482" lon="4.93546">
        <ele>534.6</ele>
        <time>2013-04-03T07:33:21.000Z</time>
      </trkpt>
      <trkpt lat="47.25484" lon="4.9355">
        <ele>535.1</ele>
        <time>2013-04-03T07:33:23.000Z</time>
      </trkpt>
      <trkpt lat="47.25485" lon="4.93552">
        <ele>533.4</ele>
        <time>2013-04-03T07:33:24.000Z</time>
      </trkpt>
      <trkpt lat="47.25487" lon="4.93557">
        <ele>532.9</ele>
        <time>2013-04-03T07:33:27.000Z</time>
      </trkpt>
      <trkpt lat="47.25487" lon="4.93562">
        <ele>531.9</ele>
        <time>2013-04-03T07:33:28.000Z</time>
      </trkpt>
      <trkpt lat="47.25488" lon="4.93567">
        <ele>534.4</ele>
        <time>2013-04-03T07:33:33.000Z</time>
      </trkpt>
      <trkpt lat="47.25488" lon="4.93568">
        <ele>534.4</ele>
        <time>2013-04-03T07:33:34.000Z</time>
      </trkpt>
      <trkpt lat="47.2549" lon="4.93574">
        <ele>534.2</ele>
        <time>2013-04-03T07:33:37.000Z</time>
      </trkpt>
      <trkpt lat="47.2549" lon="4.93576">
        <ele>533</ele>
        <time>2013-04-03T07:33:38.000Z</time>
      </trkpt>
      <trkpt lat="47.25492" lon="4.9358">
        <ele>534.1</ele>
        <time>2013-04-03T07:33:40.000Z</time>
      </trkpt>
      <trkpt lat="47.25492" lon="4.93582">
        <ele>533.2</ele>
        <time>2013-04-03T07:33:41.000Z</time>
      </trkpt>
      <trkpt lat="47.25493" lon="4.93587">
        <ele>531.5</ele>
        <time>2013-04-03T07:33:43.000Z</time>
      </trkpt>
      <trkpt lat="47.25493" lon="4.93589">
        <ele>531.3</ele>
        <time>2013-04-03T07:33:44.000Z</time>
      </trkpt>
      <trkpt lat="47.25494" lon="4.93595">
        <ele>531.3</ele>
        <time>2013-04-03T07:33:47.000Z</time>
      </trkpt>
      <trkpt lat="47.25495" lon="4.93597">
        <ele>531.1</ele>
        <time>2013-04-03T07:33:48.000Z</time>
      </trkpt>
      <trkpt lat="47.25496" lon="4.93602">
        <ele>530.6</ele>
        <time>2013-04-03T07:33:50.000Z</time>
      </trkpt>
      <trkpt lat="47.25497" lon="4.93604">
        <ele>530.7</ele>
        <time>2013-04-03T07:33:51.000Z</time>
      </trkpt>
      <trkpt lat="47.25499" lon="4.93609">
        <ele>531.2</ele>
        <time>2013-04-03T07:33:53.000Z</time>
      </trkpt>
      <trkpt lat="47.25499" lon="4.93611">
        <ele>531.2</ele>
        <time>2013-04-03T07:33:54.000Z</time>
      </trkpt>
      <trkpt lat="47.25501" lon="4.93616">
        <ele>531</ele>
        <time>2013-04-03T07:33:56.000Z</time>
      </trkpt>
      <trkpt lat="47.25502" lon="4.93618">
        <ele>531</ele>
        <time>2013-04-03T07:33:57.000Z</time>
      </trkpt>
      <trkpt lat="47.25504" lon="4.93622">
        <ele>530.2</ele>
        <time>2013-04-03T07:33:59.000Z</time>
      </trkpt>
      <trkpt lat="47.25505" lon="4.93624">
        <ele>529.7</ele>
        <time>2013-04-03T07:34:00.000Z</time>
      </trkpt>
      <trkpt lat="47.25506" lon="4.93629">
        <ele>530.6</ele>
        <time>2013-04-03T07:34:02.000Z</time>
      </trkpt>
      <trkpt lat="47.25507" lon="4.93631">
        <ele>530.2</ele>
        <time>2013-04-03T07:34:03.000Z</time>
      </trkpt>
      <trkpt lat="47.25508" lon="4.93636">
        <ele>529.8</ele>
        <time>2013-04-03T07:34:05.000Z</time>
      </trkpt>
      <trkpt lat="47.25509" lon="4.93638">
        <ele>529.1</ele>
        <time>2013-04-03T07:34:06.000Z</time>
      </trkpt>
      <trkpt lat="47.2551" lon="4.93643">
        <ele>529.1</ele>
        <time>2013-04-03T07:34:08.000Z</time>
      </trkpt>
      <trkpt lat="47.2551" lon="4.93645">
        <ele>529</ele>
        <time>2013-04-03T07:34:09.000Z</time>
      </trkpt>
      <trkpt lat="47.25511" lon="4.9365">
        <ele>528.5</ele>
        <time>2013-04-03T07:34:11.000Z</time>
      </trkpt>
      <trkpt lat="47.25512" lon="4.93653">
        <ele>528.2</ele>
        <time>2013-04-03T07:34:12.000Z</time>
      </trkpt>
      <trkpt lat="47.25512" lon="4.93658">
        <ele>529.1</ele>
        <time>2013-04-03T07:34:14.000Z</time>
      </trkpt>
      <trkpt lat="47.25513" lon="4.9366">
        <ele>529.7</ele>
        <time>2013-04-03T07:34:15.000Z</time>
      </trkpt>
      <trkpt lat="47.25515" lon="4.93666">
        <ele>528.3</ele>
        <time>2013-04-03T07:34:18.000Z</time>
      </trkpt>
      <trkpt lat="47.25515" lon="4.93668">
        <ele>528.9</ele>
        <time>2013-04-03T07:34:19.000Z</time>
      </trkpt>
      <trkpt lat="47.25516" lon="4.93673">
        <ele>530.4</ele>
        <time>2013-04-03T07:34:21.000Z</time>
      </trkpt>
      <trkpt lat="47.25516" lon="4.93675">
        <ele>531.2</ele>
        <time>2013-04-03T07:34:22.000Z</time>
      </trkpt>
      <trkpt lat="47.25517" lon="4.93679">
        <ele>531.5</ele>
        <time>2013-04-03T07:34:24.000Z</time>
      </trkpt>
      <trkpt lat="47.25517" lon="4.93682">
        <ele>532.2</ele>
        <time>2013-04-03T07:34:25.000Z</time>
      </trkpt>
      <trkpt lat="47.25518" lon="4.93687">
        <ele>533.6</ele>
        <time>2013-04-03T07:34:27.000Z</time>
      </trkpt>
      <trkpt lat="47.25518" lon="4.93689">
        <ele>533.6</ele>
        <time>2013-04-03T07:34:28.000Z</time>
      </trkpt>
      <trkpt lat="47.25518" lon="4.93693">
        <ele>534</ele>
        <time>2013-04-03T07:34:30.000Z</time>
      </trkpt>
      <trkpt lat="47.25517" lon="4.93696">
        <ele>534.6</ele>
        <time>2013-04-03T07:34:31.000Z</time>
      </trkpt>
      <trkpt lat="47.25517" lon="4.93702">
        <ele>536.4</ele>
        <time>2013-04-03T07:34:33.000Z</time>
      </trkpt>
      <trkpt lat="47.25517" lon="4.93704">
        <ele>536.8</ele>
        <time>2013-04-03T07:34:34.000Z</time>
      </trkpt>
      <trkpt lat="47.25517" lon="4.9371">
        <ele>537.5</ele>
        <time>2013-04-03T07:34:36.000Z</time>
      </trkpt>
      <trkpt lat="47.25517" lon="4.93712">
        <ele>537.8</ele>
        <time>2013-04-03T07:34:37.000Z</time>
      </trkpt>
      <trkpt lat="47.25518" lon="4.93717">
        <ele>535.5</ele>
        <time>2013-04-03T07:34:39.000Z</time>
      </trkpt>
      <trkpt lat="47.25518" lon="4.93719">
        <ele>535.1</ele>
        <time>2013-04-03T07:34:40.000Z</time>
      </trkpt>
      <trkpt lat="47.25518" lon="4.93724">
        <ele>534.5</ele>
        <time>2013-04-03T07:34:42.000Z</time>
      </trkpt>
      <trkpt lat="47.25518" lon="4.93727">
        <ele>534.3</ele>
        <time>2013-04-03T07:34:43.000Z</time>
      </trkpt>
      <trkpt lat="47.25518" lon="4.93732">
        <ele>534.4</ele>
        <time>2013-04-03T07:34:45.000Z</time>
      </trkpt>
      <trkpt lat="47.25517" lon="4.93734">
        <ele>534.5</ele>
        <time>2013-04-03T07:34:46.000Z</time>
      </trkpt>
      <trkpt lat="47.25516" lon="4.93739">
        <ele>534.9</ele>
        <time>2013-04-03T07:34:48.000Z</time>
      </trkpt>
      <trkpt lat="47.25515" lon="4.93742">
        <ele>534.8</ele>
        <time>2013-04-03T07:34:49.000Z</time>
      </trkpt>
      <trkpt lat="47.25514" lon="4.93748">
        <ele>534.2</ele>
        <time>2013-04-03T07:34:51.000Z</time>
      </trkpt>
      <trkpt lat="47.25514" lon="4.93751">
        <ele>533.7</ele>
        <time>2013-04-03T07:34:52.000Z</time>
      </trkpt>
      <trkpt lat="47.25513" lon="4.93756">
        <ele>533.6</ele>
        <time>2013-04-03T07:34:54.000Z</time>
      </trkpt>
      <trkpt lat="47.25512" lon="4.93758">
        <ele>533.1</ele>
        <time>2013-04-03T07:34:55.000Z</time>
      </trkpt>
      <trkpt lat="47.25512" lon="4.93763">
        <ele>534.1</ele>
        <time>2013-04-03T07:34:57.000Z</time>
      </trkpt>
      <trkpt lat="47.25511" lon="4.93766">
        <ele>535.2</ele>
        <time>2013-04-03T07:34:58.000Z</time>
      </trkpt>
      <trkpt lat="47.25509" lon="4.93771">
        <ele>536.3</ele>
        <time>2013-04-03T07:35:00.000Z</time>
      </trkpt>
      <trkpt lat="47.25509" lon="4.93774">
        <ele>536.7</ele>
        <time>2013-04-03T07:35:01.000Z</time>
      </trkpt>
      <trkpt lat="47.25507" lon="4.93779">
        <ele>533.8</ele>
        <time>2013-04-03T07:35:05.000Z</time>
      </trkpt>
      <trkpt lat="47.25507" lon="4.93781">
        <ele>533.8</ele>
        <time>2013-04-03T07:35:06.000Z</time>
      </trkpt>
      <trkpt lat="47.25505" lon="4.93787">
        <ele>532.1</ele>
        <time>2013-04-03T07:35:09.000Z</time>
      </trkpt>
      <trkpt lat="47.25505" lon="4.93789">
        <ele>532.8</ele>
        <time>2013-04-03T07:35:10.000Z</time>
      </trkpt>
      <trkpt lat="47.25504" lon="4.93794">
        <ele>532.1</ele>
        <time>2013-04-03T07:35:13.000Z</time>
      </trkpt>
      <trkpt lat="47.25504" lon="4.93795">
        <ele>530.9</ele>
        <time>2013-04-03T07:35:14.000Z</time>
      </trkpt>
      <trkpt lat="47.25503" lon="4.93802">
        <ele>529</ele>
        <time>2013-04-03T07:35:17.000Z</time>
      </trkpt>
      <trkpt lat="47.25502" lon="4.93804">
        <ele>528.5</ele>
        <time>2013-04-03T07:35:18.000Z</time>
      </trkpt>
      <trkpt lat="47.25501" lon="4.93809">
        <ele>528.7</ele>
        <time>2013-04-03T07:35:21.000Z</time>
      </trkpt>
      <trkpt lat="47.255" lon="4.93811">
        <ele>529.1</ele>
        <time>2013-04-03T07:35:22.000Z</time>
      </trkpt>
      <trkpt lat="47.25499" lon="4.93816">
        <ele>529.3</ele>
        <time>2013-04-03T07:35:24.000Z</time>
      </trkpt>
      <trkpt lat="47.25498" lon="4.93818">
        <ele>529.4</ele>
        <time>2013-04-03T07:35:25.000Z</time>
      </trkpt>
      <trkpt lat="47.25496" lon="4.93823">
        <ele>528.1</ele>
        <time>2013-04-03T07:35:28.000Z</time>
      </trkpt>
      <trkpt lat="47.25496" lon="4.93825">
        <ele>527</ele>
        <time>2013-04-03T07:35:29.000Z</time>
      </trkpt>
      <trkpt lat="47.25493" lon="4.93829">
        <ele>525.6</ele>
        <time>2013-04-03T07:35:32.000Z</time>
      </trkpt>
      <trkpt lat="47.25492" lon="4.93831">
        <ele>525.7</ele>
        <time>2013-04-03T07:35:33.000Z</time>
      </trkpt>
      <trkpt lat="47.25489" lon="4.93835">
        <ele>525.4</ele>
        <time>2013-04-03T07:35:36.000Z</time>
      </trkpt>
      <trkpt lat="47.25488" lon="4.93838">
        <ele>525.9</ele>
        <time>2013-04-03T07:35:37.000Z</time>
      </trkpt>
      <trkpt lat="47.25487" lon="4.9384">
        <ele>526.4</ele>
        <time>2013-04-03T07:35:38.000Z</time>
      </trkpt>
      <trkpt lat="47.25486" lon="4.93844">
        <ele>526.6</ele>
        <time>2013-04-03T07:35:39.000Z</time>
      </trkpt>
      <trkpt lat="47.25485" lon="4.93849">
        <ele>525.9</ele>
        <time>2013-04-03T07:35:41.000Z</time>
      </trkpt>
      <trkpt lat="47.25484" lon="4.93851">
        <ele>526.3</ele>
        <time>2013-04-03T07:35:42.000Z</time>
      </trkpt>
      <trkpt lat="47.25483" lon="4.93856">
        <ele>528.9</ele>
        <time>2013-04-03T07:35:44.000Z</time>
      </trkpt>
      <trkpt lat="47.25483" lon="4.93859">
        <ele>528.7</ele>
        <time>2013-04-03T07:35:45.000Z</time>
      </trkpt>
      <trkpt lat="47.25481" lon="4.93865">
        <ele>529.2</ele>
        <time>2013-04-03T07:35:47.000Z</time>
      </trkpt>
      <trkpt lat="47.2548" lon="4.93867">
        <ele>528.8</ele>
        <time>2013-04-03T07:35:48.000Z</time>
      </trkpt>
      <trkpt lat="47.25478" lon="4.93872">
        <ele>528</ele>
        <time>2013-04-03T07:35:50.000Z</time>
      </trkpt>
      <trkpt lat="47.25478" lon="4.93874">
        <ele>528</ele>
        <time>2013-04-03T07:35:51.000Z</time>
      </trkpt>
      <trkpt lat="47.25476" lon="4.93879">
        <ele>527.1</ele>
        <time>2013-04-03T07:35:54.000Z</time>
      </trkpt>
      <trkpt lat="47.25476" lon="4.9388">
        <ele>526.8</ele>
        <time>2013-04-03T07:35:55.000Z</time>
      </trkpt>
      <trkpt lat="47.25474" lon="4.93885">
        <ele>526.1</ele>
        <time>2013-04-03T07:35:59.000Z</time>
      </trkpt>
      <trkpt lat="47.25473" lon="4.93887">
        <ele>526.3</ele>
        <time>2013-04-03T07:36:00.000Z</time>
      </trkpt>
      <trkpt lat="47.25471" lon="4.93892">
        <ele>526.3</ele>
        <time>2013-04-03T07:36:02.000Z</time>
      </trkpt>
      <trkpt lat="47.2547" lon="4.93894">
        <ele>526.6</ele>
        <time>2013-04-03T07:36:03.000Z</time>
      </trkpt>
      <trkpt lat="47.25469" lon="4.93899">
        <ele>525.9</ele>
        <time>2013-04-03T07:36:05.000Z</time>
      </trkpt>
      <trkpt lat="47.25468" lon="4.93902">
        <ele>526.7</ele>
        <time>2013-04-03T07:36:06.000Z</time>
      </trkpt>
      <trkpt lat="47.25465" lon="4.93906">
        <ele>526</ele>
        <time>2013-04-03T07:36:08.000Z</time>
      </trkpt>
      <trkpt lat="47.25464" lon="4.93907">
        <ele>525.9</ele>
        <time>2013-04-03T07:36:09.000Z</time>
      </trkpt>
      <trkpt lat="47.25462" lon="4.93911">
        <ele>524.3</ele>
        <time>2013-04-03T07:36:12.000Z</time>
      </trkpt>
      <trkpt lat="47.25462" lon="4.93913">
        <ele>523.8</ele>
        <time>2013-04-03T07:36:13.000Z</time>
      </trkpt>
      <trkpt lat="47.25461" lon="4.93918">
        <ele>525.9</ele>
        <time>2013-04-03T07:36:15.000Z</time>
      </trkpt>
      <trkpt lat="47.2546" lon="4.93921">
        <ele>525.9</ele>
        <time>2013-04-03T07:36:16.000Z</time>
      </trkpt>
      <trkpt lat="47.25458" lon="4.93928">
        <ele>526.3</ele>
        <time>2013-04-03T07:36:18.000Z</time>
      </trkpt>
      <trkpt lat="47.25458" lon="4.9393">
        <ele>526.2</ele>
        <time>2013-04-03T07:36:19.000Z</time>
      </trkpt>
      <trkpt lat="47.25456" lon="4.93936">
        <ele>524.7</ele>
        <time>2013-04-03T07:36:22.000Z</time>
      </trkpt>
      <trkpt lat="47.25456" lon="4.93938">
        <ele>524.5</ele>
        <time>2013-04-03T07:36:23.000Z</time>
      </trkpt>
      <trkpt lat="47.25455" lon="4.93944">
        <ele>526</ele>
        <time>2013-04-03T07:36:26.000Z</time>
      </trkpt>
      <trkpt lat="47.25455" lon="4.93946">
        <ele>526.3</ele>
        <time>2013-04-03T07:36:27.000Z</time>
      </trkpt>
      <trkpt lat="47.25455" lon="4.93952">
        <ele>524.9</ele>
        <time>2013-04-03T07:36:30.000Z</time>
      </trkpt>
      <trkpt lat="47.25455" lon="4.93953">
        <ele>524.8</ele>
        <time>2013-04-03T07:36:31.000Z</time>
      </trkpt>
      <trkpt lat="47.25454" lon="4.93958">
        <ele>524.5</ele>
        <time>2013-04-03T07:36:34.000Z</time>
      </trkpt>
      <trkpt lat="47.25454" lon="4.9396">
        <ele>524.3</ele>
        <time>2013-04-03T07:36:35.000Z</time>
      </trkpt>
      <trkpt lat="47.25453" lon="4.93965">
        <ele>524.3</ele>
        <time>2013-04-03T07:36:37.000Z</time>
      </trkpt>
      <trkpt lat="47.25453" lon="4.93968">
        <ele>524.5</ele>
        <time>2013-04-03T07:36:38.000Z</time>
      </trkpt>
      <trkpt lat="47.25452" lon="4.93973">
        <ele>525.2</ele>
        <time>2013-04-03T07:36:40.000Z</time>
      </trkpt>
      <trkpt lat="47.25452" lon="4.93976">
        <ele>526.9</ele>
        <time>2013-04-03T07:36:41.000Z</time>
      </trkpt>
      <trkpt lat="47.25451" lon="4.93981">
        <ele>526.4</ele>
        <time>2013-04-03T07:36:43.000Z</time>
      </trkpt>
      <trkpt lat="47.25451" lon="4.93983">
        <ele>525.9</ele>
        <time>2013-04-03T07:36:44.000Z</time>
      </trkpt>
      <trkpt lat="47.25451" lon="4.93988">
        <ele>526.6</ele>
        <time>2013-04-03T07:36:46.000Z</time>
      </trkpt>
      <trkpt lat="47.25451" lon="4.9399">
        <ele>526.9</ele>
        <time>2013-04-03T07:36:47.000Z</time>
      </trkpt>
      <trkpt lat="47.25449" lon="4.93995">
        <ele>530</ele>
        <time>2013-04-03T07:36:49.000Z</time>
      </trkpt>
      <trkpt lat="47.25449" lon="4.93997">
        <ele>529.9</ele>
        <time>2013-04-03T07:36:50.000Z</time>
      </trkpt>
      <trkpt lat="47.25448" lon="4.94001">
        <ele>531.1</ele>
        <time>2013-04-03T07:36:52.000Z</time>
      </trkpt>
      <trkpt lat="47.25447" lon="4.94003">
        <ele>530.7</ele>
        <time>2013-04-03T07:36:53.000Z</time>
      </trkpt>
      <trkpt lat="47.25446" lon="4.94009">
        <ele>531.9</ele>
        <time>2013-04-03T07:36:56.000Z</time>
      </trkpt>
      <trkpt lat="47.25446" lon="4.94011">
        <ele>531.8</ele>
        <time>2013-04-03T07:36:57.000Z</time>
      </trkpt>
      <trkpt lat="47.25445" lon="4.94016">
        <ele>530.6</ele>
        <time>2013-04-03T07:37:00.000Z</time>
      </trkpt>
      <trkpt lat="47.25445" lon="4.94018">
        <ele>531.3</ele>
        <time>2013-04-03T07:37:01.000Z</time>
      </trkpt>
      <trkpt lat="47.25444" lon="4.94024">
        <ele>530.3</ele>
        <time>2013-04-03T07:37:04.000Z</time>
      </trkpt>
      <trkpt lat="47.25444" lon="4.94026">
        <ele>529.5</ele>
        <time>2013-04-03T07:37:05.000Z</time>
      </trkpt>
      <trkpt lat="47.25444" lon="4.94031">
        <ele>529.5</ele>
        <time>2013-04-03T07:37:08.000Z</time>
      </trkpt>
      <trkpt lat="47.25444" lon="4.94034">
        <ele>527.6</ele>
        <time>2013-04-03T07:37:09.000Z</time>
      </trkpt>
      <trkpt lat="47.25444" lon="4.9404">
        <ele>527.5</ele>
        <time>2013-04-03T07:37:12.000Z</time>
      </trkpt>
      <trkpt lat="47.25444" lon="4.94041">
        <ele>528.1</ele>
        <time>2013-04-03T07:37:13.000Z</time>
      </trkpt>
      <trkpt lat="47.25443" lon="4.94046">
        <ele>529.4</ele>
        <time>2013-04-03T07:37:15.000Z</time>
      </trkpt>
      <trkpt lat="47.25443" lon="4.94049">
        <ele>529.8</ele>
        <time>2013-04-03T07:37:16.000Z</time>
      </trkpt>
      <trkpt lat="47.25442" lon="4.94054">
        <ele>529.1</ele>
        <time>2013-04-03T07:37:18.000Z</time>
      </trkpt>
      <trkpt lat="47.25442" lon="4.94057">
        <ele>529</ele>
        <time>2013-04-03T07:37:19.000Z</time>
      </trkpt>
      <trkpt lat="47.25442" lon="4.94063">
        <ele>528.4</ele>
        <time>2013-04-03T07:37:21.000Z</time>
      </trkpt>
      <trkpt lat="47.25441" lon="4.94065">
        <ele>527.9</ele>
        <time>2013-04-03T07:37:22.000Z</time>
      </trkpt>
      <trkpt lat="47.25441" lon="4.9407">
        <ele>527.4</ele>
        <time>2013-04-03T07:37:24.000Z</time>
      </trkpt>
      <trkpt lat="47.25441" lon="4.94073">
        <ele>527.4</ele>
        <time>2013-04-03T07:37:25.000Z</time>
      </trkpt>
      <trkpt lat="47.25441" lon="4.94078">
        <ele>526.5</ele>
        <time>2013-04-03T07:37:27.000Z</time>
      </trkpt>
      <trkpt lat="47.25442" lon="4.9408">
        <ele>525</ele>
        <time>2013-04-03T07:37:28.000Z</time>
      </trkpt>
      <trkpt lat="47.25442" lon="4.94085">
        <ele>524.3</ele>
        <time>2013-04-03T07:37:31.000Z</time>
      </trkpt>
      <trkpt lat="47.25442" lon="4.94087">
        <ele>524</ele>
        <time>2013-04-03T07:37:32.000Z</time>
      </trkpt>
      <trkpt lat="47.25442" lon="4.94092">
        <ele>524.3</ele>
        <time>2013-04-03T07:37:34.000Z</time>
      </trkpt>
      <trkpt lat="47.25442" lon="4.94095">
        <ele>524.5</ele>
        <time>2013-04-03T07:37:35.000Z</time>
      </trkpt>
      <trkpt lat="47.25442" lon="4.94099">
        <ele>523.9</ele>
        <time>2013-04-03T07:37:37.000Z</time>
      </trkpt>
      <trkpt lat="47.25442" lon="4.94102">
        <ele>524.1</ele>
        <time>2013-04-03T07:37:38.000Z</time>
      </trkpt>
      <trkpt lat="47.25442" lon="4.94107">
        <ele>524.7</ele>
        <time>2013-04-03T07:37:40.000Z</time>
      </trkpt>
      <trkpt lat="47.25442" lon="4.9411">
        <ele>524.1</ele>
        <time>2013-04-03T07:37:41.000Z</time>
      </trkpt>
      <trkpt lat="47.25441" lon="4.94115">
        <ele>524.3</ele>
        <time>2013-04-03T07:37:43.000Z</time>
      </trkpt>
      <trkpt lat="47.25441" lon="4.94118">
        <ele>525.2</ele>
        <time>2013-04-03T07:37:44.000Z</time>
      </trkpt>
      <trkpt lat="47.25441" lon="4.94123">
        <ele>526.3</ele>
        <time>2013-04-03T07:37:46.000Z</time>
      </trkpt>
      <trkpt lat="47.2544" lon="4.94126">
        <ele>526.6</ele>
        <time>2013-04-03T07:37:47.000Z</time>
      </trkpt>
      <trkpt lat="47.2544" lon="4.94131">
        <ele>526.8</ele>
        <time>2013-04-03T07:37:49.000Z</time>
      </trkpt>
      <trkpt lat="47.2544" lon="4.94134">
        <ele>526.5</ele>
        <time>2013-04-03T07:37:50.000Z</time>
      </trkpt>
      <trkpt lat="47.25439" lon="4.94139">
        <ele>525</ele>
        <time>2013-04-03T07:37:52.000Z</time>
      </trkpt>
      <trkpt lat="47.25439" lon="4.94141">
        <ele>524.6</ele>
        <time>2013-04-03T07:37:53.000Z</time>
      </trkpt>
      <trkpt lat="47.25438" lon="4.94146">
        <ele>524.4</ele>
        <time>2013-04-03T07:37:55.000Z</time>
      </trkpt>
      <trkpt lat="47.25437" lon="4.94149">
        <ele>524.6</ele>
        <time>2013-04-03T07:37:56.000Z</time>
      </trkpt>
      <trkpt lat="47.25437" lon="4.94154">
        <ele>525.1</ele>
        <time>2013-04-03T07:37:58.000Z</time>
      </trkpt>
      <trkpt lat="47.25438" lon="4.94157">
        <ele>526.2</ele>
        <time>2013-04-03T07:37:59.000Z</time>
      </trkpt>
      <trkpt lat="47.25438" lon="4.94162">
        <ele>526</ele>
        <time>2013-04-03T07:38:01.000Z</time>
      </trkpt>
      <trkpt lat="47.25437" lon="4.94165">
        <ele>525.7</ele>
        <time>2013-04-03T07:38:02.000Z</time>
      </trkpt>
      <trkpt lat="47.25437" lon="4.9417">
        <ele>524.8</ele>
        <time>2013-04-03T07:38:04.000Z</time>
      </trkpt>
      <trkpt lat="47.25437" lon="4.94172">
        <ele>524.3</ele>
        <time>2013-04-03T07:38:05.000Z</time>
      </trkpt>
      <trkpt lat="47.25437" lon="4.94178">
        <ele>524.4</ele>
        <time>2013-04-03T07:38:08.000Z</time>
      </trkpt>
      <trkpt lat="47.25437" lon="4.94179">
        <ele>523.9</ele>
        <time>2013-04-03T07:38:09.000Z</time>
      </trkpt>
      <trkpt lat="47.25437" lon="4.94184">
        <ele>525.2</ele>
        <time>2013-04-03T07:38:11.000Z</time>
      </trkpt>
      <trkpt lat="47.25437" lon="4.94187">
        <ele>525.3</ele>
        <time>2013-04-03T07:38:12.000Z</time>
      </trkpt>
      <trkpt lat="47.25437" lon="4.94192">
        <ele>525.1</ele>
        <time>2013-04-03T07:38:14.000Z</time>
      </trkpt>
      <trkpt lat="47.25437" lon="4.94194">
        <ele>524.5</ele>
        <time>2013-04-03T07:38:15.000Z</time>
      </trkpt>
      <trkpt lat="47.25438" lon="4.942">
        <ele>525.8</ele>
        <time>2013-04-03T07:38:18.000Z</time>
      </trkpt>
      <trkpt lat="47.25438" lon="4.94202">
        <ele>526.1</ele>
        <time>2013-04-03T07:38:19.000Z</time>
      </trkpt>
      <trkpt lat="47.25438" lon="4.94208">
        <ele>526.2</ele>
        <time>2013-04-03T07:38:22.000Z</time>
      </trkpt>
      <trkpt lat="47.25437" lon="4.9421">
        <ele>526.4</ele>
        <time>2013-04-03T07:38:23.000Z</time>
      </trkpt>
      <trkpt lat="47.25436" lon="4.94215">
        <ele>527.5</ele>
        <time>2013-04-03T07:38:26.000Z</time>
      </trkpt>
      <trkpt lat="47.25436" lon="4.94217">
        <ele>527.4</ele>
        <time>2013-04-03T07:38:27.000Z</time>
      </trkpt>
      <trkpt lat="47.25435" lon="4.94222">
        <ele>527.7</ele>
        <time>2013-04-03T07:38:29.000Z</time>
      </trkpt>
      <trkpt lat="47.25435" lon="4.94225">
        <ele>526.2</ele>
        <time>2013-04-03T07:38:30.000Z</time>
      </trkpt>
      <trkpt lat="47.25435" lon="4.94231">
        <ele>524.7</ele>
        <time>2013-04-03T07:38:33.000Z</time>
      </trkpt>
      <trkpt lat="47.25435" lon="4.94233">
        <ele>524.6</ele>
        <time>2013-04-03T07:38:34.000Z</time>
      </trkpt>
      <trkpt lat="47.25434" lon="4.94238">
        <ele>525.5</ele>
        <time>2013-04-03T07:38:36.000Z</time>
      </trkpt>
      <trkpt lat="47.25434" lon="4.94241">
        <ele>525.4</ele>
        <time>2013-04-03T07:38:37.000Z</time>
      </trkpt>
      <trkpt lat="47.25433" lon="4.94246">
        <ele>524.7</ele>
        <time>2013-04-03T07:38:39.000Z</time>
      </trkpt>
      <trkpt lat="47.25433" lon="4.94249">
        <ele>525.6</ele>
        <time>2013-04-03T07:38:40.000Z</time>
      </trkpt>
      <trkpt lat="47.25433" lon="4.94254">
        <ele>526.5</ele>
        <time>2013-04-03T07:38:42.000Z</time>
      </trkpt>
      <trkpt lat="47.25433" lon="4.94257">
        <ele>525.6</ele>
        <time>2013-04-03T07:38:43.000Z</time>
      </trkpt>
      <trkpt lat="47.25433" lon="4.94263">
        <ele>525.7</ele>
        <time>2013-04-03T07:38:46.000Z</time>
      </trkpt>
      <trkpt lat="47.25433" lon="4.94265">
        <ele>525.7</ele>
        <time>2013-04-03T07:38:47.000Z</time>
      </trkpt>
      <trkpt lat="47.25432" lon="4.9427">
        <ele>525.4</ele>
        <time>2013-04-03T07:38:50.000Z</time>
      </trkpt>
      <trkpt lat="47.25432" lon="4.94273">
        <ele>524.5</ele>
        <time>2013-04-03T07:38:51.000Z</time>
      </trkpt>
      <trkpt lat="47.25432" lon="4.94278">
        <ele>523.4</ele>
        <time>2013-04-03T07:38:53.000Z</time>
      </trkpt>
      <trkpt lat="47.25431" lon="4.9428">
        <ele>522.9</ele>
        <time>2013-04-03T07:38:54.000Z</time>
      </trkpt>
      <trkpt lat="47.25431" lon="4.94285">
        <ele>520.7</ele>
        <time>2013-04-03T07:38:57.000Z</time>
      </trkpt>
      <trkpt lat="47.25431" lon="4.94287">
        <ele>520.6</ele>
        <time>2013-04-03T07:38:58.000Z</time>
      </trkpt>
      <trkpt lat="47.2543" lon="4.94292">
        <ele>520.7</ele>
        <time>2013-04-03T07:39:00.000Z</time>
      </trkpt>
      <trkpt lat="47.2543" lon="4.94294">
        <ele>521.4</ele>
        <time>2013-04-03T07:39:01.000Z</time>
      </trkpt>
      <trkpt lat="47.25428" lon="4.943">
        <ele>522.1</ele>
        <time>2013-04-03T07:39:03.000Z</time>
      </trkpt>
      <trkpt lat="47.25428" lon="4.94303">
        <ele>522.3</ele>
        <time>2013-04-03T07:39:04.000Z</time>
      </trkpt>
      <trkpt lat="47.25427" lon="4.94308">
        <ele>522.9</ele>
        <time>2013-04-03T07:39:06.000Z</time>
      </trkpt>
      <trkpt lat="47.25426" lon="4.9431">
        <ele>523</ele>
        <time>2013-04-03T07:39:07.000Z</time>
      </trkpt>
      <trkpt lat="47.25425" lon="4.94316">
        <ele>520.7</ele>
        <time>2013-04-03T07:39:10.000Z</time>
      </trkpt>
      <trkpt lat="47.25425" lon="4.94318">
        <ele>522.6</ele>
        <time>2013-04-03T07:39:11.000Z</time>
      </trkpt>
      <trkpt lat="47.25424" lon="4.94323">
        <ele>522.4</ele>
        <time>2013-04-03T07:39:13.000Z</time>
      </trkpt>
      <trkpt lat="47.25423" lon="4.94326">
        <ele>522.5</ele>
        <time>2013-04-03T07:39:14.000Z</time>
      </trkpt>
      <trkpt lat="47.25422" lon="4.94332">
        <ele>522.8</ele>
        <time>2013-04-03T07:39:16.000Z</time>
      </trkpt>
      <trkpt lat="47.25422" lon="4.94334">
        <ele>522.1</ele>
        <time>2013-04-03T07:39:17.000Z</time>
      </trkpt>
      <trkpt lat="47.25422" lon="4.94339">
        <ele>522.3</ele>
        <time>2013-04-03T07:39:19.000Z</time>
      </trkpt>
      <trkpt lat="47.25422" lon="4.94341">
        <ele>522.3</ele>
        <time>2013-04-03T07:39:20.000Z</time>
      </trkpt>
      <trkpt lat="47.25421" lon="4.94346">
        <ele>522.2</ele>
        <time>2013-04-03T07:39:22.000Z</time>
      </trkpt>
      <trkpt lat="47.25421" lon="4.94348">
        <ele>522.3</ele>
        <time>2013-04-03T07:39:23.000Z</time>
      </trkpt>
      <trkpt lat="47.25421" lon="4.94353">
        <ele>522.5</ele>
        <time>2013-04-03T07:39:25.000Z</time>
      </trkpt>
      <trkpt lat="47.25421" lon="4.94355">
        <ele>522.4</ele>
        <time>2013-04-03T07:39:26.000Z</time>
      </trkpt>
      <trkpt lat="47.25421" lon="4.9436">
        <ele>521.9</ele>
        <time>2013-04-03T07:39:28.000Z</time>
      </trkpt>
      <trkpt lat="47.25421" lon="4.94362">
        <ele>522.1</ele>
        <time>2013-04-03T07:39:29.000Z</time>
      </trkpt>
      <trkpt lat="47.2542" lon="4.94367">
        <ele>522.1</ele>
        <time>2013-04-03T07:39:31.000Z</time>
      </trkpt>
      <trkpt lat="47.2542" lon="4.9437">
        <ele>521.9</ele>
        <time>2013-04-03T07:39:32.000Z</time>
      </trkpt>
      <trkpt lat="47.2542" lon="4.94375">
        <ele>521.6</ele>
        <time>2013-04-03T07:39:34.000Z</time>
      </trkpt>
      <trkpt lat="47.2542" lon="4.94377">
        <ele>521.5</ele>
        <time>2013-04-03T07:39:35.000Z</time>
      </trkpt>
      <trkpt lat="47.2542" lon="4.94382">
        <ele>519.1</ele>
        <time>2013-04-03T07:39:38.000Z</time>
      </trkpt>
      <trkpt lat="47.2542" lon="4.94383">
        <ele>518.3</ele>
        <time>2013-04-03T07:39:39.000Z</time>
      </trkpt>
      <trkpt lat="47.25421" lon="4.9439">
        <ele>517.6</ele>
        <time>2013-04-03T07:39:43.000Z</time>
      </trkpt>
      <trkpt lat="47.25421" lon="4.94392">
        <ele>517.5</ele>
        <time>2013-04-03T07:39:44.000Z</time>
      </trkpt>
      <trkpt lat="47.2542" lon="4.94397">
        <ele>518.5</ele>
        <time>2013-04-03T07:39:46.000Z</time>
      </trkpt>
      <trkpt lat="47.2542" lon="4.944">
        <ele>518.9</ele>
        <time>2013-04-03T07:39:47.000Z</time>
      </trkpt>
      <trkpt lat="47.2542" lon="4.94405">
        <ele>520.4</ele>
        <time>2013-04-03T07:39:49.000Z</time>
      </trkpt>
      <trkpt lat="47.25419" lon="4.94408">
        <ele>520.6</ele>
        <time>2013-04-03T07:39:50.000Z</time>
      </trkpt>
      <trkpt lat="47.25419" lon="4.94414">
        <ele>519.7</ele>
        <time>2013-04-03T07:39:52.000Z</time>
      </trkpt>
      <trkpt lat="47.25419" lon="4.94416">
        <ele>519.5</ele>
        <time>2013-04-03T07:39:53.000Z</time>
      </trkpt>
      <trkpt lat="47.25419" lon="4.9442">
        <ele>519</ele>
        <time>2013-04-03T07:39:55.000Z</time>
      </trkpt>
      <trkpt lat="47.25418" lon="4.94423">
        <ele>520.2</ele>
        <time>2013-04-03T07:39:56.000Z</time>
      </trkpt>
      <trkpt lat="47.25418" lon="4.94428">
        <ele>520.1</ele>
        <time>2013-04-03T07:39:58.000Z</time>
      </trkpt>
      <trkpt lat="47.25418" lon="4.94431">
        <ele>520</ele>
        <time>2013-04-03T07:39:59.000Z</time>
      </trkpt>
      <trkpt lat="47.25418" lon="4.94436">
        <ele>519.7</ele>
        <time>2013-04-03T07:40:01.000Z</time>
      </trkpt>
      <trkpt lat="47.25417" lon="4.94439">
        <ele>519.8</ele>
        <time>2013-04-03T07:40:02.000Z</time>
      </trkpt>
      <trkpt lat="47.25417" lon="4.94444">
        <ele>518.7</ele>
        <time>2013-04-03T07:40:04.000Z</time>
      </trkpt>
      <trkpt lat="47.25417" lon="4.94446">
        <ele>518.4</ele>
        <time>2013-04-03T07:40:05.000Z</time>
      </trkpt>
      <trkpt lat="47.25417" lon="4.94451">
        <ele>517.7</ele>
        <time>2013-04-03T07:40:07.000Z</time>
      </trkpt>
      <trkpt lat="47.25417" lon="4.94453">
        <ele>517.8</ele>
        <time>2013-04-03T07:40:08.000Z</time>
      </trkpt>
      <trkpt lat="47.25416" lon="4.94458">
        <ele>517.7</ele>
        <time>2013-04-03T07:40:10.000Z</time>
      </trkpt>
      <trkpt lat="47.25416" lon="4.94461">
        <ele>518.4</ele>
        <time>2013-04-03T07:40:11.000Z</time>
      </trkpt>
      <trkpt lat="47.25416" lon="4.94466">
        <ele>518.3</ele>
        <time>2013-04-03T07:40:13.000Z</time>
      </trkpt>
      <trkpt lat="47.25416" lon="4.94468">
        <ele>517.9</ele>
        <time>2013-04-03T07:40:14.000Z</time>
      </trkpt>
      <trkpt lat="47.25416" lon="4.94474">
        <ele>516.9</ele>
        <time>2013-04-03T07:40:17.000Z</time>
      </trkpt>
      <trkpt lat="47.25416" lon="4.94476">
        <ele>516.8</ele>
        <time>2013-04-03T07:40:18.000Z</time>
      </trkpt>
      <trkpt lat="47.25415" lon="4.94481">
        <ele>516.5</ele>
        <time>2013-04-03T07:40:21.000Z</time>
      </trkpt>
      <trkpt lat="47.25415" lon="4.94484">
        <ele>516.8</ele>
        <time>2013-04-03T07:40:22.000Z</time>
      </trkpt>
      <trkpt lat="47.25414" lon="4.94488">
        <ele>516.8</ele>
        <time>2013-04-03T07:40:24.000Z</time>
      </trkpt>
      <trkpt lat="47.25414" lon="4.94491">
        <ele>516.9</ele>
        <time>2013-04-03T07:40:25.000Z</time>
      </trkpt>
      <trkpt lat="47.25414" lon="4.94495">
        <ele>517.1</ele>
        <time>2013-04-03T07:40:27.000Z</time>
      </trkpt>
      <trkpt lat="47.25413" lon="4.94497">
        <ele>517.1</ele>
        <time>2013-04-03T07:40:28.000Z</time>
      </trkpt>
      <trkpt lat="47.25413" lon="4.94502">
        <ele>516.6</ele>
        <time>2013-04-03T07:40:30.000Z</time>
      </trkpt>
      <trkpt lat="47.25412" lon="4.94504">
        <ele>516.6</ele>
        <time>2013-04-03T07:40:31.000Z</time>
      </trkpt>
      <trkpt lat="47.25412" lon="4.94509">
        <ele>516.4</ele>
        <time>2013-04-03T07:40:33.000Z</time>
      </trkpt>
      <trkpt lat="47.25412" lon="4.94511">
        <ele>516.7</ele>
        <time>2013-04-03T07:40:34.000Z</time>
      </trkpt>
      <trkpt lat="47.25411" lon="4.94517">
        <ele>516.3</ele>
        <time>2013-04-03T07:40:36.000Z</time>
      </trkpt>
      <trkpt lat="47.2541" lon="4.94519">
        <ele>516.2</ele>
        <time>2013-04-03T07:40:37.000Z</time>
      </trkpt>
      <trkpt lat="47.2541" lon="4.94525">
        <ele>515.5</ele>
        <time>2013-04-03T07:40:40.000Z</time>
      </trkpt>
      <trkpt lat="47.25409" lon="4.94526">
        <ele>515.1</ele>
        <time>2013-04-03T07:40:41.000Z</time>
      </trkpt>
      <trkpt lat="47.25408" lon="4.94533">
        <ele>516.5</ele>
        <time>2013-04-03T07:40:44.000Z</time>
      </trkpt>
      <trkpt lat="47.25408" lon="4.94535">
        <ele>516.2</ele>
        <time>2013-04-03T07:40:45.000Z</time>
      </trkpt>
      <trkpt lat="47.25407" lon="4.9454">
        <ele>515.4</ele>
        <time>2013-04-03T07:40:47.000Z</time>
      </trkpt>
      <trkpt lat="47.25407" lon="4.94542">
        <ele>515.3</ele>
        <time>2013-04-03T07:40:48.000Z</time>
      </trkpt>
      <trkpt lat="47.25407" lon="4.94547">
        <ele>515.2</ele>
        <time>2013-04-03T07:40:50.000Z</time>
      </trkpt>
      <trkpt lat="47.25406" lon="4.9455">
        <ele>516</ele>
        <time>2013-04-03T07:40:51.000Z</time>
      </trkpt>
      <trkpt lat="47.25405" lon="4.94556">
        <ele>516.4</ele>
        <time>2013-04-03T07:40:53.000Z</time>
      </trkpt>
      <trkpt lat="47.25405" lon="4.94559">
        <ele>516.9</ele>
        <time>2013-04-03T07:40:54.000Z</time>
      </trkpt>
      <trkpt lat="47.25404" lon="4.94565">
        <ele>517.1</ele>
        <time>2013-04-03T07:40:56.000Z</time>
      </trkpt>
      <trkpt lat="47.25404" lon="4.94567">
        <ele>516</ele>
        <time>2013-04-03T07:40:57.000Z</time>
      </trkpt>
      <trkpt lat="47.25403" lon="4.94572">
        <ele>516.1</ele>
        <time>2013-04-03T07:40:59.000Z</time>
      </trkpt>
      <trkpt lat="47.25403" lon="4.94574">
        <ele>515.8</ele>
        <time>2013-04-03T07:41:00.000Z</time>
      </trkpt>
      <trkpt lat="47.25402" lon="4.9458">
        <ele>515.7</ele>
        <time>2013-04-03T07:41:03.000Z</time>
      </trkpt>
      <trkpt lat="47.25401" lon="4.94582">
        <ele>515.8</ele>
        <time>2013-04-03T07:41:04.000Z</time>
      </trkpt>
      <trkpt lat="47.25401" lon="4.94587">
        <ele>516</ele>
        <time>2013-04-03T07:41:06.000Z</time>
      </trkpt>
      <trkpt lat="47.254" lon="4.9459">
        <ele>516.1</ele>
        <time>2013-04-03T07:41:07.000Z</time>
      </trkpt>
      <trkpt lat="47.254" lon="4.94596">
        <ele>514.9</ele>
        <time>2013-04-03T07:41:10.000Z</time>
      </trkpt>
      <trkpt lat="47.25399" lon="4.94598">
        <ele>514.8</ele>
        <time>2013-04-03T07:41:11.000Z</time>
      </trkpt>
      <trkpt lat="47.25399" lon="4.94603">
        <ele>515.3</ele>
        <time>2013-04-03T07:41:13.000Z</time>
      </trkpt>
      <trkpt lat="47.25399" lon="4.94605">
        <ele>515.2</ele>
        <time>2013-04-03T07:41:14.000Z</time>
      </trkpt>
      <trkpt lat="47.25398" lon="4.9461">
        <ele>515.4</ele>
        <time>2013-04-03T07:41:16.000Z</time>
      </trkpt>
      <trkpt lat="47.25397" lon="4.94613">
        <ele>515.5</ele>
        <time>2013-04-03T07:41:17.000Z</time>
      </trkpt>
      <trkpt lat="47.25397" lon="4.94618">
        <ele>515.5</ele>
        <time>2013-04-03T07:41:19.000Z</time>
      </trkpt>
      <trkpt lat="47.25397" lon="4.9462">
        <ele>515.3</ele>
        <time>2013-04-03T07:41:20.000Z</time>
      </trkpt>
      <trkpt lat="47.25396" lon="4.94626">
        <ele>514.9</ele>
        <time>2013-04-03T07:41:23.000Z</time>
      </trkpt>
      <trkpt lat="47.25396" lon="4.94629">
        <ele>514.8</ele>
        <time>2013-04-03T07:41:24.000Z</time>
      </trkpt>
      <trkpt lat="47.25396" lon="4.94633">
        <ele>514.9</ele>
        <time>2013-04-03T07:41:26.000Z</time>
      </trkpt>
      <trkpt lat="47.25396" lon="4.94635">
        <ele>514.6</ele>
        <time>2013-04-03T07:41:27.000Z</time>
      </trkpt>
      <trkpt lat="47.25395" lon="4.94642">
        <ele>513.4</ele>
        <time>2013-04-03T07:41:30.000Z</time>
      </trkpt>
      <trkpt lat="47.25395" lon="4.94644">
        <ele>513.5</ele>
        <time>2013-04-03T07:41:31.000Z</time>
      </trkpt>
      <trkpt lat="47.25395" lon="4.94648">
        <ele>513.3</ele>
        <time>2013-04-03T07:41:33.000Z</time>
      </trkpt>
      <trkpt lat="47.25394" lon="4.94651">
        <ele>514.9</ele>
        <time>2013-04-03T07:41:34.000Z</time>
      </trkpt>
      <trkpt lat="47.25393" lon="4.94656">
        <ele>515.4</ele>
        <time>2013-04-03T07:41:36.000Z</time>
      </trkpt>
      <trkpt lat="47.25393" lon="4.94659">
        <ele>515</ele>
        <time>2013-04-03T07:41:37.000Z</time>
      </trkpt>
      <trkpt lat="47.25392" lon="4.94663">
        <ele>515.3</ele>
        <time>2013-04-03T07:41:39.000Z</time>
      </trkpt>
      <trkpt lat="47.25391" lon="4.94666">
        <ele>514.7</ele>
        <time>2013-04-03T07:41:40.000Z</time>
      </trkpt>
      <trkpt lat="47.25391" lon="4.9467">
        <ele>515</ele>
        <time>2013-04-03T07:41:42.000Z</time>
      </trkpt>
      <trkpt lat="47.2539" lon="4.94673">
        <ele>514.7</ele>
        <time>2013-04-03T07:41:43.000Z</time>
      </trkpt>
      <trkpt lat="47.25389" lon="4.94679">
        <ele>513.7</ele>
        <time>2013-04-03T07:41:46.000Z</time>
      </trkpt>
      <trkpt lat="47.25388" lon="4.94681">
        <ele>513.6</ele>
        <time>2013-04-03T07:41:47.000Z</time>
      </trkpt>
      <trkpt lat="47.25388" lon="4.94685">
        <ele>513.7</ele>
        <time>2013-04-03T07:41:49.000Z</time>
      </trkpt>
      <trkpt lat="47.25387" lon="4.94687">
        <ele>513.9</ele>
        <time>2013-04-03T07:41:50.000Z</time>
      </trkpt>
      <trkpt lat="47.25385" lon="4.94692">
        <ele>514.5</ele>
        <time>2013-04-03T07:41:52.000Z</time>
      </trkpt>
      <trkpt lat="47.25385" lon="4.94694">
        <ele>514.5</ele>
        <time>2013-04-03T07:41:53.000Z</time>
      </trkpt>
      <trkpt lat="47.25383" lon="4.947">
        <ele>513</ele>
        <time>2013-04-03T07:41:57.000Z</time>
      </trkpt>
      <trkpt lat="47.25383" lon="4.94702">
        <ele>513.1</ele>
        <time>2013-04-03T07:41:58.000Z</time>
      </trkpt>
      <trkpt lat="47.25382" lon="4.94707">
        <ele>507.2</ele>
        <time>2013-04-03T07:42:01.000Z</time>
      </trkpt>
      <trkpt lat="47.25382" lon="4.94709">
        <ele>506.3</ele>
        <time>2013-04-03T07:42:02.000Z</time>
      </trkpt>
      <trkpt lat="47.2538" lon="4.94713">
        <ele>505.5</ele>
        <time>2013-04-03T07:42:05.000Z</time>
      </trkpt>
      <trkpt lat="47.25379" lon="4.94715">
        <ele>505</ele>
        <time>2013-04-03T07:42:06.000Z</time>
      </trkpt>
      <trkpt lat="47.25378" lon="4.94719">
        <ele>504.7</ele>
        <time>2013-04-03T07:42:08.000Z</time>
      </trkpt>
      <trkpt lat="47.25378" lon="4.94722">
        <ele>507.1</ele>
        <time>2013-04-03T07:42:09.000Z</time>
      </trkpt>
      <trkpt lat="47.25377" lon="4.94728">
        <ele>506.2</ele>
        <time>2013-04-03T07:42:11.000Z</time>
      </trkpt>
      <trkpt lat="47.25376" lon="4.94731">
        <ele>506.6</ele>
        <time>2013-04-03T07:42:12.000Z</time>
      </trkpt>
      <trkpt lat="47.25375" lon="4.94738">
        <ele>506</ele>
        <time>2013-04-03T07:42:15.000Z</time>
      </trkpt>
      <trkpt lat="47.25375" lon="4.94739">
        <ele>506</ele>
        <time>2013-04-03T07:42:16.000Z</time>
      </trkpt>
      <trkpt lat="47.25375" lon="4.94744">
        <ele>506.2</ele>
        <time>2013-04-03T07:42:18.000Z</time>
      </trkpt>
      <trkpt lat="47.25374" lon="4.94747">
        <ele>507.4</ele>
        <time>2013-04-03T07:42:19.000Z</time>
      </trkpt>
      <trkpt lat="47.25373" lon="4.94752">
        <ele>506.8</ele>
        <time>2013-04-03T07:42:21.000Z</time>
      </trkpt>
      <trkpt lat="47.25373" lon="4.94755">
        <ele>506.7</ele>
        <time>2013-04-03T07:42:22.000Z</time>
      </trkpt>
      <trkpt lat="47.25372" lon="4.94759">
        <ele>506.6</ele>
        <time>2013-04-03T07:42:24.000Z</time>
      </trkpt>
      <trkpt lat="47.25371" lon="4.94762">
        <ele>506.5</ele>
        <time>2013-04-03T07:42:25.000Z</time>
      </trkpt>
      <trkpt lat="47.25371" lon="4.94767">
        <ele>505.8</ele>
        <time>2013-04-03T07:42:27.000Z</time>
      </trkpt>
      <trkpt lat="47.2537" lon="4.94769">
        <ele>505.4</ele>
        <time>2013-04-03T07:42:28.000Z</time>
      </trkpt>
      <trkpt lat="47.2537" lon="4.94774">
        <ele>505.1</ele>
        <time>2013-04-03T07:42:30.000Z</time>
      </trkpt>
      <trkpt lat="47.25369" lon="4.94776">
        <ele>505.1</ele>
        <time>2013-04-03T07:42:31.000Z</time>
      </trkpt>
      <trkpt lat="47.25368" lon="4.94781">
        <ele>506.4</ele>
        <time>2013-04-03T07:42:33.000Z</time>
      </trkpt>
      <trkpt lat="47.25368" lon="4.94783">
        <ele>506.6</ele>
        <time>2013-04-03T07:42:34.000Z</time>
      </trkpt>
      <trkpt lat="47.25367" lon="4.94787">
        <ele>506.9</ele>
        <time>2013-04-03T07:42:36.000Z</time>
      </trkpt>
      <trkpt lat="47.25366" lon="4.94789">
        <ele>507.8</ele>
        <time>2013-04-03T07:42:37.000Z</time>
      </trkpt>
      <trkpt lat="47.25365" lon="4.94794">
        <ele>507.9</ele>
        <time>2013-04-03T07:42:39.000Z</time>
      </trkpt>
      <trkpt lat="47.25365" lon="4.94796">
        <ele>508.5</ele>
        <time>2013-04-03T07:42:40.000Z</time>
      </trkpt>
      <trkpt lat="47.25364" lon="4.948">
        <ele>508.4</ele>
        <time>2013-04-03T07:42:42.000Z</time>
      </trkpt>
      <trkpt lat="47.25364" lon="4.94803">
        <ele>508.1</ele>
        <time>2013-04-03T07:42:43.000Z</time>
      </trkpt>
      <trkpt lat="47.25363" lon="4.94809">
        <ele>507.5</ele>
        <time>2013-04-03T07:42:46.000Z</time>
      </trkpt>
      <trkpt lat="47.25362" lon="4.94811">
        <ele>507.7</ele>
        <time>2013-04-03T07:42:47.000Z</time>
      </trkpt>
      <trkpt lat="47.25361" lon="4.94815">
        <ele>508.2</ele>
        <time>2013-04-03T07:42:49.000Z</time>
      </trkpt>
      <trkpt lat="47.25361" lon="4.94818">
        <ele>508</ele>
        <time>2013-04-03T07:42:50.000Z</time>
      </trkpt>
      <trkpt lat="47.2536" lon="4.94822">
        <ele>508.7</ele>
        <time>2013-04-03T07:42:52.000Z</time>
      </trkpt>
      <trkpt lat="47.25359" lon="4.94824">
        <ele>508.2</ele>
        <time>2013-04-03T07:42:53.000Z</time>
      </trkpt>
      <trkpt lat="47.25358" lon="4.9483">
        <ele>508.7</ele>
        <time>2013-04-03T07:42:56.000Z</time>
      </trkpt>
      <trkpt lat="47.25358" lon="4.94832">
        <ele>508.9</ele>
        <time>2013-04-03T07:42:57.000Z</time>
      </trkpt>
      <trkpt lat="47.25356" lon="4.94838">
        <ele>511</ele>
        <time>2013-04-03T07:42:59.000Z</time>
      </trkpt>
      <trkpt lat="47.25356" lon="4.94841">
        <ele>511.1</ele>
        <time>2013-04-03T07:43:00.000Z</time>
      </trkpt>
      <trkpt lat="47.25355" lon="4.94848">
        <ele>509.9</ele>
        <time>2013-04-03T07:43:03.000Z</time>
      </trkpt>
      <trkpt lat="47.25354" lon="4.94849">
        <ele>509.9</ele>
        <time>2013-04-03T07:43:04.000Z</time>
      </trkpt>
      <trkpt lat="47.25352" lon="4.94855">
        <ele>510</ele>
        <time>2013-04-03T07:43:07.000Z</time>
      </trkpt>
      <trkpt lat="47.25352" lon="4.94857">
        <ele>509.5</ele>
        <time>2013-04-03T07:43:08.000Z</time>
      </trkpt>
      <trkpt lat="47.25351" lon="4.94861">
        <ele>510.8</ele>
        <time>2013-04-03T07:43:10.000Z</time>
      </trkpt>
      <trkpt lat="47.2535" lon="4.94864">
        <ele>511</ele>
        <time>2013-04-03T07:43:11.000Z</time>
      </trkpt>
      <trkpt lat="47.25349" lon="4.94868">
        <ele>511.3</ele>
        <time>2013-04-03T07:43:13.000Z</time>
      </trkpt>
      <trkpt lat="47.25348" lon="4.94871">
        <ele>512.1</ele>
        <time>2013-04-03T07:43:14.000Z</time>
      </trkpt>
      <trkpt lat="47.25347" lon="4.94875">
        <ele>512.5</ele>
        <time>2013-04-03T07:43:16.000Z</time>
      </trkpt>
      <trkpt lat="47.25346" lon="4.94878">
        <ele>513.1</ele>
        <time>2013-04-03T07:43:17.000Z</time>
      </trkpt>
      <trkpt lat="47.25345" lon="4.94884">
        <ele>513.3</ele>
        <time>2013-04-03T07:43:20.000Z</time>
      </trkpt>
      <trkpt lat="47.25345" lon="4.94886">
        <ele>513.2</ele>
        <time>2013-04-03T07:43:21.000Z</time>
      </trkpt>
      <trkpt lat="47.25344" lon="4.9489">
        <ele>514</ele>
        <time>2013-04-03T07:43:23.000Z</time>
      </trkpt>
      <trkpt lat="47.25344" lon="4.94892">
        <ele>513.9</ele>
        <time>2013-04-03T07:43:24.000Z</time>
      </trkpt>
      <trkpt lat="47.25343" lon="4.94898">
        <ele>514.8</ele>
        <time>2013-04-03T07:43:26.000Z</time>
      </trkpt>
      <trkpt lat="47.25342" lon="4.94901">
        <ele>515.2</ele>
        <time>2013-04-03T07:43:27.000Z</time>
      </trkpt>
      <trkpt lat="47.25341" lon="4.94906">
        <ele>515.3</ele>
        <time>2013-04-03T07:43:29.000Z</time>
      </trkpt>
      <trkpt lat="47.25341" lon="4.94909">
        <ele>515.3</ele>
        <time>2013-04-03T07:43:30.000Z</time>
      </trkpt>
      <trkpt lat="47.25341" lon="4.94914">
        <ele>515</ele>
        <time>2013-04-03T07:43:32.000Z</time>
      </trkpt>
      <trkpt lat="47.25341" lon="4.94916">
        <ele>514.7</ele>
        <time>2013-04-03T07:43:33.000Z</time>
      </trkpt>
      <trkpt lat="47.2534" lon="4.94922">
        <ele>513.6</ele>
        <time>2013-04-03T07:43:36.000Z</time>
      </trkpt>
      <trkpt lat="47.2534" lon="4.94924">
        <ele>513.4</ele>
        <time>2013-04-03T07:43:37.000Z</time>
      </trkpt>
      <trkpt lat="47.2534" lon="4.9493">
        <ele>512.9</ele>
        <time>2013-04-03T07:43:40.000Z</time>
      </trkpt>
      <trkpt lat="47.2534" lon="4.94932">
        <ele>512.8</ele>
        <time>2013-04-03T07:43:41.000Z</time>
      </trkpt>
      <trkpt lat="47.25339" lon="4.94937">
        <ele>511.1</ele>
        <time>2013-04-03T07:43:45.000Z</time>
      </trkpt>
      <trkpt lat="47.25339" lon="4.94939">
        <ele>511.2</ele>
        <time>2013-04-03T07:43:46.000Z</time>
      </trkpt>
      <trkpt lat="47.25338" lon="4.94944">
        <ele>511.2</ele>
        <time>2013-04-03T07:43:48.000Z</time>
      </trkpt>
      <trkpt lat="47.25338" lon="4.94946">
        <ele>511.6</ele>
        <time>2013-04-03T07:43:49.000Z</time>
      </trkpt>
      <trkpt lat="47.25337" lon="4.94952">
        <ele>510.1</ele>
        <time>2013-04-03T07:43:52.000Z</time>
      </trkpt>
      <trkpt lat="47.25337" lon="4.94953">
        <ele>509.4</ele>
        <time>2013-04-03T07:43:53.000Z</time>
      </trkpt>
      <trkpt lat="47.25336" lon="4.94959">
        <ele>507.2</ele>
        <time>2013-04-03T07:43:57.000Z</time>
      </trkpt>
      <trkpt lat="47.25336" lon="4.9496">
        <ele>506.4</ele>
        <time>2013-04-03T07:43:58.000Z</time>
      </trkpt>
      <trkpt lat="47.25335" lon="4.94965">
        <ele>506.5</ele>
        <time>2013-04-03T07:44:01.000Z</time>
      </trkpt>
      <trkpt lat="47.25334" lon="4.94968">
        <ele>506.5</ele>
        <time>2013-04-03T07:44:02.000Z</time>
      </trkpt>
      <trkpt lat="47.25333" lon="4.94972">
        <ele>505.8</ele>
        <time>2013-04-03T07:44:04.000Z</time>
      </trkpt>
      <trkpt lat="47.25332" lon="4.94974">
        <ele>506</ele>
        <time>2013-04-03T07:44:05.000Z</time>
      </trkpt>
      <trkpt lat="47.25331" lon="4.94978">
        <ele>505.7</ele>
        <time>2013-04-03T07:44:07.000Z</time>
      </trkpt>
      <trkpt lat="47.25331" lon="4.94981">
        <ele>506.3</ele>
        <time>2013-04-03T07:44:08.000Z</time>
      </trkpt>
      <trkpt lat="47.2533" lon="4.94985">
        <ele>506.5</ele>
        <time>2013-04-03T07:44:10.000Z</time>
      </trkpt>
      <trkpt lat="47.25329" lon="4.94988">
        <ele>506.2</ele>
        <time>2013-04-03T07:44:11.000Z</time>
      </trkpt>
      <trkpt lat="47.25328" lon="4.94992">
        <ele>506.2</ele>
        <time>2013-04-03T07:44:13.000Z</time>
      </trkpt>
      <trkpt lat="47.25328" lon="4.94995">
        <ele>505.8</ele>
        <time>2013-04-03T07:44:14.000Z</time>
      </trkpt>
      <trkpt lat="47.25327" lon="4.95">
        <ele>504.8</ele>
        <time>2013-04-03T07:44:17.000Z</time>
      </trkpt>
      <trkpt lat="47.25327" lon="4.95002">
        <ele>505.1</ele>
        <time>2013-04-03T07:44:18.000Z</time>
      </trkpt>
      <trkpt lat="47.25326" lon="4.95006">
        <ele>506.3</ele>
        <time>2013-04-03T07:44:20.000Z</time>
      </trkpt>
      <trkpt lat="47.25326" lon="4.95008">
        <ele>507</ele>
        <time>2013-04-03T07:44:21.000Z</time>
      </trkpt>
      <trkpt lat="47.25325" lon="4.95013">
        <ele>508</ele>
        <time>2013-04-03T07:44:23.000Z</time>
      </trkpt>
      <trkpt lat="47.25324" lon="4.95015">
        <ele>507.9</ele>
        <time>2013-04-03T07:44:24.000Z</time>
      </trkpt>
      <trkpt lat="47.25322" lon="4.9502">
        <ele>508.5</ele>
        <time>2013-04-03T07:44:27.000Z</time>
      </trkpt>
      <trkpt lat="47.25321" lon="4.95022">
        <ele>508.9</ele>
        <time>2013-04-03T07:44:28.000Z</time>
      </trkpt>
      <trkpt lat="47.2532" lon="4.95026">
        <ele>508.2</ele>
        <time>2013-04-03T07:44:30.000Z</time>
      </trkpt>
      <trkpt lat="47.2532" lon="4.95028">
        <ele>508.3</ele>
        <time>2013-04-03T07:44:31.000Z</time>
      </trkpt>
      <trkpt lat="47.25317" lon="4.95034">
        <ele>508.2</ele>
        <time>2013-04-03T07:44:34.000Z</time>
      </trkpt>
      <trkpt lat="47.25316" lon="4.95036">
        <ele>507.9</ele>
        <time>2013-04-03T07:44:35.000Z</time>
      </trkpt>
      <trkpt lat="47.25314" lon="4.95041">
        <ele>507</ele>
        <time>2013-04-03T07:44:38.000Z</time>
      </trkpt>
      <trkpt lat="47.25313" lon="4.95043">
        <ele>506.9</ele>
        <time>2013-04-03T07:44:39.000Z</time>
      </trkpt>
      <trkpt lat="47.25312" lon="4.95049">
        <ele>506.1</ele>
        <time>2013-04-03T07:44:43.000Z</time>
      </trkpt>
      <trkpt lat="47.25312" lon="4.9505">
        <ele>506.2</ele>
        <time>2013-04-03T07:44:44.000Z</time>
      </trkpt>
      <trkpt lat="47.25309" lon="4.95056">
        <ele>505</ele>
        <time>2013-04-03T07:44:47.000Z</time>
      </trkpt>
      <trkpt lat="47.25309" lon="4.95057">
        <ele>504.7</ele>
        <time>2013-04-03T07:44:48.000Z</time>
      </trkpt>
      <trkpt lat="47.25306" lon="4.95062">
        <ele>505</ele>
        <time>2013-04-03T07:44:51.000Z</time>
      </trkpt>
      <trkpt lat="47.25305" lon="4.95064">
        <ele>504.9</ele>
        <time>2013-04-03T07:44:52.000Z</time>
      </trkpt>
      <trkpt lat="47.25303" lon="4.9507">
        <ele>505.3</ele>
        <time>2013-04-03T07:44:55.000Z</time>
      </trkpt>
      <trkpt lat="47.25302" lon="4.95072">
        <ele>504.8</ele>
        <time>2013-04-03T07:44:56.000Z</time>
      </trkpt>
      <trkpt lat="47.253" lon="4.95077">
        <ele>503.5</ele>
        <time>2013-04-03T07:44:58.000Z</time>
      </trkpt>
      <trkpt lat="47.25299" lon="4.95079">
        <ele>503.5</ele>
        <time>2013-04-03T07:44:59.000Z</time>
      </trkpt>
      <trkpt lat="47.25298" lon="4.95083">
        <ele>504.1</ele>
        <time>2013-04-03T07:45:01.000Z</time>
      </trkpt>
      <trkpt lat="47.25297" lon="4.95085">
        <ele>504.1</ele>
        <time>2013-04-03T07:45:02.000Z</time>
      </trkpt>
      <trkpt lat="47.25296" lon="4.95089">
        <ele>504.6</ele>
        <time>2013-04-03T07:45:04.000Z</time>
      </trkpt>
      <trkpt lat="47.25296" lon="4.95092">
        <ele>504.9</ele>
        <time>2013-04-03T07:45:05.000Z</time>
      </trkpt>
      <trkpt lat="47.25295" lon="4.95097">
        <ele>505.1</ele>
        <time>2013-04-03T07:45:07.000Z</time>
      </trkpt>
      <trkpt lat="47.25294" lon="4.95099">
        <ele>505</ele>
        <time>2013-04-03T07:45:08.000Z</time>
      </trkpt>
      <trkpt lat="47.25293" lon="4.95104">
        <ele>504.4</ele>
        <time>2013-04-03T07:45:10.000Z</time>
      </trkpt>
      <trkpt lat="47.25293" lon="4.95106">
        <ele>504.4</ele>
        <time>2013-04-03T07:45:11.000Z</time>
      </trkpt>
      <trkpt lat="47.25292" lon="4.95111">
        <ele>504</ele>
        <time>2013-04-03T07:45:14.000Z</time>
      </trkpt>
      <trkpt lat="47.25292" lon="4.95113">
        <ele>504.2</ele>
        <time>2013-04-03T07:45:15.000Z</time>
      </trkpt>
      <trkpt lat="47.25291" lon="4.95118">
        <ele>504.7</ele>
        <time>2013-04-03T07:45:17.000Z</time>
      </trkpt>
      <trkpt lat="47.25291" lon="4.9512">
        <ele>505.2</ele>
        <time>2013-04-03T07:45:18.000Z</time>
      </trkpt>
      <trkpt lat="47.25289" lon="4.95125">
        <ele>504.7</ele>
        <time>2013-04-03T07:45:21.000Z</time>
      </trkpt>
      <trkpt lat="47.25289" lon="4.95126">
        <ele>504.5</ele>
        <time>2013-04-03T07:45:22.000Z</time>
      </trkpt>
      <trkpt lat="47.25288" lon="4.95132">
        <ele>503.9</ele>
        <time>2013-04-03T07:45:25.000Z</time>
      </trkpt>
      <trkpt lat="47.25287" lon="4.95134">
        <ele>503.7</ele>
        <time>2013-04-03T07:45:26.000Z</time>
      </trkpt>
      <trkpt lat="47.25286" lon="4.9514">
        <ele>503.9</ele>
        <time>2013-04-03T07:45:28.000Z</time>
      </trkpt>
      <trkpt lat="47.25286" lon="4.95143">
        <ele>504.4</ele>
        <time>2013-04-03T07:45:29.000Z</time>
      </trkpt>
      <trkpt lat="47.25285" lon="4.95148">
        <ele>504.3</ele>
        <time>2013-04-03T07:45:31.000Z</time>
      </trkpt>
      <trkpt lat="47.25284" lon="4.95151">
        <ele>505.8</ele>
        <time>2013-04-03T07:45:32.000Z</time>
      </trkpt>
      <trkpt lat="47.25283" lon="4.95156">
        <ele>505.2</ele>
        <time>2013-04-03T07:45:34.000Z</time>
      </trkpt>
      <trkpt lat="47.25282" lon="4.95158">
        <ele>505.7</ele>
        <time>2013-04-03T07:45:35.000Z</time>
      </trkpt>
      <trkpt lat="47.25282" lon="4.95164">
        <ele>504.9</ele>
        <time>2013-04-03T07:45:38.000Z</time>
      </trkpt>
      <trkpt lat="47.25282" lon="4.95166">
        <ele>504.9</ele>
        <time>2013-04-03T07:45:39.000Z</time>
      </trkpt>
      <trkpt lat="47.25281" lon="4.95172">
        <ele>505</ele>
        <time>2013-04-03T07:45:42.000Z</time>
      </trkpt>
      <trkpt lat="47.25281" lon="4.95174">
        <ele>504.8</ele>
        <time>2013-04-03T07:45:43.000Z</time>
      </trkpt>
      <trkpt lat="47.25281" lon="4.95179">
        <ele>504.4</ele>
        <time>2013-04-03T07:45:45.000Z</time>
      </trkpt>
      <trkpt lat="47.2528" lon="4.95181">
        <ele>505</ele>
        <time>2013-04-03T07:45:46.000Z</time>
      </trkpt>
      <trkpt lat="47.25279" lon="4.95186">
        <ele>504.2</ele>
        <time>2013-04-03T07:45:48.000Z</time>
      </trkpt>
      <trkpt lat="47.25279" lon="4.95188">
        <ele>504.2</ele>
        <time>2013-04-03T07:45:49.000Z</time>
      </trkpt>
      <trkpt lat="47.25278" lon="4.95193">
        <ele>504.8</ele>
        <time>2013-04-03T07:45:51.000Z</time>
      </trkpt>
      <trkpt lat="47.25278" lon="4.95196">
        <ele>504.7</ele>
        <time>2013-04-03T07:45:52.000Z</time>
      </trkpt>
      <trkpt lat="47.25277" lon="4.95201">
        <ele>504.8</ele>
        <time>2013-04-03T07:45:54.000Z</time>
      </trkpt>
      <trkpt lat="47.25277" lon="4.95203">
        <ele>504.9</ele>
        <time>2013-04-03T07:45:55.000Z</time>
      </trkpt>
      <trkpt lat="47.25276" lon="4.95209">
        <ele>505.2</ele>
        <time>2013-04-03T07:45:57.000Z</time>
      </trkpt>
      <trkpt lat="47.25276" lon="4.95211">
        <ele>504.9</ele>
        <time>2013-04-03T07:45:58.000Z</time>
      </trkpt>
      <trkpt lat="47.25275" lon="4.95216">
        <ele>504.3</ele>
        <time>2013-04-03T07:46:00.000Z</time>
      </trkpt>
      <trkpt lat="47.25275" lon="4.95219">
        <ele>504.6</ele>
        <time>2013-04-03T07:46:01.000Z</time>
      </trkpt>
      <trkpt lat="47.25274" lon="4.95224">
        <ele>505.5</ele>
        <time>2013-04-03T07:46:03.000Z</time>
      </trkpt>
      <trkpt lat="47.25273" lon="4.95226">
        <ele>505.6</ele>
        <time>2013-04-03T07:46:04.000Z</time>
      </trkpt>
      <trkpt lat="47.25272" lon="4.95231">
        <ele>505.6</ele>
        <time>2013-04-03T07:46:06.000Z</time>
      </trkpt>
      <trkpt lat="47.25271" lon="4.95233">
        <ele>505.5</ele>
        <time>2013-04-03T07:46:07.000Z</time>
      </trkpt>
      <trkpt lat="47.2527" lon="4.95239">
        <ele>505.8</ele>
        <time>2013-04-03T07:46:10.000Z</time>
      </trkpt>
      <trkpt lat="47.25269" lon="4.95241">
        <ele>505.9</ele>
        <time>2013-04-03T07:46:11.000Z</time>
      </trkpt>
      <trkpt lat="47.25268" lon="4.95246">
        <ele>505.2</ele>
        <time>2013-04-03T07:46:14.000Z</time>
      </trkpt>
      <trkpt lat="47.25267" lon="4.95248">
        <ele>505.5</ele>
        <time>2013-04-03T07:46:15.000Z</time>
      </trkpt>
      <trkpt lat="47.25265" lon="4.95253">
        <ele>505.6</ele>
        <time>2013-04-03T07:46:17.000Z</time>
      </trkpt>
      <trkpt lat="47.25264" lon="4.95255">
        <ele>504.6</ele>
        <time>2013-04-03T07:46:18.000Z</time>
      </trkpt>
      <trkpt lat="47.25263" lon="4.9526">
        <ele>503.3</ele>
        <time>2013-04-03T07:46:21.000Z</time>
      </trkpt>
      <trkpt lat="47.25262" lon="4.95262">
        <ele>503.4</ele>
        <time>2013-04-03T07:46:22.000Z</time>
      </trkpt>
      <trkpt lat="47.2526" lon="4.95266">
        <ele>503.7</ele>
        <time>2013-04-03T07:46:24.000Z</time>
      </trkpt>
      <trkpt lat="47.25259" lon="4.95268">
        <ele>502.3</ele>
        <time>2013-04-03T07:46:25.000Z</time>
      </trkpt>
      <trkpt lat="47.25257" lon="4.95274">
        <ele>501.9</ele>
        <time>2013-04-03T07:46:28.000Z</time>
      </trkpt>
      <trkpt lat="47.25256" lon="4.95275">
        <ele>501.5</ele>
        <time>2013-04-03T07:46:29.000Z</time>
      </trkpt>
      <trkpt lat="47.25254" lon="4.9528">
        <ele>500.9</ele>
        <time>2013-04-03T07:46:32.000Z</time>
      </trkpt>
      <trkpt lat="47.25253" lon="4.95282">
        <ele>500.7</ele>
        <time>2013-04-03T07:46:33.000Z</time>
      </trkpt>
      <trkpt lat="47.25251" lon="4.95286">
        <ele>500.4</ele>
        <time>2013-04-03T07:46:35.000Z</time>
      </trkpt>
      <trkpt lat="47.25251" lon="4.95289">
        <ele>500.2</ele>
        <time>2013-04-03T07:46:36.000Z</time>
      </trkpt>
      <trkpt lat="47.2525" lon="4.95293">
        <ele>500.9</ele>
        <time>2013-04-03T07:46:38.000Z</time>
      </trkpt>
      <trkpt lat="47.25249" lon="4.95295">
        <ele>500.6</ele>
        <time>2013-04-03T07:46:39.000Z</time>
      </trkpt>
      <trkpt lat="47.25248" lon="4.95301">
        <ele>501.4</ele>
        <time>2013-04-03T07:46:41.000Z</time>
      </trkpt>
      <trkpt lat="47.25247" lon="4.95303">
        <ele>501.3</ele>
        <time>2013-04-03T07:46:42.000Z</time>
      </trkpt>
      <trkpt lat="47.25246" lon="4.95308">
        <ele>500.9</ele>
        <time>2013-04-03T07:46:44.000Z</time>
      </trkpt>
      <trkpt lat="47.25246" lon="4.95311">
        <ele>501.4</ele>
        <time>2013-04-03T07:46:45.000Z</time>
      </trkpt>
      <trkpt lat="47.25245" lon="4.95315">
        <ele>501.7</ele>
        <time>2013-04-03T07:46:47.000Z</time>
      </trkpt>
      <trkpt lat="47.25244" lon="4.95317">
        <ele>501.6</ele>
        <time>2013-04-03T07:46:48.000Z</time>
      </trkpt>
      <trkpt lat="47.25243" lon="4.95322">
        <ele>501.6</ele>
        <time>2013-04-03T07:46:50.000Z</time>
      </trkpt>
      <trkpt lat="47.25243" lon="4.95324">
        <ele>501.4</ele>
        <time>2013-04-03T07:46:51.000Z</time>
      </trkpt>
      <trkpt lat="47.25242" lon="4.95328">
        <ele>501.8</ele>
        <time>2013-04-03T07:46:53.000Z</time>
      </trkpt>
      <trkpt lat="47.25241" lon="4.9533">
        <ele>501.5</ele>
        <time>2013-04-03T07:46:54.000Z</time>
      </trkpt>
      <trkpt lat="47.2524" lon="4.95334">
        <ele>502.3</ele>
        <time>2013-04-03T07:46:56.000Z</time>
      </trkpt>
      <trkpt lat="47.2524" lon="4.95336">
        <ele>502.5</ele>
        <time>2013-04-03T07:46:57.000Z</time>
      </trkpt>
      <trkpt lat="47.25239" lon="4.95341">
        <ele>502.5</ele>
        <time>2013-04-03T07:46:59.000Z</time>
      </trkpt>
      <trkpt lat="47.25238" lon="4.95343">
        <ele>502.9</ele>
        <time>2013-04-03T07:47:00.000Z</time>
      </trkpt>
      <trkpt lat="47.25237" lon="4.95348">
        <ele>502.8</ele>
        <time>2013-04-03T07:47:02.000Z</time>
      </trkpt>
      <trkpt lat="47.25236" lon="4.9535">
        <ele>501.9</ele>
        <time>2013-04-03T07:47:03.000Z</time>
      </trkpt>
      <trkpt lat="47.25234" lon="4.95355">
        <ele>501.7</ele>
        <time>2013-04-03T07:47:06.000Z</time>
      </trkpt>
      <trkpt lat="47.25233" lon="4.95357">
        <ele>501.6</ele>
        <time>2013-04-03T07:47:07.000Z</time>
      </trkpt>
      <trkpt lat="47.25231" lon="4.95361">
        <ele>500.7</ele>
        <time>2013-04-03T07:47:09.000Z</time>
      </trkpt>
      <trkpt lat="47.2523" lon="4.95363">
        <ele>500.9</ele>
        <time>2013-04-03T07:47:10.000Z</time>
      </trkpt>
      <trkpt lat="47.25228" lon="4.95367">
        <ele>501.4</ele>
        <time>2013-04-03T07:47:12.000Z</time>
      </trkpt>
      <trkpt lat="47.25228" lon="4.95369">
        <ele>501.1</ele>
        <time>2013-04-03T07:47:13.000Z</time>
      </trkpt>
      <trkpt lat="47.25226" lon="4.95373">
        <ele>500</ele>
        <time>2013-04-03T07:47:15.000Z</time>
      </trkpt>
      <trkpt lat="47.25225" lon="4.95375">
        <ele>500</ele>
        <time>2013-04-03T07:47:16.000Z</time>
      </trkpt>
      <trkpt lat="47.25222" lon="4.9538">
        <ele>499.8</ele>
        <time>2013-04-03T07:47:19.000Z</time>
      </trkpt>
      <trkpt lat="47.25221" lon="4.95382">
        <ele>498.9</ele>
        <time>2013-04-03T07:47:20.000Z</time>
      </trkpt>
      <trkpt lat="47.2522" lon="4.95385">
        <ele>499.7</ele>
        <time>2013-04-03T07:47:22.000Z</time>
      </trkpt>
      <trkpt lat="47.25219" lon="4.95387">
        <ele>499.5</ele>
        <time>2013-04-03T07:47:23.000Z</time>
      </trkpt>
      <trkpt lat="47.25217" lon="4.95392">
        <ele>499.7</ele>
        <time>2013-04-03T07:47:25.000Z</time>
      </trkpt>
      <trkpt lat="47.25216" lon="4.95394">
        <ele>499</ele>
        <time>2013-04-03T07:47:26.000Z</time>
      </trkpt>
      <trkpt lat="47.25214" lon="4.95397">
        <ele>499.9</ele>
        <time>2013-04-03T07:47:28.000Z</time>
      </trkpt>
      <trkpt lat="47.25213" lon="4.95399">
        <ele>499</ele>
        <time>2013-04-03T07:47:29.000Z</time>
      </trkpt>
      <trkpt lat="47.25211" lon="4.95405">
        <ele>500.2</ele>
        <time>2013-04-03T07:49:15.000Z</time>
      </trkpt>
      <trkpt lat="47.25211" lon="4.95405">
        <ele>500.1</ele>
        <time>2013-04-03T07:49:16.000Z</time>
      </trkpt>
      <trkpt lat="47.25209" lon="4.95409">
        <ele>499.7</ele>
        <time>2013-04-03T07:50:30.000Z</time>
      </trkpt>
      <trkpt lat="47.25209" lon="4.95411">
        <ele>499.2</ele>
        <time>2013-04-03T07:50:31.000Z</time>
      </trkpt>
      <trkpt lat="47.25206" lon="4.95415">
        <ele>498</ele>
        <time>2013-04-03T07:50:33.000Z</time>
      </trkpt>
      <trkpt lat="47.25205" lon="4.95417">
        <ele>498.5</ele>
        <time>2013-04-03T07:50:34.000Z</time>
      </trkpt>
      <trkpt lat="47.25203" lon="4.95421">
        <ele>499.5</ele>
        <time>2013-04-03T07:50:36.000Z</time>
      </trkpt>
      <trkpt lat="47.25202" lon="4.95423">
        <ele>499.6</ele>
        <time>2013-04-03T07:50:37.000Z</time>
      </trkpt>
      <trkpt lat="47.252" lon="4.95426">
        <ele>499.3</ele>
        <time>2013-04-03T07:50:39.000Z</time>
      </trkpt>
      <trkpt lat="47.25199" lon="4.95428">
        <ele>499.5</ele>
        <time>2013-04-03T07:50:40.000Z</time>
      </trkpt>
      <trkpt lat="47.25197" lon="4.95433">
        <ele>502</ele>
        <time>2013-04-03T07:50:42.000Z</time>
      </trkpt>
      <trkpt lat="47.25196" lon="4.95435">
        <ele>500.8</ele>
        <time>2013-04-03T07:50:43.000Z</time>
      </trkpt>
      <trkpt lat="47.25194" lon="4.9544">
        <ele>501.2</ele>
        <time>2013-04-03T07:50:45.000Z</time>
      </trkpt>
      <trkpt lat="47.25193" lon="4.95442">
        <ele>500.7</ele>
        <time>2013-04-03T07:50:46.000Z</time>
      </trkpt>
      <trkpt lat="47.25191" lon="4.95446">
        <ele>500.2</ele>
        <time>2013-04-03T07:50:48.000Z</time>
      </trkpt>
      <trkpt lat="47.2519" lon="4.95447">
        <ele>500</ele>
        <time>2013-04-03T07:50:49.000Z</time>
      </trkpt>
      <trkpt lat="47.25188" lon="4.95451">
        <ele>501.1</ele>
        <time>2013-04-03T07:50:51.000Z</time>
      </trkpt>
      <trkpt lat="47.25187" lon="4.95454">
        <ele>501.2</ele>
        <time>2013-04-03T07:50:52.000Z</time>
      </trkpt>
      <trkpt lat="47.25185" lon="4.95458">
        <ele>501.2</ele>
        <time>2013-04-03T07:50:54.000Z</time>
      </trkpt>
      <trkpt lat="47.25185" lon="4.9546">
        <ele>501.2</ele>
        <time>2013-04-03T07:50:55.000Z</time>
      </trkpt>
      <trkpt lat="47.25183" lon="4.95465">
        <ele>501.2</ele>
        <time>2013-04-03T07:50:57.000Z</time>
      </trkpt>
      <trkpt lat="47.25182" lon="4.95467">
        <ele>501.6</ele>
        <time>2013-04-03T07:50:58.000Z</time>
      </trkpt>
      <trkpt lat="47.2518" lon="4.95473">
        <ele>503.4</ele>
        <time>2013-04-03T07:51:00.000Z</time>
      </trkpt>
      <trkpt lat="47.25179" lon="4.95475">
        <ele>502.2</ele>
        <time>2013-04-03T07:51:01.000Z</time>
      </trkpt>
      <trkpt lat="47.25178" lon="4.95479">
        <ele>502.5</ele>
        <time>2013-04-03T07:51:03.000Z</time>
      </trkpt>
      <trkpt lat="47.25177" lon="4.95481">
        <ele>502.8</ele>
        <time>2013-04-03T07:51:04.000Z</time>
      </trkpt>
      <trkpt lat="47.25174" lon="4.95486">
        <ele>503</ele>
        <time>2013-04-03T07:51:07.000Z</time>
      </trkpt>
      <trkpt lat="47.25173" lon="4.95488">
        <ele>503.9</ele>
        <time>2013-04-03T07:51:08.000Z</time>
      </trkpt>
      <trkpt lat="47.25171" lon="4.95493">
        <ele>504.5</ele>
        <time>2013-04-03T07:51:10.000Z</time>
      </trkpt>
      <trkpt lat="47.2517" lon="4.95495">
        <ele>504.1</ele>
        <time>2013-04-03T07:51:11.000Z</time>
      </trkpt>
      <trkpt lat="47.25167" lon="4.955">
        <ele>504</ele>
        <time>2013-04-03T07:51:14.000Z</time>
      </trkpt>
      <trkpt lat="47.25166" lon="4.95502">
        <ele>504.7</ele>
        <time>2013-04-03T07:51:15.000Z</time>
      </trkpt>
      <trkpt lat="47.25164" lon="4.95506">
        <ele>504.2</ele>
        <time>2013-04-03T07:51:17.000Z</time>
      </trkpt>
      <trkpt lat="47.25164" lon="4.95507">
        <ele>504</ele>
        <time>2013-04-03T07:51:18.000Z</time>
      </trkpt>
      <trkpt lat="47.25161" lon="4.95512">
        <ele>503</ele>
        <time>2013-04-03T07:51:21.000Z</time>
      </trkpt>
      <trkpt lat="47.2516" lon="4.95514">
        <ele>503.8</ele>
        <time>2013-04-03T07:51:22.000Z</time>
      </trkpt>
      <trkpt lat="47.25157" lon="4.95518">
        <ele>503.4</ele>
        <time>2013-04-03T07:51:24.000Z</time>
      </trkpt>
      <trkpt lat="47.25156" lon="4.9552">
        <ele>503.3</ele>
        <time>2013-04-03T07:51:25.000Z</time>
      </trkpt>
      <trkpt lat="47.25153" lon="4.95525">
        <ele>502</ele>
        <time>2013-04-03T07:51:28.000Z</time>
      </trkpt>
      <trkpt lat="47.25152" lon="4.95526">
        <ele>502.1</ele>
        <time>2013-04-03T07:51:29.000Z</time>
      </trkpt>
      <trkpt lat="47.2515" lon="4.95531">
        <ele>501</ele>
        <time>2013-04-03T07:51:32.000Z</time>
      </trkpt>
      <trkpt lat="47.25149" lon="4.95533">
        <ele>501.1</ele>
        <time>2013-04-03T07:51:33.000Z</time>
      </trkpt>
      <trkpt lat="47.25146" lon="4.95537">
        <ele>500.2</ele>
        <time>2013-04-03T07:51:36.000Z</time>
      </trkpt>
      <trkpt lat="47.25145" lon="4.95538">
        <ele>499.9</ele>
        <time>2013-04-03T07:51:37.000Z</time>
      </trkpt>
      <trkpt lat="47.25143" lon="4.95541">
        <ele>499.6</ele>
        <time>2013-04-03T07:51:39.000Z</time>
      </trkpt>
      <trkpt lat="47.25141" lon="4.95543">
        <ele>499.3</ele>
        <time>2013-04-03T07:51:40.000Z</time>
      </trkpt>
      <trkpt lat="47.25139" lon="4.95546">
        <ele>499.4</ele>
        <time>2013-04-03T07:51:42.000Z</time>
      </trkpt>
      <trkpt lat="47.25138" lon="4.95548">
        <ele>499.8</ele>
        <time>2013-04-03T07:51:43.000Z</time>
      </trkpt>
      <trkpt lat="47.25135" lon="4.95551">
        <ele>500.1</ele>
        <time>2013-04-03T07:51:45.000Z</time>
      </trkpt>
      <trkpt lat="47.25134" lon="4.95553">
        <ele>499.9</ele>
        <time>2013-04-03T07:51:46.000Z</time>
      </trkpt>
      <trkpt lat="47.25132" lon="4.95557">
        <ele>498.1</ele>
        <time>2013-04-03T07:51:48.000Z</time>
      </trkpt>
      <trkpt lat="47.25131" lon="4.95558">
        <ele>498.6</ele>
        <time>2013-04-03T07:51:49.000Z</time>
      </trkpt>
      <trkpt lat="47.25128" lon="4.95561">
        <ele>498.7</ele>
        <time>2013-04-03T07:51:51.000Z</time>
      </trkpt>
      <trkpt lat="47.25127" lon="4.95563">
        <ele>499.1</ele>
        <time>2013-04-03T07:51:52.000Z</time>
      </trkpt>
      <trkpt lat="47.25124" lon="4.95568">
        <ele>498.8</ele>
        <time>2013-04-03T07:51:54.000Z</time>
      </trkpt>
      <trkpt lat="47.25123" lon="4.95569">
        <ele>497.9</ele>
        <time>2013-04-03T07:51:55.000Z</time>
      </trkpt>
      <trkpt lat="47.2512" lon="4.95572">
        <ele>497.3</ele>
        <time>2013-04-03T07:51:57.000Z</time>
      </trkpt>
      <trkpt lat="47.25119" lon="4.95573">
        <ele>497.2</ele>
        <time>2013-04-03T07:51:58.000Z</time>
      </trkpt>
      <trkpt lat="47.25116" lon="4.95577">
        <ele>500.5</ele>
        <time>2013-04-03T07:52:00.000Z</time>
      </trkpt>
      <trkpt lat="47.25115" lon="4.9558">
        <ele>501.6</ele>
        <time>2013-04-03T07:52:01.000Z</time>
      </trkpt>
      <trkpt lat="47.25113" lon="4.95582">
        <ele>502.2</ele>
        <time>2013-04-03T07:52:02.000Z</time>
      </trkpt>
      <trkpt lat="47.25111" lon="4.95584">
        <ele>500.6</ele>
        <time>2013-04-03T07:52:03.000Z</time>
      </trkpt>
      <trkpt lat="47.25108" lon="4.95588">
        <ele>499.8</ele>
        <time>2013-04-03T07:52:06.000Z</time>
      </trkpt>
      <trkpt lat="47.25107" lon="4.9559">
        <ele>499.7</ele>
        <time>2013-04-03T07:52:07.000Z</time>
      </trkpt>
      <trkpt lat="47.25104" lon="4.95594">
        <ele>497.6</ele>
        <time>2013-04-03T07:52:10.000Z</time>
      </trkpt>
      <trkpt lat="47.25104" lon="4.95596">
        <ele>497.3</ele>
        <time>2013-04-03T07:52:11.000Z</time>
      </trkpt>
      <trkpt lat="47.25101" lon="4.95601">
        <ele>496.6</ele>
        <time>2013-04-03T07:52:14.000Z</time>
      </trkpt>
      <trkpt lat="47.251" lon="4.95603">
        <ele>496.4</ele>
        <time>2013-04-03T07:52:15.000Z</time>
      </trkpt>
      <trkpt lat="47.25098" lon="4.95607">
        <ele>496.9</ele>
        <time>2013-04-03T07:52:17.000Z</time>
      </trkpt>
      <trkpt lat="47.25096" lon="4.95609">
        <ele>497.3</ele>
        <time>2013-04-03T07:52:18.000Z</time>
      </trkpt>
      <trkpt lat="47.25093" lon="4.95613">
        <ele>498.9</ele>
        <time>2013-04-03T07:52:20.000Z</time>
      </trkpt>
      <trkpt lat="47.25092" lon="4.95615">
        <ele>500.4</ele>
        <time>2013-04-03T07:52:21.000Z</time>
      </trkpt>
      <trkpt lat="47.25089" lon="4.95619">
        <ele>501.8</ele>
        <time>2013-04-03T07:52:23.000Z</time>
      </trkpt>
      <trkpt lat="47.25087" lon="4.95622">
        <ele>503</ele>
        <time>2013-04-03T07:52:24.000Z</time>
      </trkpt>
      <trkpt lat="47.25084" lon="4.95626">
        <ele>501.4</ele>
        <time>2013-04-03T07:52:26.000Z</time>
      </trkpt>
      <trkpt lat="47.25083" lon="4.95628">
        <ele>501.5</ele>
        <time>2013-04-03T07:52:27.000Z</time>
      </trkpt>
      <trkpt lat="47.25081" lon="4.95632">
        <ele>502.5</ele>
        <time>2013-04-03T07:52:29.000Z</time>
      </trkpt>
      <trkpt lat="47.25079" lon="4.95634">
        <ele>502.8</ele>
        <time>2013-04-03T07:52:30.000Z</time>
      </trkpt>
      <trkpt lat="47.25076" lon="4.95638">
        <ele>504.1</ele>
        <time>2013-04-03T07:52:32.000Z</time>
      </trkpt>
      <trkpt lat="47.25075" lon="4.9564">
        <ele>503.6</ele>
        <time>2013-04-03T07:52:33.000Z</time>
      </trkpt>
      <trkpt lat="47.25073" lon="4.95643">
        <ele>503.2</ele>
        <time>2013-04-03T07:52:35.000Z</time>
      </trkpt>
      <trkpt lat="47.25072" lon="4.95645">
        <ele>505</ele>
        <time>2013-04-03T07:52:36.000Z</time>
      </trkpt>
      <trkpt lat="47.25069" lon="4.95649">
        <ele>505.2</ele>
        <time>2013-04-03T07:52:38.000Z</time>
      </trkpt>
      <trkpt lat="47.25068" lon="4.95651">
        <ele>503.6</ele>
        <time>2013-04-03T07:52:39.000Z</time>
      </trkpt>
      <trkpt lat="47.25066" lon="4.95655">
        <ele>502.8</ele>
        <time>2013-04-03T07:52:41.000Z</time>
      </trkpt>
      <trkpt lat="47.25065" lon="4.95657">
        <ele>502</ele>
        <time>2013-04-03T07:52:42.000Z</time>
      </trkpt>
      <trkpt lat="47.25062" lon="4.95662">
        <ele>501.9</ele>
        <time>2013-04-03T07:52:45.000Z</time>
      </trkpt>
      <trkpt lat="47.25061" lon="4.95663">
        <ele>501.7</ele>
        <time>2013-04-03T07:52:46.000Z</time>
      </trkpt>
      <trkpt lat="47.25059" lon="4.95668">
        <ele>502.1</ele>
        <time>2013-04-03T07:52:49.000Z</time>
      </trkpt>
      <trkpt lat="47.25058" lon="4.95669">
        <ele>501.8</ele>
        <time>2013-04-03T07:52:50.000Z</time>
      </trkpt>
      <trkpt lat="47.25056" lon="4.95673">
        <ele>501</ele>
        <time>2013-04-03T07:52:52.000Z</time>
      </trkpt>
      <trkpt lat="47.25055" lon="4.95675">
        <ele>501.1</ele>
        <time>2013-04-03T07:52:53.000Z</time>
      </trkpt>
      <trkpt lat="47.25052" lon="4.95678">
        <ele>499.9</ele>
        <time>2013-04-03T07:52:55.000Z</time>
      </trkpt>
      <trkpt lat="47.25051" lon="4.95679">
        <ele>499.1</ele>
        <time>2013-04-03T07:52:56.000Z</time>
      </trkpt>
      <trkpt lat="47.25048" lon="4.95684">
        <ele>497.8</ele>
        <time>2013-04-03T07:52:59.000Z</time>
      </trkpt>
      <trkpt lat="47.25047" lon="4.95686">
        <ele>498</ele>
        <time>2013-04-03T07:53:00.000Z</time>
      </trkpt>
      <trkpt lat="47.25045" lon="4.95689">
        <ele>496.8</ele>
        <time>2013-04-03T07:53:02.000Z</time>
      </trkpt>
      <trkpt lat="47.25044" lon="4.95691">
        <ele>496.3</ele>
        <time>2013-04-03T07:53:03.000Z</time>
      </trkpt>
      <trkpt lat="47.25041" lon="4.95695">
        <ele>494.7</ele>
        <time>2013-04-03T07:53:06.000Z</time>
      </trkpt>
      <trkpt lat="47.2504" lon="4.95697">
        <ele>494.4</ele>
        <time>2013-04-03T07:53:07.000Z</time>
      </trkpt>
      <trkpt lat="47.25037" lon="4.957">
        <ele>493.9</ele>
        <time>2013-04-03T07:53:09.000Z</time>
      </trkpt>
      <trkpt lat="47.25036" lon="4.95702">
        <ele>492.2</ele>
        <time>2013-04-03T07:53:10.000Z</time>
      </trkpt>
      <trkpt lat="47.25033" lon="4.95705">
        <ele>491</ele>
        <time>2013-04-03T07:53:13.000Z</time>
      </trkpt>
      <trkpt lat="47.25032" lon="4.95707">
        <ele>490.5</ele>
        <time>2013-04-03T07:53:14.000Z</time>
      </trkpt>
      <trkpt lat="47.2503" lon="4.95711">
        <ele>490.3</ele>
        <time>2013-04-03T07:53:16.000Z</time>
      </trkpt>
      <trkpt lat="47.25029" lon="4.95713">
        <ele>490.5</ele>
        <time>2013-04-03T07:53:17.000Z</time>
      </trkpt>
      <trkpt lat="47.25027" lon="4.95717">
        <ele>490.2</ele>
        <time>2013-04-03T07:53:19.000Z</time>
      </trkpt>
      <trkpt lat="47.25026" lon="4.95718">
        <ele>489.2</ele>
        <time>2013-04-03T07:53:20.000Z</time>
      </trkpt>
      <trkpt lat="47.25024" lon="4.95721">
        <ele>488.9</ele>
        <time>2013-04-03T07:53:22.000Z</time>
      </trkpt>
      <trkpt lat="47.25023" lon="4.95723">
        <ele>488.3</ele>
        <time>2013-04-03T07:53:23.000Z</time>
      </trkpt>
      <trkpt lat="47.25021" lon="4.95728">
        <ele>486.8</ele>
        <time>2013-04-03T07:53:25.000Z</time>
      </trkpt>
      <trkpt lat="47.2502" lon="4.9573">
        <ele>486.1</ele>
        <time>2013-04-03T07:53:26.000Z</time>
      </trkpt>
      <trkpt lat="47.25018" lon="4.95733">
        <ele>485.7</ele>
        <time>2013-04-03T07:53:28.000Z</time>
      </trkpt>
      <trkpt lat="47.25017" lon="4.95735">
        <ele>485.1</ele>
        <time>2013-04-03T07:53:29.000Z</time>
      </trkpt>
      <trkpt lat="47.25014" lon="4.95738">
        <ele>484.1</ele>
        <time>2013-04-03T07:53:31.000Z</time>
      </trkpt>
      <trkpt lat="47.25013" lon="4.9574">
        <ele>483.8</ele>
        <time>2013-04-03T07:53:32.000Z</time>
      </trkpt>
      <trkpt lat="47.2501" lon="4.95744">
        <ele>483</ele>
        <time>2013-04-03T07:53:35.000Z</time>
      </trkpt>
      <trkpt lat="47.25009" lon="4.95746">
        <ele>482.4</ele>
        <time>2013-04-03T07:53:36.000Z</time>
      </trkpt>
      <trkpt lat="47.25006" lon="4.95749">
        <ele>482.4</ele>
        <time>2013-04-03T07:53:38.000Z</time>
      </trkpt>
      <trkpt lat="47.25005" lon="4.95751">
        <ele>483.7</ele>
        <time>2013-04-03T07:53:39.000Z</time>
      </trkpt>
      <trkpt lat="47.25003" lon="4.95755">
        <ele>483</ele>
        <time>2013-04-03T07:53:41.000Z</time>
      </trkpt>
      <trkpt lat="47.25002" lon="4.95757">
        <ele>483.8</ele>
        <time>2013-04-03T07:53:42.000Z</time>
      </trkpt>
      <trkpt lat="47.24999" lon="4.9576">
        <ele>484.5</ele>
        <time>2013-04-03T07:53:44.000Z</time>
      </trkpt>
      <trkpt lat="47.24998" lon="4.95761">
        <ele>484.1</ele>
        <time>2013-04-03T07:53:45.000Z</time>
      </trkpt>
      <trkpt lat="47.24995" lon="4.95764">
        <ele>485.1</ele>
        <time>2013-04-03T07:53:47.000Z</time>
      </trkpt>
      <trkpt lat="47.24995" lon="4.95766">
        <ele>483.4</ele>
        <time>2013-04-03T07:53:48.000Z</time>
      </trkpt>
      <trkpt lat="47.24992" lon="4.9577">
        <ele>483.8</ele>
        <time>2013-04-03T07:53:51.000Z</time>
      </trkpt>
      <trkpt lat="47.2499" lon="4.95772">
        <ele>483.1</ele>
        <time>2013-04-03T07:53:52.000Z</time>
      </trkpt>
      <trkpt lat="47.24988" lon="4.95776">
        <ele>481.1</ele>
        <time>2013-04-03T07:53:55.000Z</time>
      </trkpt>
      <trkpt lat="47.24986" lon="4.95778">
        <ele>480.4</ele>
        <time>2013-04-03T07:53:56.000Z</time>
      </trkpt>
      <trkpt lat="47.24984" lon="4.95783">
        <ele>478.4</ele>
        <time>2013-04-03T07:53:59.000Z</time>
      </trkpt>
      <trkpt lat="47.24982" lon="4.95785">
        <ele>479.8</ele>
        <time>2013-04-03T07:54:00.000Z</time>
      </trkpt>
      <trkpt lat="47.2498" lon="4.95788">
        <ele>478.2</ele>
        <time>2013-04-03T07:54:02.000Z</time>
      </trkpt>
      <trkpt lat="47.24979" lon="4.9579">
        <ele>480</ele>
        <time>2013-04-03T07:54:03.000Z</time>
      </trkpt>
      <trkpt lat="47.24976" lon="4.95794">
        <ele>480.5</ele>
        <time>2013-04-03T07:54:05.000Z</time>
      </trkpt>
      <trkpt lat="47.24974" lon="4.95797">
        <ele>480.5</ele>
        <time>2013-04-03T07:54:06.000Z</time>
      </trkpt>
      <trkpt lat="47.24972" lon="4.95801">
        <ele>480.3</ele>
        <time>2013-04-03T07:54:08.000Z</time>
      </trkpt>
      <trkpt lat="47.24971" lon="4.95803">
        <ele>480.5</ele>
        <time>2013-04-03T07:54:09.000Z</time>
      </trkpt>
      <trkpt lat="47.24969" lon="4.95808">
        <ele>479.1</ele>
        <time>2013-04-03T07:54:12.000Z</time>
      </trkpt>
      <trkpt lat="47.24967" lon="4.9581">
        <ele>479.9</ele>
        <time>2013-04-03T07:54:13.000Z</time>
      </trkpt>
      <trkpt lat="47.24966" lon="4.95812">
        <ele>482.7</ele>
        <time>2013-04-03T07:54:14.000Z</time>
      </trkpt>
      <trkpt lat="47.24964" lon="4.95815">
        <ele>481.4</ele>
        <time>2013-04-03T07:54:15.000Z</time>
      </trkpt>
      <trkpt lat="47.24961" lon="4.95819">
        <ele>480.2</ele>
        <time>2013-04-03T07:54:17.000Z</time>
      </trkpt>
      <trkpt lat="47.2496" lon="4.9582">
        <ele>481.2</ele>
        <time>2013-04-03T07:54:18.000Z</time>
      </trkpt>
      <trkpt lat="47.24957" lon="4.95825">
        <ele>479.3</ele>
        <time>2013-04-03T07:54:21.000Z</time>
      </trkpt>
      <trkpt lat="47.24956" lon="4.95826">
        <ele>479.1</ele>
        <time>2013-04-03T07:54:22.000Z</time>
      </trkpt>
      <trkpt lat="47.24953" lon="4.95831">
        <ele>478.1</ele>
        <time>2013-04-03T07:54:25.000Z</time>
      </trkpt>
      <trkpt lat="47.24952" lon="4.95833">
        <ele>479.3</ele>
        <time>2013-04-03T07:54:26.000Z</time>
      </trkpt>
      <trkpt lat="47.2495" lon="4.95837">
        <ele>478.6</ele>
        <time>2013-04-03T07:54:28.000Z</time>
      </trkpt>
      <trkpt lat="47.24948" lon="4.95838">
        <ele>478</ele>
        <time>2013-04-03T07:54:29.000Z</time>
      </trkpt>
      <trkpt lat="47.24947" lon="4.95842">
        <ele>478.2</ele>
        <time>2013-04-03T07:54:31.000Z</time>
      </trkpt>
      <trkpt lat="47.24945" lon="4.95844">
        <ele>478.2</ele>
        <time>2013-04-03T07:54:32.000Z</time>
      </trkpt>
      <trkpt lat="47.24943" lon="4.95847">
        <ele>478.5</ele>
        <time>2013-04-03T07:54:34.000Z</time>
      </trkpt>
      <trkpt lat="47.24942" lon="4.95849">
        <ele>478.4</ele>
        <time>2013-04-03T07:54:35.000Z</time>
      </trkpt>
      <trkpt lat="47.24939" lon="4.95853">
        <ele>476.9</ele>
        <time>2013-04-03T07:54:38.000Z</time>
      </trkpt>
      <trkpt lat="47.24938" lon="4.95855">
        <ele>477</ele>
        <time>2013-04-03T07:54:39.000Z</time>
      </trkpt>
      <trkpt lat="47.24936" lon="4.95858">
        <ele>476.9</ele>
        <time>2013-04-03T07:54:41.000Z</time>
      </trkpt>
      <trkpt lat="47.24935" lon="4.9586">
        <ele>476.5</ele>
        <time>2013-04-03T07:54:42.000Z</time>
      </trkpt>
      <trkpt lat="47.24932" lon="4.95864">
        <ele>476.6</ele>
        <time>2013-04-03T07:54:44.000Z</time>
      </trkpt>
      <trkpt lat="47.24931" lon="4.95865">
        <ele>476.4</ele>
        <time>2013-04-03T07:54:45.000Z</time>
      </trkpt>
      <trkpt lat="47.24929" lon="4.9587">
        <ele>475.7</ele>
        <time>2013-04-03T07:54:48.000Z</time>
      </trkpt>
      <trkpt lat="47.24928" lon="4.95872">
        <ele>476.2</ele>
        <time>2013-04-03T07:54:49.000Z</time>
      </trkpt>
      <trkpt lat="47.24925" lon="4.95875">
        <ele>475</ele>
        <time>2013-04-03T07:54:51.000Z</time>
      </trkpt>
      <trkpt lat="47.24924" lon="4.95877">
        <ele>474.1</ele>
        <time>2013-04-03T07:54:52.000Z</time>
      </trkpt>
      <trkpt lat="47.24921" lon="4.95881">
        <ele>473.2</ele>
        <time>2013-04-03T07:54:55.000Z</time>
      </trkpt>
      <trkpt lat="47.2492" lon="4.95883">
        <ele>472.7</ele>
        <time>2013-04-03T07:54:56.000Z</time>
      </trkpt>
      <trkpt lat="47.24917" lon="4.95886">
        <ele>475.3</ele>
        <time>2013-04-03T07:54:58.000Z</time>
      </trkpt>
      <trkpt lat="47.24916" lon="4.95887">
        <ele>475.6</ele>
        <time>2013-04-03T07:54:59.000Z</time>
      </trkpt>
      <trkpt lat="47.24913" lon="4.95891">
        <ele>475.5</ele>
        <time>2013-04-03T07:55:01.000Z</time>
      </trkpt>
      <trkpt lat="47.24912" lon="4.95893">
        <ele>475.1</ele>
        <time>2013-04-03T07:55:02.000Z</time>
      </trkpt>
      <trkpt lat="47.2491" lon="4.95897">
        <ele>475.4</ele>
        <time>2013-04-03T07:55:04.000Z</time>
      </trkpt>
      <trkpt lat="47.24909" lon="4.95899">
        <ele>475.1</ele>
        <time>2013-04-03T07:55:05.000Z</time>
      </trkpt>
      <trkpt lat="47.24907" lon="4.95902">
        <ele>475.8</ele>
        <time>2013-04-03T07:55:07.000Z</time>
      </trkpt>
      <trkpt lat="47.24905" lon="4.95904">
        <ele>475.3</ele>
        <time>2013-04-03T07:55:08.000Z</time>
      </trkpt>
      <trkpt lat="47.24903" lon="4.95909">
        <ele>476</ele>
        <time>2013-04-03T07:55:10.000Z</time>
      </trkpt>
      <trkpt lat="47.24902" lon="4.95912">
        <ele>478.3</ele>
        <time>2013-04-03T07:55:11.000Z</time>
      </trkpt>
      <trkpt lat="47.249" lon="4.95915">
        <ele>477.1</ele>
        <time>2013-04-03T07:55:12.000Z</time>
      </trkpt>
      <trkpt lat="47.24899" lon="4.95918">
        <ele>476.5</ele>
        <time>2013-04-03T07:55:13.000Z</time>
      </trkpt>
      <trkpt lat="47.24898" lon="4.95922">
        <ele>476.2</ele>
        <time>2013-04-03T07:55:15.000Z</time>
      </trkpt>
      <trkpt lat="47.24897" lon="4.95924">
        <ele>475.8</ele>
        <time>2013-04-03T07:55:16.000Z</time>
      </trkpt>
      <trkpt lat="47.24895" lon="4.95928">
        <ele>474.6</ele>
        <time>2013-04-03T07:55:18.000Z</time>
      </trkpt>
      <trkpt lat="47.24895" lon="4.9593">
        <ele>474.2</ele>
        <time>2013-04-03T07:55:19.000Z</time>
      </trkpt>
      <trkpt lat="47.24893" lon="4.95936">
        <ele>473.6</ele>
        <time>2013-04-03T07:55:22.000Z</time>
      </trkpt>
      <trkpt lat="47.24892" lon="4.95938">
        <ele>473.5</ele>
        <time>2013-04-03T07:55:23.000Z</time>
      </trkpt>
      <trkpt lat="47.2489" lon="4.95942">
        <ele>474.2</ele>
        <time>2013-04-03T07:55:25.000Z</time>
      </trkpt>
      <trkpt lat="47.24889" lon="4.95945">
        <ele>474.8</ele>
        <time>2013-04-03T07:55:26.000Z</time>
      </trkpt>
      <trkpt lat="47.24887" lon="4.9595">
        <ele>473.4</ele>
        <time>2013-04-03T07:55:28.000Z</time>
      </trkpt>
      <trkpt lat="47.24887" lon="4.95952">
        <ele>473.1</ele>
        <time>2013-04-03T07:55:29.000Z</time>
      </trkpt>
      <trkpt lat="47.24886" lon="4.95957">
        <ele>471.3</ele>
        <time>2013-04-03T07:55:32.000Z</time>
      </trkpt>
      <trkpt lat="47.24886" lon="4.95958">
        <ele>470.9</ele>
        <time>2013-04-03T07:55:33.000Z</time>
      </trkpt>
      <trkpt lat="47.24886" lon="4.95964">
        <ele>469</ele>
        <time>2013-04-03T07:55:36.000Z</time>
      </trkpt>
      <trkpt lat="47.24885" lon="4.95966">
        <ele>468.1</ele>
        <time>2013-04-03T07:55:37.000Z</time>
      </trkpt>
      <trkpt lat="47.24884" lon="4.95971">
        <ele>466</ele>
        <time>2013-04-03T07:55:40.000Z</time>
      </trkpt>
      <trkpt lat="47.24884" lon="4.95973">
        <ele>465.3</ele>
        <time>2013-04-03T07:55:41.000Z</time>
      </trkpt>
      <trkpt lat="47.24883" lon="4.95977">
        <ele>464</ele>
        <time>2013-04-03T07:55:44.000Z</time>
      </trkpt>
      <trkpt lat="47.24882" lon="4.9598">
        <ele>464</ele>
        <time>2013-04-03T07:55:45.000Z</time>
      </trkpt>
      <trkpt lat="47.24881" lon="4.95984">
        <ele>462.5</ele>
        <time>2013-04-03T07:55:47.000Z</time>
      </trkpt>
      <trkpt lat="47.24881" lon="4.95986">
        <ele>461.7</ele>
        <time>2013-04-03T07:55:48.000Z</time>
      </trkpt>
      <trkpt lat="47.24881" lon="4.9599">
        <ele>461.9</ele>
        <time>2013-04-03T07:55:50.000Z</time>
      </trkpt>
      <trkpt lat="47.2488" lon="4.95993">
        <ele>461.7</ele>
        <time>2013-04-03T07:55:51.000Z</time>
      </trkpt>
      <trkpt lat="47.2488" lon="4.95998">
        <ele>460</ele>
        <time>2013-04-03T07:55:53.000Z</time>
      </trkpt>
      <trkpt lat="47.2488" lon="4.96001">
        <ele>459.5</ele>
        <time>2013-04-03T07:55:54.000Z</time>
      </trkpt>
      <trkpt lat="47.24879" lon="4.96006">
        <ele>459.5</ele>
        <time>2013-04-03T07:55:56.000Z</time>
      </trkpt>
      <trkpt lat="47.24879" lon="4.96008">
        <ele>459.4</ele>
        <time>2013-04-03T07:55:57.000Z</time>
      </trkpt>
      <trkpt lat="47.24879" lon="4.96013">
        <ele>458.5</ele>
        <time>2013-04-03T07:55:59.000Z</time>
      </trkpt>
      <trkpt lat="47.24879" lon="4.96015">
        <ele>458.7</ele>
        <time>2013-04-03T07:56:00.000Z</time>
      </trkpt>
      <trkpt lat="47.2488" lon="4.96021">
        <ele>459.1</ele>
        <time>2013-04-03T07:56:03.000Z</time>
      </trkpt>
      <trkpt lat="47.2488" lon="4.96023">
        <ele>459</ele>
        <time>2013-04-03T07:56:04.000Z</time>
      </trkpt>
      <trkpt lat="47.24881" lon="4.96028">
        <ele>457.1</ele>
        <time>2013-04-03T07:56:07.000Z</time>
      </trkpt>
      <trkpt lat="47.2488" lon="4.9603">
        <ele>456.8</ele>
        <time>2013-04-03T07:56:08.000Z</time>
      </trkpt>
      <trkpt lat="47.2488" lon="4.96035">
        <ele>455.2</ele>
        <time>2013-04-03T07:56:11.000Z</time>
      </trkpt>
      <trkpt lat="47.2488" lon="4.96037">
        <ele>454.1</ele>
        <time>2013-04-03T07:56:12.000Z</time>
      </trkpt>
      <trkpt lat="47.2488" lon="4.96042">
        <ele>454.4</ele>
        <time>2013-04-03T07:56:14.000Z</time>
      </trkpt>
      <trkpt lat="47.2488" lon="4.96044">
        <ele>453.9</ele>
        <time>2013-04-03T07:56:15.000Z</time>
      </trkpt>
      <trkpt lat="47.2488" lon="4.9605">
        <ele>452.8</ele>
        <time>2013-04-03T07:56:17.000Z</time>
      </trkpt>
      <trkpt lat="47.2488" lon="4.96052">
        <ele>452.8</ele>
        <time>2013-04-03T07:56:18.000Z</time>
      </trkpt>
      <trkpt lat="47.2488" lon="4.96058">
        <ele>452.2</ele>
        <time>2013-04-03T07:56:20.000Z</time>
      </trkpt>
      <trkpt lat="47.2488" lon="4.9606">
        <ele>449.3</ele>
        <time>2013-04-03T07:56:21.000Z</time>
      </trkpt>
      <trkpt lat="47.2488" lon="4.96065">
        <ele>447.5</ele>
        <time>2013-04-03T07:56:24.000Z</time>
      </trkpt>
      <trkpt lat="47.2488" lon="4.96067">
        <ele>447.2</ele>
        <time>2013-04-03T07:56:25.000Z</time>
      </trkpt>
      <trkpt lat="47.24881" lon="4.96073">
        <ele>446.4</ele>
        <time>2013-04-03T07:56:28.000Z</time>
      </trkpt>
      <trkpt lat="47.24881" lon="4.96075">
        <ele>444.5</ele>
        <time>2013-04-03T07:56:29.000Z</time>
      </trkpt>
      <trkpt lat="47.24883" lon="4.96079">
        <ele>442.6</ele>
        <time>2013-04-03T07:56:32.000Z</time>
      </trkpt>
      <trkpt lat="47.24884" lon="4.96081">
        <ele>442.6</ele>
        <time>2013-04-03T07:56:33.000Z</time>
      </trkpt>
      <trkpt lat="47.24885" lon="4.96085">
        <ele>442.2</ele>
        <time>2013-04-03T07:56:35.000Z</time>
      </trkpt>
      <trkpt lat="47.24885" lon="4.96088">
        <ele>442.3</ele>
        <time>2013-04-03T07:56:36.000Z</time>
      </trkpt>
      <trkpt lat="47.24886" lon="4.96093">
        <ele>442</ele>
        <time>2013-04-03T07:56:38.000Z</time>
      </trkpt>
      <trkpt lat="47.24886" lon="4.96096">
        <ele>442.1</ele>
        <time>2013-04-03T07:56:39.000Z</time>
      </trkpt>
      <trkpt lat="47.24886" lon="4.96101">
        <ele>441.4</ele>
        <time>2013-04-03T07:56:41.000Z</time>
      </trkpt>
      <trkpt lat="47.24887" lon="4.96103">
        <ele>441.2</ele>
        <time>2013-04-03T07:56:42.000Z</time>
      </trkpt>
      <trkpt lat="47.24887" lon="4.96109">
        <ele>442</ele>
        <time>2013-04-03T07:56:44.000Z</time>
      </trkpt>
      <trkpt lat="47.24887" lon="4.96111">
        <ele>440.4</ele>
        <time>2013-04-03T07:56:45.000Z</time>
      </trkpt>
      <trkpt lat="47.24889" lon="4.96117">
        <ele>441.2</ele>
        <time>2013-04-03T07:56:48.000Z</time>
      </trkpt>
      <trkpt lat="47.2489" lon="4.96119">
        <ele>441.8</ele>
        <time>2013-04-03T07:56:49.000Z</time>
      </trkpt>
      <trkpt lat="47.2489" lon="4.96124">
        <ele>443.9</ele>
        <time>2013-04-03T07:56:51.000Z</time>
      </trkpt>
      <trkpt lat="47.2489" lon="4.96127">
        <ele>443.9</ele>
        <time>2013-04-03T07:56:52.000Z</time>
      </trkpt>
      <trkpt lat="47.2489" lon="4.96133">
        <ele>443.5</ele>
        <time>2013-04-03T07:56:54.000Z</time>
      </trkpt>
      <trkpt lat="47.2489" lon="4.96136">
        <ele>443.9</ele>
        <time>2013-04-03T07:56:55.000Z</time>
      </trkpt>
      <trkpt lat="47.2489" lon="4.96142">
        <ele>444.7</ele>
        <time>2013-04-03T07:56:57.000Z</time>
      </trkpt>
      <trkpt lat="47.2489" lon="4.96144">
        <ele>443.4</ele>
        <time>2013-04-03T07:56:58.000Z</time>
      </trkpt>
      <trkpt lat="47.2489" lon="4.96148">
        <ele>443.9</ele>
        <time>2013-04-03T07:57:00.000Z</time>
      </trkpt>
      <trkpt lat="47.2489" lon="4.96151">
        <ele>444.9</ele>
        <time>2013-04-03T07:57:01.000Z</time>
      </trkpt>
      <trkpt lat="47.2489" lon="4.96156">
        <ele>445.6</ele>
        <time>2013-04-03T07:57:03.000Z</time>
      </trkpt>
      <trkpt lat="47.2489" lon="4.96159">
        <ele>446.9</ele>
        <time>2013-04-03T07:57:04.000Z</time>
      </trkpt>
      <trkpt lat="47.2489" lon="4.96163">
        <ele>447.9</ele>
        <time>2013-04-03T07:57:05.000Z</time>
      </trkpt>
      <trkpt lat="47.2489" lon="4.96166">
        <ele>447.8</ele>
        <time>2013-04-03T07:57:06.000Z</time>
      </trkpt>
      <trkpt lat="47.24891" lon="4.96172">
        <ele>447.2</ele>
        <time>2013-04-03T07:57:08.000Z</time>
      </trkpt>
      <trkpt lat="47.24891" lon="4.96174">
        <ele>447.1</ele>
        <time>2013-04-03T07:57:09.000Z</time>
      </trkpt>
      <trkpt lat="47.24891" lon="4.9618">
        <ele>447.1</ele>
        <time>2013-04-03T07:57:11.000Z</time>
      </trkpt>
      <trkpt lat="47.24891" lon="4.96183">
        <ele>446.6</ele>
        <time>2013-04-03T07:57:12.000Z</time>
      </trkpt>
      <trkpt lat="47.24892" lon="4.96188">
        <ele>445.9</ele>
        <time>2013-04-03T07:57:14.000Z</time>
      </trkpt>
      <trkpt lat="47.24892" lon="4.9619">
        <ele>445.6</ele>
        <time>2013-04-03T07:57:15.000Z</time>
      </trkpt>
      <trkpt lat="47.24893" lon="4.96195">
        <ele>443.8</ele>
        <time>2013-04-03T07:57:18.000Z</time>
      </trkpt>
      <trkpt lat="47.24893" lon="4.96197">
        <ele>443.8</ele>
        <time>2013-04-03T07:57:19.000Z</time>
      </trkpt>
      <trkpt lat="47.24894" lon="4.96201">
        <ele>444.5</ele>
        <time>2013-04-03T07:57:21.000Z</time>
      </trkpt>
      <trkpt lat="47.24895" lon="4.96203">
        <ele>443.8</ele>
        <time>2013-04-03T07:57:22.000Z</time>
      </trkpt>
      <trkpt lat="47.24897" lon="4.96209">
        <ele>443.4</ele>
        <time>2013-04-03T07:57:25.000Z</time>
      </trkpt>
      <trkpt lat="47.24897" lon="4.96211">
        <ele>443.3</ele>
        <time>2013-04-03T07:57:26.000Z</time>
      </trkpt>
      <trkpt lat="47.24899" lon="4.96216">
        <ele>443.6</ele>
        <time>2013-04-03T07:57:29.000Z</time>
      </trkpt>
      <trkpt lat="47.24899" lon="4.96219">
        <ele>444</ele>
        <time>2013-04-03T07:57:30.000Z</time>
      </trkpt>
      <trkpt lat="47.249" lon="4.96224">
        <ele>444.4</ele>
        <time>2013-04-03T07:57:32.000Z</time>
      </trkpt>
      <trkpt lat="47.24901" lon="4.96226">
        <ele>443.7</ele>
        <time>2013-04-03T07:57:33.000Z</time>
      </trkpt>
      <trkpt lat="47.24902" lon="4.9623">
        <ele>443.9</ele>
        <time>2013-04-03T07:57:35.000Z</time>
      </trkpt>
      <trkpt lat="47.24902" lon="4.96233">
        <ele>443.5</ele>
        <time>2013-04-03T07:57:36.000Z</time>
      </trkpt>
      <trkpt lat="47.24904" lon="4.96237">
        <ele>443.4</ele>
        <time>2013-04-03T07:57:38.000Z</time>
      </trkpt>
      <trkpt lat="47.24904" lon="4.9624">
        <ele>443</ele>
        <time>2013-04-03T07:57:39.000Z</time>
      </trkpt>
      <trkpt lat="47.24906" lon="4.96244">
        <ele>442.2</ele>
        <time>2013-04-03T07:57:41.000Z</time>
      </trkpt>
      <trkpt lat="47.24906" lon="4.96246">
        <ele>441.1</ele>
        <time>2013-04-03T07:57:42.000Z</time>
      </trkpt>
      <trkpt lat="47.24908" lon="4.9625">
        <ele>440</ele>
        <time>2013-04-03T07:57:45.000Z</time>
      </trkpt>
      <trkpt lat="47.24908" lon="4.96252">
        <ele>440.5</ele>
        <time>2013-04-03T07:57:46.000Z</time>
      </trkpt>
      <trkpt lat="47.2491" lon="4.96255">
        <ele>440.7</ele>
        <time>2013-04-03T07:57:48.000Z</time>
      </trkpt>
      <trkpt lat="47.24911" lon="4.96257">
        <ele>440.5</ele>
        <time>2013-04-03T07:57:49.000Z</time>
      </trkpt>
      <trkpt lat="47.24913" lon="4.96261">
        <ele>440.5</ele>
        <time>2013-04-03T07:57:51.000Z</time>
      </trkpt>
      <trkpt lat="47.24914" lon="4.96264">
        <ele>440.5</ele>
        <time>2013-04-03T07:57:52.000Z</time>
      </trkpt>
      <trkpt lat="47.24915" lon="4.96269">
        <ele>441.2</ele>
        <time>2013-04-03T07:57:54.000Z</time>
      </trkpt>
      <trkpt lat="47.24916" lon="4.96272">
        <ele>441.4</ele>
        <time>2013-04-03T07:57:55.000Z</time>
      </trkpt>
      <trkpt lat="47.24917" lon="4.96276">
        <ele>441</ele>
        <time>2013-04-03T07:57:57.000Z</time>
      </trkpt>
      <trkpt lat="47.24918" lon="4.96278">
        <ele>440.5</ele>
        <time>2013-04-03T07:57:58.000Z</time>
      </trkpt>
      <trkpt lat="47.2492" lon="4.96282">
        <ele>439.7</ele>
        <time>2013-04-03T07:58:00.000Z</time>
      </trkpt>
      <trkpt lat="47.24921" lon="4.96284">
        <ele>440.1</ele>
        <time>2013-04-03T07:58:01.000Z</time>
      </trkpt>
      <trkpt lat="47.24922" lon="4.96289">
        <ele>439.7</ele>
        <time>2013-04-03T07:58:03.000Z</time>
      </trkpt>
      <trkpt lat="47.24923" lon="4.96291">
        <ele>439.7</ele>
        <time>2013-04-03T07:58:04.000Z</time>
      </trkpt>
      <trkpt lat="47.24924" lon="4.96297">
        <ele>436.8</ele>
        <time>2013-04-03T07:58:07.000Z</time>
      </trkpt>
      <trkpt lat="47.24925" lon="4.96298">
        <ele>436.9</ele>
        <time>2013-04-03T07:58:08.000Z</time>
      </trkpt>
      <trkpt lat="47.24926" lon="4.96302">
        <ele>437.4</ele>
        <time>2013-04-03T07:58:10.000Z</time>
      </trkpt>
      <trkpt lat="47.24926" lon="4.96305">
        <ele>437.1</ele>
        <time>2013-04-03T07:58:11.000Z</time>
      </trkpt>
      <trkpt lat="47.24928" lon="4.9631">
        <ele>436.2</ele>
        <time>2013-04-03T07:58:13.000Z</time>
      </trkpt>
      <trkpt lat="47.24929" lon="4.96312">
        <ele>433.9</ele>
        <time>2013-04-03T07:58:14.000Z</time>
      </trkpt>
      <trkpt lat="47.24932" lon="4.96317">
        <ele>432.8</ele>
        <time>2013-04-03T07:58:18.000Z</time>
      </trkpt>
      <trkpt lat="47.24933" lon="4.96319">
        <ele>432</ele>
        <time>2013-04-03T07:58:19.000Z</time>
      </trkpt>
      <trkpt lat="47.24935" lon="4.96324">
        <ele>430.8</ele>
        <time>2013-04-03T07:58:22.000Z</time>
      </trkpt>
      <trkpt lat="47.24935" lon="4.96325">
        <ele>429.8</ele>
        <time>2013-04-03T07:58:23.000Z</time>
      </trkpt>
      <trkpt lat="47.24938" lon="4.96329">
        <ele>429.1</ele>
        <time>2013-04-03T07:58:29.000Z</time>
      </trkpt>
      <trkpt lat="47.24939" lon="4.96331">
        <ele>429</ele>
        <time>2013-04-03T07:58:30.000Z</time>
      </trkpt>
      <trkpt lat="47.24941" lon="4.96335">
        <ele>428.2</ele>
        <time>2013-04-03T07:58:32.000Z</time>
      </trkpt>
      <trkpt lat="47.24942" lon="4.96337">
        <ele>427.3</ele>
        <time>2013-04-03T07:58:33.000Z</time>
      </trkpt>
      <trkpt lat="47.24943" lon="4.96343">
        <ele>426.5</ele>
        <time>2013-04-03T07:58:36.000Z</time>
      </trkpt>
      <trkpt lat="47.24943" lon="4.96345">
        <ele>429.2</ele>
        <time>2013-04-03T07:58:37.000Z</time>
      </trkpt>
      <trkpt lat="47.24943" lon="4.96349">
        <ele>428.4</ele>
        <time>2013-04-03T07:58:39.000Z</time>
      </trkpt>
      <trkpt lat="47.24942" lon="4.96352">
        <ele>428.6</ele>
        <time>2013-04-03T07:58:40.000Z</time>
      </trkpt>
      <trkpt lat="47.24941" lon="4.96356">
        <ele>428.4</ele>
        <time>2013-04-03T07:58:43.000Z</time>
      </trkpt>
      <trkpt lat="47.2494" lon="4.96358">
        <ele>428.7</ele>
        <time>2013-04-03T07:58:44.000Z</time>
      </trkpt>
      <trkpt lat="47.24938" lon="4.96361">
        <ele>428.9</ele>
        <time>2013-04-03T07:58:47.000Z</time>
      </trkpt>
      <trkpt lat="47.24936" lon="4.96362">
        <ele>428.8</ele>
        <time>2013-04-03T07:58:48.000Z</time>
      </trkpt>
      <trkpt lat="47.24933" lon="4.96363">
        <ele>429.1</ele>
        <time>2013-04-03T07:58:50.000Z</time>
      </trkpt>
      <trkpt lat="47.24931" lon="4.96363">
        <ele>428.5</ele>
        <time>2013-04-03T07:58:51.000Z</time>
      </trkpt>
      <trkpt lat="47.24927" lon="4.96364">
        <ele>428.2</ele>
        <time>2013-04-03T07:58:54.000Z</time>
      </trkpt>
      <trkpt lat="47.24926" lon="4.96365">
        <ele>428.1</ele>
        <time>2013-04-03T07:58:55.000Z</time>
      </trkpt>
      <trkpt lat="47.24924" lon="4.96366">
        <ele>427.7</ele>
        <time>2013-04-03T07:58:58.000Z</time>
      </trkpt>
      <trkpt lat="47.24922" lon="4.96366">
        <ele>428.4</ele>
        <time>2013-04-03T07:58:59.000Z</time>
      </trkpt>
      <trkpt lat="47.24918" lon="4.96367">
        <ele>428.4</ele>
        <time>2013-04-03T07:59:01.000Z</time>
      </trkpt>
      <trkpt lat="47.24916" lon="4.96367">
        <ele>426.7</ele>
        <time>2013-04-03T07:59:02.000Z</time>
      </trkpt>
      <trkpt lat="47.24913" lon="4.96367">
        <ele>426.2</ele>
        <time>2013-04-03T07:59:04.000Z</time>
      </trkpt>
      <trkpt lat="47.24911" lon="4.96366">
        <ele>426.3</ele>
        <time>2013-04-03T07:59:05.000Z</time>
      </trkpt>
      <trkpt lat="47.24909" lon="4.96366">
        <ele>427.3</ele>
        <time>2013-04-03T07:59:06.000Z</time>
      </trkpt>
      <trkpt lat="47.24906" lon="4.96366">
        <ele>427.3</ele>
        <time>2013-04-03T07:59:07.000Z</time>
      </trkpt>
      <trkpt lat="47.24902" lon="4.96365">
        <ele>426.1</ele>
        <time>2013-04-03T07:59:09.000Z</time>
      </trkpt>
      <trkpt lat="47.249" lon="4.96365">
        <ele>425.6</ele>
        <time>2013-04-03T07:59:10.000Z</time>
      </trkpt>
      <trkpt lat="47.24897" lon="4.96364">
        <ele>424.9</ele>
        <time>2013-04-03T07:59:12.000Z</time>
      </trkpt>
      <trkpt lat="47.24895" lon="4.96364">
        <ele>425</ele>
        <time>2013-04-03T07:59:13.000Z</time>
      </trkpt>
      <trkpt lat="47.24891" lon="4.96364">
        <ele>424.6</ele>
        <time>2013-04-03T07:59:16.000Z</time>
      </trkpt>
      <trkpt lat="47.24889" lon="4.96365">
        <ele>424.8</ele>
        <time>2013-04-03T07:59:17.000Z</time>
      </trkpt>
      <trkpt lat="47.24885" lon="4.96365">
        <ele>424.2</ele>
        <time>2013-04-03T07:59:19.000Z</time>
      </trkpt>
      <trkpt lat="47.24883" lon="4.96366">
        <ele>423.7</ele>
        <time>2013-04-03T07:59:20.000Z</time>
      </trkpt>
      <trkpt lat="47.2488" lon="4.96369">
        <ele>423.1</ele>
        <time>2013-04-03T07:59:23.000Z</time>
      </trkpt>
      <trkpt lat="47.24879" lon="4.9637">
        <ele>423.2</ele>
        <time>2013-04-03T07:59:24.000Z</time>
      </trkpt>
      <trkpt lat="47.24877" lon="4.96376">
        <ele>421.3</ele>
        <time>2013-04-03T07:59:27.000Z</time>
      </trkpt>
      <trkpt lat="47.24876" lon="4.96378">
        <ele>420.9</ele>
        <time>2013-04-03T07:59:28.000Z</time>
      </trkpt>
      <trkpt lat="47.24874" lon="4.96383">
        <ele>419.8</ele>
        <time>2013-04-03T07:59:30.000Z</time>
      </trkpt>
      <trkpt lat="47.24874" lon="4.96385">
        <ele>419.6</ele>
        <time>2013-04-03T07:59:31.000Z</time>
      </trkpt>
      <trkpt lat="47.24873" lon="4.9639">
        <ele>417.5</ele>
        <time>2013-04-03T07:59:34.000Z</time>
      </trkpt>
      <trkpt lat="47.24872" lon="4.96392">
        <ele>417.5</ele>
        <time>2013-04-03T07:59:35.000Z</time>
      </trkpt>
      <trkpt lat="47.24872" lon="4.96397">
        <ele>416.1</ele>
        <time>2013-04-03T07:59:38.000Z</time>
      </trkpt>
      <trkpt lat="47.24871" lon="4.96399">
        <ele>415.5</ele>
        <time>2013-04-03T07:59:39.000Z</time>
      </trkpt>
      <trkpt lat="47.2487" lon="4.96403">
        <ele>415.9</ele>
        <time>2013-04-03T07:59:41.000Z</time>
      </trkpt>
      <trkpt lat="47.2487" lon="4.96406">
        <ele>414.9</ele>
        <time>2013-04-03T07:59:42.000Z</time>
      </trkpt>
      <trkpt lat="47.24868" lon="4.96411">
        <ele>413.4</ele>
        <time>2013-04-03T07:59:45.000Z</time>
      </trkpt>
      <trkpt lat="47.24868" lon="4.96413">
        <ele>412.6</ele>
        <time>2013-04-03T07:59:46.000Z</time>
      </trkpt>
      <trkpt lat="47.24867" lon="4.96419">
        <ele>409</ele>
        <time>2013-04-03T07:59:50.000Z</time>
      </trkpt>
      <trkpt lat="47.24867" lon="4.9642">
        <ele>407.9</ele>
        <time>2013-04-03T07:59:51.000Z</time>
      </trkpt>
      <trkpt lat="47.24866" lon="4.96426">
        <ele>407.3</ele>
        <time>2013-04-03T07:59:54.000Z</time>
      </trkpt>
      <trkpt lat="47.24865" lon="4.96429">
        <ele>407.4</ele>
        <time>2013-04-03T07:59:55.000Z</time>
      </trkpt>
      <trkpt lat="47.24864" lon="4.96434">
        <ele>407</ele>
        <time>2013-04-03T07:59:57.000Z</time>
      </trkpt>
      <trkpt lat="47.24864" lon="4.96437">
        <ele>407.1</ele>
        <time>2013-04-03T07:59:58.000Z</time>
      </trkpt>
      <trkpt lat="47.24864" lon="4.9644">
        <ele>407.5</ele>
        <time>2013-04-03T07:59:59.000Z</time>
      </trkpt>
      <trkpt lat="47.24864" lon="4.96444">
        <ele>407.4</ele>
        <time>2013-04-03T08:00:00.000Z</time>
      </trkpt>
      <trkpt lat="47.24865" lon="4.96449">
        <ele>407.3</ele>
        <time>2013-04-03T08:00:02.000Z</time>
      </trkpt>
      <trkpt lat="47.24865" lon="4.96451">
        <ele>407.4</ele>
        <time>2013-04-03T08:00:03.000Z</time>
      </trkpt>
      <trkpt lat="47.24867" lon="4.96457">
        <ele>409.7</ele>
        <time>2013-04-03T08:00:05.000Z</time>
      </trkpt>
      <trkpt lat="47.24868" lon="4.9646">
        <ele>410.6</ele>
        <time>2013-04-03T08:00:06.000Z</time>
      </trkpt>
      <trkpt lat="47.24868" lon="4.96463">
        <ele>411.6</ele>
        <time>2013-04-03T08:00:07.000Z</time>
      </trkpt>
      <trkpt lat="47.24869" lon="4.96467">
        <ele>412.7</ele>
        <time>2013-04-03T08:00:08.000Z</time>
      </trkpt>
      <trkpt lat="47.2487" lon="4.96471">
        <ele>411.6</ele>
        <time>2013-04-03T08:00:10.000Z</time>
      </trkpt>
      <trkpt lat="47.2487" lon="4.96473">
        <ele>411.9</ele>
        <time>2013-04-03T08:00:11.000Z</time>
      </trkpt>
      <trkpt lat="47.24871" lon="4.9648">
        <ele>414.5</ele>
        <time>2013-04-03T08:00:13.000Z</time>
      </trkpt>
      <trkpt lat="47.24872" lon="4.96483">
        <ele>415.5</ele>
        <time>2013-04-03T08:00:14.000Z</time>
      </trkpt>
      <trkpt lat="47.24871" lon="4.9649">
        <ele>414.5</ele>
        <time>2013-04-03T08:00:16.000Z</time>
      </trkpt>
      <trkpt lat="47.24871" lon="4.96492">
        <ele>414.7</ele>
        <time>2013-04-03T08:00:17.000Z</time>
      </trkpt>
      <trkpt lat="47.24872" lon="4.96498">
        <ele>414.9</ele>
        <time>2013-04-03T08:00:21.000Z</time>
      </trkpt>
      <trkpt lat="47.24872" lon="4.96499">
        <ele>414.8</ele>
        <time>2013-04-03T08:00:22.000Z</time>
      </trkpt>
      <trkpt lat="47.24873" lon="4.96505">
        <ele>415.1</ele>
        <time>2013-04-03T08:00:25.000Z</time>
      </trkpt>
      <trkpt lat="47.24873" lon="4.96507">
        <ele>415.2</ele>
        <time>2013-04-03T08:00:26.000Z</time>
      </trkpt>
      <trkpt lat="47.24875" lon="4.96512">
        <ele>413.9</ele>
        <time>2013-04-03T08:00:29.000Z</time>
      </trkpt>
      <trkpt lat="47.24875" lon="4.96514">
        <ele>413.8</ele>
        <time>2013-04-03T08:00:30.000Z</time>
      </trkpt>
      <trkpt lat="47.24877" lon="4.9652">
        <ele>412.5</ele>
        <time>2013-04-03T08:00:33.000Z</time>
      </trkpt>
      <trkpt lat="47.24877" lon="4.96522">
        <ele>412.6</ele>
        <time>2013-04-03T08:00:34.000Z</time>
      </trkpt>
      <trkpt lat="47.24877" lon="4.96526">
        <ele>412.4</ele>
        <time>2013-04-03T08:00:36.000Z</time>
      </trkpt>
      <trkpt lat="47.24878" lon="4.96528">
        <ele>412.5</ele>
        <time>2013-04-03T08:00:37.000Z</time>
      </trkpt>
      <trkpt lat="47.2488" lon="4.96533">
        <ele>413</ele>
        <time>2013-04-03T08:00:39.000Z</time>
      </trkpt>
      <trkpt lat="47.24881" lon="4.96535">
        <ele>413.4</ele>
        <time>2013-04-03T08:00:40.000Z</time>
      </trkpt>
      <trkpt lat="47.24882" lon="4.96539">
        <ele>413.8</ele>
        <time>2013-04-03T08:00:42.000Z</time>
      </trkpt>
      <trkpt lat="47.24883" lon="4.96541">
        <ele>413.7</ele>
        <time>2013-04-03T08:00:43.000Z</time>
      </trkpt>
      <trkpt lat="47.24886" lon="4.96546">
        <ele>414.9</ele>
        <time>2013-04-03T08:00:46.000Z</time>
      </trkpt>
      <trkpt lat="47.24887" lon="4.96547">
        <ele>414.5</ele>
        <time>2013-04-03T08:00:47.000Z</time>
      </trkpt>
      <trkpt lat="47.2489" lon="4.96551">
        <ele>413.1</ele>
        <time>2013-04-03T08:00:50.000Z</time>
      </trkpt>
      <trkpt lat="47.24891" lon="4.96553">
        <ele>413.2</ele>
        <time>2013-04-03T08:00:51.000Z</time>
      </trkpt>
      <trkpt lat="47.24894" lon="4.96556">
        <ele>412.9</ele>
        <time>2013-04-03T08:00:54.000Z</time>
      </trkpt>
      <trkpt lat="47.24895" lon="4.96558">
        <ele>414.1</ele>
        <time>2013-04-03T08:00:55.000Z</time>
      </trkpt>
      <trkpt lat="47.24897" lon="4.96563">
        <ele>414.4</ele>
        <time>2013-04-03T08:00:57.000Z</time>
      </trkpt>
      <trkpt lat="47.24898" lon="4.96565">
        <ele>414</ele>
        <time>2013-04-03T08:00:58.000Z</time>
      </trkpt>
      <trkpt lat="47.24899" lon="4.9657">
        <ele>412.4</ele>
        <time>2013-04-03T08:01:01.000Z</time>
      </trkpt>
      <trkpt lat="47.24899" lon="4.96571">
        <ele>412.4</ele>
        <time>2013-04-03T08:01:02.000Z</time>
      </trkpt>
      <trkpt lat="47.249" lon="4.96577">
        <ele>414.3</ele>
        <time>2013-04-03T08:01:05.000Z</time>
      </trkpt>
      <trkpt lat="47.24901" lon="4.9658">
        <ele>414.8</ele>
        <time>2013-04-03T08:01:06.000Z</time>
      </trkpt>
      <trkpt lat="47.24901" lon="4.96585">
        <ele>414.2</ele>
        <time>2013-04-03T08:01:08.000Z</time>
      </trkpt>
      <trkpt lat="47.24901" lon="4.96587">
        <ele>412.9</ele>
        <time>2013-04-03T08:01:09.000Z</time>
      </trkpt>
      <trkpt lat="47.24903" lon="4.96592">
        <ele>411.1</ele>
        <time>2013-04-03T08:01:12.000Z</time>
      </trkpt>
      <trkpt lat="47.24903" lon="4.96594">
        <ele>411.6</ele>
        <time>2013-04-03T08:01:13.000Z</time>
      </trkpt>
      <trkpt lat="47.24904" lon="4.96599">
        <ele>412.7</ele>
        <time>2013-04-03T08:01:15.000Z</time>
      </trkpt>
      <trkpt lat="47.24904" lon="4.96602">
        <ele>413</ele>
        <time>2013-04-03T08:01:16.000Z</time>
      </trkpt>
      <trkpt lat="47.24906" lon="4.96607">
        <ele>413.1</ele>
        <time>2013-04-03T08:01:18.000Z</time>
      </trkpt>
      <trkpt lat="47.24907" lon="4.96609">
        <ele>412.6</ele>
        <time>2013-04-03T08:01:19.000Z</time>
      </trkpt>
      <trkpt lat="47.24909" lon="4.96612">
        <ele>412.5</ele>
        <time>2013-04-03T08:01:21.000Z</time>
      </trkpt>
      <trkpt lat="47.2491" lon="4.96613">
        <ele>411.4</ele>
        <time>2013-04-03T08:01:22.000Z</time>
      </trkpt>
      <trkpt lat="47.24915" lon="4.96615">
        <ele>409.7</ele>
        <time>2013-04-03T08:01:26.000Z</time>
      </trkpt>
      <trkpt lat="47.24916" lon="4.96616">
        <ele>409.5</ele>
        <time>2013-04-03T08:01:27.000Z</time>
      </trkpt>
      <trkpt lat="47.24919" lon="4.96618">
        <ele>408.6</ele>
        <time>2013-04-03T08:01:30.000Z</time>
      </trkpt>
      <trkpt lat="47.2492" lon="4.96619">
        <ele>408.7</ele>
        <time>2013-04-03T08:01:31.000Z</time>
      </trkpt>
      <trkpt lat="47.24924" lon="4.96622">
        <ele>407</ele>
        <time>2013-04-03T08:01:34.000Z</time>
      </trkpt>
      <trkpt lat="47.24925" lon="4.96624">
        <ele>406.8</ele>
        <time>2013-04-03T08:01:35.000Z</time>
      </trkpt>
      <trkpt lat="47.24928" lon="4.96626">
        <ele>407.3</ele>
        <time>2013-04-03T08:01:37.000Z</time>
      </trkpt>
      <trkpt lat="47.2493" lon="4.96628">
        <ele>407.3</ele>
        <time>2013-04-03T08:01:38.000Z</time>
      </trkpt>
      <trkpt lat="47.24932" lon="4.96631">
        <ele>406.8</ele>
        <time>2013-04-03T08:01:40.000Z</time>
      </trkpt>
      <trkpt lat="47.24934" lon="4.96633">
        <ele>407.8</ele>
        <time>2013-04-03T08:01:41.000Z</time>
      </trkpt>
      <trkpt lat="47.24935" lon="4.96638">
        <ele>408.5</ele>
        <time>2013-04-03T08:01:43.000Z</time>
      </trkpt>
      <trkpt lat="47.24936" lon="4.9664">
        <ele>408.3</ele>
        <time>2013-04-03T08:01:44.000Z</time>
      </trkpt>
      <trkpt lat="47.24938" lon="4.96645">
        <ele>408.2</ele>
        <time>2013-04-03T08:01:47.000Z</time>
      </trkpt>
      <trkpt lat="47.24939" lon="4.96647">
        <ele>407.7</ele>
        <time>2013-04-03T08:01:48.000Z</time>
      </trkpt>
      <trkpt lat="47.24941" lon="4.9665">
        <ele>407.1</ele>
        <time>2013-04-03T08:01:50.000Z</time>
      </trkpt>
      <trkpt lat="47.24942" lon="4.96653">
        <ele>407.8</ele>
        <time>2013-04-03T08:01:51.000Z</time>
      </trkpt>
      <trkpt lat="47.24943" lon="4.96657">
        <ele>405.8</ele>
        <time>2013-04-03T08:01:53.000Z</time>
      </trkpt>
      <trkpt lat="47.24944" lon="4.96658">
        <ele>405.5</ele>
        <time>2013-04-03T08:01:54.000Z</time>
      </trkpt>
      <trkpt lat="47.24946" lon="4.96664">
        <ele>400.6</ele>
        <time>2013-04-03T08:01:58.000Z</time>
      </trkpt>
      <trkpt lat="47.24947" lon="4.96666">
        <ele>401.2</ele>
        <time>2013-04-03T08:01:59.000Z</time>
      </trkpt>
      <trkpt lat="47.24948" lon="4.9667">
        <ele>400.4</ele>
        <time>2013-04-03T08:02:01.000Z</time>
      </trkpt>
      <trkpt lat="47.24948" lon="4.96673">
        <ele>399.8</ele>
        <time>2013-04-03T08:02:02.000Z</time>
      </trkpt>
      <trkpt lat="47.24948" lon="4.96678">
        <ele>399.1</ele>
        <time>2013-04-03T08:02:04.000Z</time>
      </trkpt>
      <trkpt lat="47.24948" lon="4.9668">
        <ele>398.4</ele>
        <time>2013-04-03T08:02:05.000Z</time>
      </trkpt>
      <trkpt lat="47.24949" lon="4.96685">
        <ele>398.7</ele>
        <time>2013-04-03T08:02:07.000Z</time>
      </trkpt>
      <trkpt lat="47.24949" lon="4.96688">
        <ele>398.8</ele>
        <time>2013-04-03T08:02:08.000Z</time>
      </trkpt>
      <trkpt lat="47.24949" lon="4.96692">
        <ele>398.4</ele>
        <time>2013-04-03T08:02:10.000Z</time>
      </trkpt>
      <trkpt lat="47.24949" lon="4.96695">
        <ele>398.4</ele>
        <time>2013-04-03T08:02:11.000Z</time>
      </trkpt>
      <trkpt lat="47.24949" lon="4.96701">
        <ele>397.9</ele>
        <time>2013-04-03T08:02:13.000Z</time>
      </trkpt>
      <trkpt lat="47.2495" lon="4.96703">
        <ele>396.2</ele>
        <time>2013-04-03T08:02:14.000Z</time>
      </trkpt>
      <trkpt lat="47.24951" lon="4.96709">
        <ele>394.7</ele>
        <time>2013-04-03T08:02:17.000Z</time>
      </trkpt>
      <trkpt lat="47.24951" lon="4.9671">
        <ele>394.7</ele>
        <time>2013-04-03T08:02:18.000Z</time>
      </trkpt>
      <trkpt lat="47.24952" lon="4.96717">
        <ele>393.9</ele>
        <time>2013-04-03T08:02:21.000Z</time>
      </trkpt>
      <trkpt lat="47.24952" lon="4.96719">
        <ele>393.6</ele>
        <time>2013-04-03T08:02:22.000Z</time>
      </trkpt>
      <trkpt lat="47.24953" lon="4.96724">
        <ele>392.1</ele>
        <time>2013-04-03T08:02:25.000Z</time>
      </trkpt>
      <trkpt lat="47.24954" lon="4.96725">
        <ele>392.2</ele>
        <time>2013-04-03T08:02:26.000Z</time>
      </trkpt>
      <trkpt lat="47.24956" lon="4.96729">
        <ele>391.4</ele>
        <time>2013-04-03T08:02:29.000Z</time>
      </trkpt>
      <trkpt lat="47.24957" lon="4.96731">
        <ele>391.1</ele>
        <time>2013-04-03T08:02:30.000Z</time>
      </trkpt>
      <trkpt lat="47.2496" lon="4.96734">
        <ele>390.3</ele>
        <time>2013-04-03T08:02:33.000Z</time>
      </trkpt>
      <trkpt lat="47.24961" lon="4.96736">
        <ele>390.1</ele>
        <time>2013-04-03T08:02:34.000Z</time>
      </trkpt>
      <trkpt lat="47.24962" lon="4.9674">
        <ele>391</ele>
        <time>2013-04-03T08:02:36.000Z</time>
      </trkpt>
      <trkpt lat="47.24963" lon="4.96742">
        <ele>390.8</ele>
        <time>2013-04-03T08:02:37.000Z</time>
      </trkpt>
      <trkpt lat="47.24966" lon="4.96747">
        <ele>390</ele>
        <time>2013-04-03T08:02:40.000Z</time>
      </trkpt>
      <trkpt lat="47.24967" lon="4.96748">
        <ele>390.8</ele>
        <time>2013-04-03T08:02:41.000Z</time>
      </trkpt>
      <trkpt lat="47.2497" lon="4.96752">
        <ele>391.9</ele>
        <time>2013-04-03T08:02:43.000Z</time>
      </trkpt>
      <trkpt lat="47.24971" lon="4.96754">
        <ele>391.3</ele>
        <time>2013-04-03T08:02:44.000Z</time>
      </trkpt>
      <trkpt lat="47.24973" lon="4.96757">
        <ele>390</ele>
        <time>2013-04-03T08:02:46.000Z</time>
      </trkpt>
      <trkpt lat="47.24974" lon="4.96758">
        <ele>389.7</ele>
        <time>2013-04-03T08:02:47.000Z</time>
      </trkpt>
      <trkpt lat="47.24977" lon="4.96762">
        <ele>391</ele>
        <time>2013-04-03T08:02:49.000Z</time>
      </trkpt>
      <trkpt lat="47.24978" lon="4.96764">
        <ele>390.7</ele>
        <time>2013-04-03T08:02:50.000Z</time>
      </trkpt>
      <trkpt lat="47.24981" lon="4.96767">
        <ele>389</ele>
        <time>2013-04-03T08:02:52.000Z</time>
      </trkpt>
      <trkpt lat="47.24982" lon="4.96768">
        <ele>387.9</ele>
        <time>2013-04-03T08:02:53.000Z</time>
      </trkpt>
      <trkpt lat="47.24984" lon="4.96771">
        <ele>388.6</ele>
        <time>2013-04-03T08:02:56.000Z</time>
      </trkpt>
      <trkpt lat="47.24985" lon="4.96773">
        <ele>388.4</ele>
        <time>2013-04-03T08:02:57.000Z</time>
      </trkpt>
      <trkpt lat="47.24989" lon="4.96777">
        <ele>387</ele>
        <time>2013-04-03T08:03:00.000Z</time>
      </trkpt>
      <trkpt lat="47.24989" lon="4.96778">
        <ele>386.7</ele>
        <time>2013-04-03T08:03:01.000Z</time>
      </trkpt>
      <trkpt lat="47.24991" lon="4.96783">
        <ele>387</ele>
        <time>2013-04-03T08:03:06.000Z</time>
      </trkpt>
      <trkpt lat="47.24991" lon="4.96785">
        <ele>387.1</ele>
        <time>2013-04-03T08:03:07.000Z</time>
      </trkpt>
      <trkpt lat="47.24992" lon="4.9679">
        <ele>385.4</ele>
        <time>2013-04-03T08:03:10.000Z</time>
      </trkpt>
      <trkpt lat="47.24992" lon="4.96791">
        <ele>386.2</ele>
        <time>2013-04-03T08:03:11.000Z</time>
      </trkpt>
      <trkpt lat="47.24989" lon="4.96794">
        <ele>387.1</ele>
        <time>2013-04-03T08:03:13.000Z</time>
      </trkpt>
      <trkpt lat="47.24988" lon="4.96795">
        <ele>387.3</ele>
        <time>2013-04-03T08:03:14.000Z</time>
      </trkpt>
      <trkpt lat="47.24984" lon="4.96797">
        <ele>386.9</ele>
        <time>2013-04-03T08:03:16.000Z</time>
      </trkpt>
      <trkpt lat="47.24983" lon="4.96799">
        <ele>386.4</ele>
        <time>2013-04-03T08:03:17.000Z</time>
      </trkpt>
      <trkpt lat="47.24981" lon="4.96803">
        <ele>385.5</ele>
        <time>2013-04-03T08:03:19.000Z</time>
      </trkpt>
      <trkpt lat="47.24981" lon="4.96805">
        <ele>384.1</ele>
        <time>2013-04-03T08:03:20.000Z</time>
      </trkpt>
      <trkpt lat="47.24984" lon="4.96801">
        <ele>379.6</ele>
        <time>2013-04-03T08:03:55.000Z</time>
      </trkpt>
      <trkpt lat="47.24986" lon="4.968">
        <ele>379.6</ele>
        <time>2013-04-03T08:03:56.000Z</time>
      </trkpt>
      <trkpt lat="47.2499" lon="4.968">
        <ele>377.8</ele>
        <time>2013-04-03T08:03:58.000Z</time>
      </trkpt>
      <trkpt lat="47.24991" lon="4.96801">
        <ele>376.8</ele>
        <time>2013-04-03T08:03:59.000Z</time>
      </trkpt>
      <trkpt lat="47.24994" lon="4.96803">
        <ele>375.1</ele>
        <time>2013-04-03T08:04:01.000Z</time>
      </trkpt>
      <trkpt lat="47.24995" lon="4.96805">
        <ele>374.9</ele>
        <time>2013-04-03T08:04:02.000Z</time>
      </trkpt>
      <trkpt lat="47.24997" lon="4.96809">
        <ele>374.4</ele>
        <time>2013-04-03T08:04:04.000Z</time>
      </trkpt>
      <trkpt lat="47.24998" lon="4.96811">
        <ele>374.1</ele>
        <time>2013-04-03T08:04:05.000Z</time>
      </trkpt>
      <trkpt lat="47.25002" lon="4.96813">
        <ele>376</ele>
        <time>2013-04-03T08:04:22.000Z</time>
      </trkpt>
      <trkpt lat="47.25003" lon="4.96812">
        <ele>376.7</ele>
        <time>2013-04-03T08:04:23.000Z</time>
      </trkpt>
      <trkpt lat="47.25004" lon="4.96806">
        <ele>379.5</ele>
        <time>2013-04-03T08:04:30.000Z</time>
      </trkpt>
      <trkpt lat="47.25004" lon="4.96804">
        <ele>379.2</ele>
        <time>2013-04-03T08:04:31.000Z</time>
      </trkpt>
      <trkpt lat="47.25004" lon="4.96799">
        <ele>380.6</ele>
        <time>2013-04-03T08:04:37.000Z</time>
      </trkpt>
      <trkpt lat="47.25005" lon="4.96797">
        <ele>380.2</ele>
        <time>2013-04-03T08:04:38.000Z</time>
      </trkpt>
      <trkpt lat="47.25007" lon="4.96792">
        <ele>380.3</ele>
        <time>2013-04-03T08:04:41.000Z</time>
      </trkpt>
      <trkpt lat="47.25007" lon="4.96791">
        <ele>380</ele>
        <time>2013-04-03T08:04:42.000Z</time>
      </trkpt>
      <trkpt lat="47.25008" lon="4.96786">
        <ele>379.7</ele>
        <time>2013-04-03T08:04:46.000Z</time>
      </trkpt>
      <trkpt lat="47.25009" lon="4.96785">
        <ele>380.1</ele>
        <time>2013-04-03T08:04:47.000Z</time>
      </trkpt>
      <trkpt lat="47.25011" lon="4.9678">
        <ele>378</ele>
        <time>2013-04-03T08:04:50.000Z</time>
      </trkpt>
      <trkpt lat="47.25012" lon="4.96779">
        <ele>380</ele>
        <time>2013-04-03T08:04:51.000Z</time>
      </trkpt>
      <trkpt lat="47.25015" lon="4.96775">
        <ele>381</ele>
        <time>2013-04-03T08:04:56.000Z</time>
      </trkpt>
      <trkpt lat="47.25016" lon="4.96775">
        <ele>380.5</ele>
        <time>2013-04-03T08:04:57.000Z</time>
      </trkpt>
      <trkpt lat="47.25019" lon="4.96772">
        <ele>380.1</ele>
        <time>2013-04-03T08:05:02.000Z</time>
      </trkpt>
      <trkpt lat="47.2502" lon="4.96771">
        <ele>378.9</ele>
        <time>2013-04-03T08:05:03.000Z</time>
      </trkpt>
      <trkpt lat="47.25022" lon="4.96766">
        <ele>378.8</ele>
        <time>2013-04-03T08:05:07.000Z</time>
      </trkpt>
      <trkpt lat="47.25023" lon="4.96765">
        <ele>378.7</ele>
        <time>2013-04-03T08:05:08.000Z</time>
      </trkpt>
      <trkpt lat="47.25025" lon="4.9676">
        <ele>378.7</ele>
        <time>2013-04-03T08:05:11.000Z</time>
      </trkpt>
      <trkpt lat="47.25026" lon="4.96758">
        <ele>378.9</ele>
        <time>2013-04-03T08:05:12.000Z</time>
      </trkpt>
      <trkpt lat="47.25028" lon="4.96752">
        <ele>379.2</ele>
        <time>2013-04-03T08:05:16.000Z</time>
      </trkpt>
      <trkpt lat="47.25028" lon="4.96751">
        <ele>378.9</ele>
        <time>2013-04-03T08:05:17.000Z</time>
      </trkpt>
      <trkpt lat="47.25029" lon="4.96745">
        <ele>379.5</ele>
        <time>2013-04-03T08:05:23.000Z</time>
      </trkpt>
      <trkpt lat="47.25029" lon="4.96744">
        <ele>380.2</ele>
        <time>2013-04-03T08:05:24.000Z</time>
      </trkpt>
      <trkpt lat="47.25032" lon="4.96741">
        <ele>381.4</ele>
        <time>2013-04-03T08:05:27.000Z</time>
      </trkpt>
      <trkpt lat="47.25033" lon="4.96741">
        <ele>382</ele>
        <time>2013-04-03T08:05:28.000Z</time>
      </trkpt>
      <trkpt lat="47.25036" lon="4.96737">
        <ele>383.1</ele>
        <time>2013-04-03T08:05:31.000Z</time>
      </trkpt>
      <trkpt lat="47.25038" lon="4.96736">
        <ele>384</ele>
        <time>2013-04-03T08:05:32.000Z</time>
      </trkpt>
      <trkpt lat="47.25041" lon="4.96733">
        <ele>382.3</ele>
        <time>2013-04-03T08:05:35.000Z</time>
      </trkpt>
      <trkpt lat="47.25043" lon="4.96732">
        <ele>382.8</ele>
        <time>2013-04-03T08:05:36.000Z</time>
      </trkpt>
      <trkpt lat="47.25046" lon="4.96729">
        <ele>384.1</ele>
        <time>2013-04-03T08:05:39.000Z</time>
      </trkpt>
      <trkpt lat="47.25047" lon="4.96728">
        <ele>385.8</ele>
        <time>2013-04-03T08:05:40.000Z</time>
      </trkpt>
      <trkpt lat="47.2505" lon="4.96727">
        <ele>387.8</ele>
        <time>2013-04-03T08:05:42.000Z</time>
      </trkpt>
      <trkpt lat="47.25051" lon="4.96726">
        <ele>388.4</ele>
        <time>2013-04-03T08:05:43.000Z</time>
      </trkpt>
      <trkpt lat="47.25055" lon="4.96725">
        <ele>389.9</ele>
        <time>2013-04-03T08:05:46.000Z</time>
      </trkpt>
      <trkpt lat="47.25056" lon="4.96725">
        <ele>390.1</ele>
        <time>2013-04-03T08:05:47.000Z</time>
      </trkpt>
      <trkpt lat="47.2506" lon="4.96725">
        <ele>389.6</ele>
        <time>2013-04-03T08:05:51.000Z</time>
      </trkpt>
      <trkpt lat="47.25061" lon="4.96725">
        <ele>389.7</ele>
        <time>2013-04-03T08:05:52.000Z</time>
      </trkpt>
      <trkpt lat="47.25064" lon="4.96726">
        <ele>392.5</ele>
        <time>2013-04-03T08:05:55.000Z</time>
      </trkpt>
      <trkpt lat="47.25065" lon="4.96727">
        <ele>393</ele>
        <time>2013-04-03T08:05:56.000Z</time>
      </trkpt>
      <trkpt lat="47.25069" lon="4.96729">
        <ele>393.7</ele>
        <time>2013-04-03T08:05:59.000Z</time>
      </trkpt>
      <trkpt lat="47.2507" lon="4.9673">
        <ele>394</ele>
        <time>2013-04-03T08:06:00.000Z</time>
      </trkpt>
      <trkpt lat="47.25074" lon="4.96732">
        <ele>395.5</ele>
        <time>2013-04-03T08:06:03.000Z</time>
      </trkpt>
      <trkpt lat="47.25076" lon="4.96733">
        <ele>396.3</ele>
        <time>2013-04-03T08:06:04.000Z</time>
      </trkpt>
      <trkpt lat="47.25079" lon="4.96734">
        <ele>395.7</ele>
        <time>2013-04-03T08:06:06.000Z</time>
      </trkpt>
      <trkpt lat="47.25081" lon="4.96735">
        <ele>395.1</ele>
        <time>2013-04-03T08:06:07.000Z</time>
      </trkpt>
      <trkpt lat="47.25085" lon="4.96736">
        <ele>394.6</ele>
        <time>2013-04-03T08:06:09.000Z</time>
      </trkpt>
      <trkpt lat="47.25086" lon="4.96737">
        <ele>394.1</ele>
        <time>2013-04-03T08:06:10.000Z</time>
      </trkpt>
      <trkpt lat="47.25089" lon="4.96739">
        <ele>393.8</ele>
        <time>2013-04-03T08:06:12.000Z</time>
      </trkpt>
      <trkpt lat="47.25091" lon="4.96739">
        <ele>392.3</ele>
        <time>2013-04-03T08:06:13.000Z</time>
      </trkpt>
      <trkpt lat="47.25095" lon="4.96742">
        <ele>392.7</ele>
        <time>2013-04-03T08:06:17.000Z</time>
      </trkpt>
      <trkpt lat="47.25096" lon="4.96743">
        <ele>392.1</ele>
        <time>2013-04-03T08:06:18.000Z</time>
      </trkpt>
      <trkpt lat="47.251" lon="4.96746">
        <ele>392.1</ele>
        <time>2013-04-03T08:06:21.000Z</time>
      </trkpt>
      <trkpt lat="47.25101" lon="4.96748">
        <ele>391.3</ele>
        <time>2013-04-03T08:06:22.000Z</time>
      </trkpt>
      <trkpt lat="47.25104" lon="4.96752">
        <ele>390.6</ele>
        <time>2013-04-03T08:06:25.000Z</time>
      </trkpt>
      <trkpt lat="47.25105" lon="4.96753">
        <ele>390.4</ele>
        <time>2013-04-03T08:06:26.000Z</time>
      </trkpt>
      <trkpt lat="47.25108" lon="4.96755">
        <ele>392.8</ele>
        <time>2013-04-03T08:06:28.000Z</time>
      </trkpt>
      <trkpt lat="47.2511" lon="4.96756">
        <ele>393.1</ele>
        <time>2013-04-03T08:06:29.000Z</time>
      </trkpt>
      <trkpt lat="47.25114" lon="4.96758">
        <ele>392</ele>
        <time>2013-04-03T08:06:32.000Z</time>
      </trkpt>
      <trkpt lat="47.25114" lon="4.96759">
        <ele>391.3</ele>
        <time>2013-04-03T08:06:33.000Z</time>
      </trkpt>
      <trkpt lat="47.25118" lon="4.96762">
        <ele>389.7</ele>
        <time>2013-04-03T08:06:37.000Z</time>
      </trkpt>
      <trkpt lat="47.25118" lon="4.96763">
        <ele>390</ele>
        <time>2013-04-03T08:06:38.000Z</time>
      </trkpt>
      <trkpt lat="47.25121" lon="4.96767">
        <ele>390.7</ele>
        <time>2013-04-03T08:06:42.000Z</time>
      </trkpt>
      <trkpt lat="47.25122" lon="4.96768">
        <ele>390.3</ele>
        <time>2013-04-03T08:06:43.000Z</time>
      </trkpt>
      <trkpt lat="47.25122" lon="4.96773">
        <ele>385.8</ele>
        <time>2013-04-03T08:06:47.000Z</time>
      </trkpt>
      <trkpt lat="47.25121" lon="4.96775">
        <ele>385.5</ele>
        <time>2013-04-03T08:06:48.000Z</time>
      </trkpt>
      <trkpt lat="47.25122" lon="4.9678">
        <ele>386.4</ele>
        <time>2013-04-03T08:06:51.000Z</time>
      </trkpt>
      <trkpt lat="47.25123" lon="4.96782">
        <ele>386.6</ele>
        <time>2013-04-03T08:06:52.000Z</time>
      </trkpt>
      <trkpt lat="47.25126" lon="4.96786">
        <ele>386.5</ele>
        <time>2013-04-03T08:06:56.000Z</time>
      </trkpt>
      <trkpt lat="47.25126" lon="4.96787">
        <ele>386.4</ele>
        <time>2013-04-03T08:06:57.000Z</time>
      </trkpt>
      <trkpt lat="47.25129" lon="4.96791">
        <ele>386.4</ele>
        <time>2013-04-03T08:07:02.000Z</time>
      </trkpt>
      <trkpt lat="47.2513" lon="4.96792">
        <ele>384.9</ele>
        <time>2013-04-03T08:07:03.000Z</time>
      </trkpt>
      <trkpt lat="47.25134" lon="4.96793">
        <ele>383.5</ele>
        <time>2013-04-03T08:07:06.000Z</time>
      </trkpt>
      <trkpt lat="47.25135" lon="4.96794">
        <ele>383</ele>
        <time>2013-04-03T08:07:07.000Z</time>
      </trkpt>
      <trkpt lat="47.25138" lon="4.96796">
        <ele>381</ele>
        <time>2013-04-03T08:07:09.000Z</time>
      </trkpt>
      <trkpt lat="47.2514" lon="4.96796">
        <ele>379.5</ele>
        <time>2013-04-03T08:07:10.000Z</time>
      </trkpt>
      <trkpt lat="47.25143" lon="4.96798">
        <ele>377.8</ele>
        <time>2013-04-03T08:07:13.000Z</time>
      </trkpt>
      <trkpt lat="47.25144" lon="4.96799">
        <ele>377</ele>
        <time>2013-04-03T08:07:14.000Z</time>
      </trkpt>
      <trkpt lat="47.25148" lon="4.96801">
        <ele>375.8</ele>
        <time>2013-04-03T08:07:17.000Z</time>
      </trkpt>
      <trkpt lat="47.25149" lon="4.96802">
        <ele>375.6</ele>
        <time>2013-04-03T08:07:18.000Z</time>
      </trkpt>
      <trkpt lat="47.25152" lon="4.96805">
        <ele>374</ele>
        <time>2013-04-03T08:07:21.000Z</time>
      </trkpt>
      <trkpt lat="47.25153" lon="4.96805">
        <ele>373.3</ele>
        <time>2013-04-03T08:07:22.000Z</time>
      </trkpt>
      <trkpt lat="47.25158" lon="4.96805">
        <ele>371.7</ele>
        <time>2013-04-03T08:07:26.000Z</time>
      </trkpt>
      <trkpt lat="47.25158" lon="4.96805">
        <ele>371.5</ele>
        <time>2013-04-03T08:07:27.000Z</time>
      </trkpt>
      <trkpt lat="47.25161" lon="4.96801">
        <ele>370.4</ele>
        <time>2013-04-03T08:07:48.000Z</time>
      </trkpt>
      <trkpt lat="47.25161" lon="4.96799">
        <ele>370.5</ele>
        <time>2013-04-03T08:07:49.000Z</time>
      </trkpt>
      <trkpt lat="47.25164" lon="4.96794">
        <ele>369.9</ele>
        <time>2013-04-03T08:07:52.000Z</time>
      </trkpt>
      <trkpt lat="47.25164" lon="4.96792">
        <ele>370</ele>
        <time>2013-04-03T08:07:53.000Z</time>
      </trkpt>
      <trkpt lat="47.25167" lon="4.96787">
        <ele>369.5</ele>
        <time>2013-04-03T08:07:55.000Z</time>
      </trkpt>
      <trkpt lat="47.25168" lon="4.96785">
        <ele>369.5</ele>
        <time>2013-04-03T08:07:56.000Z</time>
      </trkpt>
      <trkpt lat="47.2517" lon="4.96781">
        <ele>369.2</ele>
        <time>2013-04-03T08:07:58.000Z</time>
      </trkpt>
      <trkpt lat="47.25171" lon="4.96778">
        <ele>369.2</ele>
        <time>2013-04-03T08:07:59.000Z</time>
      </trkpt>
      <trkpt lat="47.25173" lon="4.96774">
        <ele>368.8</ele>
        <time>2013-04-03T08:08:01.000Z</time>
      </trkpt>
      <trkpt lat="47.25174" lon="4.96772">
        <ele>368.7</ele>
        <time>2013-04-03T08:08:02.000Z</time>
      </trkpt>
      <trkpt lat="47.25175" lon="4.96767">
        <ele>369.6</ele>
        <time>2013-04-03T08:08:05.000Z</time>
      </trkpt>
      <trkpt lat="47.25176" lon="4.96765">
        <ele>370.5</ele>
        <time>2013-04-03T08:08:06.000Z</time>
      </trkpt>
      <trkpt lat="47.25178" lon="4.96759">
        <ele>371</ele>
        <time>2013-04-03T08:08:09.000Z</time>
      </trkpt>
      <trkpt lat="47.25178" lon="4.96757">
        <ele>371.7</ele>
        <time>2013-04-03T08:08:10.000Z</time>
      </trkpt>
      <trkpt lat="47.25179" lon="4.96751">
        <ele>373.4</ele>
        <time>2013-04-03T08:08:13.000Z</time>
      </trkpt>
      <trkpt lat="47.25179" lon="4.96748">
        <ele>372.1</ele>
        <time>2013-04-03T08:08:14.000Z</time>
      </trkpt>
      <trkpt lat="47.25183" lon="4.96744">
        <ele>373.4</ele>
        <time>2013-04-03T08:08:19.000Z</time>
      </trkpt>
      <trkpt lat="47.25183" lon="4.96743">
        <ele>373.5</ele>
        <time>2013-04-03T08:08:20.000Z</time>
      </trkpt>
      <trkpt lat="47.25184" lon="4.96736">
        <ele>373.9</ele>
        <time>2013-04-03T08:08:23.000Z</time>
      </trkpt>
      <trkpt lat="47.25184" lon="4.96734">
        <ele>373.7</ele>
        <time>2013-04-03T08:08:24.000Z</time>
      </trkpt>
      <trkpt lat="47.25185" lon="4.96729">
        <ele>374.5</ele>
        <time>2013-04-03T08:08:26.000Z</time>
      </trkpt>
      <trkpt lat="47.25186" lon="4.96726">
        <ele>374.3</ele>
        <time>2013-04-03T08:08:27.000Z</time>
      </trkpt>
      <trkpt lat="47.25188" lon="4.96722">
        <ele>374.3</ele>
        <time>2013-04-03T08:08:29.000Z</time>
      </trkpt>
      <trkpt lat="47.25188" lon="4.9672">
        <ele>374.5</ele>
        <time>2013-04-03T08:08:30.000Z</time>
      </trkpt>
      <trkpt lat="47.25191" lon="4.96716">
        <ele>375.5</ele>
        <time>2013-04-03T08:08:32.000Z</time>
      </trkpt>
      <trkpt lat="47.25191" lon="4.96714">
        <ele>375.7</ele>
        <time>2013-04-03T08:08:33.000Z</time>
      </trkpt>
      <trkpt lat="47.25194" lon="4.9671">
        <ele>377</ele>
        <time>2013-04-03T08:08:35.000Z</time>
      </trkpt>
      <trkpt lat="47.25196" lon="4.96708">
        <ele>376.5</ele>
        <time>2013-04-03T08:08:36.000Z</time>
      </trkpt>
      <trkpt lat="47.25198" lon="4.96704">
        <ele>377.6</ele>
        <time>2013-04-03T08:08:38.000Z</time>
      </trkpt>
      <trkpt lat="47.25199" lon="4.96702">
        <ele>377.4</ele>
        <time>2013-04-03T08:08:39.000Z</time>
      </trkpt>
      <trkpt lat="47.25203" lon="4.96698">
        <ele>381.5</ele>
        <time>2013-04-03T08:08:47.000Z</time>
      </trkpt>
      <trkpt lat="47.25203" lon="4.96696">
        <ele>382.1</ele>
        <time>2013-04-03T08:08:48.000Z</time>
      </trkpt>
      <trkpt lat="47.25207" lon="4.96692">
        <ele>380.9</ele>
        <time>2013-04-03T08:08:51.000Z</time>
      </trkpt>
      <trkpt lat="47.25208" lon="4.96691">
        <ele>382.3</ele>
        <time>2013-04-03T08:08:52.000Z</time>
      </trkpt>
      <trkpt lat="47.2521" lon="4.96688">
        <ele>383.1</ele>
        <time>2013-04-03T08:08:54.000Z</time>
      </trkpt>
      <trkpt lat="47.25212" lon="4.96686">
        <ele>383.4</ele>
        <time>2013-04-03T08:08:55.000Z</time>
      </trkpt>
      <trkpt lat="47.25214" lon="4.96682">
        <ele>384.7</ele>
        <time>2013-04-03T08:08:57.000Z</time>
      </trkpt>
      <trkpt lat="47.25216" lon="4.9668">
        <ele>385</ele>
        <time>2013-04-03T08:08:58.000Z</time>
      </trkpt>
      <trkpt lat="47.25219" lon="4.96675">
        <ele>385.8</ele>
        <time>2013-04-03T08:09:00.000Z</time>
      </trkpt>
      <trkpt lat="47.2522" lon="4.96673">
        <ele>386.6</ele>
        <time>2013-04-03T08:09:01.000Z</time>
      </trkpt>
      <trkpt lat="47.25222" lon="4.96671">
        <ele>386.1</ele>
        <time>2013-04-03T08:09:02.000Z</time>
      </trkpt>
      <trkpt lat="47.25224" lon="4.96668">
        <ele>385.8</ele>
        <time>2013-04-03T08:09:03.000Z</time>
      </trkpt>
      <trkpt lat="47.25226" lon="4.96664">
        <ele>383.9</ele>
        <time>2013-04-03T08:09:06.000Z</time>
      </trkpt>
      <trkpt lat="47.25227" lon="4.96663">
        <ele>383.6</ele>
        <time>2013-04-03T08:09:07.000Z</time>
      </trkpt>
      <trkpt lat="47.2523" lon="4.9666">
        <ele>384.6</ele>
        <time>2013-04-03T08:09:18.000Z</time>
      </trkpt>
      <trkpt lat="47.25231" lon="4.96657">
        <ele>384.5</ele>
        <time>2013-04-03T08:09:19.000Z</time>
      </trkpt>
      <trkpt lat="47.25234" lon="4.96653">
        <ele>385.5</ele>
        <time>2013-04-03T08:09:22.000Z</time>
      </trkpt>
      <trkpt lat="47.25235" lon="4.96652">
        <ele>386.6</ele>
        <time>2013-04-03T08:09:23.000Z</time>
      </trkpt>
      <trkpt lat="47.25237" lon="4.96647">
        <ele>387.4</ele>
        <time>2013-04-03T08:09:25.000Z</time>
      </trkpt>
      <trkpt lat="47.25238" lon="4.96645">
        <ele>387.7</ele>
        <time>2013-04-03T08:09:26.000Z</time>
      </trkpt>
      <trkpt lat="47.2524" lon="4.96639">
        <ele>388.7</ele>
        <time>2013-04-03T08:09:28.000Z</time>
      </trkpt>
      <trkpt lat="47.25241" lon="4.96636">
        <ele>388.7</ele>
        <time>2013-04-03T08:09:29.000Z</time>
      </trkpt>
      <trkpt lat="47.25242" lon="4.96631">
        <ele>389</ele>
        <time>2013-04-03T08:09:31.000Z</time>
      </trkpt>
      <trkpt lat="47.25242" lon="4.96629">
        <ele>388.4</ele>
        <time>2013-04-03T08:09:32.000Z</time>
      </trkpt>
      <trkpt lat="47.25245" lon="4.96624">
        <ele>389.2</ele>
        <time>2013-04-03T08:09:35.000Z</time>
      </trkpt>
      <trkpt lat="47.25246" lon="4.96623">
        <ele>389.6</ele>
        <time>2013-04-03T08:09:36.000Z</time>
      </trkpt>
      <trkpt lat="47.2525" lon="4.9662">
        <ele>388.8</ele>
        <time>2013-04-03T08:09:46.000Z</time>
      </trkpt>
      <trkpt lat="47.2525" lon="4.96618">
        <ele>388.4</ele>
        <time>2013-04-03T08:09:47.000Z</time>
      </trkpt>
      <trkpt lat="47.25251" lon="4.96612">
        <ele>386</ele>
        <time>2013-04-03T08:09:53.000Z</time>
      </trkpt>
      <trkpt lat="47.25251" lon="4.96612">
        <ele>385.8</ele>
        <time>2013-04-03T08:09:54.000Z</time>
      </trkpt>
      <trkpt lat="47.25252" lon="4.96606">
        <ele>384.2</ele>
        <time>2013-04-03T08:10:01.000Z</time>
      </trkpt>
      <trkpt lat="47.25253" lon="4.966">
        <ele>388.5</ele>
        <time>2013-04-03T08:10:02.000Z</time>
      </trkpt>
      <trkpt lat="47.25253" lon="4.96595">
        <ele>388.8</ele>
        <time>2013-04-03T08:10:04.000Z</time>
      </trkpt>
      <trkpt lat="47.25253" lon="4.96593">
        <ele>388.5</ele>
        <time>2013-04-03T08:10:05.000Z</time>
      </trkpt>
      <trkpt lat="47.25253" lon="4.96587">
        <ele>393.6</ele>
        <time>2013-04-03T08:10:08.000Z</time>
      </trkpt>
      <trkpt lat="47.25254" lon="4.96584">
        <ele>395</ele>
        <time>2013-04-03T08:10:09.000Z</time>
      </trkpt>
      <trkpt lat="47.25255" lon="4.96579">
        <ele>396.9</ele>
        <time>2013-04-03T08:10:12.000Z</time>
      </trkpt>
      <trkpt lat="47.25256" lon="4.96578">
        <ele>397.3</ele>
        <time>2013-04-03T08:10:13.000Z</time>
      </trkpt>
      <trkpt lat="47.25257" lon="4.96573">
        <ele>396.3</ele>
        <time>2013-04-03T08:10:16.000Z</time>
      </trkpt>
      <trkpt lat="47.25258" lon="4.96571">
        <ele>397</ele>
        <time>2013-04-03T08:10:17.000Z</time>
      </trkpt>
      <trkpt lat="47.25261" lon="4.96567">
        <ele>397.7</ele>
        <time>2013-04-03T08:10:19.000Z</time>
      </trkpt>
      <trkpt lat="47.25262" lon="4.96564">
        <ele>398.6</ele>
        <time>2013-04-03T08:10:20.000Z</time>
      </trkpt>
      <trkpt lat="47.25264" lon="4.96559">
        <ele>399.2</ele>
        <time>2013-04-03T08:10:22.000Z</time>
      </trkpt>
      <trkpt lat="47.25266" lon="4.96557">
        <ele>399.9</ele>
        <time>2013-04-03T08:10:23.000Z</time>
      </trkpt>
      <trkpt lat="47.25268" lon="4.96551">
        <ele>399.7</ele>
        <time>2013-04-03T08:10:25.000Z</time>
      </trkpt>
      <trkpt lat="47.2527" lon="4.96549">
        <ele>401.5</ele>
        <time>2013-04-03T08:10:26.000Z</time>
      </trkpt>
      <trkpt lat="47.25272" lon="4.96546">
        <ele>401.4</ele>
        <time>2013-04-03T08:10:27.000Z</time>
      </trkpt>
      <trkpt lat="47.25273" lon="4.96544">
        <ele>400.7</ele>
        <time>2013-04-03T08:10:28.000Z</time>
      </trkpt>
      <trkpt lat="47.25274" lon="4.96541">
        <ele>400.1</ele>
        <time>2013-04-03T08:10:29.000Z</time>
      </trkpt>
      <trkpt lat="47.25276" lon="4.96539">
        <ele>399.5</ele>
        <time>2013-04-03T08:10:30.000Z</time>
      </trkpt>
      <trkpt lat="47.25277" lon="4.96536">
        <ele>398</ele>
        <time>2013-04-03T08:10:31.000Z</time>
      </trkpt>
      <trkpt lat="47.25279" lon="4.96534">
        <ele>397.8</ele>
        <time>2013-04-03T08:10:32.000Z</time>
      </trkpt>
      <trkpt lat="47.25281" lon="4.96531">
        <ele>397.4</ele>
        <time>2013-04-03T08:10:33.000Z</time>
      </trkpt>
      <trkpt lat="47.25283" lon="4.96528">
        <ele>396.9</ele>
        <time>2013-04-03T08:10:34.000Z</time>
      </trkpt>
      <trkpt lat="47.25285" lon="4.96525">
        <ele>396.4</ele>
        <time>2013-04-03T08:10:35.000Z</time>
      </trkpt>
      <trkpt lat="47.25287" lon="4.96523">
        <ele>396.4</ele>
        <time>2013-04-03T08:10:36.000Z</time>
      </trkpt>
      <trkpt lat="47.25289" lon="4.9652">
        <ele>396</ele>
        <time>2013-04-03T08:10:37.000Z</time>
      </trkpt>
      <trkpt lat="47.2529" lon="4.96517">
        <ele>396.7</ele>
        <time>2013-04-03T08:10:38.000Z</time>
      </trkpt>
      <trkpt lat="47.25292" lon="4.96512">
        <ele>396.8</ele>
        <time>2013-04-03T08:10:40.000Z</time>
      </trkpt>
      <trkpt lat="47.25292" lon="4.9651">
        <ele>395.9</ele>
        <time>2013-04-03T08:10:41.000Z</time>
      </trkpt>
      <trkpt lat="47.25294" lon="4.96506">
        <ele>397.1</ele>
        <time>2013-04-03T08:10:44.000Z</time>
      </trkpt>
      <trkpt lat="47.25295" lon="4.96504">
        <ele>397.2</ele>
        <time>2013-04-03T08:10:45.000Z</time>
      </trkpt>
      <trkpt lat="47.25298" lon="4.965">
        <ele>396.6</ele>
        <time>2013-04-03T08:10:48.000Z</time>
      </trkpt>
      <trkpt lat="47.25299" lon="4.96499">
        <ele>397.2</ele>
        <time>2013-04-03T08:10:49.000Z</time>
      </trkpt>
      <trkpt lat="47.25302" lon="4.96496">
        <ele>398.1</ele>
        <time>2013-04-03T08:10:52.000Z</time>
      </trkpt>
      <trkpt lat="47.25303" lon="4.96495">
        <ele>397.4</ele>
        <time>2013-04-03T08:10:53.000Z</time>
      </trkpt>
      <trkpt lat="47.25307" lon="4.96494">
        <ele>398.3</ele>
        <time>2013-04-03T08:10:55.000Z</time>
      </trkpt>
      <trkpt lat="47.25309" lon="4.96494">
        <ele>397.8</ele>
        <time>2013-04-03T08:10:56.000Z</time>
      </trkpt>
      <trkpt lat="47.25312" lon="4.96493">
        <ele>397.5</ele>
        <time>2013-04-03T08:10:58.000Z</time>
      </trkpt>
      <trkpt lat="47.25314" lon="4.96494">
        <ele>397</ele>
        <time>2013-04-03T08:10:59.000Z</time>
      </trkpt>
      <trkpt lat="47.25317" lon="4.96496">
        <ele>392.7</ele>
        <time>2013-04-03T08:11:09.000Z</time>
      </trkpt>
      <trkpt lat="47.25319" lon="4.96496">
        <ele>391.8</ele>
        <time>2013-04-03T08:11:10.000Z</time>
      </trkpt>
      <trkpt lat="47.25323" lon="4.96496">
        <ele>389.8</ele>
        <time>2013-04-03T08:11:13.000Z</time>
      </trkpt>
      <trkpt lat="47.25324" lon="4.96497">
        <ele>389.5</ele>
        <time>2013-04-03T08:11:14.000Z</time>
      </trkpt>
      <trkpt lat="47.25328" lon="4.96497">
        <ele>389.5</ele>
        <time>2013-04-03T08:11:28.000Z</time>
      </trkpt>
      <trkpt lat="47.25328" lon="4.96497">
        <ele>389.6</ele>
        <time>2013-04-03T08:11:29.000Z</time>
      </trkpt>
      <trkpt lat="47.25331" lon="4.96499">
        <ele>390.9</ele>
        <time>2013-04-03T08:11:49.000Z</time>
      </trkpt>
      <trkpt lat="47.25332" lon="4.965">
        <ele>391.4</ele>
        <time>2013-04-03T08:11:50.000Z</time>
      </trkpt>
      <trkpt lat="47.25335" lon="4.96503">
        <ele>390.9</ele>
        <time>2013-04-03T08:11:52.000Z</time>
      </trkpt>
      <trkpt lat="47.25336" lon="4.96504">
        <ele>390.7</ele>
        <time>2013-04-03T08:11:53.000Z</time>
      </trkpt>
      <trkpt lat="47.2534" lon="4.96508">
        <ele>391.1</ele>
        <time>2013-04-03T08:11:58.000Z</time>
      </trkpt>
      <trkpt lat="47.2534" lon="4.9651">
        <ele>390.5</ele>
        <time>2013-04-03T08:11:59.000Z</time>
      </trkpt>
      <trkpt lat="47.25342" lon="4.96515">
        <ele>391.6</ele>
        <time>2013-04-03T08:12:01.000Z</time>
      </trkpt>
      <trkpt lat="47.25342" lon="4.96518">
        <ele>392</ele>
        <time>2013-04-03T08:12:02.000Z</time>
      </trkpt>
      <trkpt lat="47.25343" lon="4.96523">
        <ele>392.5</ele>
        <time>2013-04-03T08:12:04.000Z</time>
      </trkpt>
      <trkpt lat="47.25344" lon="4.96525">
        <ele>393.2</ele>
        <time>2013-04-03T08:12:05.000Z</time>
      </trkpt>
      <trkpt lat="47.25345" lon="4.9653">
        <ele>392.5</ele>
        <time>2013-04-03T08:12:08.000Z</time>
      </trkpt>
      <trkpt lat="47.25346" lon="4.96532">
        <ele>391.3</ele>
        <time>2013-04-03T08:12:09.000Z</time>
      </trkpt>
      <trkpt lat="47.25346" lon="4.96538">
        <ele>392.3</ele>
        <time>2013-04-03T08:12:12.000Z</time>
      </trkpt>
      <trkpt lat="47.25346" lon="4.9654">
        <ele>392.9</ele>
        <time>2013-04-03T08:12:13.000Z</time>
      </trkpt>
      <trkpt lat="47.25348" lon="4.96546">
        <ele>389.4</ele>
        <time>2013-04-03T08:12:17.000Z</time>
      </trkpt>
      <trkpt lat="47.25348" lon="4.96547">
        <ele>389</ele>
        <time>2013-04-03T08:12:18.000Z</time>
      </trkpt>
      <trkpt lat="47.25351" lon="4.9655">
        <ele>386.7</ele>
        <time>2013-04-03T08:12:21.000Z</time>
      </trkpt>
      <trkpt lat="47.25353" lon="4.96551">
        <ele>385.9</ele>
        <time>2013-04-03T08:12:22.000Z</time>
      </trkpt>
      <trkpt lat="47.25354" lon="4.96557">
        <ele>388.8</ele>
        <time>2013-04-03T08:12:24.000Z</time>
      </trkpt>
      <trkpt lat="47.25353" lon="4.96561">
        <ele>389.8</ele>
        <time>2013-04-03T08:12:25.000Z</time>
      </trkpt>
      <trkpt lat="47.25353" lon="4.96565">
        <ele>390.1</ele>
        <time>2013-04-03T08:12:26.000Z</time>
      </trkpt>
      <trkpt lat="47.25353" lon="4.96569">
        <ele>390.7</ele>
        <time>2013-04-03T08:12:27.000Z</time>
      </trkpt>
      <trkpt lat="47.25353" lon="4.96574">
        <ele>388.9</ele>
        <time>2013-04-03T08:12:29.000Z</time>
      </trkpt>
      <trkpt lat="47.25353" lon="4.96576">
        <ele>389.1</ele>
        <time>2013-04-03T08:12:30.000Z</time>
      </trkpt>
      <trkpt lat="47.25355" lon="4.9658">
        <ele>390.6</ele>
        <time>2013-04-03T08:12:33.000Z</time>
      </trkpt>
      <trkpt lat="47.25355" lon="4.96582">
        <ele>390.3</ele>
        <time>2013-04-03T08:12:34.000Z</time>
      </trkpt>
      <trkpt lat="47.25357" lon="4.96587">
        <ele>387.7</ele>
        <time>2013-04-03T08:12:38.000Z</time>
      </trkpt>
      <trkpt lat="47.25356" lon="4.96589">
        <ele>387</ele>
        <time>2013-04-03T08:12:39.000Z</time>
      </trkpt>
      <trkpt lat="47.25355" lon="4.96594">
        <ele>386.2</ele>
        <time>2013-04-03T08:12:42.000Z</time>
      </trkpt>
      <trkpt lat="47.25355" lon="4.96596">
        <ele>386.4</ele>
        <time>2013-04-03T08:12:43.000Z</time>
      </trkpt>
      <trkpt lat="47.25355" lon="4.96602">
        <ele>385.8</ele>
        <time>2013-04-03T08:12:47.000Z</time>
      </trkpt>
      <trkpt lat="47.25356" lon="4.96604">
        <ele>386.6</ele>
        <time>2013-04-03T08:12:48.000Z</time>
      </trkpt>
      <trkpt lat="47.25357" lon="4.96608">
        <ele>386.6</ele>
        <time>2013-04-03T08:12:50.000Z</time>
      </trkpt>
      <trkpt lat="47.25357" lon="4.96611">
        <ele>388</ele>
        <time>2013-04-03T08:12:51.000Z</time>
      </trkpt>
      <trkpt lat="47.25356" lon="4.96616">
        <ele>387.9</ele>
        <time>2013-04-03T08:12:54.000Z</time>
      </trkpt>
      <trkpt lat="47.25356" lon="4.96617">
        <ele>387.9</ele>
        <time>2013-04-03T08:12:55.000Z</time>
      </trkpt>
      <trkpt lat="47.25356" lon="4.96624">
        <ele>386.5</ele>
        <time>2013-04-03T08:13:00.000Z</time>
      </trkpt>
      <trkpt lat="47.25357" lon="4.96625">
        <ele>385.9</ele>
        <time>2013-04-03T08:13:01.000Z</time>
      </trkpt>
      <trkpt lat="47.25359" lon="4.96631">
        <ele>384</ele>
        <time>2013-04-03T08:13:05.000Z</time>
      </trkpt>
      <trkpt lat="47.2536" lon="4.96633">
        <ele>385</ele>
        <time>2013-04-03T08:13:06.000Z</time>
      </trkpt>
      <trkpt lat="47.25362" lon="4.96638">
        <ele>385.7</ele>
        <time>2013-04-03T08:13:09.000Z</time>
      </trkpt>
      <trkpt lat="47.25362" lon="4.96641">
        <ele>386.7</ele>
        <time>2013-04-03T08:13:10.000Z</time>
      </trkpt>
      <trkpt lat="47.25362" lon="4.96645">
        <ele>388.6</ele>
        <time>2013-04-03T08:13:11.000Z</time>
      </trkpt>
      <trkpt lat="47.25362" lon="4.96648">
        <ele>389.7</ele>
        <time>2013-04-03T08:13:12.000Z</time>
      </trkpt>
      <trkpt lat="47.25362" lon="4.96654">
        <ele>389.4</ele>
        <time>2013-04-03T08:13:14.000Z</time>
      </trkpt>
      <trkpt lat="47.25362" lon="4.96655">
        <ele>389.4</ele>
        <time>2013-04-03T08:13:15.000Z</time>
      </trkpt>
      <trkpt lat="47.25364" lon="4.96661">
        <ele>389.9</ele>
        <time>2013-04-03T08:13:20.000Z</time>
      </trkpt>
      <trkpt lat="47.25364" lon="4.96662">
        <ele>390.1</ele>
        <time>2013-04-03T08:13:21.000Z</time>
      </trkpt>
      <trkpt lat="47.25366" lon="4.96667">
        <ele>387</ele>
        <time>2013-04-03T08:13:24.000Z</time>
      </trkpt>
      <trkpt lat="47.25366" lon="4.96669">
        <ele>386.5</ele>
        <time>2013-04-03T08:13:25.000Z</time>
      </trkpt>
      <trkpt lat="47.25368" lon="4.96675">
        <ele>386</ele>
        <time>2013-04-03T08:13:29.000Z</time>
      </trkpt>
      <trkpt lat="47.25368" lon="4.96676">
        <ele>385.3</ele>
        <time>2013-04-03T08:13:30.000Z</time>
      </trkpt>
      <trkpt lat="47.25368" lon="4.96683">
        <ele>384.3</ele>
        <time>2013-04-03T08:13:34.000Z</time>
      </trkpt>
      <trkpt lat="47.25368" lon="4.96684">
        <ele>383.9</ele>
        <time>2013-04-03T08:13:35.000Z</time>
      </trkpt>
      <trkpt lat="47.25369" lon="4.9669">
        <ele>383.4</ele>
        <time>2013-04-03T08:13:39.000Z</time>
      </trkpt>
      <trkpt lat="47.25369" lon="4.96691">
        <ele>380.9</ele>
        <time>2013-04-03T08:13:40.000Z</time>
      </trkpt>
      <trkpt lat="47.25371" lon="4.96697">
        <ele>383.2</ele>
        <time>2013-04-03T08:13:51.000Z</time>
      </trkpt>
      <trkpt lat="47.25371" lon="4.96697">
        <ele>383.3</ele>
        <time>2013-04-03T08:13:52.000Z</time>
      </trkpt>
      <trkpt lat="47.2537" lon="4.96692">
        <ele>381.9</ele>
        <time>2013-04-03T08:15:05.000Z</time>
      </trkpt>
      <trkpt lat="47.2537" lon="4.9669">
        <ele>382.8</ele>
        <time>2013-04-03T08:15:06.000Z</time>
      </trkpt>
      <trkpt lat="47.25369" lon="4.96685">
        <ele>383.4</ele>
        <time>2013-04-03T08:15:09.000Z</time>
      </trkpt>
      <trkpt lat="47.25369" lon="4.96683">
        <ele>383.1</ele>
        <time>2013-04-03T08:15:10.000Z</time>
      </trkpt>
      <trkpt lat="47.25368" lon="4.96677">
        <ele>379.9</ele>
        <time>2013-04-03T08:15:16.000Z</time>
      </trkpt>
      <trkpt lat="47.25368" lon="4.96676">
        <ele>379.7</ele>
        <time>2013-04-03T08:15:17.000Z</time>
      </trkpt>
      <trkpt lat="47.25367" lon="4.9667">
        <ele>378.6</ele>
        <time>2013-04-03T08:15:23.000Z</time>
      </trkpt>
      <trkpt lat="47.25367" lon="4.9667">
        <ele>378.6</ele>
        <time>2013-04-03T08:15:24.000Z</time>
      </trkpt>
      <trkpt lat="47.25365" lon="4.96664">
        <ele>377.5</ele>
        <time>2013-04-03T08:15:31.000Z</time>
      </trkpt>
      <trkpt lat="47.25365" lon="4.96662">
        <ele>377.3</ele>
        <time>2013-04-03T08:15:32.000Z</time>
      </trkpt>
      <trkpt lat="47.25365" lon="4.96657">
        <ele>377</ele>
        <time>2013-04-03T08:15:37.000Z</time>
      </trkpt>
      <trkpt lat="47.25365" lon="4.96655">
        <ele>376.2</ele>
        <time>2013-04-03T08:15:38.000Z</time>
      </trkpt>
      <trkpt lat="47.25365" lon="4.9665">
        <ele>375.4</ele>
        <time>2013-04-03T08:15:41.000Z</time>
      </trkpt>
      <trkpt lat="47.25366" lon="4.96648">
        <ele>374.6</ele>
        <time>2013-04-03T08:15:42.000Z</time>
      </trkpt>
      <trkpt lat="47.25365" lon="4.96642">
        <ele>371.4</ele>
        <time>2013-04-03T08:15:45.000Z</time>
      </trkpt>
      <trkpt lat="47.25365" lon="4.9664">
        <ele>370.6</ele>
        <time>2013-04-03T08:15:46.000Z</time>
      </trkpt>
      <trkpt lat="47.25364" lon="4.96635">
        <ele>371</ele>
        <time>2013-04-03T08:15:48.000Z</time>
      </trkpt>
      <trkpt lat="47.25364" lon="4.96633">
        <ele>369.8</ele>
        <time>2013-04-03T08:15:49.000Z</time>
      </trkpt>
      <trkpt lat="47.25363" lon="4.96627">
        <ele>368</ele>
        <time>2013-04-03T08:15:53.000Z</time>
      </trkpt>
      <trkpt lat="47.25363" lon="4.96625">
        <ele>366.7</ele>
        <time>2013-04-03T08:15:54.000Z</time>
      </trkpt>
      <trkpt lat="47.25362" lon="4.9662">
        <ele>364.2</ele>
        <time>2013-04-03T08:15:58.000Z</time>
      </trkpt>
      <trkpt lat="47.25361" lon="4.96618">
        <ele>363.5</ele>
        <time>2013-04-03T08:15:59.000Z</time>
      </trkpt>
      <trkpt lat="47.25361" lon="4.96613">
        <ele>363.2</ele>
        <time>2013-04-03T08:16:01.000Z</time>
      </trkpt>
      <trkpt lat="47.25361" lon="4.96611">
        <ele>363.9</ele>
        <time>2013-04-03T08:16:02.000Z</time>
      </trkpt>
      <trkpt lat="47.2536" lon="4.96604">
        <ele>365.7</ele>
        <time>2013-04-03T08:16:07.000Z</time>
      </trkpt>
      <trkpt lat="47.2536" lon="4.96603">
        <ele>366.4</ele>
        <time>2013-04-03T08:16:08.000Z</time>
      </trkpt>
      <trkpt lat="47.2536" lon="4.96597">
        <ele>366.3</ele>
        <time>2013-04-03T08:16:14.000Z</time>
      </trkpt>
      <trkpt lat="47.2536" lon="4.96596">
        <ele>366.6</ele>
        <time>2013-04-03T08:16:15.000Z</time>
      </trkpt>
      <trkpt lat="47.25359" lon="4.96591">
        <ele>368</ele>
        <time>2013-04-03T08:16:19.000Z</time>
      </trkpt>
      <trkpt lat="47.25359" lon="4.96589">
        <ele>368.2</ele>
        <time>2013-04-03T08:16:20.000Z</time>
      </trkpt>
      <trkpt lat="47.25357" lon="4.96583">
        <ele>369.3</ele>
        <time>2013-04-03T08:16:23.000Z</time>
      </trkpt>
      <trkpt lat="47.25357" lon="4.96581">
        <ele>369.7</ele>
        <time>2013-04-03T08:16:24.000Z</time>
      </trkpt>
      <trkpt lat="47.25357" lon="4.96577">
        <ele>370.6</ele>
        <time>2013-04-03T08:16:26.000Z</time>
      </trkpt>
      <trkpt lat="47.25357" lon="4.96574">
        <ele>370.6</ele>
        <time>2013-04-03T08:16:27.000Z</time>
      </trkpt>
      <trkpt lat="47.25358" lon="4.96569">
        <ele>365</ele>
        <time>2013-04-03T08:16:30.000Z</time>
      </trkpt>
      <trkpt lat="47.25358" lon="4.96567">
        <ele>364.4</ele>
        <time>2013-04-03T08:16:31.000Z</time>
      </trkpt>
      <trkpt lat="47.25359" lon="4.96562">
        <ele>364.1</ele>
        <time>2013-04-03T08:16:33.000Z</time>
      </trkpt>
      <trkpt lat="47.25358" lon="4.96559">
        <ele>366.6</ele>
        <time>2013-04-03T08:16:34.000Z</time>
      </trkpt>
      <trkpt lat="47.25357" lon="4.96555">
        <ele>367.3</ele>
        <time>2013-04-03T08:16:36.000Z</time>
      </trkpt>
      <trkpt lat="47.25356" lon="4.96553">
        <ele>367.2</ele>
        <time>2013-04-03T08:16:37.000Z</time>
      </trkpt>
      <trkpt lat="47.25355" lon="4.96548">
        <ele>366.3</ele>
        <time>2013-04-03T08:16:39.000Z</time>
      </trkpt>
      <trkpt lat="47.25354" lon="4.96545">
        <ele>366.4</ele>
        <time>2013-04-03T08:16:40.000Z</time>
      </trkpt>
      <trkpt lat="47.25354" lon="4.9654">
        <ele>366.1</ele>
        <time>2013-04-03T08:16:43.000Z</time>
      </trkpt>
      <trkpt lat="47.25354" lon="4.96538">
        <ele>366.9</ele>
        <time>2013-04-03T08:16:44.000Z</time>
      </trkpt>
      <trkpt lat="47.25353" lon="4.96534">
        <ele>369.6</ele>
        <time>2013-04-03T08:16:47.000Z</time>
      </trkpt>
      <trkpt lat="47.25352" lon="4.96532">
        <ele>369.8</ele>
        <time>2013-04-03T08:16:48.000Z</time>
      </trkpt>
      <trkpt lat="47.25348" lon="4.96527">
        <ele>371.2</ele>
        <time>2013-04-03T08:16:51.000Z</time>
      </trkpt>
      <trkpt lat="47.25348" lon="4.96526">
        <ele>371.7</ele>
        <time>2013-04-03T08:16:52.000Z</time>
      </trkpt>
      <trkpt lat="47.25346" lon="4.96522">
        <ele>369.4</ele>
        <time>2013-04-03T08:16:55.000Z</time>
      </trkpt>
      <trkpt lat="47.25345" lon="4.9652">
        <ele>369.3</ele>
        <time>2013-04-03T08:16:56.000Z</time>
      </trkpt>
      <trkpt lat="47.25343" lon="4.96516">
        <ele>367.8</ele>
        <time>2013-04-03T08:16:58.000Z</time>
      </trkpt>
      <trkpt lat="47.25342" lon="4.96514">
        <ele>368.2</ele>
        <time>2013-04-03T08:16:59.000Z</time>
      </trkpt>
      <trkpt lat="47.2534" lon="4.96511">
        <ele>370.1</ele>
        <time>2013-04-03T08:17:01.000Z</time>
      </trkpt>
      <trkpt lat="47.25339" lon="4.9651">
        <ele>370.1</ele>
        <time>2013-04-03T08:17:02.000Z</time>
      </trkpt>
      <trkpt lat="47.25336" lon="4.96508">
        <ele>370.5</ele>
        <time>2013-04-03T08:17:04.000Z</time>
      </trkpt>
      <trkpt lat="47.25334" lon="4.96507">
        <ele>370.9</ele>
        <time>2013-04-03T08:17:05.000Z</time>
      </trkpt>
      <trkpt lat="47.25331" lon="4.96505">
        <ele>372</ele>
        <time>2013-04-03T08:17:07.000Z</time>
      </trkpt>
      <trkpt lat="47.25329" lon="4.96504">
        <ele>372.7</ele>
        <time>2013-04-03T08:17:08.000Z</time>
      </trkpt>
      <trkpt lat="47.25326" lon="4.96501">
        <ele>374.1</ele>
        <time>2013-04-03T08:17:10.000Z</time>
      </trkpt>
      <trkpt lat="47.25325" lon="4.965">
        <ele>374.3</ele>
        <time>2013-04-03T08:17:11.000Z</time>
      </trkpt>
      <trkpt lat="47.25322" lon="4.96495">
        <ele>376</ele>
        <time>2013-04-03T08:17:21.000Z</time>
      </trkpt>
      <trkpt lat="47.25322" lon="4.96495">
        <ele>376</ele>
        <time>2013-04-03T08:17:22.000Z</time>
      </trkpt>
      <trkpt lat="47.25318" lon="4.96496">
        <ele>377.3</ele>
        <time>2013-04-03T08:17:26.000Z</time>
      </trkpt>
      <trkpt lat="47.25317" lon="4.96496">
        <ele>377.5</ele>
        <time>2013-04-03T08:17:27.000Z</time>
      </trkpt>
      <trkpt lat="47.25313" lon="4.96498">
        <ele>379.5</ele>
        <time>2013-04-03T08:17:30.000Z</time>
      </trkpt>
      <trkpt lat="47.25312" lon="4.96499">
        <ele>379.8</ele>
        <time>2013-04-03T08:17:31.000Z</time>
      </trkpt>
      <trkpt lat="47.25308" lon="4.96501">
        <ele>380.5</ele>
        <time>2013-04-03T08:17:33.000Z</time>
      </trkpt>
      <trkpt lat="47.25306" lon="4.96502">
        <ele>381.3</ele>
        <time>2013-04-03T08:17:34.000Z</time>
      </trkpt>
      <trkpt lat="47.25303" lon="4.96503">
        <ele>383.3</ele>
        <time>2013-04-03T08:17:36.000Z</time>
      </trkpt>
      <trkpt lat="47.25301" lon="4.96504">
        <ele>383.5</ele>
        <time>2013-04-03T08:17:37.000Z</time>
      </trkpt>
      <trkpt lat="47.25298" lon="4.96506">
        <ele>385.1</ele>
        <time>2013-04-03T08:17:40.000Z</time>
      </trkpt>
      <trkpt lat="47.25297" lon="4.96506">
        <ele>385.1</ele>
        <time>2013-04-03T08:17:41.000Z</time>
      </trkpt>
      <trkpt lat="47.25294" lon="4.96509">
        <ele>385.5</ele>
        <time>2013-04-03T08:17:43.000Z</time>
      </trkpt>
      <trkpt lat="47.25292" lon="4.9651">
        <ele>385.6</ele>
        <time>2013-04-03T08:17:44.000Z</time>
      </trkpt>
      <trkpt lat="47.25289" lon="4.96512">
        <ele>386.2</ele>
        <time>2013-04-03T08:17:45.000Z</time>
      </trkpt>
      <trkpt lat="47.25288" lon="4.96513">
        <ele>386.5</ele>
        <time>2013-04-03T08:17:46.000Z</time>
      </trkpt>
      <trkpt lat="47.25284" lon="4.96515">
        <ele>387.3</ele>
        <time>2013-04-03T08:17:48.000Z</time>
      </trkpt>
      <trkpt lat="47.25283" lon="4.96517">
        <ele>387.9</ele>
        <time>2013-04-03T08:17:49.000Z</time>
      </trkpt>
      <trkpt lat="47.25279" lon="4.9652">
        <ele>388.6</ele>
        <time>2013-04-03T08:17:52.000Z</time>
      </trkpt>
      <trkpt lat="47.25278" lon="4.96521">
        <ele>389</ele>
        <time>2013-04-03T08:17:53.000Z</time>
      </trkpt>
      <trkpt lat="47.25275" lon="4.96524">
        <ele>390.5</ele>
        <time>2013-04-03T08:17:55.000Z</time>
      </trkpt>
      <trkpt lat="47.25274" lon="4.96526">
        <ele>391.5</ele>
        <time>2013-04-03T08:17:56.000Z</time>
      </trkpt>
      <trkpt lat="47.25272" lon="4.9653">
        <ele>391.1</ele>
        <time>2013-04-03T08:17:58.000Z</time>
      </trkpt>
      <trkpt lat="47.25272" lon="4.96532">
        <ele>392</ele>
        <time>2013-04-03T08:17:59.000Z</time>
      </trkpt>
      <trkpt lat="47.2527" lon="4.96537">
        <ele>394.1</ele>
        <time>2013-04-03T08:18:02.000Z</time>
      </trkpt>
      <trkpt lat="47.25269" lon="4.96539">
        <ele>394.8</ele>
        <time>2013-04-03T08:18:03.000Z</time>
      </trkpt>
      <trkpt lat="47.25267" lon="4.96543">
        <ele>394.9</ele>
        <time>2013-04-03T08:18:05.000Z</time>
      </trkpt>
      <trkpt lat="47.25266" lon="4.96545">
        <ele>395.4</ele>
        <time>2013-04-03T08:18:06.000Z</time>
      </trkpt>
      <trkpt lat="47.25264" lon="4.9655">
        <ele>396.6</ele>
        <time>2013-04-03T08:18:09.000Z</time>
      </trkpt>
      <trkpt lat="47.25263" lon="4.96552">
        <ele>397.1</ele>
        <time>2013-04-03T08:18:10.000Z</time>
      </trkpt>
      <trkpt lat="47.25261" lon="4.96557">
        <ele>397.5</ele>
        <time>2013-04-03T08:18:13.000Z</time>
      </trkpt>
      <trkpt lat="47.25261" lon="4.9656">
        <ele>398.9</ele>
        <time>2013-04-03T08:18:14.000Z</time>
      </trkpt>
      <trkpt lat="47.2526" lon="4.96565">
        <ele>399.2</ele>
        <time>2013-04-03T08:18:17.000Z</time>
      </trkpt>
      <trkpt lat="47.25259" lon="4.96568">
        <ele>398.2</ele>
        <time>2013-04-03T08:18:18.000Z</time>
      </trkpt>
      <trkpt lat="47.25256" lon="4.96573">
        <ele>397</ele>
        <time>2013-04-03T08:18:20.000Z</time>
      </trkpt>
      <trkpt lat="47.25255" lon="4.96575">
        <ele>397</ele>
        <time>2013-04-03T08:18:21.000Z</time>
      </trkpt>
      <trkpt lat="47.25253" lon="4.96579">
        <ele>394.2</ele>
        <time>2013-04-03T08:18:23.000Z</time>
      </trkpt>
      <trkpt lat="47.25253" lon="4.96581">
        <ele>394</ele>
        <time>2013-04-03T08:18:24.000Z</time>
      </trkpt>
      <trkpt lat="47.25251" lon="4.96586">
        <ele>394.3</ele>
        <time>2013-04-03T08:18:27.000Z</time>
      </trkpt>
      <trkpt lat="47.2525" lon="4.96587">
        <ele>393.8</ele>
        <time>2013-04-03T08:18:28.000Z</time>
      </trkpt>
      <trkpt lat="47.25249" lon="4.96593">
        <ele>394</ele>
        <time>2013-04-03T08:18:31.000Z</time>
      </trkpt>
      <trkpt lat="47.25248" lon="4.96595">
        <ele>389.5</ele>
        <time>2013-04-03T08:18:32.000Z</time>
      </trkpt>
      <trkpt lat="47.25245" lon="4.966">
        <ele>388.9</ele>
        <time>2013-04-03T08:18:34.000Z</time>
      </trkpt>
      <trkpt lat="47.25244" lon="4.96602">
        <ele>389</ele>
        <time>2013-04-03T08:18:35.000Z</time>
      </trkpt>
      <trkpt lat="47.25242" lon="4.96606">
        <ele>388.7</ele>
        <time>2013-04-03T08:18:37.000Z</time>
      </trkpt>
      <trkpt lat="47.25242" lon="4.96608">
        <ele>388.9</ele>
        <time>2013-04-03T08:18:38.000Z</time>
      </trkpt>
      <trkpt lat="47.25241" lon="4.96613">
        <ele>389.5</ele>
        <time>2013-04-03T08:18:41.000Z</time>
      </trkpt>
      <trkpt lat="47.25241" lon="4.96615">
        <ele>390.7</ele>
        <time>2013-04-03T08:18:42.000Z</time>
      </trkpt>
      <trkpt lat="47.2524" lon="4.96621">
        <ele>390.4</ele>
        <time>2013-04-03T08:18:46.000Z</time>
      </trkpt>
      <trkpt lat="47.25239" lon="4.96622">
        <ele>390.7</ele>
        <time>2013-04-03T08:18:47.000Z</time>
      </trkpt>
      <trkpt lat="47.25236" lon="4.96626">
        <ele>390.6</ele>
        <time>2013-04-03T08:18:50.000Z</time>
      </trkpt>
      <trkpt lat="47.25235" lon="4.96628">
        <ele>391.3</ele>
        <time>2013-04-03T08:18:51.000Z</time>
      </trkpt>
      <trkpt lat="47.25233" lon="4.96633">
        <ele>390.3</ele>
        <time>2013-04-03T08:18:54.000Z</time>
      </trkpt>
      <trkpt lat="47.25233" lon="4.96635">
        <ele>390.1</ele>
        <time>2013-04-03T08:18:55.000Z</time>
      </trkpt>
      <trkpt lat="47.25233" lon="4.96641">
        <ele>392.2</ele>
        <time>2013-04-03T08:18:58.000Z</time>
      </trkpt>
      <trkpt lat="47.25232" lon="4.96643">
        <ele>391.3</ele>
        <time>2013-04-03T08:18:59.000Z</time>
      </trkpt>
      <trkpt lat="47.25231" lon="4.96646">
        <ele>390.6</ele>
        <time>2013-04-03T08:19:00.000Z</time>
      </trkpt>
      <trkpt lat="47.25229" lon="4.96649">
        <ele>390.9</ele>
        <time>2013-04-03T08:19:01.000Z</time>
      </trkpt>
      <trkpt lat="47.25227" lon="4.96651">
        <ele>391</ele>
        <time>2013-04-03T08:19:02.000Z</time>
      </trkpt>
      <trkpt lat="47.25226" lon="4.96653">
        <ele>390.7</ele>
        <time>2013-04-03T08:19:03.000Z</time>
      </trkpt>
      <trkpt lat="47.25223" lon="4.96658">
        <ele>391.6</ele>
        <time>2013-04-03T08:19:05.000Z</time>
      </trkpt>
      <trkpt lat="47.25221" lon="4.96659">
        <ele>391.9</ele>
        <time>2013-04-03T08:19:06.000Z</time>
      </trkpt>
      <trkpt lat="47.25218" lon="4.96663">
        <ele>392.3</ele>
        <time>2013-04-03T08:19:09.000Z</time>
      </trkpt>
      <trkpt lat="47.25218" lon="4.96665">
        <ele>392.7</ele>
        <time>2013-04-03T08:19:10.000Z</time>
      </trkpt>
      <trkpt lat="47.25215" lon="4.96669">
        <ele>395.7</ele>
        <time>2013-04-03T08:19:15.000Z</time>
      </trkpt>
      <trkpt lat="47.25215" lon="4.9667">
        <ele>395.3</ele>
        <time>2013-04-03T08:19:16.000Z</time>
      </trkpt>
      <trkpt lat="47.25212" lon="4.96674">
        <ele>396.1</ele>
        <time>2013-04-03T08:19:21.000Z</time>
      </trkpt>
      <trkpt lat="47.25211" lon="4.96675">
        <ele>395.8</ele>
        <time>2013-04-03T08:19:22.000Z</time>
      </trkpt>
      <trkpt lat="47.25209" lon="4.96681">
        <ele>395.8</ele>
        <time>2013-04-03T08:19:26.000Z</time>
      </trkpt>
      <trkpt lat="47.25209" lon="4.96682">
        <ele>397</ele>
        <time>2013-04-03T08:19:27.000Z</time>
      </trkpt>
      <trkpt lat="47.25206" lon="4.96688">
        <ele>397.3</ele>
        <time>2013-04-03T08:19:30.000Z</time>
      </trkpt>
      <trkpt lat="47.25206" lon="4.9669">
        <ele>397.1</ele>
        <time>2013-04-03T08:19:31.000Z</time>
      </trkpt>
      <trkpt lat="47.25205" lon="4.96695">
        <ele>397.1</ele>
        <time>2013-04-03T08:19:34.000Z</time>
      </trkpt>
      <trkpt lat="47.25205" lon="4.96697">
        <ele>396.7</ele>
        <time>2013-04-03T08:19:35.000Z</time>
      </trkpt>
      <trkpt lat="47.25203" lon="4.96701">
        <ele>395.7</ele>
        <time>2013-04-03T08:19:38.000Z</time>
      </trkpt>
      <trkpt lat="47.25202" lon="4.96703">
        <ele>395.1</ele>
        <time>2013-04-03T08:19:39.000Z</time>
      </trkpt>
      <trkpt lat="47.25199" lon="4.96707">
        <ele>396.3</ele>
        <time>2013-04-03T08:19:41.000Z</time>
      </trkpt>
      <trkpt lat="47.25198" lon="4.9671">
        <ele>396.2</ele>
        <time>2013-04-03T08:19:42.000Z</time>
      </trkpt>
      <trkpt lat="47.25197" lon="4.96712">
        <ele>396.1</ele>
        <time>2013-04-03T08:19:43.000Z</time>
      </trkpt>
      <trkpt lat="47.25196" lon="4.96715">
        <ele>395.4</ele>
        <time>2013-04-03T08:19:44.000Z</time>
      </trkpt>
      <trkpt lat="47.25194" lon="4.96718">
        <ele>395.4</ele>
        <time>2013-04-03T08:19:45.000Z</time>
      </trkpt>
      <trkpt lat="47.25192" lon="4.96721">
        <ele>396</ele>
        <time>2013-04-03T08:19:46.000Z</time>
      </trkpt>
      <trkpt lat="47.2519" lon="4.96726">
        <ele>395.6</ele>
        <time>2013-04-03T08:19:48.000Z</time>
      </trkpt>
      <trkpt lat="47.25189" lon="4.96728">
        <ele>395.2</ele>
        <time>2013-04-03T08:19:49.000Z</time>
      </trkpt>
      <trkpt lat="47.25188" lon="4.96732">
        <ele>395.6</ele>
        <time>2013-04-03T08:19:51.000Z</time>
      </trkpt>
      <trkpt lat="47.25187" lon="4.96735">
        <ele>395.1</ele>
        <time>2013-04-03T08:19:52.000Z</time>
      </trkpt>
      <trkpt lat="47.25186" lon="4.96739">
        <ele>394.6</ele>
        <time>2013-04-03T08:19:54.000Z</time>
      </trkpt>
      <trkpt lat="47.25185" lon="4.96742">
        <ele>394.8</ele>
        <time>2013-04-03T08:19:55.000Z</time>
      </trkpt>
      <trkpt lat="47.25183" lon="4.96746">
        <ele>395.6</ele>
        <time>2013-04-03T08:19:57.000Z</time>
      </trkpt>
      <trkpt lat="47.25182" lon="4.96748">
        <ele>394.6</ele>
        <time>2013-04-03T08:19:58.000Z</time>
      </trkpt>
      <trkpt lat="47.25181" lon="4.96754">
        <ele>395.1</ele>
        <time>2013-04-03T08:20:01.000Z</time>
      </trkpt>
      <trkpt lat="47.2518" lon="4.96756">
        <ele>395.7</ele>
        <time>2013-04-03T08:20:02.000Z</time>
      </trkpt>
      <trkpt lat="47.25179" lon="4.96762">
        <ele>396.9</ele>
        <time>2013-04-03T08:20:05.000Z</time>
      </trkpt>
      <trkpt lat="47.25178" lon="4.96763">
        <ele>396.9</ele>
        <time>2013-04-03T08:20:06.000Z</time>
      </trkpt>
      <trkpt lat="47.25178" lon="4.96767">
        <ele>395.2</ele>
        <time>2013-04-03T08:20:07.000Z</time>
      </trkpt>
      <trkpt lat="47.25178" lon="4.9677">
        <ele>394.3</ele>
        <time>2013-04-03T08:20:08.000Z</time>
      </trkpt>
      <trkpt lat="47.25177" lon="4.96776">
        <ele>391.5</ele>
        <time>2013-04-03T08:20:10.000Z</time>
      </trkpt>
      <trkpt lat="47.25177" lon="4.96778">
        <ele>390.5</ele>
        <time>2013-04-03T08:20:11.000Z</time>
      </trkpt>
      <trkpt lat="47.25176" lon="4.96781">
        <ele>389.9</ele>
        <time>2013-04-03T08:20:12.000Z</time>
      </trkpt>
      <trkpt lat="47.25175" lon="4.96785">
        <ele>390.7</ele>
        <time>2013-04-03T08:20:13.000Z</time>
      </trkpt>
      <trkpt lat="47.25174" lon="4.96788">
        <ele>390.2</ele>
        <time>2013-04-03T08:20:14.000Z</time>
      </trkpt>
      <trkpt lat="47.25172" lon="4.96791">
        <ele>390</ele>
        <time>2013-04-03T08:20:15.000Z</time>
      </trkpt>
      <trkpt lat="47.25171" lon="4.96795">
        <ele>387.7</ele>
        <time>2013-04-03T08:20:17.000Z</time>
      </trkpt>
      <trkpt lat="47.2517" lon="4.96796">
        <ele>383.2</ele>
        <time>2013-04-03T08:20:18.000Z</time>
      </trkpt>
      <trkpt lat="47.25167" lon="4.96802">
        <ele>383</ele>
        <time>2013-04-03T08:20:22.000Z</time>
      </trkpt>
      <trkpt lat="47.25167" lon="4.96804">
        <ele>382.8</ele>
        <time>2013-04-03T08:20:23.000Z</time>
      </trkpt>
      <trkpt lat="47.25165" lon="4.96809">
        <ele>382.1</ele>
        <time>2013-04-03T08:20:25.000Z</time>
      </trkpt>
      <trkpt lat="47.25165" lon="4.96812">
        <ele>381.8</ele>
        <time>2013-04-03T08:20:26.000Z</time>
      </trkpt>
      <trkpt lat="47.25164" lon="4.96818">
        <ele>383.2</ele>
        <time>2013-04-03T08:20:28.000Z</time>
      </trkpt>
      <trkpt lat="47.25163" lon="4.96821">
        <ele>382.6</ele>
        <time>2013-04-03T08:20:29.000Z</time>
      </trkpt>
      <trkpt lat="47.25162" lon="4.96825">
        <ele>381</ele>
        <time>2013-04-03T08:20:31.000Z</time>
      </trkpt>
      <trkpt lat="47.25161" lon="4.96827">
        <ele>381.1</ele>
        <time>2013-04-03T08:20:32.000Z</time>
      </trkpt>
      <trkpt lat="47.25159" lon="4.96832">
        <ele>381</ele>
        <time>2013-04-03T08:20:34.000Z</time>
      </trkpt>
      <trkpt lat="47.25158" lon="4.96834">
        <ele>379.9</ele>
        <time>2013-04-03T08:20:35.000Z</time>
      </trkpt>
      <trkpt lat="47.25157" lon="4.96839">
        <ele>379.2</ele>
        <time>2013-04-03T08:20:37.000Z</time>
      </trkpt>
      <trkpt lat="47.25156" lon="4.96841">
        <ele>378</ele>
        <time>2013-04-03T08:20:38.000Z</time>
      </trkpt>
      <trkpt lat="47.25154" lon="4.96845">
        <ele>377.5</ele>
        <time>2013-04-03T08:20:40.000Z</time>
      </trkpt>
      <trkpt lat="47.25153" lon="4.96847">
        <ele>377.7</ele>
        <time>2013-04-03T08:20:41.000Z</time>
      </trkpt>
      <trkpt lat="47.25151" lon="4.96852">
        <ele>378.8</ele>
        <time>2013-04-03T08:20:43.000Z</time>
      </trkpt>
      <trkpt lat="47.2515" lon="4.96855">
        <ele>379.5</ele>
        <time>2013-04-03T08:20:44.000Z</time>
      </trkpt>
      <trkpt lat="47.25148" lon="4.9686">
        <ele>380.1</ele>
        <time>2013-04-03T08:20:46.000Z</time>
      </trkpt>
      <trkpt lat="47.25148" lon="4.96863">
        <ele>380.8</ele>
        <time>2013-04-03T08:20:47.000Z</time>
      </trkpt>
      <trkpt lat="47.25146" lon="4.96867">
        <ele>380.9</ele>
        <time>2013-04-03T08:20:49.000Z</time>
      </trkpt>
      <trkpt lat="47.25145" lon="4.9687">
        <ele>381</ele>
        <time>2013-04-03T08:20:50.000Z</time>
      </trkpt>
      <trkpt lat="47.25144" lon="4.96874">
        <ele>379.8</ele>
        <time>2013-04-03T08:20:52.000Z</time>
      </trkpt>
      <trkpt lat="47.25143" lon="4.96877">
        <ele>380</ele>
        <time>2013-04-03T08:20:53.000Z</time>
      </trkpt>
      <trkpt lat="47.25142" lon="4.96882">
        <ele>379.7</ele>
        <time>2013-04-03T08:20:55.000Z</time>
      </trkpt>
      <trkpt lat="47.25141" lon="4.96884">
        <ele>379.5</ele>
        <time>2013-04-03T08:20:56.000Z</time>
      </trkpt>
      <trkpt lat="47.25139" lon="4.96888">
        <ele>379</ele>
        <time>2013-04-03T08:20:58.000Z</time>
      </trkpt>
      <trkpt lat="47.25138" lon="4.9689">
        <ele>378.5</ele>
        <time>2013-04-03T08:20:59.000Z</time>
      </trkpt>
      <trkpt lat="47.25137" lon="4.96895">
        <ele>377.4</ele>
        <time>2013-04-03T08:21:01.000Z</time>
      </trkpt>
      <trkpt lat="47.25136" lon="4.96897">
        <ele>377.1</ele>
        <time>2013-04-03T08:21:02.000Z</time>
      </trkpt>
      <trkpt lat="47.25135" lon="4.96902">
        <ele>376.1</ele>
        <time>2013-04-03T08:21:05.000Z</time>
      </trkpt>
      <trkpt lat="47.25134" lon="4.96904">
        <ele>375.9</ele>
        <time>2013-04-03T08:21:06.000Z</time>
      </trkpt>
      <trkpt lat="47.25133" lon="4.96909">
        <ele>376</ele>
        <time>2013-04-03T08:21:08.000Z</time>
      </trkpt>
      <trkpt lat="47.25133" lon="4.96911">
        <ele>375.8</ele>
        <time>2013-04-03T08:21:09.000Z</time>
      </trkpt>
      <trkpt lat="47.25131" lon="4.96917">
        <ele>374.9</ele>
        <time>2013-04-03T08:21:12.000Z</time>
      </trkpt>
      <trkpt lat="47.25131" lon="4.96919">
        <ele>374.9</ele>
        <time>2013-04-03T08:21:13.000Z</time>
      </trkpt>
      <trkpt lat="47.25129" lon="4.96925">
        <ele>374.3</ele>
        <time>2013-04-03T08:21:16.000Z</time>
      </trkpt>
      <trkpt lat="47.25129" lon="4.96927">
        <ele>374</ele>
        <time>2013-04-03T08:21:17.000Z</time>
      </trkpt>
      <trkpt lat="47.25127" lon="4.96932">
        <ele>373.2</ele>
        <time>2013-04-03T08:21:20.000Z</time>
      </trkpt>
      <trkpt lat="47.25126" lon="4.96934">
        <ele>373.3</ele>
        <time>2013-04-03T08:21:21.000Z</time>
      </trkpt>
      <trkpt lat="47.25124" lon="4.96939">
        <ele>370.9</ele>
        <time>2013-04-03T08:21:24.000Z</time>
      </trkpt>
      <trkpt lat="47.25124" lon="4.96941">
        <ele>370.8</ele>
        <time>2013-04-03T08:21:25.000Z</time>
      </trkpt>
      <trkpt lat="47.25122" lon="4.96945">
        <ele>369.6</ele>
        <time>2013-04-03T08:21:30.000Z</time>
      </trkpt>
      <trkpt lat="47.25121" lon="4.96947">
        <ele>369.3</ele>
        <time>2013-04-03T08:21:31.000Z</time>
      </trkpt>
      <trkpt lat="47.25119" lon="4.96951">
        <ele>368.1</ele>
        <time>2013-04-03T08:21:33.000Z</time>
      </trkpt>
      <trkpt lat="47.25118" lon="4.96953">
        <ele>368.1</ele>
        <time>2013-04-03T08:21:34.000Z</time>
      </trkpt>
      <trkpt lat="47.25116" lon="4.96957">
        <ele>368.4</ele>
        <time>2013-04-03T08:21:36.000Z</time>
      </trkpt>
      <trkpt lat="47.25115" lon="4.96959">
        <ele>368.6</ele>
        <time>2013-04-03T08:21:37.000Z</time>
      </trkpt>
      <trkpt lat="47.25112" lon="4.96964">
        <ele>369.2</ele>
        <time>2013-04-03T08:21:39.000Z</time>
      </trkpt>
      <trkpt lat="47.25111" lon="4.96966">
        <ele>369.3</ele>
        <time>2013-04-03T08:21:40.000Z</time>
      </trkpt>
      <trkpt lat="47.25109" lon="4.9697">
        <ele>368.9</ele>
        <time>2013-04-03T08:21:42.000Z</time>
      </trkpt>
      <trkpt lat="47.25108" lon="4.96972">
        <ele>368.5</ele>
        <time>2013-04-03T08:21:43.000Z</time>
      </trkpt>
      <trkpt lat="47.25106" lon="4.96976">
        <ele>368.3</ele>
        <time>2013-04-03T08:21:45.000Z</time>
      </trkpt>
      <trkpt lat="47.25105" lon="4.96978">
        <ele>368.6</ele>
        <time>2013-04-03T08:21:46.000Z</time>
      </trkpt>
      <trkpt lat="47.25103" lon="4.96981">
        <ele>368.7</ele>
        <time>2013-04-03T08:21:48.000Z</time>
      </trkpt>
      <trkpt lat="47.25102" lon="4.96983">
        <ele>368.5</ele>
        <time>2013-04-03T08:21:49.000Z</time>
      </trkpt>
      <trkpt lat="47.25099" lon="4.96987">
        <ele>370</ele>
        <time>2013-04-03T08:21:51.000Z</time>
      </trkpt>
      <trkpt lat="47.25098" lon="4.96989">
        <ele>370.4</ele>
        <time>2013-04-03T08:21:52.000Z</time>
      </trkpt>
      <trkpt lat="47.25095" lon="4.96993">
        <ele>370.4</ele>
        <time>2013-04-03T08:21:54.000Z</time>
      </trkpt>
      <trkpt lat="47.25094" lon="4.96995">
        <ele>370.4</ele>
        <time>2013-04-03T08:21:55.000Z</time>
      </trkpt>
      <trkpt lat="47.25092" lon="4.96999">
        <ele>369.8</ele>
        <time>2013-04-03T08:21:57.000Z</time>
      </trkpt>
      <trkpt lat="47.25091" lon="4.97001">
        <ele>369</ele>
        <time>2013-04-03T08:21:58.000Z</time>
      </trkpt>
      <trkpt lat="47.25089" lon="4.97004">
        <ele>368.1</ele>
        <time>2013-04-03T08:22:00.000Z</time>
      </trkpt>
      <trkpt lat="47.25088" lon="4.97006">
        <ele>367.9</ele>
        <time>2013-04-03T08:22:01.000Z</time>
      </trkpt>
      <trkpt lat="47.25085" lon="4.9701">
        <ele>369.5</ele>
        <time>2013-04-03T08:22:03.000Z</time>
      </trkpt>
      <trkpt lat="47.25083" lon="4.97012">
        <ele>370</ele>
        <time>2013-04-03T08:22:04.000Z</time>
      </trkpt>
      <trkpt lat="47.2508" lon="4.97015">
        <ele>370.5</ele>
        <time>2013-04-03T08:22:06.000Z</time>
      </trkpt>
      <trkpt lat="47.25079" lon="4.97017">
        <ele>370.3</ele>
        <time>2013-04-03T08:22:07.000Z</time>
      </trkpt>
      <trkpt lat="47.25076" lon="4.97022">
        <ele>369.4</ele>
        <time>2013-04-03T08:22:11.000Z</time>
      </trkpt>
      <trkpt lat="47.25075" lon="4.97022">
        <ele>369.9</ele>
        <time>2013-04-03T08:22:12.000Z</time>
      </trkpt>
      <trkpt lat="47.25071" lon="4.97023">
        <ele>369</ele>
        <time>2013-04-03T08:22:14.000Z</time>
      </trkpt>
      <trkpt lat="47.2507" lon="4.97023">
        <ele>368.5</ele>
        <time>2013-04-03T08:22:15.000Z</time>
      </trkpt>
      <trkpt lat="47.25067" lon="4.97019">
        <ele>369.4</ele>
        <time>2013-04-03T08:22:19.000Z</time>
      </trkpt>
      <trkpt lat="47.25066" lon="4.97018">
        <ele>369.6</ele>
        <time>2013-04-03T08:22:20.000Z</time>
      </trkpt>
      <trkpt lat="47.25062" lon="4.97016">
        <ele>368.6</ele>
        <time>2013-04-03T08:22:23.000Z</time>
      </trkpt>
      <trkpt lat="47.25061" lon="4.97015">
        <ele>368.5</ele>
        <time>2013-04-03T08:22:24.000Z</time>
      </trkpt>
      <trkpt lat="47.25058" lon="4.9701">
        <ele>368.3</ele>
        <time>2013-04-03T08:22:28.000Z</time>
      </trkpt>
      <trkpt lat="47.25058" lon="4.9701">
        <ele>368.9</ele>
        <time>2013-04-03T08:22:29.000Z</time>
      </trkpt>
      <trkpt lat="47.25056" lon="4.97004">
        <ele>367.6</ele>
        <time>2013-04-03T08:22:33.000Z</time>
      </trkpt>
      <trkpt lat="47.25056" lon="4.97002">
        <ele>367.8</ele>
        <time>2013-04-03T08:22:34.000Z</time>
      </trkpt>
      <trkpt lat="47.25054" lon="4.96997">
        <ele>368.4</ele>
        <time>2013-04-03T08:22:37.000Z</time>
      </trkpt>
      <trkpt lat="47.25053" lon="4.96995">
        <ele>368</ele>
        <time>2013-04-03T08:22:38.000Z</time>
      </trkpt>
      <trkpt lat="47.25051" lon="4.9699">
        <ele>367.5</ele>
        <time>2013-04-03T08:22:42.000Z</time>
      </trkpt>
      <trkpt lat="47.25051" lon="4.96989">
        <ele>367.4</ele>
        <time>2013-04-03T08:22:43.000Z</time>
      </trkpt>
      <trkpt lat="47.25047" lon="4.96986">
        <ele>367.3</ele>
        <time>2013-04-03T08:22:47.000Z</time>
      </trkpt>
      <trkpt lat="47.25046" lon="4.96985">
        <ele>366.7</ele>
        <time>2013-04-03T08:22:48.000Z</time>
      </trkpt>
      <trkpt lat="47.25043" lon="4.96981">
        <ele>366</ele>
        <time>2013-04-03T08:22:52.000Z</time>
      </trkpt>
      <trkpt lat="47.25042" lon="4.9698">
        <ele>365.6</ele>
        <time>2013-04-03T08:22:53.000Z</time>
      </trkpt>
      <trkpt lat="47.25038" lon="4.96978">
        <ele>365.8</ele>
        <time>2013-04-03T08:22:56.000Z</time>
      </trkpt>
      <trkpt lat="47.25037" lon="4.96978">
        <ele>365.7</ele>
        <time>2013-04-03T08:22:57.000Z</time>
      </trkpt>
      <trkpt lat="47.25034" lon="4.96975">
        <ele>366.7</ele>
        <time>2013-04-03T08:23:00.000Z</time>
      </trkpt>
      <trkpt lat="47.25032" lon="4.96974">
        <ele>366.8</ele>
        <time>2013-04-03T08:23:01.000Z</time>
      </trkpt>
      <trkpt lat="47.2503" lon="4.9697">
        <ele>366.9</ele>
        <time>2013-04-03T08:23:03.000Z</time>
      </trkpt>
      <trkpt lat="47.25029" lon="4.96969">
        <ele>366.9</ele>
        <time>2013-04-03T08:23:04.000Z</time>
      </trkpt>
      <trkpt lat="47.25026" lon="4.96967">
        <ele>369</ele>
        <time>2013-04-03T08:23:06.000Z</time>
      </trkpt>
      <trkpt lat="47.25025" lon="4.96966">
        <ele>368.8</ele>
        <time>2013-04-03T08:23:07.000Z</time>
      </trkpt>
      <trkpt lat="47.25021" lon="4.96963">
        <ele>368.2</ele>
        <time>2013-04-03T08:23:10.000Z</time>
      </trkpt>
      <trkpt lat="47.2502" lon="4.96963">
        <ele>368</ele>
        <time>2013-04-03T08:23:11.000Z</time>
      </trkpt>
      <trkpt lat="47.25016" lon="4.9696">
        <ele>368</ele>
        <time>2013-04-03T08:23:14.000Z</time>
      </trkpt>
      <trkpt lat="47.25015" lon="4.9696">
        <ele>368.1</ele>
        <time>2013-04-03T08:23:15.000Z</time>
      </trkpt>
      <trkpt lat="47.25012" lon="4.96958">
        <ele>368.3</ele>
        <time>2013-04-03T08:23:17.000Z</time>
      </trkpt>
      <trkpt lat="47.2501" lon="4.96957">
        <ele>368.2</ele>
        <time>2013-04-03T08:23:18.000Z</time>
      </trkpt>
      <trkpt lat="47.25007" lon="4.96956">
        <ele>368.5</ele>
        <time>2013-04-03T08:23:20.000Z</time>
      </trkpt>
      <trkpt lat="47.25006" lon="4.96955">
        <ele>369</ele>
        <time>2013-04-03T08:23:21.000Z</time>
      </trkpt>
      <trkpt lat="47.25003" lon="4.96951">
        <ele>369.8</ele>
        <time>2013-04-03T08:23:24.000Z</time>
      </trkpt>
      <trkpt lat="47.25002" lon="4.9695">
        <ele>369.9</ele>
        <time>2013-04-03T08:23:25.000Z</time>
      </trkpt>
      <trkpt lat="47.25002" lon="4.96944">
        <ele>371</ele>
        <time>2013-04-03T08:23:28.000Z</time>
      </trkpt>
      <trkpt lat="47.25001" lon="4.96942">
        <ele>371</ele>
        <time>2013-04-03T08:23:29.000Z</time>
      </trkpt>
      <trkpt lat="47.25001" lon="4.96938">
        <ele>373.9</ele>
        <time>2013-04-03T08:23:31.000Z</time>
      </trkpt>
      <trkpt lat="47.25001" lon="4.96935">
        <ele>375.5</ele>
        <time>2013-04-03T08:23:32.000Z</time>
      </trkpt>
      <trkpt lat="47.25" lon="4.96931">
        <ele>376</ele>
        <time>2013-04-03T08:23:33.000Z</time>
      </trkpt>
      <trkpt lat="47.24999" lon="4.96927">
        <ele>379</ele>
        <time>2013-04-03T08:23:34.000Z</time>
      </trkpt>
      <trkpt lat="47.24998" lon="4.96922">
        <ele>379.3</ele>
        <time>2013-04-03T08:23:35.000Z</time>
      </trkpt>
      <trkpt lat="47.24998" lon="4.96919">
        <ele>377.3</ele>
        <time>2013-04-03T08:23:36.000Z</time>
      </trkpt>
      <trkpt lat="47.24996" lon="4.96913">
        <ele>372.3</ele>
        <time>2013-04-03T08:24:42.000Z</time>
      </trkpt>
      <trkpt lat="47.24996" lon="4.96912">
        <ele>372.8</ele>
        <time>2013-04-03T08:24:43.000Z</time>
      </trkpt>
      <trkpt lat="47.24994" lon="4.96906">
        <ele>373.4</ele>
        <time>2013-04-03T08:24:52.000Z</time>
      </trkpt>
      <trkpt lat="47.24994" lon="4.96906">
        <ele>373.5</ele>
        <time>2013-04-03T08:24:53.000Z</time>
      </trkpt>
      <trkpt lat="47.24993" lon="4.96905">
        <ele>373.7</ele>
        <time>2013-04-03T08:29:04.000Z</time>
      </trkpt>
    </trkseg>
  </trk>
</gpx>